<?xml version="1.0" encoding="UTF-8" standalone="no" ?>
<gpx xmlns="http://www.topografix.com/GPX/1/1" xmlns:xsi="http://www.w3.org/2001/XMLSchema-instance" xsi:schemaLocation="http://www.topografix.com/GPX/1/1 http://www.topografix.com/GPX/1/1/gpx.xsd" version="1.1" creator="VisuGPX - https://www.visugpx.com">
  <metadata>
    <name>SO-NE-St Léger St Pazanne Machecoul St Philbert La Chevrolière Pont St Martin St Aignan</name>
    <desc><![CDATA[SO-NE-St Léger St Pazanne Machecoul St Philbert La Chevrolière Pont St Martin St Aignan]]></desc>
  </metadata>
  <trk>
    <name><![CDATA[2022-06-28 09:30 GMT+2]]></name>
    <trkseg>
      <trkpt lat="47.1679" lon="-1.62663">
        <ele>73</ele>
        <time>2022-06-28T07:30:07.280Z</time>
      </trkpt>
      <trkpt lat="47.16782" lon="-1.62656">
        <ele>70</ele>
        <time>2022-06-28T07:30:57Z</time>
      </trkpt>
      <trkpt lat="47.16774" lon="-1.6265">
        <ele>69</ele>
        <time>2022-06-28T07:31:50Z</time>
      </trkpt>
      <trkpt lat="47.16777" lon="-1.62666">
        <ele>74</ele>
        <time>2022-06-28T07:33:17Z</time>
      </trkpt>
      <trkpt lat="47.16772" lon="-1.62677">
        <ele>74</ele>
        <time>2022-06-28T07:33:20Z</time>
      </trkpt>
      <trkpt lat="47.16762" lon="-1.62676">
        <ele>74</ele>
        <time>2022-06-28T07:33:22Z</time>
      </trkpt>
      <trkpt lat="47.16753" lon="-1.6267">
        <ele>73</ele>
        <time>2022-06-28T07:33:24Z</time>
      </trkpt>
      <trkpt lat="47.16742" lon="-1.62673">
        <ele>73</ele>
        <time>2022-06-28T07:33:26Z</time>
      </trkpt>
      <trkpt lat="47.16732" lon="-1.62682">
        <ele>74</ele>
        <time>2022-06-28T07:33:28Z</time>
      </trkpt>
      <trkpt lat="47.16724" lon="-1.62689">
        <ele>74</ele>
        <time>2022-06-28T07:33:30Z</time>
      </trkpt>
      <trkpt lat="47.16718" lon="-1.627">
        <ele>73</ele>
        <time>2022-06-28T07:33:32Z</time>
      </trkpt>
      <trkpt lat="47.16721" lon="-1.62714">
        <ele>73</ele>
        <time>2022-06-28T07:33:34Z</time>
      </trkpt>
      <trkpt lat="47.16728" lon="-1.62727">
        <ele>73</ele>
        <time>2022-06-28T07:33:36Z</time>
      </trkpt>
      <trkpt lat="47.16735" lon="-1.6274">
        <ele>73</ele>
        <time>2022-06-28T07:33:38Z</time>
      </trkpt>
      <trkpt lat="47.16744" lon="-1.62752">
        <ele>73</ele>
        <time>2022-06-28T07:33:40Z</time>
      </trkpt>
      <trkpt lat="47.16754" lon="-1.62763">
        <ele>73</ele>
        <time>2022-06-28T07:33:42Z</time>
      </trkpt>
      <trkpt lat="47.16765" lon="-1.62773">
        <ele>73</ele>
        <time>2022-06-28T07:33:44Z</time>
      </trkpt>
      <trkpt lat="47.16777" lon="-1.62783">
        <ele>73</ele>
        <time>2022-06-28T07:33:46Z</time>
      </trkpt>
      <trkpt lat="47.16788" lon="-1.62794">
        <ele>73</ele>
        <time>2022-06-28T07:33:48Z</time>
      </trkpt>
      <trkpt lat="47.168" lon="-1.62805">
        <ele>73</ele>
        <time>2022-06-28T07:33:50Z</time>
      </trkpt>
      <trkpt lat="47.16811" lon="-1.62815">
        <ele>74</ele>
        <time>2022-06-28T07:33:52Z</time>
      </trkpt>
      <trkpt lat="47.16822" lon="-1.62825">
        <ele>74</ele>
        <time>2022-06-28T07:33:54Z</time>
      </trkpt>
      <trkpt lat="47.16833" lon="-1.62836">
        <ele>75</ele>
        <time>2022-06-28T07:33:56Z</time>
      </trkpt>
      <trkpt lat="47.16844" lon="-1.62846">
        <ele>75</ele>
        <time>2022-06-28T07:33:58Z</time>
      </trkpt>
      <trkpt lat="47.16855" lon="-1.62857">
        <ele>75</ele>
        <time>2022-06-28T07:34:00Z</time>
      </trkpt>
      <trkpt lat="47.16865" lon="-1.62869">
        <ele>76</ele>
        <time>2022-06-28T07:34:02Z</time>
      </trkpt>
      <trkpt lat="47.16875" lon="-1.62882">
        <ele>76</ele>
        <time>2022-06-28T07:34:04Z</time>
      </trkpt>
      <trkpt lat="47.16882" lon="-1.62898">
        <ele>76</ele>
        <time>2022-06-28T07:34:06Z</time>
      </trkpt>
      <trkpt lat="47.16887" lon="-1.62916">
        <ele>77</ele>
        <time>2022-06-28T07:34:08Z</time>
      </trkpt>
      <trkpt lat="47.1689" lon="-1.62935">
        <ele>77</ele>
        <time>2022-06-28T07:34:10Z</time>
      </trkpt>
      <trkpt lat="47.16891" lon="-1.62955">
        <ele>77</ele>
        <time>2022-06-28T07:34:12Z</time>
      </trkpt>
      <trkpt lat="47.16891" lon="-1.62975">
        <ele>77</ele>
        <time>2022-06-28T07:34:14Z</time>
      </trkpt>
      <trkpt lat="47.16889" lon="-1.62994">
        <ele>77</ele>
        <time>2022-06-28T07:34:16Z</time>
      </trkpt>
      <trkpt lat="47.16887" lon="-1.63014">
        <ele>77</ele>
        <time>2022-06-28T07:34:18Z</time>
      </trkpt>
      <trkpt lat="47.16886" lon="-1.63033">
        <ele>78</ele>
        <time>2022-06-28T07:34:20Z</time>
      </trkpt>
      <trkpt lat="47.16887" lon="-1.63053">
        <ele>78</ele>
        <time>2022-06-28T07:34:22Z</time>
      </trkpt>
      <trkpt lat="47.16889" lon="-1.63072">
        <ele>78</ele>
        <time>2022-06-28T07:34:24Z</time>
      </trkpt>
      <trkpt lat="47.16892" lon="-1.6309">
        <ele>79</ele>
        <time>2022-06-28T07:34:26Z</time>
      </trkpt>
      <trkpt lat="47.16895" lon="-1.63109">
        <ele>79</ele>
        <time>2022-06-28T07:34:28Z</time>
      </trkpt>
      <trkpt lat="47.169" lon="-1.63127">
        <ele>78</ele>
        <time>2022-06-28T07:34:30Z</time>
      </trkpt>
      <trkpt lat="47.16905" lon="-1.63144">
        <ele>79</ele>
        <time>2022-06-28T07:34:32Z</time>
      </trkpt>
      <trkpt lat="47.16912" lon="-1.6316">
        <ele>79</ele>
        <time>2022-06-28T07:34:34Z</time>
      </trkpt>
      <trkpt lat="47.16919" lon="-1.63176">
        <ele>79</ele>
        <time>2022-06-28T07:34:36Z</time>
      </trkpt>
      <trkpt lat="47.16926" lon="-1.63191">
        <ele>79</ele>
        <time>2022-06-28T07:34:38Z</time>
      </trkpt>
      <trkpt lat="47.16934" lon="-1.63204">
        <ele>79</ele>
        <time>2022-06-28T07:34:40Z</time>
      </trkpt>
      <trkpt lat="47.16943" lon="-1.63217">
        <ele>79</ele>
        <time>2022-06-28T07:34:42Z</time>
      </trkpt>
      <trkpt lat="47.16952" lon="-1.63228">
        <ele>79</ele>
        <time>2022-06-28T07:34:44Z</time>
      </trkpt>
      <trkpt lat="47.1696" lon="-1.63239">
        <ele>79</ele>
        <time>2022-06-28T07:34:46Z</time>
      </trkpt>
      <trkpt lat="47.16968" lon="-1.63252">
        <ele>79</ele>
        <time>2022-06-28T07:34:49Z</time>
      </trkpt>
      <trkpt lat="47.16963" lon="-1.63264">
        <ele>79</ele>
        <time>2022-06-28T07:34:51Z</time>
      </trkpt>
      <trkpt lat="47.16956" lon="-1.63275">
        <ele>79</ele>
        <time>2022-06-28T07:34:53Z</time>
      </trkpt>
      <trkpt lat="47.16948" lon="-1.63289">
        <ele>79</ele>
        <time>2022-06-28T07:34:55Z</time>
      </trkpt>
      <trkpt lat="47.1694" lon="-1.63303">
        <ele>79</ele>
        <time>2022-06-28T07:34:57Z</time>
      </trkpt>
      <trkpt lat="47.16931" lon="-1.63316">
        <ele>80</ele>
        <time>2022-06-28T07:34:59Z</time>
      </trkpt>
      <trkpt lat="47.16922" lon="-1.63329">
        <ele>80</ele>
        <time>2022-06-28T07:35:01Z</time>
      </trkpt>
      <trkpt lat="47.16913" lon="-1.63343">
        <ele>80</ele>
        <time>2022-06-28T07:35:03Z</time>
      </trkpt>
      <trkpt lat="47.16904" lon="-1.63356">
        <ele>80</ele>
        <time>2022-06-28T07:35:05Z</time>
      </trkpt>
      <trkpt lat="47.16891" lon="-1.63376">
        <ele>79</ele>
        <time>2022-06-28T07:35:08Z</time>
      </trkpt>
      <trkpt lat="47.16882" lon="-1.63391">
        <ele>80</ele>
        <time>2022-06-28T07:35:10Z</time>
      </trkpt>
      <trkpt lat="47.16873" lon="-1.63405">
        <ele>80</ele>
        <time>2022-06-28T07:35:12Z</time>
      </trkpt>
      <trkpt lat="47.16865" lon="-1.63418">
        <ele>79</ele>
        <time>2022-06-28T07:35:14Z</time>
      </trkpt>
      <trkpt lat="47.16858" lon="-1.63434">
        <ele>79</ele>
        <time>2022-06-28T07:35:16Z</time>
      </trkpt>
      <trkpt lat="47.16849" lon="-1.63448">
        <ele>80</ele>
        <time>2022-06-28T07:35:18Z</time>
      </trkpt>
      <trkpt lat="47.16841" lon="-1.63462">
        <ele>80</ele>
        <time>2022-06-28T07:35:20Z</time>
      </trkpt>
      <trkpt lat="47.16833" lon="-1.63476">
        <ele>80</ele>
        <time>2022-06-28T07:35:22Z</time>
      </trkpt>
      <trkpt lat="47.16824" lon="-1.63491">
        <ele>80</ele>
        <time>2022-06-28T07:35:24Z</time>
      </trkpt>
      <trkpt lat="47.16816" lon="-1.63505">
        <ele>80</ele>
        <time>2022-06-28T07:35:26Z</time>
      </trkpt>
      <trkpt lat="47.16807" lon="-1.63519">
        <ele>81</ele>
        <time>2022-06-28T07:35:28Z</time>
      </trkpt>
      <trkpt lat="47.16799" lon="-1.63533">
        <ele>80</ele>
        <time>2022-06-28T07:35:30Z</time>
      </trkpt>
      <trkpt lat="47.16791" lon="-1.63547">
        <ele>80</ele>
        <time>2022-06-28T07:35:32Z</time>
      </trkpt>
      <trkpt lat="47.16782" lon="-1.63561">
        <ele>80</ele>
        <time>2022-06-28T07:35:34Z</time>
      </trkpt>
      <trkpt lat="47.16774" lon="-1.63575">
        <ele>80</ele>
        <time>2022-06-28T07:35:36Z</time>
      </trkpt>
      <trkpt lat="47.16766" lon="-1.63589">
        <ele>80</ele>
        <time>2022-06-28T07:35:38Z</time>
      </trkpt>
      <trkpt lat="47.16758" lon="-1.63603">
        <ele>80</ele>
        <time>2022-06-28T07:35:40Z</time>
      </trkpt>
      <trkpt lat="47.1675" lon="-1.63618">
        <ele>81</ele>
        <time>2022-06-28T07:35:42Z</time>
      </trkpt>
      <trkpt lat="47.16744" lon="-1.63632">
        <ele>81</ele>
        <time>2022-06-28T07:35:44Z</time>
      </trkpt>
      <trkpt lat="47.16749" lon="-1.63644">
        <ele>81</ele>
        <time>2022-06-28T07:35:46Z</time>
      </trkpt>
      <trkpt lat="47.16762" lon="-1.63648">
        <ele>81</ele>
        <time>2022-06-28T07:35:48Z</time>
      </trkpt>
      <trkpt lat="47.16775" lon="-1.63651">
        <ele>81</ele>
        <time>2022-06-28T07:35:50Z</time>
      </trkpt>
      <trkpt lat="47.16788" lon="-1.63655">
        <ele>82</ele>
        <time>2022-06-28T07:35:52Z</time>
      </trkpt>
      <trkpt lat="47.16801" lon="-1.6366">
        <ele>82</ele>
        <time>2022-06-28T07:35:54Z</time>
      </trkpt>
      <trkpt lat="47.16813" lon="-1.63666">
        <ele>82</ele>
        <time>2022-06-28T07:35:56Z</time>
      </trkpt>
      <trkpt lat="47.16826" lon="-1.6367">
        <ele>82</ele>
        <time>2022-06-28T07:35:58Z</time>
      </trkpt>
      <trkpt lat="47.16839" lon="-1.63675">
        <ele>83</ele>
        <time>2022-06-28T07:36:00Z</time>
      </trkpt>
      <trkpt lat="47.16852" lon="-1.63678">
        <ele>83</ele>
        <time>2022-06-28T07:36:02Z</time>
      </trkpt>
      <trkpt lat="47.16865" lon="-1.63683">
        <ele>83</ele>
        <time>2022-06-28T07:36:04Z</time>
      </trkpt>
      <trkpt lat="47.16878" lon="-1.63688">
        <ele>82</ele>
        <time>2022-06-28T07:36:06Z</time>
      </trkpt>
      <trkpt lat="47.16891" lon="-1.63693">
        <ele>82</ele>
        <time>2022-06-28T07:36:08Z</time>
      </trkpt>
      <trkpt lat="47.16904" lon="-1.63698">
        <ele>82</ele>
        <time>2022-06-28T07:36:10Z</time>
      </trkpt>
      <trkpt lat="47.16917" lon="-1.63704">
        <ele>82</ele>
        <time>2022-06-28T07:36:12Z</time>
      </trkpt>
      <trkpt lat="47.16931" lon="-1.63709">
        <ele>82</ele>
        <time>2022-06-28T07:36:14Z</time>
      </trkpt>
      <trkpt lat="47.16945" lon="-1.63714">
        <ele>83</ele>
        <time>2022-06-28T07:36:16Z</time>
      </trkpt>
      <trkpt lat="47.16958" lon="-1.63719">
        <ele>83</ele>
        <time>2022-06-28T07:36:18Z</time>
      </trkpt>
      <trkpt lat="47.16972" lon="-1.63723">
        <ele>83</ele>
        <time>2022-06-28T07:36:20Z</time>
      </trkpt>
      <trkpt lat="47.16986" lon="-1.63728">
        <ele>83</ele>
        <time>2022-06-28T07:36:22Z</time>
      </trkpt>
      <trkpt lat="47.16999" lon="-1.63733">
        <ele>83</ele>
        <time>2022-06-28T07:36:24Z</time>
      </trkpt>
      <trkpt lat="47.17012" lon="-1.63738">
        <ele>83</ele>
        <time>2022-06-28T07:36:26Z</time>
      </trkpt>
      <trkpt lat="47.17025" lon="-1.63743">
        <ele>83</ele>
        <time>2022-06-28T07:36:28Z</time>
      </trkpt>
      <trkpt lat="47.17038" lon="-1.63749">
        <ele>82</ele>
        <time>2022-06-28T07:36:30Z</time>
      </trkpt>
      <trkpt lat="47.1705" lon="-1.63756">
        <ele>83</ele>
        <time>2022-06-28T07:36:32Z</time>
      </trkpt>
      <trkpt lat="47.1706" lon="-1.63768">
        <ele>82</ele>
        <time>2022-06-28T07:36:34Z</time>
      </trkpt>
      <trkpt lat="47.17068" lon="-1.63785">
        <ele>82</ele>
        <time>2022-06-28T07:36:36Z</time>
      </trkpt>
      <trkpt lat="47.17074" lon="-1.63803">
        <ele>82</ele>
        <time>2022-06-28T07:36:38Z</time>
      </trkpt>
      <trkpt lat="47.17079" lon="-1.63821">
        <ele>81</ele>
        <time>2022-06-28T07:36:40Z</time>
      </trkpt>
      <trkpt lat="47.17085" lon="-1.63838">
        <ele>81</ele>
        <time>2022-06-28T07:36:42Z</time>
      </trkpt>
      <trkpt lat="47.1709" lon="-1.63856">
        <ele>81</ele>
        <time>2022-06-28T07:36:44Z</time>
      </trkpt>
      <trkpt lat="47.17096" lon="-1.63873">
        <ele>81</ele>
        <time>2022-06-28T07:36:46Z</time>
      </trkpt>
      <trkpt lat="47.17102" lon="-1.63891">
        <ele>80</ele>
        <time>2022-06-28T07:36:48Z</time>
      </trkpt>
      <trkpt lat="47.17109" lon="-1.63907">
        <ele>80</ele>
        <time>2022-06-28T07:36:50Z</time>
      </trkpt>
      <trkpt lat="47.17114" lon="-1.63923">
        <ele>80</ele>
        <time>2022-06-28T07:36:52Z</time>
      </trkpt>
      <trkpt lat="47.17122" lon="-1.63935">
        <ele>80</ele>
        <time>2022-06-28T07:36:54Z</time>
      </trkpt>
      <trkpt lat="47.1713" lon="-1.63942">
        <ele>80</ele>
        <time>2022-06-28T07:36:56Z</time>
      </trkpt>
      <trkpt lat="47.17138" lon="-1.63957">
        <ele>80</ele>
        <time>2022-06-28T07:36:59Z</time>
      </trkpt>
      <trkpt lat="47.17139" lon="-1.63973">
        <ele>80</ele>
        <time>2022-06-28T07:37:01Z</time>
      </trkpt>
      <trkpt lat="47.17138" lon="-1.63992">
        <ele>80</ele>
        <time>2022-06-28T07:37:03Z</time>
      </trkpt>
      <trkpt lat="47.17136" lon="-1.64011">
        <ele>80</ele>
        <time>2022-06-28T07:37:05Z</time>
      </trkpt>
      <trkpt lat="47.17134" lon="-1.6403">
        <ele>80</ele>
        <time>2022-06-28T07:37:07Z</time>
      </trkpt>
      <trkpt lat="47.17132" lon="-1.6405">
        <ele>80</ele>
        <time>2022-06-28T07:37:09Z</time>
      </trkpt>
      <trkpt lat="47.1713" lon="-1.64069">
        <ele>80</ele>
        <time>2022-06-28T07:37:11Z</time>
      </trkpt>
      <trkpt lat="47.17128" lon="-1.64089">
        <ele>80</ele>
        <time>2022-06-28T07:37:13Z</time>
      </trkpt>
      <trkpt lat="47.17125" lon="-1.64108">
        <ele>80</ele>
        <time>2022-06-28T07:37:15Z</time>
      </trkpt>
      <trkpt lat="47.17123" lon="-1.64128">
        <ele>81</ele>
        <time>2022-06-28T07:37:17Z</time>
      </trkpt>
      <trkpt lat="47.17121" lon="-1.64148">
        <ele>81</ele>
        <time>2022-06-28T07:37:19Z</time>
      </trkpt>
      <trkpt lat="47.1712" lon="-1.64167">
        <ele>81</ele>
        <time>2022-06-28T07:37:21Z</time>
      </trkpt>
      <trkpt lat="47.17117" lon="-1.64187">
        <ele>81</ele>
        <time>2022-06-28T07:37:23Z</time>
      </trkpt>
      <trkpt lat="47.17115" lon="-1.64207">
        <ele>81</ele>
        <time>2022-06-28T07:37:25Z</time>
      </trkpt>
      <trkpt lat="47.17112" lon="-1.64227">
        <ele>80</ele>
        <time>2022-06-28T07:37:27Z</time>
      </trkpt>
      <trkpt lat="47.1711" lon="-1.64246">
        <ele>80</ele>
        <time>2022-06-28T07:37:29Z</time>
      </trkpt>
      <trkpt lat="47.17109" lon="-1.64266">
        <ele>81</ele>
        <time>2022-06-28T07:37:31Z</time>
      </trkpt>
      <trkpt lat="47.17107" lon="-1.64285">
        <ele>81</ele>
        <time>2022-06-28T07:37:33Z</time>
      </trkpt>
      <trkpt lat="47.17105" lon="-1.64304">
        <ele>82</ele>
        <time>2022-06-28T07:37:35Z</time>
      </trkpt>
      <trkpt lat="47.17103" lon="-1.64324">
        <ele>82</ele>
        <time>2022-06-28T07:37:37Z</time>
      </trkpt>
      <trkpt lat="47.17101" lon="-1.64344">
        <ele>82</ele>
        <time>2022-06-28T07:37:39Z</time>
      </trkpt>
      <trkpt lat="47.17099" lon="-1.64363">
        <ele>81</ele>
        <time>2022-06-28T07:37:41Z</time>
      </trkpt>
      <trkpt lat="47.17097" lon="-1.64382">
        <ele>81</ele>
        <time>2022-06-28T07:37:43Z</time>
      </trkpt>
      <trkpt lat="47.17095" lon="-1.64403">
        <ele>81</ele>
        <time>2022-06-28T07:37:45Z</time>
      </trkpt>
      <trkpt lat="47.17094" lon="-1.64422">
        <ele>81</ele>
        <time>2022-06-28T07:37:47Z</time>
      </trkpt>
      <trkpt lat="47.17092" lon="-1.64442">
        <ele>81</ele>
        <time>2022-06-28T07:37:49Z</time>
      </trkpt>
      <trkpt lat="47.17091" lon="-1.64462">
        <ele>81</ele>
        <time>2022-06-28T07:37:51Z</time>
      </trkpt>
      <trkpt lat="47.1709" lon="-1.64483">
        <ele>81</ele>
        <time>2022-06-28T07:37:53Z</time>
      </trkpt>
      <trkpt lat="47.17089" lon="-1.64504">
        <ele>80</ele>
        <time>2022-06-28T07:37:55Z</time>
      </trkpt>
      <trkpt lat="47.17088" lon="-1.64524">
        <ele>81</ele>
        <time>2022-06-28T07:37:57Z</time>
      </trkpt>
      <trkpt lat="47.17087" lon="-1.64545">
        <ele>80</ele>
        <time>2022-06-28T07:37:59Z</time>
      </trkpt>
      <trkpt lat="47.17087" lon="-1.64567">
        <ele>80</ele>
        <time>2022-06-28T07:38:01Z</time>
      </trkpt>
      <trkpt lat="47.17087" lon="-1.64587">
        <ele>80</ele>
        <time>2022-06-28T07:38:03Z</time>
      </trkpt>
      <trkpt lat="47.17087" lon="-1.64608">
        <ele>79</ele>
        <time>2022-06-28T07:38:05Z</time>
      </trkpt>
      <trkpt lat="47.17087" lon="-1.64629">
        <ele>79</ele>
        <time>2022-06-28T07:38:07Z</time>
      </trkpt>
      <trkpt lat="47.17087" lon="-1.6466">
        <ele>79</ele>
        <time>2022-06-28T07:38:10Z</time>
      </trkpt>
      <trkpt lat="47.17088" lon="-1.64681">
        <ele>79</ele>
        <time>2022-06-28T07:38:12Z</time>
      </trkpt>
      <trkpt lat="47.17089" lon="-1.64702">
        <ele>79</ele>
        <time>2022-06-28T07:38:14Z</time>
      </trkpt>
      <trkpt lat="47.17089" lon="-1.64723">
        <ele>79</ele>
        <time>2022-06-28T07:38:16Z</time>
      </trkpt>
      <trkpt lat="47.1709" lon="-1.64744">
        <ele>78</ele>
        <time>2022-06-28T07:38:18Z</time>
      </trkpt>
      <trkpt lat="47.17091" lon="-1.64765">
        <ele>79</ele>
        <time>2022-06-28T07:38:20Z</time>
      </trkpt>
      <trkpt lat="47.17092" lon="-1.64786">
        <ele>79</ele>
        <time>2022-06-28T07:38:22Z</time>
      </trkpt>
      <trkpt lat="47.17093" lon="-1.64807">
        <ele>79</ele>
        <time>2022-06-28T07:38:24Z</time>
      </trkpt>
      <trkpt lat="47.17095" lon="-1.64828">
        <ele>78</ele>
        <time>2022-06-28T07:38:26Z</time>
      </trkpt>
      <trkpt lat="47.17096" lon="-1.64849">
        <ele>78</ele>
        <time>2022-06-28T07:38:28Z</time>
      </trkpt>
      <trkpt lat="47.17098" lon="-1.6487">
        <ele>78</ele>
        <time>2022-06-28T07:38:30Z</time>
      </trkpt>
      <trkpt lat="47.17099" lon="-1.64891">
        <ele>78</ele>
        <time>2022-06-28T07:38:32Z</time>
      </trkpt>
      <trkpt lat="47.171" lon="-1.64912">
        <ele>78</ele>
        <time>2022-06-28T07:38:34Z</time>
      </trkpt>
      <trkpt lat="47.17102" lon="-1.64932">
        <ele>78</ele>
        <time>2022-06-28T07:38:36Z</time>
      </trkpt>
      <trkpt lat="47.17104" lon="-1.64953">
        <ele>78</ele>
        <time>2022-06-28T07:38:38Z</time>
      </trkpt>
      <trkpt lat="47.17105" lon="-1.64973">
        <ele>78</ele>
        <time>2022-06-28T07:38:40Z</time>
      </trkpt>
      <trkpt lat="47.17107" lon="-1.64993">
        <ele>78</ele>
        <time>2022-06-28T07:38:42Z</time>
      </trkpt>
      <trkpt lat="47.17108" lon="-1.65013">
        <ele>78</ele>
        <time>2022-06-28T07:38:44Z</time>
      </trkpt>
      <trkpt lat="47.1711" lon="-1.65034">
        <ele>78</ele>
        <time>2022-06-28T07:38:46Z</time>
      </trkpt>
      <trkpt lat="47.17111" lon="-1.65054">
        <ele>78</ele>
        <time>2022-06-28T07:38:48Z</time>
      </trkpt>
      <trkpt lat="47.17113" lon="-1.65073">
        <ele>78</ele>
        <time>2022-06-28T07:38:50Z</time>
      </trkpt>
      <trkpt lat="47.17114" lon="-1.65093">
        <ele>78</ele>
        <time>2022-06-28T07:38:52Z</time>
      </trkpt>
      <trkpt lat="47.17115" lon="-1.65113">
        <ele>78</ele>
        <time>2022-06-28T07:38:54Z</time>
      </trkpt>
      <trkpt lat="47.17117" lon="-1.65133">
        <ele>78</ele>
        <time>2022-06-28T07:38:56Z</time>
      </trkpt>
      <trkpt lat="47.17118" lon="-1.65152">
        <ele>78</ele>
        <time>2022-06-28T07:38:58Z</time>
      </trkpt>
      <trkpt lat="47.1712" lon="-1.65172">
        <ele>79</ele>
        <time>2022-06-28T07:39:00Z</time>
      </trkpt>
      <trkpt lat="47.17121" lon="-1.65191">
        <ele>79</ele>
        <time>2022-06-28T07:39:02Z</time>
      </trkpt>
      <trkpt lat="47.17123" lon="-1.65211">
        <ele>79</ele>
        <time>2022-06-28T07:39:04Z</time>
      </trkpt>
      <trkpt lat="47.17124" lon="-1.65228">
        <ele>79</ele>
        <time>2022-06-28T07:39:06Z</time>
      </trkpt>
      <trkpt lat="47.17126" lon="-1.65245">
        <ele>79</ele>
        <time>2022-06-28T07:39:08Z</time>
      </trkpt>
      <trkpt lat="47.17129" lon="-1.65258">
        <ele>80</ele>
        <time>2022-06-28T07:39:10Z</time>
      </trkpt>
      <trkpt lat="47.17135" lon="-1.65269">
        <ele>80</ele>
        <time>2022-06-28T07:39:12Z</time>
      </trkpt>
      <trkpt lat="47.17139" lon="-1.65283">
        <ele>80</ele>
        <time>2022-06-28T07:39:14Z</time>
      </trkpt>
      <trkpt lat="47.1714" lon="-1.65298">
        <ele>80</ele>
        <time>2022-06-28T07:39:16Z</time>
      </trkpt>
      <trkpt lat="47.17138" lon="-1.65316">
        <ele>81</ele>
        <time>2022-06-28T07:39:18Z</time>
      </trkpt>
      <trkpt lat="47.17131" lon="-1.65331">
        <ele>81</ele>
        <time>2022-06-28T07:39:20Z</time>
      </trkpt>
      <trkpt lat="47.17121" lon="-1.65345">
        <ele>81</ele>
        <time>2022-06-28T07:39:22Z</time>
      </trkpt>
      <trkpt lat="47.17119" lon="-1.65365">
        <ele>81</ele>
        <time>2022-06-28T07:39:24Z</time>
      </trkpt>
      <trkpt lat="47.17119" lon="-1.65383">
        <ele>81</ele>
        <time>2022-06-28T07:39:26Z</time>
      </trkpt>
      <trkpt lat="47.17119" lon="-1.65401">
        <ele>81</ele>
        <time>2022-06-28T07:39:28Z</time>
      </trkpt>
      <trkpt lat="47.1712" lon="-1.65419">
        <ele>82</ele>
        <time>2022-06-28T07:39:30Z</time>
      </trkpt>
      <trkpt lat="47.17119" lon="-1.65435">
        <ele>82</ele>
        <time>2022-06-28T07:39:32Z</time>
      </trkpt>
      <trkpt lat="47.17119" lon="-1.65452">
        <ele>83</ele>
        <time>2022-06-28T07:39:34Z</time>
      </trkpt>
      <trkpt lat="47.17118" lon="-1.65469">
        <ele>84</ele>
        <time>2022-06-28T07:39:36Z</time>
      </trkpt>
      <trkpt lat="47.17115" lon="-1.65485">
        <ele>84</ele>
        <time>2022-06-28T07:39:38Z</time>
      </trkpt>
      <trkpt lat="47.17112" lon="-1.655">
        <ele>85</ele>
        <time>2022-06-28T07:39:40Z</time>
      </trkpt>
      <trkpt lat="47.17107" lon="-1.65515">
        <ele>86</ele>
        <time>2022-06-28T07:39:42Z</time>
      </trkpt>
      <trkpt lat="47.17101" lon="-1.6553">
        <ele>86</ele>
        <time>2022-06-28T07:39:44Z</time>
      </trkpt>
      <trkpt lat="47.17095" lon="-1.65544">
        <ele>86</ele>
        <time>2022-06-28T07:39:46Z</time>
      </trkpt>
      <trkpt lat="47.17088" lon="-1.65557">
        <ele>87</ele>
        <time>2022-06-28T07:39:48Z</time>
      </trkpt>
      <trkpt lat="47.1708" lon="-1.6557">
        <ele>87</ele>
        <time>2022-06-28T07:39:50Z</time>
      </trkpt>
      <trkpt lat="47.17073" lon="-1.65584">
        <ele>87</ele>
        <time>2022-06-28T07:39:52Z</time>
      </trkpt>
      <trkpt lat="47.17065" lon="-1.65598">
        <ele>87</ele>
        <time>2022-06-28T07:39:54Z</time>
      </trkpt>
      <trkpt lat="47.17057" lon="-1.65612">
        <ele>87</ele>
        <time>2022-06-28T07:39:56Z</time>
      </trkpt>
      <trkpt lat="47.17049" lon="-1.65627">
        <ele>87</ele>
        <time>2022-06-28T07:39:58Z</time>
      </trkpt>
      <trkpt lat="47.1704" lon="-1.65642">
        <ele>86</ele>
        <time>2022-06-28T07:40:00Z</time>
      </trkpt>
      <trkpt lat="47.17031" lon="-1.65659">
        <ele>85</ele>
        <time>2022-06-28T07:40:02Z</time>
      </trkpt>
      <trkpt lat="47.17023" lon="-1.65677">
        <ele>85</ele>
        <time>2022-06-28T07:40:04Z</time>
      </trkpt>
      <trkpt lat="47.17014" lon="-1.65695">
        <ele>85</ele>
        <time>2022-06-28T07:40:06Z</time>
      </trkpt>
      <trkpt lat="47.17007" lon="-1.65714">
        <ele>85</ele>
        <time>2022-06-28T07:40:08Z</time>
      </trkpt>
      <trkpt lat="47.17004" lon="-1.65736">
        <ele>85</ele>
        <time>2022-06-28T07:40:10Z</time>
      </trkpt>
      <trkpt lat="47.16999" lon="-1.65755">
        <ele>84</ele>
        <time>2022-06-28T07:40:12Z</time>
      </trkpt>
      <trkpt lat="47.16988" lon="-1.65769">
        <ele>84</ele>
        <time>2022-06-28T07:40:14Z</time>
      </trkpt>
      <trkpt lat="47.16974" lon="-1.65776">
        <ele>84</ele>
        <time>2022-06-28T07:40:16Z</time>
      </trkpt>
      <trkpt lat="47.16961" lon="-1.65788">
        <ele>84</ele>
        <time>2022-06-28T07:40:18Z</time>
      </trkpt>
      <trkpt lat="47.16951" lon="-1.65805">
        <ele>84</ele>
        <time>2022-06-28T07:40:20Z</time>
      </trkpt>
      <trkpt lat="47.16943" lon="-1.65824">
        <ele>83</ele>
        <time>2022-06-28T07:40:22Z</time>
      </trkpt>
      <trkpt lat="47.16934" lon="-1.65842">
        <ele>83</ele>
        <time>2022-06-28T07:40:24Z</time>
      </trkpt>
      <trkpt lat="47.16925" lon="-1.65859">
        <ele>82</ele>
        <time>2022-06-28T07:40:26Z</time>
      </trkpt>
      <trkpt lat="47.16916" lon="-1.65877">
        <ele>81</ele>
        <time>2022-06-28T07:40:28Z</time>
      </trkpt>
      <trkpt lat="47.16907" lon="-1.65894">
        <ele>81</ele>
        <time>2022-06-28T07:40:30Z</time>
      </trkpt>
      <trkpt lat="47.16898" lon="-1.65913">
        <ele>81</ele>
        <time>2022-06-28T07:40:32Z</time>
      </trkpt>
      <trkpt lat="47.1689" lon="-1.65931">
        <ele>80</ele>
        <time>2022-06-28T07:40:34Z</time>
      </trkpt>
      <trkpt lat="47.16882" lon="-1.65948">
        <ele>79</ele>
        <time>2022-06-28T07:40:36Z</time>
      </trkpt>
      <trkpt lat="47.16874" lon="-1.65967">
        <ele>79</ele>
        <time>2022-06-28T07:40:38Z</time>
      </trkpt>
      <trkpt lat="47.16868" lon="-1.65987">
        <ele>79</ele>
        <time>2022-06-28T07:40:40Z</time>
      </trkpt>
      <trkpt lat="47.16862" lon="-1.66007">
        <ele>80</ele>
        <time>2022-06-28T07:40:42Z</time>
      </trkpt>
      <trkpt lat="47.16857" lon="-1.66026">
        <ele>79</ele>
        <time>2022-06-28T07:40:44Z</time>
      </trkpt>
      <trkpt lat="47.16853" lon="-1.66047">
        <ele>79</ele>
        <time>2022-06-28T07:40:46Z</time>
      </trkpt>
      <trkpt lat="47.16849" lon="-1.66068">
        <ele>79</ele>
        <time>2022-06-28T07:40:48Z</time>
      </trkpt>
      <trkpt lat="47.16847" lon="-1.66089">
        <ele>79</ele>
        <time>2022-06-28T07:40:50Z</time>
      </trkpt>
      <trkpt lat="47.16845" lon="-1.66111">
        <ele>79</ele>
        <time>2022-06-28T07:40:52Z</time>
      </trkpt>
      <trkpt lat="47.16844" lon="-1.66132">
        <ele>79</ele>
        <time>2022-06-28T07:40:54Z</time>
      </trkpt>
      <trkpt lat="47.16844" lon="-1.66154">
        <ele>79</ele>
        <time>2022-06-28T07:40:56Z</time>
      </trkpt>
      <trkpt lat="47.16845" lon="-1.66176">
        <ele>79</ele>
        <time>2022-06-28T07:40:58Z</time>
      </trkpt>
      <trkpt lat="47.16846" lon="-1.66198">
        <ele>79</ele>
        <time>2022-06-28T07:41:00Z</time>
      </trkpt>
      <trkpt lat="47.16848" lon="-1.66219">
        <ele>79</ele>
        <time>2022-06-28T07:41:02Z</time>
      </trkpt>
      <trkpt lat="47.1685" lon="-1.66241">
        <ele>79</ele>
        <time>2022-06-28T07:41:04Z</time>
      </trkpt>
      <trkpt lat="47.16852" lon="-1.66261">
        <ele>79</ele>
        <time>2022-06-28T07:41:06Z</time>
      </trkpt>
      <trkpt lat="47.16853" lon="-1.66282">
        <ele>79</ele>
        <time>2022-06-28T07:41:08Z</time>
      </trkpt>
      <trkpt lat="47.16854" lon="-1.66303">
        <ele>79</ele>
        <time>2022-06-28T07:41:10Z</time>
      </trkpt>
      <trkpt lat="47.16856" lon="-1.66323">
        <ele>79</ele>
        <time>2022-06-28T07:41:12Z</time>
      </trkpt>
      <trkpt lat="47.16858" lon="-1.66344">
        <ele>79</ele>
        <time>2022-06-28T07:41:14Z</time>
      </trkpt>
      <trkpt lat="47.1686" lon="-1.66365">
        <ele>79</ele>
        <time>2022-06-28T07:41:16Z</time>
      </trkpt>
      <trkpt lat="47.16862" lon="-1.66386">
        <ele>80</ele>
        <time>2022-06-28T07:41:18Z</time>
      </trkpt>
      <trkpt lat="47.16864" lon="-1.66407">
        <ele>80</ele>
        <time>2022-06-28T07:41:20Z</time>
      </trkpt>
      <trkpt lat="47.16867" lon="-1.66428">
        <ele>79</ele>
        <time>2022-06-28T07:41:22Z</time>
      </trkpt>
      <trkpt lat="47.16869" lon="-1.66449">
        <ele>79</ele>
        <time>2022-06-28T07:41:24Z</time>
      </trkpt>
      <trkpt lat="47.16871" lon="-1.66469">
        <ele>79</ele>
        <time>2022-06-28T07:41:26Z</time>
      </trkpt>
      <trkpt lat="47.16874" lon="-1.6649">
        <ele>79</ele>
        <time>2022-06-28T07:41:28Z</time>
      </trkpt>
      <trkpt lat="47.16876" lon="-1.66509">
        <ele>80</ele>
        <time>2022-06-28T07:41:30Z</time>
      </trkpt>
      <trkpt lat="47.16877" lon="-1.66529">
        <ele>79</ele>
        <time>2022-06-28T07:41:32Z</time>
      </trkpt>
      <trkpt lat="47.1688" lon="-1.66551">
        <ele>79</ele>
        <time>2022-06-28T07:41:34Z</time>
      </trkpt>
      <trkpt lat="47.16883" lon="-1.66571">
        <ele>80</ele>
        <time>2022-06-28T07:41:36Z</time>
      </trkpt>
      <trkpt lat="47.16885" lon="-1.66591">
        <ele>80</ele>
        <time>2022-06-28T07:41:38Z</time>
      </trkpt>
      <trkpt lat="47.16887" lon="-1.66611">
        <ele>80</ele>
        <time>2022-06-28T07:41:40Z</time>
      </trkpt>
      <trkpt lat="47.1689" lon="-1.66631">
        <ele>79</ele>
        <time>2022-06-28T07:41:42Z</time>
      </trkpt>
      <trkpt lat="47.16891" lon="-1.66652">
        <ele>79</ele>
        <time>2022-06-28T07:41:44Z</time>
      </trkpt>
      <trkpt lat="47.16891" lon="-1.66673">
        <ele>79</ele>
        <time>2022-06-28T07:41:46Z</time>
      </trkpt>
      <trkpt lat="47.16888" lon="-1.66693">
        <ele>79</ele>
        <time>2022-06-28T07:41:48Z</time>
      </trkpt>
      <trkpt lat="47.16883" lon="-1.66714">
        <ele>79</ele>
        <time>2022-06-28T07:41:50Z</time>
      </trkpt>
      <trkpt lat="47.16877" lon="-1.66733">
        <ele>79</ele>
        <time>2022-06-28T07:41:52Z</time>
      </trkpt>
      <trkpt lat="47.16869" lon="-1.66751">
        <ele>79</ele>
        <time>2022-06-28T07:41:54Z</time>
      </trkpt>
      <trkpt lat="47.1686" lon="-1.66768">
        <ele>79</ele>
        <time>2022-06-28T07:41:56Z</time>
      </trkpt>
      <trkpt lat="47.16851" lon="-1.66785">
        <ele>79</ele>
        <time>2022-06-28T07:41:58Z</time>
      </trkpt>
      <trkpt lat="47.16842" lon="-1.66802">
        <ele>79</ele>
        <time>2022-06-28T07:42:00Z</time>
      </trkpt>
      <trkpt lat="47.16833" lon="-1.6682">
        <ele>79</ele>
        <time>2022-06-28T07:42:02Z</time>
      </trkpt>
      <trkpt lat="47.16825" lon="-1.66837">
        <ele>79</ele>
        <time>2022-06-28T07:42:04Z</time>
      </trkpt>
      <trkpt lat="47.16816" lon="-1.66855">
        <ele>78</ele>
        <time>2022-06-28T07:42:06Z</time>
      </trkpt>
      <trkpt lat="47.16806" lon="-1.66871">
        <ele>78</ele>
        <time>2022-06-28T07:42:08Z</time>
      </trkpt>
      <trkpt lat="47.16796" lon="-1.66885">
        <ele>78</ele>
        <time>2022-06-28T07:42:10Z</time>
      </trkpt>
      <trkpt lat="47.16784" lon="-1.66896">
        <ele>78</ele>
        <time>2022-06-28T07:42:12Z</time>
      </trkpt>
      <trkpt lat="47.16771" lon="-1.66906">
        <ele>79</ele>
        <time>2022-06-28T07:42:14Z</time>
      </trkpt>
      <trkpt lat="47.16758" lon="-1.66912">
        <ele>79</ele>
        <time>2022-06-28T07:42:16Z</time>
      </trkpt>
      <trkpt lat="47.16744" lon="-1.66917">
        <ele>79</ele>
        <time>2022-06-28T07:42:18Z</time>
      </trkpt>
      <trkpt lat="47.16731" lon="-1.66923">
        <ele>80</ele>
        <time>2022-06-28T07:42:20Z</time>
      </trkpt>
      <trkpt lat="47.16718" lon="-1.66927">
        <ele>80</ele>
        <time>2022-06-28T07:42:22Z</time>
      </trkpt>
      <trkpt lat="47.16705" lon="-1.66932">
        <ele>80</ele>
        <time>2022-06-28T07:42:24Z</time>
      </trkpt>
      <trkpt lat="47.16691" lon="-1.6694">
        <ele>81</ele>
        <time>2022-06-28T07:42:26Z</time>
      </trkpt>
      <trkpt lat="47.16679" lon="-1.6695">
        <ele>81</ele>
        <time>2022-06-28T07:42:28Z</time>
      </trkpt>
      <trkpt lat="47.16669" lon="-1.66967">
        <ele>81</ele>
        <time>2022-06-28T07:42:30Z</time>
      </trkpt>
      <trkpt lat="47.16662" lon="-1.66985">
        <ele>81</ele>
        <time>2022-06-28T07:42:32Z</time>
      </trkpt>
      <trkpt lat="47.16657" lon="-1.67006">
        <ele>80</ele>
        <time>2022-06-28T07:42:34Z</time>
      </trkpt>
      <trkpt lat="47.16653" lon="-1.67027">
        <ele>79</ele>
        <time>2022-06-28T07:42:36Z</time>
      </trkpt>
      <trkpt lat="47.16649" lon="-1.67047">
        <ele>79</ele>
        <time>2022-06-28T07:42:38Z</time>
      </trkpt>
      <trkpt lat="47.16645" lon="-1.67068">
        <ele>79</ele>
        <time>2022-06-28T07:42:40Z</time>
      </trkpt>
      <trkpt lat="47.16641" lon="-1.67088">
        <ele>79</ele>
        <time>2022-06-28T07:42:42Z</time>
      </trkpt>
      <trkpt lat="47.16637" lon="-1.67108">
        <ele>78</ele>
        <time>2022-06-28T07:42:44Z</time>
      </trkpt>
      <trkpt lat="47.16633" lon="-1.67128">
        <ele>78</ele>
        <time>2022-06-28T07:42:46Z</time>
      </trkpt>
      <trkpt lat="47.16629" lon="-1.67148">
        <ele>78</ele>
        <time>2022-06-28T07:42:48Z</time>
      </trkpt>
      <trkpt lat="47.16625" lon="-1.67167">
        <ele>78</ele>
        <time>2022-06-28T07:42:50Z</time>
      </trkpt>
      <trkpt lat="47.16622" lon="-1.67187">
        <ele>78</ele>
        <time>2022-06-28T07:42:52Z</time>
      </trkpt>
      <trkpt lat="47.16618" lon="-1.67205">
        <ele>78</ele>
        <time>2022-06-28T07:42:54Z</time>
      </trkpt>
      <trkpt lat="47.16614" lon="-1.67224">
        <ele>78</ele>
        <time>2022-06-28T07:42:56Z</time>
      </trkpt>
      <trkpt lat="47.16611" lon="-1.6724">
        <ele>78</ele>
        <time>2022-06-28T07:42:58Z</time>
      </trkpt>
      <trkpt lat="47.16608" lon="-1.67255">
        <ele>78</ele>
        <time>2022-06-28T07:43:00Z</time>
      </trkpt>
      <trkpt lat="47.16605" lon="-1.67268">
        <ele>78</ele>
        <time>2022-06-28T07:43:02Z</time>
      </trkpt>
      <trkpt lat="47.16598" lon="-1.67283">
        <ele>78</ele>
        <time>2022-06-28T07:43:04Z</time>
      </trkpt>
      <trkpt lat="47.16591" lon="-1.673">
        <ele>78</ele>
        <time>2022-06-28T07:43:06Z</time>
      </trkpt>
      <trkpt lat="47.16583" lon="-1.67317">
        <ele>78</ele>
        <time>2022-06-28T07:43:08Z</time>
      </trkpt>
      <trkpt lat="47.16575" lon="-1.67334">
        <ele>78</ele>
        <time>2022-06-28T07:43:10Z</time>
      </trkpt>
      <trkpt lat="47.16567" lon="-1.67352">
        <ele>78</ele>
        <time>2022-06-28T07:43:12Z</time>
      </trkpt>
      <trkpt lat="47.16558" lon="-1.67368">
        <ele>77</ele>
        <time>2022-06-28T07:43:14Z</time>
      </trkpt>
      <trkpt lat="47.16547" lon="-1.67384">
        <ele>77</ele>
        <time>2022-06-28T07:43:16Z</time>
      </trkpt>
      <trkpt lat="47.16537" lon="-1.67399">
        <ele>77</ele>
        <time>2022-06-28T07:43:18Z</time>
      </trkpt>
      <trkpt lat="47.16527" lon="-1.67414">
        <ele>77</ele>
        <time>2022-06-28T07:43:20Z</time>
      </trkpt>
      <trkpt lat="47.16518" lon="-1.67429">
        <ele>77</ele>
        <time>2022-06-28T07:43:22Z</time>
      </trkpt>
      <trkpt lat="47.16508" lon="-1.67444">
        <ele>77</ele>
        <time>2022-06-28T07:43:24Z</time>
      </trkpt>
      <trkpt lat="47.165" lon="-1.67461">
        <ele>77</ele>
        <time>2022-06-28T07:43:26Z</time>
      </trkpt>
      <trkpt lat="47.16491" lon="-1.67476">
        <ele>77</ele>
        <time>2022-06-28T07:43:28Z</time>
      </trkpt>
      <trkpt lat="47.16482" lon="-1.67491">
        <ele>77</ele>
        <time>2022-06-28T07:43:30Z</time>
      </trkpt>
      <trkpt lat="47.16473" lon="-1.67506">
        <ele>78</ele>
        <time>2022-06-28T07:43:32Z</time>
      </trkpt>
      <trkpt lat="47.16464" lon="-1.67522">
        <ele>77</ele>
        <time>2022-06-28T07:43:34Z</time>
      </trkpt>
      <trkpt lat="47.16455" lon="-1.67538">
        <ele>78</ele>
        <time>2022-06-28T07:43:36Z</time>
      </trkpt>
      <trkpt lat="47.16447" lon="-1.67554">
        <ele>77</ele>
        <time>2022-06-28T07:43:38Z</time>
      </trkpt>
      <trkpt lat="47.16438" lon="-1.67571">
        <ele>77</ele>
        <time>2022-06-28T07:43:40Z</time>
      </trkpt>
      <trkpt lat="47.16429" lon="-1.67588">
        <ele>77</ele>
        <time>2022-06-28T07:43:42Z</time>
      </trkpt>
      <trkpt lat="47.16421" lon="-1.67607">
        <ele>77</ele>
        <time>2022-06-28T07:43:44Z</time>
      </trkpt>
      <trkpt lat="47.16413" lon="-1.67625">
        <ele>77</ele>
        <time>2022-06-28T07:43:46Z</time>
      </trkpt>
      <trkpt lat="47.16404" lon="-1.67642">
        <ele>77</ele>
        <time>2022-06-28T07:43:48Z</time>
      </trkpt>
      <trkpt lat="47.16395" lon="-1.6766">
        <ele>77</ele>
        <time>2022-06-28T07:43:50Z</time>
      </trkpt>
      <trkpt lat="47.16387" lon="-1.67677">
        <ele>77</ele>
        <time>2022-06-28T07:43:52Z</time>
      </trkpt>
      <trkpt lat="47.16379" lon="-1.67693">
        <ele>77</ele>
        <time>2022-06-28T07:43:54Z</time>
      </trkpt>
      <trkpt lat="47.1637" lon="-1.67709">
        <ele>77</ele>
        <time>2022-06-28T07:43:56Z</time>
      </trkpt>
      <trkpt lat="47.16361" lon="-1.67725">
        <ele>77</ele>
        <time>2022-06-28T07:43:58Z</time>
      </trkpt>
      <trkpt lat="47.16352" lon="-1.6774">
        <ele>77</ele>
        <time>2022-06-28T07:44:00Z</time>
      </trkpt>
      <trkpt lat="47.16344" lon="-1.67756">
        <ele>77</ele>
        <time>2022-06-28T07:44:02Z</time>
      </trkpt>
      <trkpt lat="47.16335" lon="-1.67771">
        <ele>77</ele>
        <time>2022-06-28T07:44:04Z</time>
      </trkpt>
      <trkpt lat="47.16326" lon="-1.67787">
        <ele>77</ele>
        <time>2022-06-28T07:44:06Z</time>
      </trkpt>
      <trkpt lat="47.16317" lon="-1.67803">
        <ele>77</ele>
        <time>2022-06-28T07:44:08Z</time>
      </trkpt>
      <trkpt lat="47.16309" lon="-1.67818">
        <ele>77</ele>
        <time>2022-06-28T07:44:10Z</time>
      </trkpt>
      <trkpt lat="47.163" lon="-1.67834">
        <ele>77</ele>
        <time>2022-06-28T07:44:12Z</time>
      </trkpt>
      <trkpt lat="47.16292" lon="-1.67849">
        <ele>77</ele>
        <time>2022-06-28T07:44:14Z</time>
      </trkpt>
      <trkpt lat="47.16283" lon="-1.67865">
        <ele>77</ele>
        <time>2022-06-28T07:44:16Z</time>
      </trkpt>
      <trkpt lat="47.16274" lon="-1.67881">
        <ele>77</ele>
        <time>2022-06-28T07:44:18Z</time>
      </trkpt>
      <trkpt lat="47.16265" lon="-1.67896">
        <ele>78</ele>
        <time>2022-06-28T07:44:20Z</time>
      </trkpt>
      <trkpt lat="47.16257" lon="-1.67911">
        <ele>78</ele>
        <time>2022-06-28T07:44:22Z</time>
      </trkpt>
      <trkpt lat="47.16247" lon="-1.67926">
        <ele>78</ele>
        <time>2022-06-28T07:44:24Z</time>
      </trkpt>
      <trkpt lat="47.16238" lon="-1.67941">
        <ele>78</ele>
        <time>2022-06-28T07:44:26Z</time>
      </trkpt>
      <trkpt lat="47.16229" lon="-1.67956">
        <ele>78</ele>
        <time>2022-06-28T07:44:28Z</time>
      </trkpt>
      <trkpt lat="47.16223" lon="-1.67973">
        <ele>78</ele>
        <time>2022-06-28T07:44:30Z</time>
      </trkpt>
      <trkpt lat="47.16216" lon="-1.6799">
        <ele>77</ele>
        <time>2022-06-28T07:44:32Z</time>
      </trkpt>
      <trkpt lat="47.16203" lon="-1.67997">
        <ele>78</ele>
        <time>2022-06-28T07:44:34Z</time>
      </trkpt>
      <trkpt lat="47.16192" lon="-1.68008">
        <ele>78</ele>
        <time>2022-06-28T07:44:36Z</time>
      </trkpt>
      <trkpt lat="47.16183" lon="-1.68023">
        <ele>78</ele>
        <time>2022-06-28T07:44:38Z</time>
      </trkpt>
      <trkpt lat="47.16173" lon="-1.68037">
        <ele>78</ele>
        <time>2022-06-28T07:44:40Z</time>
      </trkpt>
      <trkpt lat="47.16164" lon="-1.68051">
        <ele>78</ele>
        <time>2022-06-28T07:44:42Z</time>
      </trkpt>
      <trkpt lat="47.16154" lon="-1.68065">
        <ele>77</ele>
        <time>2022-06-28T07:44:44Z</time>
      </trkpt>
      <trkpt lat="47.16147" lon="-1.68082">
        <ele>77</ele>
        <time>2022-06-28T07:44:46Z</time>
      </trkpt>
      <trkpt lat="47.16141" lon="-1.68099">
        <ele>77</ele>
        <time>2022-06-28T07:44:48Z</time>
      </trkpt>
      <trkpt lat="47.16136" lon="-1.68117">
        <ele>76</ele>
        <time>2022-06-28T07:44:50Z</time>
      </trkpt>
      <trkpt lat="47.16132" lon="-1.68136">
        <ele>76</ele>
        <time>2022-06-28T07:44:52Z</time>
      </trkpt>
      <trkpt lat="47.16128" lon="-1.68155">
        <ele>76</ele>
        <time>2022-06-28T07:44:54Z</time>
      </trkpt>
      <trkpt lat="47.16123" lon="-1.68174">
        <ele>75</ele>
        <time>2022-06-28T07:44:56Z</time>
      </trkpt>
      <trkpt lat="47.16118" lon="-1.68193">
        <ele>75</ele>
        <time>2022-06-28T07:44:58Z</time>
      </trkpt>
      <trkpt lat="47.16114" lon="-1.68213">
        <ele>75</ele>
        <time>2022-06-28T07:45:00Z</time>
      </trkpt>
      <trkpt lat="47.1611" lon="-1.68233">
        <ele>75</ele>
        <time>2022-06-28T07:45:02Z</time>
      </trkpt>
      <trkpt lat="47.16105" lon="-1.68253">
        <ele>74</ele>
        <time>2022-06-28T07:45:04Z</time>
      </trkpt>
      <trkpt lat="47.16101" lon="-1.68274">
        <ele>73</ele>
        <time>2022-06-28T07:45:06Z</time>
      </trkpt>
      <trkpt lat="47.16097" lon="-1.68296">
        <ele>73</ele>
        <time>2022-06-28T07:45:08Z</time>
      </trkpt>
      <trkpt lat="47.16093" lon="-1.68318">
        <ele>72</ele>
        <time>2022-06-28T07:45:10Z</time>
      </trkpt>
      <trkpt lat="47.16089" lon="-1.6834">
        <ele>73</ele>
        <time>2022-06-28T07:45:12Z</time>
      </trkpt>
      <trkpt lat="47.16086" lon="-1.68362">
        <ele>73</ele>
        <time>2022-06-28T07:45:14Z</time>
      </trkpt>
      <trkpt lat="47.16082" lon="-1.68382">
        <ele>74</ele>
        <time>2022-06-28T07:45:16Z</time>
      </trkpt>
      <trkpt lat="47.16078" lon="-1.68402">
        <ele>74</ele>
        <time>2022-06-28T07:45:18Z</time>
      </trkpt>
      <trkpt lat="47.16075" lon="-1.68421">
        <ele>74</ele>
        <time>2022-06-28T07:45:20Z</time>
      </trkpt>
      <trkpt lat="47.16071" lon="-1.6844">
        <ele>75</ele>
        <time>2022-06-28T07:45:22Z</time>
      </trkpt>
      <trkpt lat="47.16065" lon="-1.68468">
        <ele>76</ele>
        <time>2022-06-28T07:45:25Z</time>
      </trkpt>
      <trkpt lat="47.16062" lon="-1.68488">
        <ele>76</ele>
        <time>2022-06-28T07:45:27Z</time>
      </trkpt>
      <trkpt lat="47.16058" lon="-1.68518">
        <ele>75</ele>
        <time>2022-06-28T07:45:30Z</time>
      </trkpt>
      <trkpt lat="47.16053" lon="-1.68548">
        <ele>75</ele>
        <time>2022-06-28T07:45:33Z</time>
      </trkpt>
      <trkpt lat="47.1605" lon="-1.68567">
        <ele>76</ele>
        <time>2022-06-28T07:45:35Z</time>
      </trkpt>
      <trkpt lat="47.16047" lon="-1.68597">
        <ele>76</ele>
        <time>2022-06-28T07:45:38Z</time>
      </trkpt>
      <trkpt lat="47.16045" lon="-1.68617">
        <ele>76</ele>
        <time>2022-06-28T07:45:40Z</time>
      </trkpt>
      <trkpt lat="47.16043" lon="-1.68637">
        <ele>75</ele>
        <time>2022-06-28T07:45:42Z</time>
      </trkpt>
      <trkpt lat="47.16042" lon="-1.68656">
        <ele>75</ele>
        <time>2022-06-28T07:45:44Z</time>
      </trkpt>
      <trkpt lat="47.16043" lon="-1.68676">
        <ele>75</ele>
        <time>2022-06-28T07:45:46Z</time>
      </trkpt>
      <trkpt lat="47.16043" lon="-1.68696">
        <ele>75</ele>
        <time>2022-06-28T07:45:48Z</time>
      </trkpt>
      <trkpt lat="47.16045" lon="-1.68716">
        <ele>75</ele>
        <time>2022-06-28T07:45:50Z</time>
      </trkpt>
      <trkpt lat="47.16048" lon="-1.68735">
        <ele>76</ele>
        <time>2022-06-28T07:45:52Z</time>
      </trkpt>
      <trkpt lat="47.16051" lon="-1.68753">
        <ele>76</ele>
        <time>2022-06-28T07:45:54Z</time>
      </trkpt>
      <trkpt lat="47.16055" lon="-1.68771">
        <ele>77</ele>
        <time>2022-06-28T07:45:56Z</time>
      </trkpt>
      <trkpt lat="47.1606" lon="-1.68789">
        <ele>77</ele>
        <time>2022-06-28T07:45:58Z</time>
      </trkpt>
      <trkpt lat="47.16065" lon="-1.68806">
        <ele>77</ele>
        <time>2022-06-28T07:46:00Z</time>
      </trkpt>
      <trkpt lat="47.16071" lon="-1.68823">
        <ele>77</ele>
        <time>2022-06-28T07:46:02Z</time>
      </trkpt>
      <trkpt lat="47.16075" lon="-1.68841">
        <ele>77</ele>
        <time>2022-06-28T07:46:04Z</time>
      </trkpt>
      <trkpt lat="47.1608" lon="-1.68858">
        <ele>77</ele>
        <time>2022-06-28T07:46:06Z</time>
      </trkpt>
      <trkpt lat="47.16085" lon="-1.68876">
        <ele>77</ele>
        <time>2022-06-28T07:46:08Z</time>
      </trkpt>
      <trkpt lat="47.1609" lon="-1.68893">
        <ele>76</ele>
        <time>2022-06-28T07:46:10Z</time>
      </trkpt>
      <trkpt lat="47.16095" lon="-1.68912">
        <ele>76</ele>
        <time>2022-06-28T07:46:12Z</time>
      </trkpt>
      <trkpt lat="47.16101" lon="-1.68931">
        <ele>76</ele>
        <time>2022-06-28T07:46:14Z</time>
      </trkpt>
      <trkpt lat="47.16106" lon="-1.6895">
        <ele>75</ele>
        <time>2022-06-28T07:46:16Z</time>
      </trkpt>
      <trkpt lat="47.16112" lon="-1.68969">
        <ele>74</ele>
        <time>2022-06-28T07:46:18Z</time>
      </trkpt>
      <trkpt lat="47.16118" lon="-1.6899">
        <ele>74</ele>
        <time>2022-06-28T07:46:20Z</time>
      </trkpt>
      <trkpt lat="47.16124" lon="-1.6901">
        <ele>74</ele>
        <time>2022-06-28T07:46:22Z</time>
      </trkpt>
      <trkpt lat="47.16129" lon="-1.69033">
        <ele>73</ele>
        <time>2022-06-28T07:46:24Z</time>
      </trkpt>
      <trkpt lat="47.16134" lon="-1.69055">
        <ele>73</ele>
        <time>2022-06-28T07:46:26Z</time>
      </trkpt>
      <trkpt lat="47.16137" lon="-1.69079">
        <ele>73</ele>
        <time>2022-06-28T07:46:28Z</time>
      </trkpt>
      <trkpt lat="47.16139" lon="-1.69103">
        <ele>72</ele>
        <time>2022-06-28T07:46:30Z</time>
      </trkpt>
      <trkpt lat="47.16141" lon="-1.69127">
        <ele>72</ele>
        <time>2022-06-28T07:46:32Z</time>
      </trkpt>
      <trkpt lat="47.16142" lon="-1.69151">
        <ele>72</ele>
        <time>2022-06-28T07:46:34Z</time>
      </trkpt>
      <trkpt lat="47.16142" lon="-1.69174">
        <ele>71</ele>
        <time>2022-06-28T07:46:36Z</time>
      </trkpt>
      <trkpt lat="47.16141" lon="-1.69199">
        <ele>71</ele>
        <time>2022-06-28T07:46:38Z</time>
      </trkpt>
      <trkpt lat="47.16139" lon="-1.69222">
        <ele>71</ele>
        <time>2022-06-28T07:46:40Z</time>
      </trkpt>
      <trkpt lat="47.16138" lon="-1.69245">
        <ele>71</ele>
        <time>2022-06-28T07:46:42Z</time>
      </trkpt>
      <trkpt lat="47.16135" lon="-1.69268">
        <ele>70</ele>
        <time>2022-06-28T07:46:44Z</time>
      </trkpt>
      <trkpt lat="47.16133" lon="-1.69289">
        <ele>71</ele>
        <time>2022-06-28T07:46:46Z</time>
      </trkpt>
      <trkpt lat="47.1613" lon="-1.6931">
        <ele>72</ele>
        <time>2022-06-28T07:46:48Z</time>
      </trkpt>
      <trkpt lat="47.16126" lon="-1.6933">
        <ele>72</ele>
        <time>2022-06-28T07:46:50Z</time>
      </trkpt>
      <trkpt lat="47.16123" lon="-1.69351">
        <ele>71</ele>
        <time>2022-06-28T07:46:52Z</time>
      </trkpt>
      <trkpt lat="47.16121" lon="-1.6937">
        <ele>72</ele>
        <time>2022-06-28T07:46:54Z</time>
      </trkpt>
      <trkpt lat="47.16119" lon="-1.69391">
        <ele>72</ele>
        <time>2022-06-28T07:46:56Z</time>
      </trkpt>
      <trkpt lat="47.16118" lon="-1.69411">
        <ele>72</ele>
        <time>2022-06-28T07:46:58Z</time>
      </trkpt>
      <trkpt lat="47.16116" lon="-1.69431">
        <ele>72</ele>
        <time>2022-06-28T07:47:00Z</time>
      </trkpt>
      <trkpt lat="47.16115" lon="-1.69451">
        <ele>72</ele>
        <time>2022-06-28T07:47:02Z</time>
      </trkpt>
      <trkpt lat="47.16113" lon="-1.69471">
        <ele>72</ele>
        <time>2022-06-28T07:47:04Z</time>
      </trkpt>
      <trkpt lat="47.16111" lon="-1.6949">
        <ele>72</ele>
        <time>2022-06-28T07:47:06Z</time>
      </trkpt>
      <trkpt lat="47.1611" lon="-1.6951">
        <ele>72</ele>
        <time>2022-06-28T07:47:08Z</time>
      </trkpt>
      <trkpt lat="47.16108" lon="-1.69529">
        <ele>71</ele>
        <time>2022-06-28T07:47:10Z</time>
      </trkpt>
      <trkpt lat="47.16107" lon="-1.69549">
        <ele>71</ele>
        <time>2022-06-28T07:47:12Z</time>
      </trkpt>
      <trkpt lat="47.16105" lon="-1.69569">
        <ele>71</ele>
        <time>2022-06-28T07:47:14Z</time>
      </trkpt>
      <trkpt lat="47.16103" lon="-1.69589">
        <ele>71</ele>
        <time>2022-06-28T07:47:16Z</time>
      </trkpt>
      <trkpt lat="47.16102" lon="-1.69608">
        <ele>71</ele>
        <time>2022-06-28T07:47:18Z</time>
      </trkpt>
      <trkpt lat="47.16101" lon="-1.69628">
        <ele>72</ele>
        <time>2022-06-28T07:47:20Z</time>
      </trkpt>
      <trkpt lat="47.161" lon="-1.69647">
        <ele>72</ele>
        <time>2022-06-28T07:47:22Z</time>
      </trkpt>
      <trkpt lat="47.16098" lon="-1.69667">
        <ele>72</ele>
        <time>2022-06-28T07:47:24Z</time>
      </trkpt>
      <trkpt lat="47.16097" lon="-1.69687">
        <ele>72</ele>
        <time>2022-06-28T07:47:26Z</time>
      </trkpt>
      <trkpt lat="47.16095" lon="-1.69708">
        <ele>72</ele>
        <time>2022-06-28T07:47:28Z</time>
      </trkpt>
      <trkpt lat="47.16094" lon="-1.69728">
        <ele>72</ele>
        <time>2022-06-28T07:47:30Z</time>
      </trkpt>
      <trkpt lat="47.16092" lon="-1.69748">
        <ele>72</ele>
        <time>2022-06-28T07:47:32Z</time>
      </trkpt>
      <trkpt lat="47.16091" lon="-1.69768">
        <ele>72</ele>
        <time>2022-06-28T07:47:34Z</time>
      </trkpt>
      <trkpt lat="47.1609" lon="-1.69788">
        <ele>73</ele>
        <time>2022-06-28T07:47:36Z</time>
      </trkpt>
      <trkpt lat="47.16089" lon="-1.69809">
        <ele>73</ele>
        <time>2022-06-28T07:47:38Z</time>
      </trkpt>
      <trkpt lat="47.16088" lon="-1.69829">
        <ele>73</ele>
        <time>2022-06-28T07:47:40Z</time>
      </trkpt>
      <trkpt lat="47.16086" lon="-1.69849">
        <ele>74</ele>
        <time>2022-06-28T07:47:42Z</time>
      </trkpt>
      <trkpt lat="47.16085" lon="-1.69869">
        <ele>74</ele>
        <time>2022-06-28T07:47:44Z</time>
      </trkpt>
      <trkpt lat="47.16084" lon="-1.69889">
        <ele>74</ele>
        <time>2022-06-28T07:47:46Z</time>
      </trkpt>
      <trkpt lat="47.16082" lon="-1.69909">
        <ele>74</ele>
        <time>2022-06-28T07:47:48Z</time>
      </trkpt>
      <trkpt lat="47.1608" lon="-1.69928">
        <ele>74</ele>
        <time>2022-06-28T07:47:50Z</time>
      </trkpt>
      <trkpt lat="47.16079" lon="-1.69949">
        <ele>74</ele>
        <time>2022-06-28T07:47:52Z</time>
      </trkpt>
      <trkpt lat="47.16077" lon="-1.69969">
        <ele>74</ele>
        <time>2022-06-28T07:47:54Z</time>
      </trkpt>
      <trkpt lat="47.16076" lon="-1.6999">
        <ele>73</ele>
        <time>2022-06-28T07:47:56Z</time>
      </trkpt>
      <trkpt lat="47.16075" lon="-1.70009">
        <ele>73</ele>
        <time>2022-06-28T07:47:58Z</time>
      </trkpt>
      <trkpt lat="47.16074" lon="-1.7003">
        <ele>73</ele>
        <time>2022-06-28T07:48:00Z</time>
      </trkpt>
      <trkpt lat="47.16072" lon="-1.7005">
        <ele>74</ele>
        <time>2022-06-28T07:48:02Z</time>
      </trkpt>
      <trkpt lat="47.16071" lon="-1.7007">
        <ele>73</ele>
        <time>2022-06-28T07:48:04Z</time>
      </trkpt>
      <trkpt lat="47.16069" lon="-1.70091">
        <ele>73</ele>
        <time>2022-06-28T07:48:06Z</time>
      </trkpt>
      <trkpt lat="47.16066" lon="-1.7011">
        <ele>73</ele>
        <time>2022-06-28T07:48:08Z</time>
      </trkpt>
      <trkpt lat="47.16063" lon="-1.7013">
        <ele>74</ele>
        <time>2022-06-28T07:48:10Z</time>
      </trkpt>
      <trkpt lat="47.16058" lon="-1.70148">
        <ele>74</ele>
        <time>2022-06-28T07:48:12Z</time>
      </trkpt>
      <trkpt lat="47.16051" lon="-1.70166">
        <ele>74</ele>
        <time>2022-06-28T07:48:14Z</time>
      </trkpt>
      <trkpt lat="47.16043" lon="-1.70183">
        <ele>74</ele>
        <time>2022-06-28T07:48:16Z</time>
      </trkpt>
      <trkpt lat="47.16036" lon="-1.702">
        <ele>74</ele>
        <time>2022-06-28T07:48:18Z</time>
      </trkpt>
      <trkpt lat="47.16029" lon="-1.70216">
        <ele>74</ele>
        <time>2022-06-28T07:48:20Z</time>
      </trkpt>
      <trkpt lat="47.16022" lon="-1.70233">
        <ele>74</ele>
        <time>2022-06-28T07:48:22Z</time>
      </trkpt>
      <trkpt lat="47.16015" lon="-1.70249">
        <ele>74</ele>
        <time>2022-06-28T07:48:24Z</time>
      </trkpt>
      <trkpt lat="47.16008" lon="-1.70265">
        <ele>74</ele>
        <time>2022-06-28T07:48:26Z</time>
      </trkpt>
      <trkpt lat="47.16001" lon="-1.70281">
        <ele>74</ele>
        <time>2022-06-28T07:48:28Z</time>
      </trkpt>
      <trkpt lat="47.15993" lon="-1.70299">
        <ele>74</ele>
        <time>2022-06-28T07:48:30Z</time>
      </trkpt>
      <trkpt lat="47.15986" lon="-1.70316">
        <ele>74</ele>
        <time>2022-06-28T07:48:32Z</time>
      </trkpt>
      <trkpt lat="47.15977" lon="-1.70334">
        <ele>73</ele>
        <time>2022-06-28T07:48:34Z</time>
      </trkpt>
      <trkpt lat="47.15969" lon="-1.70351">
        <ele>73</ele>
        <time>2022-06-28T07:48:36Z</time>
      </trkpt>
      <trkpt lat="47.15962" lon="-1.70368">
        <ele>73</ele>
        <time>2022-06-28T07:48:38Z</time>
      </trkpt>
      <trkpt lat="47.15954" lon="-1.70385">
        <ele>73</ele>
        <time>2022-06-28T07:48:40Z</time>
      </trkpt>
      <trkpt lat="47.15947" lon="-1.70402">
        <ele>74</ele>
        <time>2022-06-28T07:48:42Z</time>
      </trkpt>
      <trkpt lat="47.1594" lon="-1.70419">
        <ele>74</ele>
        <time>2022-06-28T07:48:44Z</time>
      </trkpt>
      <trkpt lat="47.15932" lon="-1.70436">
        <ele>74</ele>
        <time>2022-06-28T07:48:46Z</time>
      </trkpt>
      <trkpt lat="47.15924" lon="-1.70453">
        <ele>74</ele>
        <time>2022-06-28T07:48:48Z</time>
      </trkpt>
      <trkpt lat="47.15916" lon="-1.7047">
        <ele>74</ele>
        <time>2022-06-28T07:48:50Z</time>
      </trkpt>
      <trkpt lat="47.15907" lon="-1.70487">
        <ele>73</ele>
        <time>2022-06-28T07:48:52Z</time>
      </trkpt>
      <trkpt lat="47.15899" lon="-1.70504">
        <ele>73</ele>
        <time>2022-06-28T07:48:54Z</time>
      </trkpt>
      <trkpt lat="47.15893" lon="-1.70522">
        <ele>73</ele>
        <time>2022-06-28T07:48:56Z</time>
      </trkpt>
      <trkpt lat="47.15887" lon="-1.70542">
        <ele>73</ele>
        <time>2022-06-28T07:48:58Z</time>
      </trkpt>
      <trkpt lat="47.15882" lon="-1.7056">
        <ele>73</ele>
        <time>2022-06-28T07:49:00Z</time>
      </trkpt>
      <trkpt lat="47.15876" lon="-1.70579">
        <ele>73</ele>
        <time>2022-06-28T07:49:02Z</time>
      </trkpt>
      <trkpt lat="47.15871" lon="-1.70597">
        <ele>73</ele>
        <time>2022-06-28T07:49:04Z</time>
      </trkpt>
      <trkpt lat="47.15865" lon="-1.70616">
        <ele>73</ele>
        <time>2022-06-28T07:49:06Z</time>
      </trkpt>
      <trkpt lat="47.1586" lon="-1.70634">
        <ele>73</ele>
        <time>2022-06-28T07:49:08Z</time>
      </trkpt>
      <trkpt lat="47.15853" lon="-1.70653">
        <ele>73</ele>
        <time>2022-06-28T07:49:10Z</time>
      </trkpt>
      <trkpt lat="47.15847" lon="-1.7067">
        <ele>73</ele>
        <time>2022-06-28T07:49:12Z</time>
      </trkpt>
      <trkpt lat="47.15839" lon="-1.70687">
        <ele>73</ele>
        <time>2022-06-28T07:49:14Z</time>
      </trkpt>
      <trkpt lat="47.15832" lon="-1.70703">
        <ele>73</ele>
        <time>2022-06-28T07:49:16Z</time>
      </trkpt>
      <trkpt lat="47.15825" lon="-1.70719">
        <ele>73</ele>
        <time>2022-06-28T07:49:18Z</time>
      </trkpt>
      <trkpt lat="47.15818" lon="-1.70735">
        <ele>74</ele>
        <time>2022-06-28T07:49:20Z</time>
      </trkpt>
      <trkpt lat="47.1581" lon="-1.70751">
        <ele>74</ele>
        <time>2022-06-28T07:49:22Z</time>
      </trkpt>
      <trkpt lat="47.15803" lon="-1.70767">
        <ele>74</ele>
        <time>2022-06-28T07:49:24Z</time>
      </trkpt>
      <trkpt lat="47.15795" lon="-1.70784">
        <ele>74</ele>
        <time>2022-06-28T07:49:26Z</time>
      </trkpt>
      <trkpt lat="47.15787" lon="-1.708">
        <ele>74</ele>
        <time>2022-06-28T07:49:28Z</time>
      </trkpt>
      <trkpt lat="47.15779" lon="-1.70816">
        <ele>74</ele>
        <time>2022-06-28T07:49:30Z</time>
      </trkpt>
      <trkpt lat="47.1577" lon="-1.70832">
        <ele>74</ele>
        <time>2022-06-28T07:49:32Z</time>
      </trkpt>
      <trkpt lat="47.15762" lon="-1.70848">
        <ele>74</ele>
        <time>2022-06-28T07:49:34Z</time>
      </trkpt>
      <trkpt lat="47.15754" lon="-1.70864">
        <ele>74</ele>
        <time>2022-06-28T07:49:36Z</time>
      </trkpt>
      <trkpt lat="47.15745" lon="-1.7088">
        <ele>74</ele>
        <time>2022-06-28T07:49:38Z</time>
      </trkpt>
      <trkpt lat="47.15737" lon="-1.70895">
        <ele>74</ele>
        <time>2022-06-28T07:49:40Z</time>
      </trkpt>
      <trkpt lat="47.15727" lon="-1.70911">
        <ele>74</ele>
        <time>2022-06-28T07:49:42Z</time>
      </trkpt>
      <trkpt lat="47.15719" lon="-1.70926">
        <ele>74</ele>
        <time>2022-06-28T07:49:44Z</time>
      </trkpt>
      <trkpt lat="47.1571" lon="-1.70942">
        <ele>74</ele>
        <time>2022-06-28T07:49:46Z</time>
      </trkpt>
      <trkpt lat="47.15702" lon="-1.70959">
        <ele>74</ele>
        <time>2022-06-28T07:49:48Z</time>
      </trkpt>
      <trkpt lat="47.15695" lon="-1.70975">
        <ele>74</ele>
        <time>2022-06-28T07:49:50Z</time>
      </trkpt>
      <trkpt lat="47.15687" lon="-1.70992">
        <ele>74</ele>
        <time>2022-06-28T07:49:52Z</time>
      </trkpt>
      <trkpt lat="47.15679" lon="-1.71009">
        <ele>74</ele>
        <time>2022-06-28T07:49:54Z</time>
      </trkpt>
      <trkpt lat="47.15671" lon="-1.71026">
        <ele>74</ele>
        <time>2022-06-28T07:49:56Z</time>
      </trkpt>
      <trkpt lat="47.15664" lon="-1.71041">
        <ele>74</ele>
        <time>2022-06-28T07:49:58Z</time>
      </trkpt>
      <trkpt lat="47.15658" lon="-1.71056">
        <ele>74</ele>
        <time>2022-06-28T07:50:00Z</time>
      </trkpt>
      <trkpt lat="47.15652" lon="-1.71067">
        <ele>74</ele>
        <time>2022-06-28T07:50:02Z</time>
      </trkpt>
      <trkpt lat="47.15642" lon="-1.7107">
        <ele>73</ele>
        <time>2022-06-28T07:50:04Z</time>
      </trkpt>
      <trkpt lat="47.15631" lon="-1.71078">
        <ele>73</ele>
        <time>2022-06-28T07:50:06Z</time>
      </trkpt>
      <trkpt lat="47.15622" lon="-1.71092">
        <ele>74</ele>
        <time>2022-06-28T07:50:08Z</time>
      </trkpt>
      <trkpt lat="47.15614" lon="-1.71109">
        <ele>74</ele>
        <time>2022-06-28T07:50:10Z</time>
      </trkpt>
      <trkpt lat="47.15606" lon="-1.71125">
        <ele>74</ele>
        <time>2022-06-28T07:50:12Z</time>
      </trkpt>
      <trkpt lat="47.15598" lon="-1.7114">
        <ele>74</ele>
        <time>2022-06-28T07:50:14Z</time>
      </trkpt>
      <trkpt lat="47.15589" lon="-1.71154">
        <ele>74</ele>
        <time>2022-06-28T07:50:16Z</time>
      </trkpt>
      <trkpt lat="47.1558" lon="-1.71168">
        <ele>74</ele>
        <time>2022-06-28T07:50:18Z</time>
      </trkpt>
      <trkpt lat="47.15571" lon="-1.71184">
        <ele>74</ele>
        <time>2022-06-28T07:50:20Z</time>
      </trkpt>
      <trkpt lat="47.15562" lon="-1.71199">
        <ele>74</ele>
        <time>2022-06-28T07:50:22Z</time>
      </trkpt>
      <trkpt lat="47.15554" lon="-1.71216">
        <ele>74</ele>
        <time>2022-06-28T07:50:24Z</time>
      </trkpt>
      <trkpt lat="47.15546" lon="-1.71232">
        <ele>74</ele>
        <time>2022-06-28T07:50:26Z</time>
      </trkpt>
      <trkpt lat="47.15539" lon="-1.71249">
        <ele>74</ele>
        <time>2022-06-28T07:50:28Z</time>
      </trkpt>
      <trkpt lat="47.15532" lon="-1.71266">
        <ele>73</ele>
        <time>2022-06-28T07:50:30Z</time>
      </trkpt>
      <trkpt lat="47.15526" lon="-1.71283">
        <ele>73</ele>
        <time>2022-06-28T07:50:32Z</time>
      </trkpt>
      <trkpt lat="47.15518" lon="-1.713">
        <ele>73</ele>
        <time>2022-06-28T07:50:34Z</time>
      </trkpt>
      <trkpt lat="47.1551" lon="-1.71316">
        <ele>74</ele>
        <time>2022-06-28T07:50:36Z</time>
      </trkpt>
      <trkpt lat="47.15502" lon="-1.71333">
        <ele>74</ele>
        <time>2022-06-28T07:50:38Z</time>
      </trkpt>
      <trkpt lat="47.15493" lon="-1.71348">
        <ele>74</ele>
        <time>2022-06-28T07:50:40Z</time>
      </trkpt>
      <trkpt lat="47.15483" lon="-1.71363">
        <ele>74</ele>
        <time>2022-06-28T07:50:42Z</time>
      </trkpt>
      <trkpt lat="47.15472" lon="-1.71377">
        <ele>73</ele>
        <time>2022-06-28T07:50:44Z</time>
      </trkpt>
      <trkpt lat="47.15462" lon="-1.7139">
        <ele>73</ele>
        <time>2022-06-28T07:50:46Z</time>
      </trkpt>
      <trkpt lat="47.1545" lon="-1.71401">
        <ele>74</ele>
        <time>2022-06-28T07:50:48Z</time>
      </trkpt>
      <trkpt lat="47.1544" lon="-1.71412">
        <ele>74</ele>
        <time>2022-06-28T07:50:50Z</time>
      </trkpt>
      <trkpt lat="47.15428" lon="-1.71424">
        <ele>74</ele>
        <time>2022-06-28T07:50:52Z</time>
      </trkpt>
      <trkpt lat="47.15417" lon="-1.71435">
        <ele>75</ele>
        <time>2022-06-28T07:50:54Z</time>
      </trkpt>
      <trkpt lat="47.15406" lon="-1.71445">
        <ele>74</ele>
        <time>2022-06-28T07:50:56Z</time>
      </trkpt>
      <trkpt lat="47.15394" lon="-1.71455">
        <ele>74</ele>
        <time>2022-06-28T07:50:58Z</time>
      </trkpt>
      <trkpt lat="47.15382" lon="-1.71464">
        <ele>74</ele>
        <time>2022-06-28T07:51:00Z</time>
      </trkpt>
      <trkpt lat="47.1537" lon="-1.71475">
        <ele>74</ele>
        <time>2022-06-28T07:51:02Z</time>
      </trkpt>
      <trkpt lat="47.15359" lon="-1.71486">
        <ele>73</ele>
        <time>2022-06-28T07:51:04Z</time>
      </trkpt>
      <trkpt lat="47.15347" lon="-1.71498">
        <ele>73</ele>
        <time>2022-06-28T07:51:06Z</time>
      </trkpt>
      <trkpt lat="47.15335" lon="-1.7151">
        <ele>73</ele>
        <time>2022-06-28T07:51:08Z</time>
      </trkpt>
      <trkpt lat="47.15324" lon="-1.71522">
        <ele>73</ele>
        <time>2022-06-28T07:51:10Z</time>
      </trkpt>
      <trkpt lat="47.15313" lon="-1.71535">
        <ele>72</ele>
        <time>2022-06-28T07:51:12Z</time>
      </trkpt>
      <trkpt lat="47.15301" lon="-1.71547">
        <ele>71</ele>
        <time>2022-06-28T07:51:14Z</time>
      </trkpt>
      <trkpt lat="47.1529" lon="-1.7156">
        <ele>71</ele>
        <time>2022-06-28T07:51:16Z</time>
      </trkpt>
      <trkpt lat="47.15279" lon="-1.71572">
        <ele>71</ele>
        <time>2022-06-28T07:51:18Z</time>
      </trkpt>
      <trkpt lat="47.15268" lon="-1.71584">
        <ele>70</ele>
        <time>2022-06-28T07:51:20Z</time>
      </trkpt>
      <trkpt lat="47.15257" lon="-1.71597">
        <ele>69</ele>
        <time>2022-06-28T07:51:22Z</time>
      </trkpt>
      <trkpt lat="47.15247" lon="-1.71611">
        <ele>69</ele>
        <time>2022-06-28T07:51:24Z</time>
      </trkpt>
      <trkpt lat="47.15237" lon="-1.71624">
        <ele>68</ele>
        <time>2022-06-28T07:51:26Z</time>
      </trkpt>
      <trkpt lat="47.15223" lon="-1.7162">
        <ele>68</ele>
        <time>2022-06-28T07:51:28Z</time>
      </trkpt>
      <trkpt lat="47.1521" lon="-1.71612">
        <ele>68</ele>
        <time>2022-06-28T07:51:30Z</time>
      </trkpt>
      <trkpt lat="47.15197" lon="-1.71602">
        <ele>68</ele>
        <time>2022-06-28T07:51:32Z</time>
      </trkpt>
      <trkpt lat="47.15185" lon="-1.71593">
        <ele>68</ele>
        <time>2022-06-28T07:51:34Z</time>
      </trkpt>
      <trkpt lat="47.15171" lon="-1.71584">
        <ele>68</ele>
        <time>2022-06-28T07:51:36Z</time>
      </trkpt>
      <trkpt lat="47.15158" lon="-1.71574">
        <ele>68</ele>
        <time>2022-06-28T07:51:38Z</time>
      </trkpt>
      <trkpt lat="47.15145" lon="-1.71564">
        <ele>68</ele>
        <time>2022-06-28T07:51:40Z</time>
      </trkpt>
      <trkpt lat="47.15133" lon="-1.71554">
        <ele>68</ele>
        <time>2022-06-28T07:51:42Z</time>
      </trkpt>
      <trkpt lat="47.15121" lon="-1.71544">
        <ele>68</ele>
        <time>2022-06-28T07:51:44Z</time>
      </trkpt>
      <trkpt lat="47.15109" lon="-1.71534">
        <ele>68</ele>
        <time>2022-06-28T07:51:46Z</time>
      </trkpt>
      <trkpt lat="47.15097" lon="-1.71525">
        <ele>68</ele>
        <time>2022-06-28T07:51:48Z</time>
      </trkpt>
      <trkpt lat="47.15086" lon="-1.71515">
        <ele>69</ele>
        <time>2022-06-28T07:51:50Z</time>
      </trkpt>
      <trkpt lat="47.15075" lon="-1.71504">
        <ele>69</ele>
        <time>2022-06-28T07:51:52Z</time>
      </trkpt>
      <trkpt lat="47.15065" lon="-1.71494">
        <ele>70</ele>
        <time>2022-06-28T07:51:54Z</time>
      </trkpt>
      <trkpt lat="47.15055" lon="-1.71483">
        <ele>70</ele>
        <time>2022-06-28T07:51:56Z</time>
      </trkpt>
      <trkpt lat="47.15045" lon="-1.71472">
        <ele>70</ele>
        <time>2022-06-28T07:51:58Z</time>
      </trkpt>
      <trkpt lat="47.15034" lon="-1.71461">
        <ele>70</ele>
        <time>2022-06-28T07:52:00Z</time>
      </trkpt>
      <trkpt lat="47.15024" lon="-1.71451">
        <ele>70</ele>
        <time>2022-06-28T07:52:02Z</time>
      </trkpt>
      <trkpt lat="47.15014" lon="-1.71441">
        <ele>71</ele>
        <time>2022-06-28T07:52:04Z</time>
      </trkpt>
      <trkpt lat="47.15004" lon="-1.71431">
        <ele>71</ele>
        <time>2022-06-28T07:52:06Z</time>
      </trkpt>
      <trkpt lat="47.14994" lon="-1.71421">
        <ele>71</ele>
        <time>2022-06-28T07:52:08Z</time>
      </trkpt>
      <trkpt lat="47.14984" lon="-1.71411">
        <ele>71</ele>
        <time>2022-06-28T07:52:10Z</time>
      </trkpt>
      <trkpt lat="47.14974" lon="-1.71401">
        <ele>72</ele>
        <time>2022-06-28T07:52:12Z</time>
      </trkpt>
      <trkpt lat="47.14964" lon="-1.7139">
        <ele>72</ele>
        <time>2022-06-28T07:52:14Z</time>
      </trkpt>
      <trkpt lat="47.14954" lon="-1.7138">
        <ele>72</ele>
        <time>2022-06-28T07:52:16Z</time>
      </trkpt>
      <trkpt lat="47.14944" lon="-1.7137">
        <ele>72</ele>
        <time>2022-06-28T07:52:18Z</time>
      </trkpt>
      <trkpt lat="47.14935" lon="-1.71358">
        <ele>72</ele>
        <time>2022-06-28T07:52:20Z</time>
      </trkpt>
      <trkpt lat="47.14925" lon="-1.71346">
        <ele>72</ele>
        <time>2022-06-28T07:52:22Z</time>
      </trkpt>
      <trkpt lat="47.14916" lon="-1.71335">
        <ele>72</ele>
        <time>2022-06-28T07:52:24Z</time>
      </trkpt>
      <trkpt lat="47.14907" lon="-1.71323">
        <ele>72</ele>
        <time>2022-06-28T07:52:26Z</time>
      </trkpt>
      <trkpt lat="47.14898" lon="-1.71312">
        <ele>73</ele>
        <time>2022-06-28T07:52:28Z</time>
      </trkpt>
      <trkpt lat="47.14889" lon="-1.71301">
        <ele>73</ele>
        <time>2022-06-28T07:52:30Z</time>
      </trkpt>
      <trkpt lat="47.14878" lon="-1.71292">
        <ele>73</ele>
        <time>2022-06-28T07:52:32Z</time>
      </trkpt>
      <trkpt lat="47.14867" lon="-1.71282">
        <ele>73</ele>
        <time>2022-06-28T07:52:34Z</time>
      </trkpt>
      <trkpt lat="47.14857" lon="-1.71272">
        <ele>73</ele>
        <time>2022-06-28T07:52:36Z</time>
      </trkpt>
      <trkpt lat="47.14848" lon="-1.71259">
        <ele>73</ele>
        <time>2022-06-28T07:52:38Z</time>
      </trkpt>
      <trkpt lat="47.14842" lon="-1.71243">
        <ele>73</ele>
        <time>2022-06-28T07:52:40Z</time>
      </trkpt>
      <trkpt lat="47.14836" lon="-1.71226">
        <ele>73</ele>
        <time>2022-06-28T07:52:42Z</time>
      </trkpt>
      <trkpt lat="47.14829" lon="-1.71209">
        <ele>72</ele>
        <time>2022-06-28T07:52:44Z</time>
      </trkpt>
      <trkpt lat="47.14824" lon="-1.71193">
        <ele>72</ele>
        <time>2022-06-28T07:52:46Z</time>
      </trkpt>
      <trkpt lat="47.14818" lon="-1.71177">
        <ele>72</ele>
        <time>2022-06-28T07:52:48Z</time>
      </trkpt>
      <trkpt lat="47.14812" lon="-1.71161">
        <ele>72</ele>
        <time>2022-06-28T07:52:50Z</time>
      </trkpt>
      <trkpt lat="47.14806" lon="-1.71145">
        <ele>72</ele>
        <time>2022-06-28T07:52:52Z</time>
      </trkpt>
      <trkpt lat="47.14799" lon="-1.71129">
        <ele>72</ele>
        <time>2022-06-28T07:52:54Z</time>
      </trkpt>
      <trkpt lat="47.14791" lon="-1.71113">
        <ele>72</ele>
        <time>2022-06-28T07:52:56Z</time>
      </trkpt>
      <trkpt lat="47.14785" lon="-1.71097">
        <ele>72</ele>
        <time>2022-06-28T07:52:58Z</time>
      </trkpt>
      <trkpt lat="47.14778" lon="-1.71082">
        <ele>72</ele>
        <time>2022-06-28T07:53:00Z</time>
      </trkpt>
      <trkpt lat="47.14771" lon="-1.71066">
        <ele>72</ele>
        <time>2022-06-28T07:53:02Z</time>
      </trkpt>
      <trkpt lat="47.14766" lon="-1.7105">
        <ele>72</ele>
        <time>2022-06-28T07:53:04Z</time>
      </trkpt>
      <trkpt lat="47.14761" lon="-1.71033">
        <ele>71</ele>
        <time>2022-06-28T07:53:06Z</time>
      </trkpt>
      <trkpt lat="47.14755" lon="-1.71015">
        <ele>71</ele>
        <time>2022-06-28T07:53:08Z</time>
      </trkpt>
      <trkpt lat="47.14751" lon="-1.70998">
        <ele>71</ele>
        <time>2022-06-28T07:53:10Z</time>
      </trkpt>
      <trkpt lat="47.14745" lon="-1.70983">
        <ele>71</ele>
        <time>2022-06-28T07:53:12Z</time>
      </trkpt>
      <trkpt lat="47.14733" lon="-1.70982">
        <ele>71</ele>
        <time>2022-06-28T07:53:14Z</time>
      </trkpt>
      <trkpt lat="47.14724" lon="-1.70994">
        <ele>71</ele>
        <time>2022-06-28T07:53:16Z</time>
      </trkpt>
      <trkpt lat="47.14716" lon="-1.71008">
        <ele>70</ele>
        <time>2022-06-28T07:53:18Z</time>
      </trkpt>
      <trkpt lat="47.14711" lon="-1.71026">
        <ele>70</ele>
        <time>2022-06-28T07:53:20Z</time>
      </trkpt>
      <trkpt lat="47.1471" lon="-1.71045">
        <ele>70</ele>
        <time>2022-06-28T07:53:22Z</time>
      </trkpt>
      <trkpt lat="47.14711" lon="-1.71065">
        <ele>70</ele>
        <time>2022-06-28T07:53:24Z</time>
      </trkpt>
      <trkpt lat="47.14714" lon="-1.71084">
        <ele>70</ele>
        <time>2022-06-28T07:53:26Z</time>
      </trkpt>
      <trkpt lat="47.14717" lon="-1.71103">
        <ele>71</ele>
        <time>2022-06-28T07:53:28Z</time>
      </trkpt>
      <trkpt lat="47.1472" lon="-1.71122">
        <ele>71</ele>
        <time>2022-06-28T07:53:30Z</time>
      </trkpt>
      <trkpt lat="47.14722" lon="-1.71141">
        <ele>71</ele>
        <time>2022-06-28T07:53:32Z</time>
      </trkpt>
      <trkpt lat="47.14725" lon="-1.71159">
        <ele>72</ele>
        <time>2022-06-28T07:53:34Z</time>
      </trkpt>
      <trkpt lat="47.14729" lon="-1.71177">
        <ele>72</ele>
        <time>2022-06-28T07:53:36Z</time>
      </trkpt>
      <trkpt lat="47.14734" lon="-1.71196">
        <ele>73</ele>
        <time>2022-06-28T07:53:38Z</time>
      </trkpt>
      <trkpt lat="47.14738" lon="-1.71214">
        <ele>73</ele>
        <time>2022-06-28T07:53:40Z</time>
      </trkpt>
      <trkpt lat="47.14743" lon="-1.71232">
        <ele>74</ele>
        <time>2022-06-28T07:53:42Z</time>
      </trkpt>
      <trkpt lat="47.14748" lon="-1.71249">
        <ele>74</ele>
        <time>2022-06-28T07:53:44Z</time>
      </trkpt>
      <trkpt lat="47.14753" lon="-1.71267">
        <ele>74</ele>
        <time>2022-06-28T07:53:46Z</time>
      </trkpt>
      <trkpt lat="47.14756" lon="-1.71285">
        <ele>74</ele>
        <time>2022-06-28T07:53:48Z</time>
      </trkpt>
      <trkpt lat="47.14759" lon="-1.71303">
        <ele>74</ele>
        <time>2022-06-28T07:53:50Z</time>
      </trkpt>
      <trkpt lat="47.14763" lon="-1.71322">
        <ele>74</ele>
        <time>2022-06-28T07:53:52Z</time>
      </trkpt>
      <trkpt lat="47.14767" lon="-1.71341">
        <ele>74</ele>
        <time>2022-06-28T07:53:54Z</time>
      </trkpt>
      <trkpt lat="47.14769" lon="-1.71358">
        <ele>74</ele>
        <time>2022-06-28T07:53:56Z</time>
      </trkpt>
      <trkpt lat="47.14772" lon="-1.71377">
        <ele>75</ele>
        <time>2022-06-28T07:53:58Z</time>
      </trkpt>
      <trkpt lat="47.14775" lon="-1.71395">
        <ele>75</ele>
        <time>2022-06-28T07:54:00Z</time>
      </trkpt>
      <trkpt lat="47.14777" lon="-1.71414">
        <ele>75</ele>
        <time>2022-06-28T07:54:02Z</time>
      </trkpt>
      <trkpt lat="47.1478" lon="-1.71432">
        <ele>75</ele>
        <time>2022-06-28T07:54:04Z</time>
      </trkpt>
      <trkpt lat="47.14783" lon="-1.71451">
        <ele>75</ele>
        <time>2022-06-28T07:54:06Z</time>
      </trkpt>
      <trkpt lat="47.14786" lon="-1.71469">
        <ele>75</ele>
        <time>2022-06-28T07:54:08Z</time>
      </trkpt>
      <trkpt lat="47.14788" lon="-1.71487">
        <ele>75</ele>
        <time>2022-06-28T07:54:10Z</time>
      </trkpt>
      <trkpt lat="47.1479" lon="-1.71506">
        <ele>75</ele>
        <time>2022-06-28T07:54:12Z</time>
      </trkpt>
      <trkpt lat="47.14792" lon="-1.71525">
        <ele>75</ele>
        <time>2022-06-28T07:54:14Z</time>
      </trkpt>
      <trkpt lat="47.14792" lon="-1.71544">
        <ele>75</ele>
        <time>2022-06-28T07:54:16Z</time>
      </trkpt>
      <trkpt lat="47.14791" lon="-1.71563">
        <ele>75</ele>
        <time>2022-06-28T07:54:18Z</time>
      </trkpt>
      <trkpt lat="47.14789" lon="-1.71582">
        <ele>75</ele>
        <time>2022-06-28T07:54:20Z</time>
      </trkpt>
      <trkpt lat="47.14787" lon="-1.71601">
        <ele>75</ele>
        <time>2022-06-28T07:54:22Z</time>
      </trkpt>
      <trkpt lat="47.14784" lon="-1.71619">
        <ele>75</ele>
        <time>2022-06-28T07:54:24Z</time>
      </trkpt>
      <trkpt lat="47.14781" lon="-1.71637">
        <ele>75</ele>
        <time>2022-06-28T07:54:26Z</time>
      </trkpt>
      <trkpt lat="47.14778" lon="-1.71656">
        <ele>75</ele>
        <time>2022-06-28T07:54:28Z</time>
      </trkpt>
      <trkpt lat="47.14775" lon="-1.71674">
        <ele>75</ele>
        <time>2022-06-28T07:54:30Z</time>
      </trkpt>
      <trkpt lat="47.14772" lon="-1.71692">
        <ele>75</ele>
        <time>2022-06-28T07:54:32Z</time>
      </trkpt>
      <trkpt lat="47.14769" lon="-1.71711">
        <ele>75</ele>
        <time>2022-06-28T07:54:34Z</time>
      </trkpt>
      <trkpt lat="47.14766" lon="-1.71728">
        <ele>76</ele>
        <time>2022-06-28T07:54:36Z</time>
      </trkpt>
      <trkpt lat="47.14763" lon="-1.71746">
        <ele>76</ele>
        <time>2022-06-28T07:54:38Z</time>
      </trkpt>
      <trkpt lat="47.14759" lon="-1.71764">
        <ele>76</ele>
        <time>2022-06-28T07:54:40Z</time>
      </trkpt>
      <trkpt lat="47.14754" lon="-1.7178">
        <ele>76</ele>
        <time>2022-06-28T07:54:42Z</time>
      </trkpt>
      <trkpt lat="47.14746" lon="-1.71795">
        <ele>76</ele>
        <time>2022-06-28T07:54:44Z</time>
      </trkpt>
      <trkpt lat="47.14736" lon="-1.71807">
        <ele>75</ele>
        <time>2022-06-28T07:54:46Z</time>
      </trkpt>
      <trkpt lat="47.14724" lon="-1.71817">
        <ele>75</ele>
        <time>2022-06-28T07:54:48Z</time>
      </trkpt>
      <trkpt lat="47.14712" lon="-1.71825">
        <ele>75</ele>
        <time>2022-06-28T07:54:50Z</time>
      </trkpt>
      <trkpt lat="47.147" lon="-1.71832">
        <ele>75</ele>
        <time>2022-06-28T07:54:52Z</time>
      </trkpt>
      <trkpt lat="47.14687" lon="-1.71838">
        <ele>75</ele>
        <time>2022-06-28T07:54:54Z</time>
      </trkpt>
      <trkpt lat="47.14675" lon="-1.71844">
        <ele>74</ele>
        <time>2022-06-28T07:54:56Z</time>
      </trkpt>
      <trkpt lat="47.14662" lon="-1.7185">
        <ele>75</ele>
        <time>2022-06-28T07:54:58Z</time>
      </trkpt>
      <trkpt lat="47.14649" lon="-1.71854">
        <ele>74</ele>
        <time>2022-06-28T07:55:00Z</time>
      </trkpt>
      <trkpt lat="47.14635" lon="-1.71856">
        <ele>74</ele>
        <time>2022-06-28T07:55:02Z</time>
      </trkpt>
      <trkpt lat="47.14622" lon="-1.71855">
        <ele>74</ele>
        <time>2022-06-28T07:55:04Z</time>
      </trkpt>
      <trkpt lat="47.14609" lon="-1.71853">
        <ele>74</ele>
        <time>2022-06-28T07:55:06Z</time>
      </trkpt>
      <trkpt lat="47.14596" lon="-1.71849">
        <ele>74</ele>
        <time>2022-06-28T07:55:08Z</time>
      </trkpt>
      <trkpt lat="47.14583" lon="-1.71844">
        <ele>73</ele>
        <time>2022-06-28T07:55:10Z</time>
      </trkpt>
      <trkpt lat="47.14571" lon="-1.71838">
        <ele>73</ele>
        <time>2022-06-28T07:55:12Z</time>
      </trkpt>
      <trkpt lat="47.14558" lon="-1.71833">
        <ele>73</ele>
        <time>2022-06-28T07:55:14Z</time>
      </trkpt>
      <trkpt lat="47.14546" lon="-1.71828">
        <ele>73</ele>
        <time>2022-06-28T07:55:16Z</time>
      </trkpt>
      <trkpt lat="47.14534" lon="-1.71822">
        <ele>72</ele>
        <time>2022-06-28T07:55:18Z</time>
      </trkpt>
      <trkpt lat="47.14522" lon="-1.71816">
        <ele>72</ele>
        <time>2022-06-28T07:55:20Z</time>
      </trkpt>
      <trkpt lat="47.14509" lon="-1.7181">
        <ele>72</ele>
        <time>2022-06-28T07:55:22Z</time>
      </trkpt>
      <trkpt lat="47.14497" lon="-1.71803">
        <ele>72</ele>
        <time>2022-06-28T07:55:24Z</time>
      </trkpt>
      <trkpt lat="47.14485" lon="-1.71798">
        <ele>71</ele>
        <time>2022-06-28T07:55:26Z</time>
      </trkpt>
      <trkpt lat="47.14473" lon="-1.71793">
        <ele>71</ele>
        <time>2022-06-28T07:55:28Z</time>
      </trkpt>
      <trkpt lat="47.14461" lon="-1.71787">
        <ele>71</ele>
        <time>2022-06-28T07:55:30Z</time>
      </trkpt>
      <trkpt lat="47.14449" lon="-1.71783">
        <ele>71</ele>
        <time>2022-06-28T07:55:32Z</time>
      </trkpt>
      <trkpt lat="47.14436" lon="-1.71781">
        <ele>71</ele>
        <time>2022-06-28T07:55:34Z</time>
      </trkpt>
      <trkpt lat="47.14423" lon="-1.7178">
        <ele>71</ele>
        <time>2022-06-28T07:55:36Z</time>
      </trkpt>
      <trkpt lat="47.1441" lon="-1.7178">
        <ele>70</ele>
        <time>2022-06-28T07:55:38Z</time>
      </trkpt>
      <trkpt lat="47.14397" lon="-1.71781">
        <ele>70</ele>
        <time>2022-06-28T07:55:40Z</time>
      </trkpt>
      <trkpt lat="47.14384" lon="-1.71785">
        <ele>70</ele>
        <time>2022-06-28T07:55:42Z</time>
      </trkpt>
      <trkpt lat="47.14371" lon="-1.7179">
        <ele>70</ele>
        <time>2022-06-28T07:55:44Z</time>
      </trkpt>
      <trkpt lat="47.14357" lon="-1.71794">
        <ele>70</ele>
        <time>2022-06-28T07:55:46Z</time>
      </trkpt>
      <trkpt lat="47.14345" lon="-1.71799">
        <ele>70</ele>
        <time>2022-06-28T07:55:48Z</time>
      </trkpt>
      <trkpt lat="47.14332" lon="-1.71803">
        <ele>70</ele>
        <time>2022-06-28T07:55:50Z</time>
      </trkpt>
      <trkpt lat="47.14319" lon="-1.71807">
        <ele>70</ele>
        <time>2022-06-28T07:55:52Z</time>
      </trkpt>
      <trkpt lat="47.14306" lon="-1.71811">
        <ele>70</ele>
        <time>2022-06-28T07:55:54Z</time>
      </trkpt>
      <trkpt lat="47.14293" lon="-1.71816">
        <ele>70</ele>
        <time>2022-06-28T07:55:56Z</time>
      </trkpt>
      <trkpt lat="47.1428" lon="-1.7182">
        <ele>70</ele>
        <time>2022-06-28T07:55:58Z</time>
      </trkpt>
      <trkpt lat="47.14266" lon="-1.71824">
        <ele>69</ele>
        <time>2022-06-28T07:56:00Z</time>
      </trkpt>
      <trkpt lat="47.14253" lon="-1.71829">
        <ele>69</ele>
        <time>2022-06-28T07:56:02Z</time>
      </trkpt>
      <trkpt lat="47.14239" lon="-1.71833">
        <ele>69</ele>
        <time>2022-06-28T07:56:04Z</time>
      </trkpt>
      <trkpt lat="47.14226" lon="-1.71837">
        <ele>69</ele>
        <time>2022-06-28T07:56:06Z</time>
      </trkpt>
      <trkpt lat="47.14213" lon="-1.71842">
        <ele>68</ele>
        <time>2022-06-28T07:56:08Z</time>
      </trkpt>
      <trkpt lat="47.142" lon="-1.71846">
        <ele>68</ele>
        <time>2022-06-28T07:56:10Z</time>
      </trkpt>
      <trkpt lat="47.14187" lon="-1.71851">
        <ele>67</ele>
        <time>2022-06-28T07:56:12Z</time>
      </trkpt>
      <trkpt lat="47.14174" lon="-1.71855">
        <ele>67</ele>
        <time>2022-06-28T07:56:14Z</time>
      </trkpt>
      <trkpt lat="47.1416" lon="-1.71859">
        <ele>67</ele>
        <time>2022-06-28T07:56:16Z</time>
      </trkpt>
      <trkpt lat="47.14145" lon="-1.71864">
        <ele>66</ele>
        <time>2022-06-28T07:56:18Z</time>
      </trkpt>
      <trkpt lat="47.14131" lon="-1.71869">
        <ele>66</ele>
        <time>2022-06-28T07:56:20Z</time>
      </trkpt>
      <trkpt lat="47.14116" lon="-1.71874">
        <ele>65</ele>
        <time>2022-06-28T07:56:22Z</time>
      </trkpt>
      <trkpt lat="47.14101" lon="-1.71879">
        <ele>64</ele>
        <time>2022-06-28T07:56:24Z</time>
      </trkpt>
      <trkpt lat="47.14086" lon="-1.71884">
        <ele>63</ele>
        <time>2022-06-28T07:56:26Z</time>
      </trkpt>
      <trkpt lat="47.1407" lon="-1.71889">
        <ele>62</ele>
        <time>2022-06-28T07:56:28Z</time>
      </trkpt>
      <trkpt lat="47.14054" lon="-1.71894">
        <ele>62</ele>
        <time>2022-06-28T07:56:30Z</time>
      </trkpt>
      <trkpt lat="47.14039" lon="-1.71899">
        <ele>61</ele>
        <time>2022-06-28T07:56:32Z</time>
      </trkpt>
      <trkpt lat="47.14023" lon="-1.71904">
        <ele>60</ele>
        <time>2022-06-28T07:56:34Z</time>
      </trkpt>
      <trkpt lat="47.14007" lon="-1.71906">
        <ele>59</ele>
        <time>2022-06-28T07:56:36Z</time>
      </trkpt>
      <trkpt lat="47.1399" lon="-1.719">
        <ele>58</ele>
        <time>2022-06-28T07:56:38Z</time>
      </trkpt>
      <trkpt lat="47.13973" lon="-1.719">
        <ele>57</ele>
        <time>2022-06-28T07:56:40Z</time>
      </trkpt>
      <trkpt lat="47.13964" lon="-1.71915">
        <ele>57</ele>
        <time>2022-06-28T07:56:42Z</time>
      </trkpt>
      <trkpt lat="47.13966" lon="-1.71936">
        <ele>57</ele>
        <time>2022-06-28T07:56:44Z</time>
      </trkpt>
      <trkpt lat="47.13963" lon="-1.71956">
        <ele>57</ele>
        <time>2022-06-28T07:56:46Z</time>
      </trkpt>
      <trkpt lat="47.13952" lon="-1.71969">
        <ele>57</ele>
        <time>2022-06-28T07:56:48Z</time>
      </trkpt>
      <trkpt lat="47.1394" lon="-1.71977">
        <ele>56</ele>
        <time>2022-06-28T07:56:50Z</time>
      </trkpt>
      <trkpt lat="47.13928" lon="-1.71983">
        <ele>57</ele>
        <time>2022-06-28T07:56:52Z</time>
      </trkpt>
      <trkpt lat="47.13917" lon="-1.71989">
        <ele>58</ele>
        <time>2022-06-28T07:56:54Z</time>
      </trkpt>
      <trkpt lat="47.13905" lon="-1.71994">
        <ele>59</ele>
        <time>2022-06-28T07:56:56Z</time>
      </trkpt>
      <trkpt lat="47.13893" lon="-1.72001">
        <ele>59</ele>
        <time>2022-06-28T07:56:58Z</time>
      </trkpt>
      <trkpt lat="47.13883" lon="-1.72009">
        <ele>59</ele>
        <time>2022-06-28T07:57:00Z</time>
      </trkpt>
      <trkpt lat="47.13873" lon="-1.72019">
        <ele>60</ele>
        <time>2022-06-28T07:57:02Z</time>
      </trkpt>
      <trkpt lat="47.13864" lon="-1.72031">
        <ele>60</ele>
        <time>2022-06-28T07:57:04Z</time>
      </trkpt>
      <trkpt lat="47.13855" lon="-1.72044">
        <ele>60</ele>
        <time>2022-06-28T07:57:06Z</time>
      </trkpt>
      <trkpt lat="47.13848" lon="-1.72058">
        <ele>60</ele>
        <time>2022-06-28T07:57:08Z</time>
      </trkpt>
      <trkpt lat="47.13839" lon="-1.7207">
        <ele>61</ele>
        <time>2022-06-28T07:57:10Z</time>
      </trkpt>
      <trkpt lat="47.13831" lon="-1.72083">
        <ele>61</ele>
        <time>2022-06-28T07:57:12Z</time>
      </trkpt>
      <trkpt lat="47.13823" lon="-1.72096">
        <ele>61</ele>
        <time>2022-06-28T07:57:14Z</time>
      </trkpt>
      <trkpt lat="47.13815" lon="-1.72109">
        <ele>61</ele>
        <time>2022-06-28T07:57:16Z</time>
      </trkpt>
      <trkpt lat="47.13807" lon="-1.72122">
        <ele>62</ele>
        <time>2022-06-28T07:57:18Z</time>
      </trkpt>
      <trkpt lat="47.138" lon="-1.72135">
        <ele>62</ele>
        <time>2022-06-28T07:57:20Z</time>
      </trkpt>
      <trkpt lat="47.13792" lon="-1.72148">
        <ele>62</ele>
        <time>2022-06-28T07:57:22Z</time>
      </trkpt>
      <trkpt lat="47.13785" lon="-1.7216">
        <ele>62</ele>
        <time>2022-06-28T07:57:24Z</time>
      </trkpt>
      <trkpt lat="47.13778" lon="-1.72173">
        <ele>62</ele>
        <time>2022-06-28T07:57:26Z</time>
      </trkpt>
      <trkpt lat="47.1377" lon="-1.72185">
        <ele>62</ele>
        <time>2022-06-28T07:57:28Z</time>
      </trkpt>
      <trkpt lat="47.13763" lon="-1.72198">
        <ele>63</ele>
        <time>2022-06-28T07:57:30Z</time>
      </trkpt>
      <trkpt lat="47.13756" lon="-1.7221">
        <ele>63</ele>
        <time>2022-06-28T07:57:32Z</time>
      </trkpt>
      <trkpt lat="47.13749" lon="-1.72223">
        <ele>64</ele>
        <time>2022-06-28T07:57:34Z</time>
      </trkpt>
      <trkpt lat="47.13743" lon="-1.72237">
        <ele>64</ele>
        <time>2022-06-28T07:57:36Z</time>
      </trkpt>
      <trkpt lat="47.13739" lon="-1.72252">
        <ele>64</ele>
        <time>2022-06-28T07:57:38Z</time>
      </trkpt>
      <trkpt lat="47.13736" lon="-1.72268">
        <ele>65</ele>
        <time>2022-06-28T07:57:40Z</time>
      </trkpt>
      <trkpt lat="47.13734" lon="-1.72285">
        <ele>65</ele>
        <time>2022-06-28T07:57:42Z</time>
      </trkpt>
      <trkpt lat="47.13732" lon="-1.723">
        <ele>66</ele>
        <time>2022-06-28T07:57:44Z</time>
      </trkpt>
      <trkpt lat="47.13731" lon="-1.72315">
        <ele>66</ele>
        <time>2022-06-28T07:57:46Z</time>
      </trkpt>
      <trkpt lat="47.13728" lon="-1.7233">
        <ele>67</ele>
        <time>2022-06-28T07:57:48Z</time>
      </trkpt>
      <trkpt lat="47.13727" lon="-1.72345">
        <ele>68</ele>
        <time>2022-06-28T07:57:50Z</time>
      </trkpt>
      <trkpt lat="47.13724" lon="-1.7236">
        <ele>68</ele>
        <time>2022-06-28T07:57:52Z</time>
      </trkpt>
      <trkpt lat="47.1372" lon="-1.72374">
        <ele>69</ele>
        <time>2022-06-28T07:57:54Z</time>
      </trkpt>
      <trkpt lat="47.13716" lon="-1.72389">
        <ele>69</ele>
        <time>2022-06-28T07:57:56Z</time>
      </trkpt>
      <trkpt lat="47.13712" lon="-1.72404">
        <ele>69</ele>
        <time>2022-06-28T07:57:58Z</time>
      </trkpt>
      <trkpt lat="47.13708" lon="-1.72418">
        <ele>70</ele>
        <time>2022-06-28T07:58:00Z</time>
      </trkpt>
      <trkpt lat="47.13703" lon="-1.72432">
        <ele>70</ele>
        <time>2022-06-28T07:58:02Z</time>
      </trkpt>
      <trkpt lat="47.13699" lon="-1.72447">
        <ele>69</ele>
        <time>2022-06-28T07:58:04Z</time>
      </trkpt>
      <trkpt lat="47.13695" lon="-1.72462">
        <ele>69</ele>
        <time>2022-06-28T07:58:06Z</time>
      </trkpt>
      <trkpt lat="47.13692" lon="-1.72477">
        <ele>70</ele>
        <time>2022-06-28T07:58:08Z</time>
      </trkpt>
      <trkpt lat="47.13688" lon="-1.72493">
        <ele>70</ele>
        <time>2022-06-28T07:58:10Z</time>
      </trkpt>
      <trkpt lat="47.13684" lon="-1.72509">
        <ele>70</ele>
        <time>2022-06-28T07:58:12Z</time>
      </trkpt>
      <trkpt lat="47.13681" lon="-1.72526">
        <ele>70</ele>
        <time>2022-06-28T07:58:14Z</time>
      </trkpt>
      <trkpt lat="47.13679" lon="-1.72544">
        <ele>69</ele>
        <time>2022-06-28T07:58:16Z</time>
      </trkpt>
      <trkpt lat="47.13678" lon="-1.72561">
        <ele>69</ele>
        <time>2022-06-28T07:58:18Z</time>
      </trkpt>
      <trkpt lat="47.13677" lon="-1.72577">
        <ele>69</ele>
        <time>2022-06-28T07:58:20Z</time>
      </trkpt>
      <trkpt lat="47.13676" lon="-1.72594">
        <ele>69</ele>
        <time>2022-06-28T07:58:22Z</time>
      </trkpt>
      <trkpt lat="47.13676" lon="-1.7261">
        <ele>69</ele>
        <time>2022-06-28T07:58:24Z</time>
      </trkpt>
      <trkpt lat="47.13674" lon="-1.72626">
        <ele>69</ele>
        <time>2022-06-28T07:58:26Z</time>
      </trkpt>
      <trkpt lat="47.13671" lon="-1.72642">
        <ele>70</ele>
        <time>2022-06-28T07:58:28Z</time>
      </trkpt>
      <trkpt lat="47.13669" lon="-1.72658">
        <ele>70</ele>
        <time>2022-06-28T07:58:30Z</time>
      </trkpt>
      <trkpt lat="47.13666" lon="-1.72674">
        <ele>70</ele>
        <time>2022-06-28T07:58:32Z</time>
      </trkpt>
      <trkpt lat="47.13664" lon="-1.72689">
        <ele>70</ele>
        <time>2022-06-28T07:58:34Z</time>
      </trkpt>
      <trkpt lat="47.13662" lon="-1.72705">
        <ele>71</ele>
        <time>2022-06-28T07:58:36Z</time>
      </trkpt>
      <trkpt lat="47.1366" lon="-1.72722">
        <ele>70</ele>
        <time>2022-06-28T07:58:38Z</time>
      </trkpt>
      <trkpt lat="47.13659" lon="-1.72738">
        <ele>71</ele>
        <time>2022-06-28T07:58:40Z</time>
      </trkpt>
      <trkpt lat="47.13657" lon="-1.72754">
        <ele>71</ele>
        <time>2022-06-28T07:58:42Z</time>
      </trkpt>
      <trkpt lat="47.13657" lon="-1.72771">
        <ele>70</ele>
        <time>2022-06-28T07:58:44Z</time>
      </trkpt>
      <trkpt lat="47.13656" lon="-1.72787">
        <ele>70</ele>
        <time>2022-06-28T07:58:46Z</time>
      </trkpt>
      <trkpt lat="47.13655" lon="-1.72803">
        <ele>70</ele>
        <time>2022-06-28T07:58:48Z</time>
      </trkpt>
      <trkpt lat="47.13654" lon="-1.72819">
        <ele>70</ele>
        <time>2022-06-28T07:58:50Z</time>
      </trkpt>
      <trkpt lat="47.13652" lon="-1.72836">
        <ele>69</ele>
        <time>2022-06-28T07:58:52Z</time>
      </trkpt>
      <trkpt lat="47.13651" lon="-1.72854">
        <ele>69</ele>
        <time>2022-06-28T07:58:54Z</time>
      </trkpt>
      <trkpt lat="47.13649" lon="-1.72874">
        <ele>69</ele>
        <time>2022-06-28T07:58:56Z</time>
      </trkpt>
      <trkpt lat="47.13647" lon="-1.72894">
        <ele>68</ele>
        <time>2022-06-28T07:58:58Z</time>
      </trkpt>
      <trkpt lat="47.13645" lon="-1.72915">
        <ele>67</ele>
        <time>2022-06-28T07:59:00Z</time>
      </trkpt>
      <trkpt lat="47.13643" lon="-1.72938">
        <ele>66</ele>
        <time>2022-06-28T07:59:02Z</time>
      </trkpt>
      <trkpt lat="47.13642" lon="-1.72962">
        <ele>65</ele>
        <time>2022-06-28T07:59:04Z</time>
      </trkpt>
      <trkpt lat="47.1364" lon="-1.72986">
        <ele>64</ele>
        <time>2022-06-28T07:59:06Z</time>
      </trkpt>
      <trkpt lat="47.13638" lon="-1.73011">
        <ele>63</ele>
        <time>2022-06-28T07:59:08Z</time>
      </trkpt>
      <trkpt lat="47.13631" lon="-1.73033">
        <ele>62</ele>
        <time>2022-06-28T07:59:10Z</time>
      </trkpt>
      <trkpt lat="47.13619" lon="-1.7305">
        <ele>61</ele>
        <time>2022-06-28T07:59:12Z</time>
      </trkpt>
      <trkpt lat="47.13605" lon="-1.73063">
        <ele>60</ele>
        <time>2022-06-28T07:59:14Z</time>
      </trkpt>
      <trkpt lat="47.13591" lon="-1.73074">
        <ele>59</ele>
        <time>2022-06-28T07:59:16Z</time>
      </trkpt>
      <trkpt lat="47.13578" lon="-1.73085">
        <ele>59</ele>
        <time>2022-06-28T07:59:18Z</time>
      </trkpt>
      <trkpt lat="47.1356" lon="-1.73103">
        <ele>59</ele>
        <time>2022-06-28T07:59:21Z</time>
      </trkpt>
      <trkpt lat="47.13548" lon="-1.73115">
        <ele>59</ele>
        <time>2022-06-28T07:59:23Z</time>
      </trkpt>
      <trkpt lat="47.13536" lon="-1.73128">
        <ele>58</ele>
        <time>2022-06-28T07:59:25Z</time>
      </trkpt>
      <trkpt lat="47.13524" lon="-1.73143">
        <ele>58</ele>
        <time>2022-06-28T07:59:27Z</time>
      </trkpt>
      <trkpt lat="47.13515" lon="-1.73161">
        <ele>57</ele>
        <time>2022-06-28T07:59:29Z</time>
      </trkpt>
      <trkpt lat="47.13511" lon="-1.73182">
        <ele>57</ele>
        <time>2022-06-28T07:59:31Z</time>
      </trkpt>
      <trkpt lat="47.13508" lon="-1.73203">
        <ele>56</ele>
        <time>2022-06-28T07:59:33Z</time>
      </trkpt>
      <trkpt lat="47.13506" lon="-1.73224">
        <ele>56</ele>
        <time>2022-06-28T07:59:35Z</time>
      </trkpt>
      <trkpt lat="47.13504" lon="-1.73246">
        <ele>55</ele>
        <time>2022-06-28T07:59:37Z</time>
      </trkpt>
      <trkpt lat="47.13502" lon="-1.73269">
        <ele>55</ele>
        <time>2022-06-28T07:59:39Z</time>
      </trkpt>
      <trkpt lat="47.13501" lon="-1.73291">
        <ele>55</ele>
        <time>2022-06-28T07:59:41Z</time>
      </trkpt>
      <trkpt lat="47.13505" lon="-1.73312">
        <ele>55</ele>
        <time>2022-06-28T07:59:43Z</time>
      </trkpt>
      <trkpt lat="47.1351" lon="-1.73332">
        <ele>55</ele>
        <time>2022-06-28T07:59:45Z</time>
      </trkpt>
      <trkpt lat="47.13514" lon="-1.7335">
        <ele>56</ele>
        <time>2022-06-28T07:59:47Z</time>
      </trkpt>
      <trkpt lat="47.1352" lon="-1.73367">
        <ele>57</ele>
        <time>2022-06-28T07:59:49Z</time>
      </trkpt>
      <trkpt lat="47.13526" lon="-1.73382">
        <ele>57</ele>
        <time>2022-06-28T07:59:51Z</time>
      </trkpt>
      <trkpt lat="47.13532" lon="-1.73397">
        <ele>58</ele>
        <time>2022-06-28T07:59:53Z</time>
      </trkpt>
      <trkpt lat="47.13536" lon="-1.73413">
        <ele>58</ele>
        <time>2022-06-28T07:59:55Z</time>
      </trkpt>
      <trkpt lat="47.13543" lon="-1.73437">
        <ele>59</ele>
        <time>2022-06-28T07:59:58Z</time>
      </trkpt>
      <trkpt lat="47.13549" lon="-1.73453">
        <ele>60</ele>
        <time>2022-06-28T08:00:00Z</time>
      </trkpt>
      <trkpt lat="47.13554" lon="-1.7347">
        <ele>60</ele>
        <time>2022-06-28T08:00:02Z</time>
      </trkpt>
      <trkpt lat="47.13559" lon="-1.73487">
        <ele>60</ele>
        <time>2022-06-28T08:00:04Z</time>
      </trkpt>
      <trkpt lat="47.13564" lon="-1.73504">
        <ele>60</ele>
        <time>2022-06-28T08:00:06Z</time>
      </trkpt>
      <trkpt lat="47.13569" lon="-1.73521">
        <ele>60</ele>
        <time>2022-06-28T08:00:08Z</time>
      </trkpt>
      <trkpt lat="47.13574" lon="-1.73539">
        <ele>60</ele>
        <time>2022-06-28T08:00:10Z</time>
      </trkpt>
      <trkpt lat="47.13579" lon="-1.73556">
        <ele>60</ele>
        <time>2022-06-28T08:00:12Z</time>
      </trkpt>
      <trkpt lat="47.13586" lon="-1.73573">
        <ele>60</ele>
        <time>2022-06-28T08:00:14Z</time>
      </trkpt>
      <trkpt lat="47.13592" lon="-1.7359">
        <ele>60</ele>
        <time>2022-06-28T08:00:16Z</time>
      </trkpt>
      <trkpt lat="47.13599" lon="-1.73607">
        <ele>60</ele>
        <time>2022-06-28T08:00:18Z</time>
      </trkpt>
      <trkpt lat="47.13605" lon="-1.73625">
        <ele>60</ele>
        <time>2022-06-28T08:00:20Z</time>
      </trkpt>
      <trkpt lat="47.13611" lon="-1.73642">
        <ele>60</ele>
        <time>2022-06-28T08:00:22Z</time>
      </trkpt>
      <trkpt lat="47.13617" lon="-1.73659">
        <ele>60</ele>
        <time>2022-06-28T08:00:24Z</time>
      </trkpt>
      <trkpt lat="47.13623" lon="-1.73677">
        <ele>60</ele>
        <time>2022-06-28T08:00:26Z</time>
      </trkpt>
      <trkpt lat="47.13628" lon="-1.73695">
        <ele>60</ele>
        <time>2022-06-28T08:00:28Z</time>
      </trkpt>
      <trkpt lat="47.13631" lon="-1.73714">
        <ele>60</ele>
        <time>2022-06-28T08:00:30Z</time>
      </trkpt>
      <trkpt lat="47.13634" lon="-1.73733">
        <ele>60</ele>
        <time>2022-06-28T08:00:32Z</time>
      </trkpt>
      <trkpt lat="47.13636" lon="-1.73754">
        <ele>60</ele>
        <time>2022-06-28T08:00:34Z</time>
      </trkpt>
      <trkpt lat="47.13638" lon="-1.73777">
        <ele>60</ele>
        <time>2022-06-28T08:00:36Z</time>
      </trkpt>
      <trkpt lat="47.1364" lon="-1.73801">
        <ele>60</ele>
        <time>2022-06-28T08:00:38Z</time>
      </trkpt>
      <trkpt lat="47.1364" lon="-1.73824">
        <ele>59</ele>
        <time>2022-06-28T08:00:40Z</time>
      </trkpt>
      <trkpt lat="47.13642" lon="-1.73847">
        <ele>58</ele>
        <time>2022-06-28T08:00:42Z</time>
      </trkpt>
      <trkpt lat="47.13643" lon="-1.73869">
        <ele>58</ele>
        <time>2022-06-28T08:00:44Z</time>
      </trkpt>
      <trkpt lat="47.13644" lon="-1.7389">
        <ele>58</ele>
        <time>2022-06-28T08:00:46Z</time>
      </trkpt>
      <trkpt lat="47.13645" lon="-1.73909">
        <ele>58</ele>
        <time>2022-06-28T08:00:48Z</time>
      </trkpt>
      <trkpt lat="47.13646" lon="-1.73927">
        <ele>58</ele>
        <time>2022-06-28T08:00:50Z</time>
      </trkpt>
      <trkpt lat="47.13647" lon="-1.73944">
        <ele>58</ele>
        <time>2022-06-28T08:00:52Z</time>
      </trkpt>
      <trkpt lat="47.13647" lon="-1.73959">
        <ele>59</ele>
        <time>2022-06-28T08:00:54Z</time>
      </trkpt>
      <trkpt lat="47.13648" lon="-1.73975">
        <ele>59</ele>
        <time>2022-06-28T08:00:56Z</time>
      </trkpt>
      <trkpt lat="47.13647" lon="-1.7399">
        <ele>59</ele>
        <time>2022-06-28T08:00:58Z</time>
      </trkpt>
      <trkpt lat="47.13645" lon="-1.74006">
        <ele>59</ele>
        <time>2022-06-28T08:01:00Z</time>
      </trkpt>
      <trkpt lat="47.13643" lon="-1.74021">
        <ele>60</ele>
        <time>2022-06-28T08:01:02Z</time>
      </trkpt>
      <trkpt lat="47.13642" lon="-1.74036">
        <ele>60</ele>
        <time>2022-06-28T08:01:04Z</time>
      </trkpt>
      <trkpt lat="47.1364" lon="-1.74051">
        <ele>61</ele>
        <time>2022-06-28T08:01:06Z</time>
      </trkpt>
      <trkpt lat="47.1364" lon="-1.74066">
        <ele>61</ele>
        <time>2022-06-28T08:01:08Z</time>
      </trkpt>
      <trkpt lat="47.1364" lon="-1.74082">
        <ele>62</ele>
        <time>2022-06-28T08:01:10Z</time>
      </trkpt>
      <trkpt lat="47.1364" lon="-1.74098">
        <ele>62</ele>
        <time>2022-06-28T08:01:12Z</time>
      </trkpt>
      <trkpt lat="47.13641" lon="-1.74114">
        <ele>62</ele>
        <time>2022-06-28T08:01:14Z</time>
      </trkpt>
      <trkpt lat="47.13643" lon="-1.7413">
        <ele>62</ele>
        <time>2022-06-28T08:01:16Z</time>
      </trkpt>
      <trkpt lat="47.13646" lon="-1.74147">
        <ele>62</ele>
        <time>2022-06-28T08:01:18Z</time>
      </trkpt>
      <trkpt lat="47.13649" lon="-1.74163">
        <ele>62</ele>
        <time>2022-06-28T08:01:20Z</time>
      </trkpt>
      <trkpt lat="47.13653" lon="-1.74179">
        <ele>62</ele>
        <time>2022-06-28T08:01:22Z</time>
      </trkpt>
      <trkpt lat="47.13657" lon="-1.74196">
        <ele>62</ele>
        <time>2022-06-28T08:01:24Z</time>
      </trkpt>
      <trkpt lat="47.13661" lon="-1.74212">
        <ele>62</ele>
        <time>2022-06-28T08:01:26Z</time>
      </trkpt>
      <trkpt lat="47.13665" lon="-1.74228">
        <ele>62</ele>
        <time>2022-06-28T08:01:28Z</time>
      </trkpt>
      <trkpt lat="47.13669" lon="-1.74244">
        <ele>62</ele>
        <time>2022-06-28T08:01:30Z</time>
      </trkpt>
      <trkpt lat="47.13674" lon="-1.74262">
        <ele>61</ele>
        <time>2022-06-28T08:01:32Z</time>
      </trkpt>
      <trkpt lat="47.1368" lon="-1.74279">
        <ele>60</ele>
        <time>2022-06-28T08:01:34Z</time>
      </trkpt>
      <trkpt lat="47.13686" lon="-1.74297">
        <ele>60</ele>
        <time>2022-06-28T08:01:36Z</time>
      </trkpt>
      <trkpt lat="47.13691" lon="-1.74316">
        <ele>60</ele>
        <time>2022-06-28T08:01:38Z</time>
      </trkpt>
      <trkpt lat="47.13694" lon="-1.74337">
        <ele>59</ele>
        <time>2022-06-28T08:01:40Z</time>
      </trkpt>
      <trkpt lat="47.13694" lon="-1.74358">
        <ele>58</ele>
        <time>2022-06-28T08:01:42Z</time>
      </trkpt>
      <trkpt lat="47.13695" lon="-1.74381">
        <ele>57</ele>
        <time>2022-06-28T08:01:44Z</time>
      </trkpt>
      <trkpt lat="47.13695" lon="-1.74405">
        <ele>57</ele>
        <time>2022-06-28T08:01:46Z</time>
      </trkpt>
      <trkpt lat="47.13695" lon="-1.74429">
        <ele>57</ele>
        <time>2022-06-28T08:01:48Z</time>
      </trkpt>
      <trkpt lat="47.13692" lon="-1.74452">
        <ele>56</ele>
        <time>2022-06-28T08:01:50Z</time>
      </trkpt>
      <trkpt lat="47.1368" lon="-1.7447">
        <ele>56</ele>
        <time>2022-06-28T08:01:52Z</time>
      </trkpt>
      <trkpt lat="47.13666" lon="-1.74486">
        <ele>55</ele>
        <time>2022-06-28T08:01:54Z</time>
      </trkpt>
      <trkpt lat="47.13653" lon="-1.745">
        <ele>56</ele>
        <time>2022-06-28T08:01:56Z</time>
      </trkpt>
      <trkpt lat="47.13641" lon="-1.74513">
        <ele>56</ele>
        <time>2022-06-28T08:01:58Z</time>
      </trkpt>
      <trkpt lat="47.13629" lon="-1.74526">
        <ele>56</ele>
        <time>2022-06-28T08:02:00Z</time>
      </trkpt>
      <trkpt lat="47.13616" lon="-1.74539">
        <ele>56</ele>
        <time>2022-06-28T08:02:02Z</time>
      </trkpt>
      <trkpt lat="47.13603" lon="-1.74553">
        <ele>55</ele>
        <time>2022-06-28T08:02:04Z</time>
      </trkpt>
      <trkpt lat="47.13588" lon="-1.74567">
        <ele>55</ele>
        <time>2022-06-28T08:02:06Z</time>
      </trkpt>
      <trkpt lat="47.13574" lon="-1.74581">
        <ele>54</ele>
        <time>2022-06-28T08:02:08Z</time>
      </trkpt>
      <trkpt lat="47.1356" lon="-1.74596">
        <ele>54</ele>
        <time>2022-06-28T08:02:10Z</time>
      </trkpt>
      <trkpt lat="47.13546" lon="-1.74609">
        <ele>54</ele>
        <time>2022-06-28T08:02:12Z</time>
      </trkpt>
      <trkpt lat="47.13533" lon="-1.74622">
        <ele>54</ele>
        <time>2022-06-28T08:02:14Z</time>
      </trkpt>
      <trkpt lat="47.1352" lon="-1.74634">
        <ele>55</ele>
        <time>2022-06-28T08:02:16Z</time>
      </trkpt>
      <trkpt lat="47.13508" lon="-1.74647">
        <ele>55</ele>
        <time>2022-06-28T08:02:18Z</time>
      </trkpt>
      <trkpt lat="47.13499" lon="-1.74662">
        <ele>56</ele>
        <time>2022-06-28T08:02:20Z</time>
      </trkpt>
      <trkpt lat="47.13493" lon="-1.74679">
        <ele>57</ele>
        <time>2022-06-28T08:02:22Z</time>
      </trkpt>
      <trkpt lat="47.13487" lon="-1.74696">
        <ele>57</ele>
        <time>2022-06-28T08:02:24Z</time>
      </trkpt>
      <trkpt lat="47.13481" lon="-1.74712">
        <ele>58</ele>
        <time>2022-06-28T08:02:26Z</time>
      </trkpt>
      <trkpt lat="47.13473" lon="-1.74726">
        <ele>58</ele>
        <time>2022-06-28T08:02:28Z</time>
      </trkpt>
      <trkpt lat="47.13464" lon="-1.74737">
        <ele>59</ele>
        <time>2022-06-28T08:02:30Z</time>
      </trkpt>
      <trkpt lat="47.13454" lon="-1.74747">
        <ele>59</ele>
        <time>2022-06-28T08:02:32Z</time>
      </trkpt>
      <trkpt lat="47.13443" lon="-1.74755">
        <ele>59</ele>
        <time>2022-06-28T08:02:34Z</time>
      </trkpt>
      <trkpt lat="47.13432" lon="-1.74763">
        <ele>60</ele>
        <time>2022-06-28T08:02:36Z</time>
      </trkpt>
      <trkpt lat="47.1342" lon="-1.74771">
        <ele>60</ele>
        <time>2022-06-28T08:02:38Z</time>
      </trkpt>
      <trkpt lat="47.13409" lon="-1.74781">
        <ele>60</ele>
        <time>2022-06-28T08:02:40Z</time>
      </trkpt>
      <trkpt lat="47.13399" lon="-1.74792">
        <ele>60</ele>
        <time>2022-06-28T08:02:42Z</time>
      </trkpt>
      <trkpt lat="47.13391" lon="-1.74804">
        <ele>61</ele>
        <time>2022-06-28T08:02:44Z</time>
      </trkpt>
      <trkpt lat="47.13384" lon="-1.74819">
        <ele>61</ele>
        <time>2022-06-28T08:02:46Z</time>
      </trkpt>
      <trkpt lat="47.13379" lon="-1.74835">
        <ele>61</ele>
        <time>2022-06-28T08:02:48Z</time>
      </trkpt>
      <trkpt lat="47.13375" lon="-1.74852">
        <ele>62</ele>
        <time>2022-06-28T08:02:50Z</time>
      </trkpt>
      <trkpt lat="47.1337" lon="-1.74869">
        <ele>62</ele>
        <time>2022-06-28T08:02:52Z</time>
      </trkpt>
      <trkpt lat="47.13366" lon="-1.74886">
        <ele>63</ele>
        <time>2022-06-28T08:02:54Z</time>
      </trkpt>
      <trkpt lat="47.13361" lon="-1.74903">
        <ele>64</ele>
        <time>2022-06-28T08:02:56Z</time>
      </trkpt>
      <trkpt lat="47.13356" lon="-1.74919">
        <ele>64</ele>
        <time>2022-06-28T08:02:58Z</time>
      </trkpt>
      <trkpt lat="47.13349" lon="-1.74935">
        <ele>64</ele>
        <time>2022-06-28T08:03:00Z</time>
      </trkpt>
      <trkpt lat="47.13342" lon="-1.7495">
        <ele>64</ele>
        <time>2022-06-28T08:03:02Z</time>
      </trkpt>
      <trkpt lat="47.13335" lon="-1.74965">
        <ele>64</ele>
        <time>2022-06-28T08:03:04Z</time>
      </trkpt>
      <trkpt lat="47.13327" lon="-1.74978">
        <ele>64</ele>
        <time>2022-06-28T08:03:06Z</time>
      </trkpt>
      <trkpt lat="47.13319" lon="-1.74991">
        <ele>64</ele>
        <time>2022-06-28T08:03:08Z</time>
      </trkpt>
      <trkpt lat="47.13309" lon="-1.75002">
        <ele>64</ele>
        <time>2022-06-28T08:03:10Z</time>
      </trkpt>
      <trkpt lat="47.13299" lon="-1.75011">
        <ele>65</ele>
        <time>2022-06-28T08:03:12Z</time>
      </trkpt>
      <trkpt lat="47.13289" lon="-1.7502">
        <ele>65</ele>
        <time>2022-06-28T08:03:14Z</time>
      </trkpt>
      <trkpt lat="47.13279" lon="-1.75029">
        <ele>65</ele>
        <time>2022-06-28T08:03:16Z</time>
      </trkpt>
      <trkpt lat="47.13269" lon="-1.75037">
        <ele>65</ele>
        <time>2022-06-28T08:03:18Z</time>
      </trkpt>
      <trkpt lat="47.13258" lon="-1.75045">
        <ele>66</ele>
        <time>2022-06-28T08:03:20Z</time>
      </trkpt>
      <trkpt lat="47.13248" lon="-1.75053">
        <ele>67</ele>
        <time>2022-06-28T08:03:22Z</time>
      </trkpt>
      <trkpt lat="47.13238" lon="-1.75062">
        <ele>67</ele>
        <time>2022-06-28T08:03:24Z</time>
      </trkpt>
      <trkpt lat="47.13228" lon="-1.75072">
        <ele>67</ele>
        <time>2022-06-28T08:03:26Z</time>
      </trkpt>
      <trkpt lat="47.13219" lon="-1.75084">
        <ele>68</ele>
        <time>2022-06-28T08:03:28Z</time>
      </trkpt>
      <trkpt lat="47.13211" lon="-1.75096">
        <ele>68</ele>
        <time>2022-06-28T08:03:30Z</time>
      </trkpt>
      <trkpt lat="47.13203" lon="-1.75109">
        <ele>68</ele>
        <time>2022-06-28T08:03:32Z</time>
      </trkpt>
      <trkpt lat="47.13195" lon="-1.75122">
        <ele>69</ele>
        <time>2022-06-28T08:03:34Z</time>
      </trkpt>
      <trkpt lat="47.13187" lon="-1.75137">
        <ele>69</ele>
        <time>2022-06-28T08:03:36Z</time>
      </trkpt>
      <trkpt lat="47.1318" lon="-1.75151">
        <ele>69</ele>
        <time>2022-06-28T08:03:38Z</time>
      </trkpt>
      <trkpt lat="47.13173" lon="-1.75167">
        <ele>69</ele>
        <time>2022-06-28T08:03:40Z</time>
      </trkpt>
      <trkpt lat="47.13167" lon="-1.75184">
        <ele>69</ele>
        <time>2022-06-28T08:03:42Z</time>
      </trkpt>
      <trkpt lat="47.13162" lon="-1.752">
        <ele>70</ele>
        <time>2022-06-28T08:03:44Z</time>
      </trkpt>
      <trkpt lat="47.13158" lon="-1.75217">
        <ele>69</ele>
        <time>2022-06-28T08:03:46Z</time>
      </trkpt>
      <trkpt lat="47.13154" lon="-1.75235">
        <ele>69</ele>
        <time>2022-06-28T08:03:48Z</time>
      </trkpt>
      <trkpt lat="47.13151" lon="-1.75253">
        <ele>69</ele>
        <time>2022-06-28T08:03:50Z</time>
      </trkpt>
      <trkpt lat="47.13149" lon="-1.7527">
        <ele>69</ele>
        <time>2022-06-28T08:03:52Z</time>
      </trkpt>
      <trkpt lat="47.13148" lon="-1.75288">
        <ele>69</ele>
        <time>2022-06-28T08:03:54Z</time>
      </trkpt>
      <trkpt lat="47.13144" lon="-1.75305">
        <ele>69</ele>
        <time>2022-06-28T08:03:56Z</time>
      </trkpt>
      <trkpt lat="47.13139" lon="-1.75321">
        <ele>69</ele>
        <time>2022-06-28T08:03:58Z</time>
      </trkpt>
      <trkpt lat="47.13134" lon="-1.75338">
        <ele>69</ele>
        <time>2022-06-28T08:04:00Z</time>
      </trkpt>
      <trkpt lat="47.1313" lon="-1.75355">
        <ele>70</ele>
        <time>2022-06-28T08:04:02Z</time>
      </trkpt>
      <trkpt lat="47.13127" lon="-1.75371">
        <ele>70</ele>
        <time>2022-06-28T08:04:04Z</time>
      </trkpt>
      <trkpt lat="47.13124" lon="-1.75388">
        <ele>71</ele>
        <time>2022-06-28T08:04:06Z</time>
      </trkpt>
      <trkpt lat="47.13119" lon="-1.75403">
        <ele>71</ele>
        <time>2022-06-28T08:04:08Z</time>
      </trkpt>
      <trkpt lat="47.13115" lon="-1.75418">
        <ele>72</ele>
        <time>2022-06-28T08:04:10Z</time>
      </trkpt>
      <trkpt lat="47.13113" lon="-1.75434">
        <ele>72</ele>
        <time>2022-06-28T08:04:12Z</time>
      </trkpt>
      <trkpt lat="47.13111" lon="-1.75451">
        <ele>73</ele>
        <time>2022-06-28T08:04:14Z</time>
      </trkpt>
      <trkpt lat="47.13107" lon="-1.75468">
        <ele>73</ele>
        <time>2022-06-28T08:04:16Z</time>
      </trkpt>
      <trkpt lat="47.13106" lon="-1.75485">
        <ele>73</ele>
        <time>2022-06-28T08:04:18Z</time>
      </trkpt>
      <trkpt lat="47.13104" lon="-1.75503">
        <ele>74</ele>
        <time>2022-06-28T08:04:20Z</time>
      </trkpt>
      <trkpt lat="47.13102" lon="-1.7552">
        <ele>74</ele>
        <time>2022-06-28T08:04:22Z</time>
      </trkpt>
      <trkpt lat="47.13099" lon="-1.75536">
        <ele>75</ele>
        <time>2022-06-28T08:04:24Z</time>
      </trkpt>
      <trkpt lat="47.13096" lon="-1.75552">
        <ele>75</ele>
        <time>2022-06-28T08:04:26Z</time>
      </trkpt>
      <trkpt lat="47.13093" lon="-1.75568">
        <ele>76</ele>
        <time>2022-06-28T08:04:28Z</time>
      </trkpt>
      <trkpt lat="47.13091" lon="-1.75584">
        <ele>76</ele>
        <time>2022-06-28T08:04:30Z</time>
      </trkpt>
      <trkpt lat="47.13088" lon="-1.756">
        <ele>76</ele>
        <time>2022-06-28T08:04:32Z</time>
      </trkpt>
      <trkpt lat="47.13085" lon="-1.75618">
        <ele>76</ele>
        <time>2022-06-28T08:04:34Z</time>
      </trkpt>
      <trkpt lat="47.13082" lon="-1.75636">
        <ele>76</ele>
        <time>2022-06-28T08:04:36Z</time>
      </trkpt>
      <trkpt lat="47.13078" lon="-1.75654">
        <ele>75</ele>
        <time>2022-06-28T08:04:38Z</time>
      </trkpt>
      <trkpt lat="47.13075" lon="-1.75672">
        <ele>75</ele>
        <time>2022-06-28T08:04:40Z</time>
      </trkpt>
      <trkpt lat="47.13072" lon="-1.75689">
        <ele>75</ele>
        <time>2022-06-28T08:04:42Z</time>
      </trkpt>
      <trkpt lat="47.13068" lon="-1.75706">
        <ele>75</ele>
        <time>2022-06-28T08:04:44Z</time>
      </trkpt>
      <trkpt lat="47.13063" lon="-1.75721">
        <ele>76</ele>
        <time>2022-06-28T08:04:46Z</time>
      </trkpt>
      <trkpt lat="47.13057" lon="-1.75737">
        <ele>76</ele>
        <time>2022-06-28T08:04:48Z</time>
      </trkpt>
      <trkpt lat="47.13049" lon="-1.75751">
        <ele>76</ele>
        <time>2022-06-28T08:04:50Z</time>
      </trkpt>
      <trkpt lat="47.13041" lon="-1.75765">
        <ele>76</ele>
        <time>2022-06-28T08:04:52Z</time>
      </trkpt>
      <trkpt lat="47.13032" lon="-1.75778">
        <ele>76</ele>
        <time>2022-06-28T08:04:54Z</time>
      </trkpt>
      <trkpt lat="47.13024" lon="-1.75791">
        <ele>76</ele>
        <time>2022-06-28T08:04:56Z</time>
      </trkpt>
      <trkpt lat="47.13015" lon="-1.75805">
        <ele>76</ele>
        <time>2022-06-28T08:04:58Z</time>
      </trkpt>
      <trkpt lat="47.13008" lon="-1.75819">
        <ele>76</ele>
        <time>2022-06-28T08:05:00Z</time>
      </trkpt>
      <trkpt lat="47.13005" lon="-1.75837">
        <ele>76</ele>
        <time>2022-06-28T08:05:02Z</time>
      </trkpt>
      <trkpt lat="47.13007" lon="-1.75856">
        <ele>76</ele>
        <time>2022-06-28T08:05:04Z</time>
      </trkpt>
      <trkpt lat="47.13008" lon="-1.75875">
        <ele>76</ele>
        <time>2022-06-28T08:05:06Z</time>
      </trkpt>
      <trkpt lat="47.13006" lon="-1.75892">
        <ele>77</ele>
        <time>2022-06-28T08:05:08Z</time>
      </trkpt>
      <trkpt lat="47.13002" lon="-1.7591">
        <ele>77</ele>
        <time>2022-06-28T08:05:10Z</time>
      </trkpt>
      <trkpt lat="47.12998" lon="-1.75927">
        <ele>78</ele>
        <time>2022-06-28T08:05:12Z</time>
      </trkpt>
      <trkpt lat="47.12995" lon="-1.75945">
        <ele>78</ele>
        <time>2022-06-28T08:05:14Z</time>
      </trkpt>
      <trkpt lat="47.12992" lon="-1.75962">
        <ele>78</ele>
        <time>2022-06-28T08:05:16Z</time>
      </trkpt>
      <trkpt lat="47.12989" lon="-1.7598">
        <ele>78</ele>
        <time>2022-06-28T08:05:18Z</time>
      </trkpt>
      <trkpt lat="47.12987" lon="-1.75997">
        <ele>78</ele>
        <time>2022-06-28T08:05:20Z</time>
      </trkpt>
      <trkpt lat="47.12985" lon="-1.76015">
        <ele>78</ele>
        <time>2022-06-28T08:05:22Z</time>
      </trkpt>
      <trkpt lat="47.12983" lon="-1.76033">
        <ele>78</ele>
        <time>2022-06-28T08:05:24Z</time>
      </trkpt>
      <trkpt lat="47.12982" lon="-1.7605">
        <ele>79</ele>
        <time>2022-06-28T08:05:26Z</time>
      </trkpt>
      <trkpt lat="47.12983" lon="-1.76069">
        <ele>79</ele>
        <time>2022-06-28T08:05:28Z</time>
      </trkpt>
      <trkpt lat="47.12984" lon="-1.76087">
        <ele>80</ele>
        <time>2022-06-28T08:05:30Z</time>
      </trkpt>
      <trkpt lat="47.12986" lon="-1.76105">
        <ele>80</ele>
        <time>2022-06-28T08:05:32Z</time>
      </trkpt>
      <trkpt lat="47.12989" lon="-1.76122">
        <ele>80</ele>
        <time>2022-06-28T08:05:34Z</time>
      </trkpt>
      <trkpt lat="47.12993" lon="-1.76139">
        <ele>80</ele>
        <time>2022-06-28T08:05:36Z</time>
      </trkpt>
      <trkpt lat="47.12997" lon="-1.76157">
        <ele>80</ele>
        <time>2022-06-28T08:05:38Z</time>
      </trkpt>
      <trkpt lat="47.13002" lon="-1.76175">
        <ele>80</ele>
        <time>2022-06-28T08:05:40Z</time>
      </trkpt>
      <trkpt lat="47.13006" lon="-1.76193">
        <ele>80</ele>
        <time>2022-06-28T08:05:42Z</time>
      </trkpt>
      <trkpt lat="47.13011" lon="-1.7621">
        <ele>80</ele>
        <time>2022-06-28T08:05:44Z</time>
      </trkpt>
      <trkpt lat="47.13016" lon="-1.76228">
        <ele>80</ele>
        <time>2022-06-28T08:05:46Z</time>
      </trkpt>
      <trkpt lat="47.1302" lon="-1.76247">
        <ele>80</ele>
        <time>2022-06-28T08:05:48Z</time>
      </trkpt>
      <trkpt lat="47.13024" lon="-1.76264">
        <ele>80</ele>
        <time>2022-06-28T08:05:50Z</time>
      </trkpt>
      <trkpt lat="47.13028" lon="-1.76281">
        <ele>80</ele>
        <time>2022-06-28T08:05:52Z</time>
      </trkpt>
      <trkpt lat="47.13031" lon="-1.763">
        <ele>80</ele>
        <time>2022-06-28T08:05:54Z</time>
      </trkpt>
      <trkpt lat="47.13035" lon="-1.76318">
        <ele>80</ele>
        <time>2022-06-28T08:05:56Z</time>
      </trkpt>
      <trkpt lat="47.13038" lon="-1.76336">
        <ele>80</ele>
        <time>2022-06-28T08:05:58Z</time>
      </trkpt>
      <trkpt lat="47.13042" lon="-1.76355">
        <ele>79</ele>
        <time>2022-06-28T08:06:00Z</time>
      </trkpt>
      <trkpt lat="47.13045" lon="-1.76374">
        <ele>79</ele>
        <time>2022-06-28T08:06:02Z</time>
      </trkpt>
      <trkpt lat="47.13048" lon="-1.76393">
        <ele>80</ele>
        <time>2022-06-28T08:06:04Z</time>
      </trkpt>
      <trkpt lat="47.1305" lon="-1.76412">
        <ele>80</ele>
        <time>2022-06-28T08:06:06Z</time>
      </trkpt>
      <trkpt lat="47.13052" lon="-1.76432">
        <ele>79</ele>
        <time>2022-06-28T08:06:08Z</time>
      </trkpt>
      <trkpt lat="47.13053" lon="-1.76451">
        <ele>79</ele>
        <time>2022-06-28T08:06:10Z</time>
      </trkpt>
      <trkpt lat="47.13054" lon="-1.76471">
        <ele>79</ele>
        <time>2022-06-28T08:06:12Z</time>
      </trkpt>
      <trkpt lat="47.13055" lon="-1.76491">
        <ele>79</ele>
        <time>2022-06-28T08:06:14Z</time>
      </trkpt>
      <trkpt lat="47.13056" lon="-1.76511">
        <ele>79</ele>
        <time>2022-06-28T08:06:16Z</time>
      </trkpt>
      <trkpt lat="47.13057" lon="-1.7653">
        <ele>79</ele>
        <time>2022-06-28T08:06:18Z</time>
      </trkpt>
      <trkpt lat="47.13058" lon="-1.7655">
        <ele>79</ele>
        <time>2022-06-28T08:06:20Z</time>
      </trkpt>
      <trkpt lat="47.13059" lon="-1.76569">
        <ele>79</ele>
        <time>2022-06-28T08:06:22Z</time>
      </trkpt>
      <trkpt lat="47.13061" lon="-1.76588">
        <ele>79</ele>
        <time>2022-06-28T08:06:24Z</time>
      </trkpt>
      <trkpt lat="47.13062" lon="-1.76607">
        <ele>79</ele>
        <time>2022-06-28T08:06:26Z</time>
      </trkpt>
      <trkpt lat="47.13064" lon="-1.76626">
        <ele>79</ele>
        <time>2022-06-28T08:06:28Z</time>
      </trkpt>
      <trkpt lat="47.13066" lon="-1.76644">
        <ele>79</ele>
        <time>2022-06-28T08:06:30Z</time>
      </trkpt>
      <trkpt lat="47.13068" lon="-1.76662">
        <ele>79</ele>
        <time>2022-06-28T08:06:32Z</time>
      </trkpt>
      <trkpt lat="47.13068" lon="-1.76681">
        <ele>78</ele>
        <time>2022-06-28T08:06:34Z</time>
      </trkpt>
      <trkpt lat="47.13067" lon="-1.76699">
        <ele>78</ele>
        <time>2022-06-28T08:06:36Z</time>
      </trkpt>
      <trkpt lat="47.13065" lon="-1.76719">
        <ele>78</ele>
        <time>2022-06-28T08:06:38Z</time>
      </trkpt>
      <trkpt lat="47.13061" lon="-1.7674">
        <ele>78</ele>
        <time>2022-06-28T08:06:40Z</time>
      </trkpt>
      <trkpt lat="47.13058" lon="-1.76764">
        <ele>78</ele>
        <time>2022-06-28T08:06:42Z</time>
      </trkpt>
      <trkpt lat="47.13056" lon="-1.76788">
        <ele>78</ele>
        <time>2022-06-28T08:06:44Z</time>
      </trkpt>
      <trkpt lat="47.13053" lon="-1.7681">
        <ele>78</ele>
        <time>2022-06-28T08:06:46Z</time>
      </trkpt>
      <trkpt lat="47.1305" lon="-1.76833">
        <ele>78</ele>
        <time>2022-06-28T08:06:48Z</time>
      </trkpt>
      <trkpt lat="47.13048" lon="-1.76855">
        <ele>78</ele>
        <time>2022-06-28T08:06:50Z</time>
      </trkpt>
      <trkpt lat="47.13045" lon="-1.76877">
        <ele>78</ele>
        <time>2022-06-28T08:06:52Z</time>
      </trkpt>
      <trkpt lat="47.13043" lon="-1.769">
        <ele>78</ele>
        <time>2022-06-28T08:06:54Z</time>
      </trkpt>
      <trkpt lat="47.13042" lon="-1.76923">
        <ele>78</ele>
        <time>2022-06-28T08:06:56Z</time>
      </trkpt>
      <trkpt lat="47.1304" lon="-1.76945">
        <ele>79</ele>
        <time>2022-06-28T08:06:58Z</time>
      </trkpt>
      <trkpt lat="47.13039" lon="-1.76967">
        <ele>79</ele>
        <time>2022-06-28T08:07:00Z</time>
      </trkpt>
      <trkpt lat="47.13038" lon="-1.76989">
        <ele>80</ele>
        <time>2022-06-28T08:07:02Z</time>
      </trkpt>
      <trkpt lat="47.13037" lon="-1.77011">
        <ele>80</ele>
        <time>2022-06-28T08:07:04Z</time>
      </trkpt>
      <trkpt lat="47.13036" lon="-1.77032">
        <ele>80</ele>
        <time>2022-06-28T08:07:06Z</time>
      </trkpt>
      <trkpt lat="47.13034" lon="-1.77054">
        <ele>80</ele>
        <time>2022-06-28T08:07:08Z</time>
      </trkpt>
      <trkpt lat="47.13032" lon="-1.77076">
        <ele>81</ele>
        <time>2022-06-28T08:07:10Z</time>
      </trkpt>
      <trkpt lat="47.13029" lon="-1.77098">
        <ele>81</ele>
        <time>2022-06-28T08:07:12Z</time>
      </trkpt>
      <trkpt lat="47.13027" lon="-1.7712">
        <ele>81</ele>
        <time>2022-06-28T08:07:14Z</time>
      </trkpt>
      <trkpt lat="47.13024" lon="-1.77142">
        <ele>81</ele>
        <time>2022-06-28T08:07:16Z</time>
      </trkpt>
      <trkpt lat="47.1302" lon="-1.77164">
        <ele>82</ele>
        <time>2022-06-28T08:07:18Z</time>
      </trkpt>
      <trkpt lat="47.13015" lon="-1.77185">
        <ele>82</ele>
        <time>2022-06-28T08:07:20Z</time>
      </trkpt>
      <trkpt lat="47.1301" lon="-1.77205">
        <ele>82</ele>
        <time>2022-06-28T08:07:22Z</time>
      </trkpt>
      <trkpt lat="47.13005" lon="-1.77226">
        <ele>82</ele>
        <time>2022-06-28T08:07:24Z</time>
      </trkpt>
      <trkpt lat="47.12999" lon="-1.77247">
        <ele>81</ele>
        <time>2022-06-28T08:07:26Z</time>
      </trkpt>
      <trkpt lat="47.12993" lon="-1.77267">
        <ele>81</ele>
        <time>2022-06-28T08:07:28Z</time>
      </trkpt>
      <trkpt lat="47.12987" lon="-1.77288">
        <ele>81</ele>
        <time>2022-06-28T08:07:30Z</time>
      </trkpt>
      <trkpt lat="47.1298" lon="-1.77308">
        <ele>81</ele>
        <time>2022-06-28T08:07:32Z</time>
      </trkpt>
      <trkpt lat="47.12972" lon="-1.77329">
        <ele>81</ele>
        <time>2022-06-28T08:07:34Z</time>
      </trkpt>
      <trkpt lat="47.12964" lon="-1.77348">
        <ele>80</ele>
        <time>2022-06-28T08:07:36Z</time>
      </trkpt>
      <trkpt lat="47.12955" lon="-1.77368">
        <ele>80</ele>
        <time>2022-06-28T08:07:38Z</time>
      </trkpt>
      <trkpt lat="47.12948" lon="-1.77387">
        <ele>81</ele>
        <time>2022-06-28T08:07:40Z</time>
      </trkpt>
      <trkpt lat="47.1294" lon="-1.77406">
        <ele>81</ele>
        <time>2022-06-28T08:07:42Z</time>
      </trkpt>
      <trkpt lat="47.12933" lon="-1.77426">
        <ele>81</ele>
        <time>2022-06-28T08:07:44Z</time>
      </trkpt>
      <trkpt lat="47.12926" lon="-1.77446">
        <ele>81</ele>
        <time>2022-06-28T08:07:46Z</time>
      </trkpt>
      <trkpt lat="47.12919" lon="-1.77466">
        <ele>81</ele>
        <time>2022-06-28T08:07:48Z</time>
      </trkpt>
      <trkpt lat="47.12913" lon="-1.77487">
        <ele>82</ele>
        <time>2022-06-28T08:07:50Z</time>
      </trkpt>
      <trkpt lat="47.12908" lon="-1.77508">
        <ele>82</ele>
        <time>2022-06-28T08:07:52Z</time>
      </trkpt>
      <trkpt lat="47.12903" lon="-1.77528">
        <ele>82</ele>
        <time>2022-06-28T08:07:54Z</time>
      </trkpt>
      <trkpt lat="47.12897" lon="-1.77549">
        <ele>82</ele>
        <time>2022-06-28T08:07:56Z</time>
      </trkpt>
      <trkpt lat="47.12892" lon="-1.7757">
        <ele>82</ele>
        <time>2022-06-28T08:07:58Z</time>
      </trkpt>
      <trkpt lat="47.12887" lon="-1.77591">
        <ele>82</ele>
        <time>2022-06-28T08:08:00Z</time>
      </trkpt>
      <trkpt lat="47.12881" lon="-1.77612">
        <ele>83</ele>
        <time>2022-06-28T08:08:02Z</time>
      </trkpt>
      <trkpt lat="47.12876" lon="-1.77633">
        <ele>83</ele>
        <time>2022-06-28T08:08:04Z</time>
      </trkpt>
      <trkpt lat="47.12871" lon="-1.77654">
        <ele>83</ele>
        <time>2022-06-28T08:08:06Z</time>
      </trkpt>
      <trkpt lat="47.12865" lon="-1.77674">
        <ele>83</ele>
        <time>2022-06-28T08:08:08Z</time>
      </trkpt>
      <trkpt lat="47.12861" lon="-1.77695">
        <ele>83</ele>
        <time>2022-06-28T08:08:10Z</time>
      </trkpt>
      <trkpt lat="47.12856" lon="-1.77716">
        <ele>84</ele>
        <time>2022-06-28T08:08:12Z</time>
      </trkpt>
      <trkpt lat="47.12851" lon="-1.77737">
        <ele>84</ele>
        <time>2022-06-28T08:08:14Z</time>
      </trkpt>
      <trkpt lat="47.12845" lon="-1.77758">
        <ele>83</ele>
        <time>2022-06-28T08:08:16Z</time>
      </trkpt>
      <trkpt lat="47.12837" lon="-1.77779">
        <ele>82</ele>
        <time>2022-06-28T08:08:18Z</time>
      </trkpt>
      <trkpt lat="47.12829" lon="-1.77798">
        <ele>82</ele>
        <time>2022-06-28T08:08:20Z</time>
      </trkpt>
      <trkpt lat="47.12821" lon="-1.77818">
        <ele>81</ele>
        <time>2022-06-28T08:08:22Z</time>
      </trkpt>
      <trkpt lat="47.12813" lon="-1.77838">
        <ele>81</ele>
        <time>2022-06-28T08:08:24Z</time>
      </trkpt>
      <trkpt lat="47.12806" lon="-1.77858">
        <ele>81</ele>
        <time>2022-06-28T08:08:26Z</time>
      </trkpt>
      <trkpt lat="47.12799" lon="-1.77878">
        <ele>81</ele>
        <time>2022-06-28T08:08:28Z</time>
      </trkpt>
      <trkpt lat="47.12793" lon="-1.77899">
        <ele>81</ele>
        <time>2022-06-28T08:08:30Z</time>
      </trkpt>
      <trkpt lat="47.12787" lon="-1.7792">
        <ele>81</ele>
        <time>2022-06-28T08:08:32Z</time>
      </trkpt>
      <trkpt lat="47.12781" lon="-1.7794">
        <ele>81</ele>
        <time>2022-06-28T08:08:34Z</time>
      </trkpt>
      <trkpt lat="47.12775" lon="-1.77961">
        <ele>81</ele>
        <time>2022-06-28T08:08:36Z</time>
      </trkpt>
      <trkpt lat="47.12769" lon="-1.77982">
        <ele>81</ele>
        <time>2022-06-28T08:08:38Z</time>
      </trkpt>
      <trkpt lat="47.12763" lon="-1.78004">
        <ele>81</ele>
        <time>2022-06-28T08:08:40Z</time>
      </trkpt>
      <trkpt lat="47.12757" lon="-1.78025">
        <ele>81</ele>
        <time>2022-06-28T08:08:42Z</time>
      </trkpt>
      <trkpt lat="47.12749" lon="-1.78046">
        <ele>81</ele>
        <time>2022-06-28T08:08:44Z</time>
      </trkpt>
      <trkpt lat="47.12739" lon="-1.78063">
        <ele>81</ele>
        <time>2022-06-28T08:08:46Z</time>
      </trkpt>
      <trkpt lat="47.12727" lon="-1.78081">
        <ele>81</ele>
        <time>2022-06-28T08:08:48Z</time>
      </trkpt>
      <trkpt lat="47.12715" lon="-1.78098">
        <ele>81</ele>
        <time>2022-06-28T08:08:50Z</time>
      </trkpt>
      <trkpt lat="47.12704" lon="-1.78115">
        <ele>81</ele>
        <time>2022-06-28T08:08:52Z</time>
      </trkpt>
      <trkpt lat="47.12692" lon="-1.78131">
        <ele>81</ele>
        <time>2022-06-28T08:08:54Z</time>
      </trkpt>
      <trkpt lat="47.1268" lon="-1.78147">
        <ele>81</ele>
        <time>2022-06-28T08:08:56Z</time>
      </trkpt>
      <trkpt lat="47.12668" lon="-1.78163">
        <ele>81</ele>
        <time>2022-06-28T08:08:58Z</time>
      </trkpt>
      <trkpt lat="47.12656" lon="-1.78179">
        <ele>81</ele>
        <time>2022-06-28T08:09:00Z</time>
      </trkpt>
      <trkpt lat="47.12644" lon="-1.78196">
        <ele>81</ele>
        <time>2022-06-28T08:09:02Z</time>
      </trkpt>
      <trkpt lat="47.12634" lon="-1.78213">
        <ele>80</ele>
        <time>2022-06-28T08:09:04Z</time>
      </trkpt>
      <trkpt lat="47.12625" lon="-1.78232">
        <ele>80</ele>
        <time>2022-06-28T08:09:06Z</time>
      </trkpt>
      <trkpt lat="47.12618" lon="-1.78254">
        <ele>80</ele>
        <time>2022-06-28T08:09:08Z</time>
      </trkpt>
      <trkpt lat="47.12612" lon="-1.78277">
        <ele>80</ele>
        <time>2022-06-28T08:09:10Z</time>
      </trkpt>
      <trkpt lat="47.12607" lon="-1.783">
        <ele>80</ele>
        <time>2022-06-28T08:09:12Z</time>
      </trkpt>
      <trkpt lat="47.12602" lon="-1.78323">
        <ele>79</ele>
        <time>2022-06-28T08:09:14Z</time>
      </trkpt>
      <trkpt lat="47.12597" lon="-1.78346">
        <ele>79</ele>
        <time>2022-06-28T08:09:16Z</time>
      </trkpt>
      <trkpt lat="47.12591" lon="-1.78368">
        <ele>79</ele>
        <time>2022-06-28T08:09:18Z</time>
      </trkpt>
      <trkpt lat="47.12586" lon="-1.78391">
        <ele>79</ele>
        <time>2022-06-28T08:09:20Z</time>
      </trkpt>
      <trkpt lat="47.1258" lon="-1.78413">
        <ele>79</ele>
        <time>2022-06-28T08:09:22Z</time>
      </trkpt>
      <trkpt lat="47.12575" lon="-1.78436">
        <ele>79</ele>
        <time>2022-06-28T08:09:24Z</time>
      </trkpt>
      <trkpt lat="47.1257" lon="-1.7846">
        <ele>78</ele>
        <time>2022-06-28T08:09:26Z</time>
      </trkpt>
      <trkpt lat="47.12564" lon="-1.78483">
        <ele>78</ele>
        <time>2022-06-28T08:09:28Z</time>
      </trkpt>
      <trkpt lat="47.12559" lon="-1.78506">
        <ele>78</ele>
        <time>2022-06-28T08:09:30Z</time>
      </trkpt>
      <trkpt lat="47.12553" lon="-1.78529">
        <ele>78</ele>
        <time>2022-06-28T08:09:32Z</time>
      </trkpt>
      <trkpt lat="47.12548" lon="-1.78553">
        <ele>78</ele>
        <time>2022-06-28T08:09:34Z</time>
      </trkpt>
      <trkpt lat="47.12543" lon="-1.78576">
        <ele>78</ele>
        <time>2022-06-28T08:09:36Z</time>
      </trkpt>
      <trkpt lat="47.12537" lon="-1.78599">
        <ele>78</ele>
        <time>2022-06-28T08:09:38Z</time>
      </trkpt>
      <trkpt lat="47.12531" lon="-1.78621">
        <ele>77</ele>
        <time>2022-06-28T08:09:40Z</time>
      </trkpt>
      <trkpt lat="47.12524" lon="-1.78643">
        <ele>77</ele>
        <time>2022-06-28T08:09:42Z</time>
      </trkpt>
      <trkpt lat="47.12517" lon="-1.78664">
        <ele>77</ele>
        <time>2022-06-28T08:09:44Z</time>
      </trkpt>
      <trkpt lat="47.12509" lon="-1.78684">
        <ele>77</ele>
        <time>2022-06-28T08:09:46Z</time>
      </trkpt>
      <trkpt lat="47.12502" lon="-1.78705">
        <ele>77</ele>
        <time>2022-06-28T08:09:48Z</time>
      </trkpt>
      <trkpt lat="47.12495" lon="-1.78726">
        <ele>77</ele>
        <time>2022-06-28T08:09:50Z</time>
      </trkpt>
      <trkpt lat="47.1249" lon="-1.78748">
        <ele>77</ele>
        <time>2022-06-28T08:09:52Z</time>
      </trkpt>
      <trkpt lat="47.12484" lon="-1.78769">
        <ele>77</ele>
        <time>2022-06-28T08:09:54Z</time>
      </trkpt>
      <trkpt lat="47.12479" lon="-1.78792">
        <ele>77</ele>
        <time>2022-06-28T08:09:56Z</time>
      </trkpt>
      <trkpt lat="47.12475" lon="-1.78814">
        <ele>77</ele>
        <time>2022-06-28T08:09:58Z</time>
      </trkpt>
      <trkpt lat="47.12471" lon="-1.78836">
        <ele>76</ele>
        <time>2022-06-28T08:10:00Z</time>
      </trkpt>
      <trkpt lat="47.12468" lon="-1.78859">
        <ele>76</ele>
        <time>2022-06-28T08:10:02Z</time>
      </trkpt>
      <trkpt lat="47.12466" lon="-1.78883">
        <ele>76</ele>
        <time>2022-06-28T08:10:04Z</time>
      </trkpt>
      <trkpt lat="47.12464" lon="-1.78906">
        <ele>76</ele>
        <time>2022-06-28T08:10:06Z</time>
      </trkpt>
      <trkpt lat="47.12461" lon="-1.78928">
        <ele>76</ele>
        <time>2022-06-28T08:10:08Z</time>
      </trkpt>
      <trkpt lat="47.12455" lon="-1.78951">
        <ele>76</ele>
        <time>2022-06-28T08:10:10Z</time>
      </trkpt>
      <trkpt lat="47.1245" lon="-1.78973">
        <ele>76</ele>
        <time>2022-06-28T08:10:12Z</time>
      </trkpt>
      <trkpt lat="47.12444" lon="-1.78995">
        <ele>75</ele>
        <time>2022-06-28T08:10:14Z</time>
      </trkpt>
      <trkpt lat="47.12439" lon="-1.79016">
        <ele>75</ele>
        <time>2022-06-28T08:10:16Z</time>
      </trkpt>
      <trkpt lat="47.12434" lon="-1.79038">
        <ele>75</ele>
        <time>2022-06-28T08:10:18Z</time>
      </trkpt>
      <trkpt lat="47.12429" lon="-1.7906">
        <ele>75</ele>
        <time>2022-06-28T08:10:20Z</time>
      </trkpt>
      <trkpt lat="47.12424" lon="-1.79082">
        <ele>75</ele>
        <time>2022-06-28T08:10:22Z</time>
      </trkpt>
      <trkpt lat="47.1242" lon="-1.79104">
        <ele>75</ele>
        <time>2022-06-28T08:10:24Z</time>
      </trkpt>
      <trkpt lat="47.12417" lon="-1.79125">
        <ele>76</ele>
        <time>2022-06-28T08:10:26Z</time>
      </trkpt>
      <trkpt lat="47.12416" lon="-1.79148">
        <ele>75</ele>
        <time>2022-06-28T08:10:28Z</time>
      </trkpt>
      <trkpt lat="47.12417" lon="-1.79171">
        <ele>75</ele>
        <time>2022-06-28T08:10:30Z</time>
      </trkpt>
      <trkpt lat="47.12419" lon="-1.79194">
        <ele>75</ele>
        <time>2022-06-28T08:10:32Z</time>
      </trkpt>
      <trkpt lat="47.12421" lon="-1.79217">
        <ele>75</ele>
        <time>2022-06-28T08:10:34Z</time>
      </trkpt>
      <trkpt lat="47.12423" lon="-1.7924">
        <ele>75</ele>
        <time>2022-06-28T08:10:36Z</time>
      </trkpt>
      <trkpt lat="47.12421" lon="-1.79263">
        <ele>75</ele>
        <time>2022-06-28T08:10:38Z</time>
      </trkpt>
      <trkpt lat="47.12414" lon="-1.79285">
        <ele>75</ele>
        <time>2022-06-28T08:10:40Z</time>
      </trkpt>
      <trkpt lat="47.12406" lon="-1.79305">
        <ele>75</ele>
        <time>2022-06-28T08:10:42Z</time>
      </trkpt>
      <trkpt lat="47.12397" lon="-1.79323">
        <ele>75</ele>
        <time>2022-06-28T08:10:44Z</time>
      </trkpt>
      <trkpt lat="47.12388" lon="-1.79343">
        <ele>75</ele>
        <time>2022-06-28T08:10:46Z</time>
      </trkpt>
      <trkpt lat="47.12379" lon="-1.79361">
        <ele>75</ele>
        <time>2022-06-28T08:10:48Z</time>
      </trkpt>
      <trkpt lat="47.1237" lon="-1.7938">
        <ele>75</ele>
        <time>2022-06-28T08:10:50Z</time>
      </trkpt>
      <trkpt lat="47.12362" lon="-1.79399">
        <ele>75</ele>
        <time>2022-06-28T08:10:52Z</time>
      </trkpt>
      <trkpt lat="47.12355" lon="-1.79418">
        <ele>75</ele>
        <time>2022-06-28T08:10:54Z</time>
      </trkpt>
      <trkpt lat="47.1235" lon="-1.7944">
        <ele>75</ele>
        <time>2022-06-28T08:10:56Z</time>
      </trkpt>
      <trkpt lat="47.12346" lon="-1.79461">
        <ele>75</ele>
        <time>2022-06-28T08:10:58Z</time>
      </trkpt>
      <trkpt lat="47.12343" lon="-1.79483">
        <ele>75</ele>
        <time>2022-06-28T08:11:00Z</time>
      </trkpt>
      <trkpt lat="47.1234" lon="-1.79505">
        <ele>75</ele>
        <time>2022-06-28T08:11:02Z</time>
      </trkpt>
      <trkpt lat="47.12337" lon="-1.79528">
        <ele>75</ele>
        <time>2022-06-28T08:11:04Z</time>
      </trkpt>
      <trkpt lat="47.12335" lon="-1.7955">
        <ele>76</ele>
        <time>2022-06-28T08:11:06Z</time>
      </trkpt>
      <trkpt lat="47.12331" lon="-1.79572">
        <ele>76</ele>
        <time>2022-06-28T08:11:08Z</time>
      </trkpt>
      <trkpt lat="47.12322" lon="-1.7959">
        <ele>76</ele>
        <time>2022-06-28T08:11:10Z</time>
      </trkpt>
      <trkpt lat="47.12306" lon="-1.79594">
        <ele>75</ele>
        <time>2022-06-28T08:11:12Z</time>
      </trkpt>
      <trkpt lat="47.12289" lon="-1.79595">
        <ele>76</ele>
        <time>2022-06-28T08:11:14Z</time>
      </trkpt>
      <trkpt lat="47.12272" lon="-1.79595">
        <ele>75</ele>
        <time>2022-06-28T08:11:16Z</time>
      </trkpt>
      <trkpt lat="47.12256" lon="-1.79595">
        <ele>76</ele>
        <time>2022-06-28T08:11:18Z</time>
      </trkpt>
      <trkpt lat="47.12239" lon="-1.79596">
        <ele>76</ele>
        <time>2022-06-28T08:11:20Z</time>
      </trkpt>
      <trkpt lat="47.12224" lon="-1.79596">
        <ele>76</ele>
        <time>2022-06-28T08:11:22Z</time>
      </trkpt>
      <trkpt lat="47.12208" lon="-1.79595">
        <ele>76</ele>
        <time>2022-06-28T08:11:24Z</time>
      </trkpt>
      <trkpt lat="47.12193" lon="-1.79595">
        <ele>76</ele>
        <time>2022-06-28T08:11:26Z</time>
      </trkpt>
      <trkpt lat="47.12177" lon="-1.79594">
        <ele>76</ele>
        <time>2022-06-28T08:11:28Z</time>
      </trkpt>
      <trkpt lat="47.12161" lon="-1.79595">
        <ele>76</ele>
        <time>2022-06-28T08:11:30Z</time>
      </trkpt>
      <trkpt lat="47.12145" lon="-1.79595">
        <ele>76</ele>
        <time>2022-06-28T08:11:32Z</time>
      </trkpt>
      <trkpt lat="47.12129" lon="-1.79597">
        <ele>75</ele>
        <time>2022-06-28T08:11:34Z</time>
      </trkpt>
      <trkpt lat="47.12113" lon="-1.79598">
        <ele>75</ele>
        <time>2022-06-28T08:11:36Z</time>
      </trkpt>
      <trkpt lat="47.12097" lon="-1.79601">
        <ele>75</ele>
        <time>2022-06-28T08:11:38Z</time>
      </trkpt>
      <trkpt lat="47.12083" lon="-1.79611">
        <ele>74</ele>
        <time>2022-06-28T08:11:40Z</time>
      </trkpt>
      <trkpt lat="47.12068" lon="-1.79624">
        <ele>74</ele>
        <time>2022-06-28T08:11:42Z</time>
      </trkpt>
      <trkpt lat="47.12054" lon="-1.79638">
        <ele>74</ele>
        <time>2022-06-28T08:11:44Z</time>
      </trkpt>
      <trkpt lat="47.1204" lon="-1.79652">
        <ele>74</ele>
        <time>2022-06-28T08:11:46Z</time>
      </trkpt>
      <trkpt lat="47.12027" lon="-1.79666">
        <ele>74</ele>
        <time>2022-06-28T08:11:48Z</time>
      </trkpt>
      <trkpt lat="47.12013" lon="-1.7968">
        <ele>73</ele>
        <time>2022-06-28T08:11:50Z</time>
      </trkpt>
      <trkpt lat="47.11999" lon="-1.79694">
        <ele>73</ele>
        <time>2022-06-28T08:11:52Z</time>
      </trkpt>
      <trkpt lat="47.11985" lon="-1.79709">
        <ele>73</ele>
        <time>2022-06-28T08:11:54Z</time>
      </trkpt>
      <trkpt lat="47.11972" lon="-1.79723">
        <ele>73</ele>
        <time>2022-06-28T08:11:56Z</time>
      </trkpt>
      <trkpt lat="47.11959" lon="-1.79738">
        <ele>73</ele>
        <time>2022-06-28T08:11:58Z</time>
      </trkpt>
      <trkpt lat="47.11946" lon="-1.79753">
        <ele>73</ele>
        <time>2022-06-28T08:12:00Z</time>
      </trkpt>
      <trkpt lat="47.11934" lon="-1.79769">
        <ele>73</ele>
        <time>2022-06-28T08:12:02Z</time>
      </trkpt>
      <trkpt lat="47.11922" lon="-1.79784">
        <ele>73</ele>
        <time>2022-06-28T08:12:04Z</time>
      </trkpt>
      <trkpt lat="47.1191" lon="-1.79799">
        <ele>73</ele>
        <time>2022-06-28T08:12:06Z</time>
      </trkpt>
      <trkpt lat="47.11898" lon="-1.79814">
        <ele>73</ele>
        <time>2022-06-28T08:12:08Z</time>
      </trkpt>
      <trkpt lat="47.11886" lon="-1.79829">
        <ele>73</ele>
        <time>2022-06-28T08:12:10Z</time>
      </trkpt>
      <trkpt lat="47.11873" lon="-1.79843">
        <ele>72</ele>
        <time>2022-06-28T08:12:12Z</time>
      </trkpt>
      <trkpt lat="47.1186" lon="-1.79857">
        <ele>72</ele>
        <time>2022-06-28T08:12:14Z</time>
      </trkpt>
      <trkpt lat="47.11848" lon="-1.7987">
        <ele>72</ele>
        <time>2022-06-28T08:12:16Z</time>
      </trkpt>
      <trkpt lat="47.11835" lon="-1.79884">
        <ele>72</ele>
        <time>2022-06-28T08:12:18Z</time>
      </trkpt>
      <trkpt lat="47.11824" lon="-1.79897">
        <ele>72</ele>
        <time>2022-06-28T08:12:20Z</time>
      </trkpt>
      <trkpt lat="47.11813" lon="-1.79909">
        <ele>71</ele>
        <time>2022-06-28T08:12:22Z</time>
      </trkpt>
      <trkpt lat="47.11803" lon="-1.7992">
        <ele>71</ele>
        <time>2022-06-28T08:12:24Z</time>
      </trkpt>
      <trkpt lat="47.11794" lon="-1.7993">
        <ele>71</ele>
        <time>2022-06-28T08:12:26Z</time>
      </trkpt>
      <trkpt lat="47.11785" lon="-1.7994">
        <ele>71</ele>
        <time>2022-06-28T08:12:28Z</time>
      </trkpt>
      <trkpt lat="47.11776" lon="-1.7995">
        <ele>71</ele>
        <time>2022-06-28T08:12:30Z</time>
      </trkpt>
      <trkpt lat="47.11768" lon="-1.79959">
        <ele>71</ele>
        <time>2022-06-28T08:12:32Z</time>
      </trkpt>
      <trkpt lat="47.11761" lon="-1.7997">
        <ele>71</ele>
        <time>2022-06-28T08:12:34Z</time>
      </trkpt>
      <trkpt lat="47.11751" lon="-1.79976">
        <ele>71</ele>
        <time>2022-06-28T08:12:36Z</time>
      </trkpt>
      <trkpt lat="47.11738" lon="-1.79977">
        <ele>71</ele>
        <time>2022-06-28T08:12:38Z</time>
      </trkpt>
      <trkpt lat="47.11724" lon="-1.79976">
        <ele>71</ele>
        <time>2022-06-28T08:12:40Z</time>
      </trkpt>
      <trkpt lat="47.11711" lon="-1.79974">
        <ele>72</ele>
        <time>2022-06-28T08:12:42Z</time>
      </trkpt>
      <trkpt lat="47.11697" lon="-1.79971">
        <ele>72</ele>
        <time>2022-06-28T08:12:44Z</time>
      </trkpt>
      <trkpt lat="47.11684" lon="-1.79968">
        <ele>72</ele>
        <time>2022-06-28T08:12:46Z</time>
      </trkpt>
      <trkpt lat="47.1167" lon="-1.79967">
        <ele>72</ele>
        <time>2022-06-28T08:12:48Z</time>
      </trkpt>
      <trkpt lat="47.11657" lon="-1.79965">
        <ele>72</ele>
        <time>2022-06-28T08:12:50Z</time>
      </trkpt>
      <trkpt lat="47.11643" lon="-1.79963">
        <ele>72</ele>
        <time>2022-06-28T08:12:52Z</time>
      </trkpt>
      <trkpt lat="47.11628" lon="-1.79961">
        <ele>73</ele>
        <time>2022-06-28T08:12:54Z</time>
      </trkpt>
      <trkpt lat="47.11614" lon="-1.79959">
        <ele>73</ele>
        <time>2022-06-28T08:12:56Z</time>
      </trkpt>
      <trkpt lat="47.11601" lon="-1.79957">
        <ele>72</ele>
        <time>2022-06-28T08:12:58Z</time>
      </trkpt>
      <trkpt lat="47.11587" lon="-1.79956">
        <ele>72</ele>
        <time>2022-06-28T08:13:00Z</time>
      </trkpt>
      <trkpt lat="47.11574" lon="-1.79954">
        <ele>72</ele>
        <time>2022-06-28T08:13:02Z</time>
      </trkpt>
      <trkpt lat="47.1156" lon="-1.79957">
        <ele>71</ele>
        <time>2022-06-28T08:13:04Z</time>
      </trkpt>
      <trkpt lat="47.11547" lon="-1.79962">
        <ele>71</ele>
        <time>2022-06-28T08:13:06Z</time>
      </trkpt>
      <trkpt lat="47.11535" lon="-1.79971">
        <ele>71</ele>
        <time>2022-06-28T08:13:08Z</time>
      </trkpt>
      <trkpt lat="47.11524" lon="-1.79982">
        <ele>70</ele>
        <time>2022-06-28T08:13:10Z</time>
      </trkpt>
      <trkpt lat="47.11513" lon="-1.79994">
        <ele>70</ele>
        <time>2022-06-28T08:13:12Z</time>
      </trkpt>
      <trkpt lat="47.11502" lon="-1.80007">
        <ele>70</ele>
        <time>2022-06-28T08:13:14Z</time>
      </trkpt>
      <trkpt lat="47.11492" lon="-1.80021">
        <ele>70</ele>
        <time>2022-06-28T08:13:16Z</time>
      </trkpt>
      <trkpt lat="47.11483" lon="-1.80034">
        <ele>70</ele>
        <time>2022-06-28T08:13:18Z</time>
      </trkpt>
      <trkpt lat="47.11473" lon="-1.80047">
        <ele>70</ele>
        <time>2022-06-28T08:13:20Z</time>
      </trkpt>
      <trkpt lat="47.11463" lon="-1.8006">
        <ele>69</ele>
        <time>2022-06-28T08:13:22Z</time>
      </trkpt>
      <trkpt lat="47.11453" lon="-1.80073">
        <ele>69</ele>
        <time>2022-06-28T08:13:24Z</time>
      </trkpt>
      <trkpt lat="47.11443" lon="-1.80086">
        <ele>69</ele>
        <time>2022-06-28T08:13:26Z</time>
      </trkpt>
      <trkpt lat="47.11432" lon="-1.80099">
        <ele>68</ele>
        <time>2022-06-28T08:13:28Z</time>
      </trkpt>
      <trkpt lat="47.11423" lon="-1.80113">
        <ele>68</ele>
        <time>2022-06-28T08:13:30Z</time>
      </trkpt>
      <trkpt lat="47.11413" lon="-1.80126">
        <ele>67</ele>
        <time>2022-06-28T08:13:32Z</time>
      </trkpt>
      <trkpt lat="47.11403" lon="-1.80139">
        <ele>67</ele>
        <time>2022-06-28T08:13:34Z</time>
      </trkpt>
      <trkpt lat="47.11393" lon="-1.80152">
        <ele>67</ele>
        <time>2022-06-28T08:13:36Z</time>
      </trkpt>
      <trkpt lat="47.11383" lon="-1.80165">
        <ele>67</ele>
        <time>2022-06-28T08:13:38Z</time>
      </trkpt>
      <trkpt lat="47.11373" lon="-1.80179">
        <ele>67</ele>
        <time>2022-06-28T08:13:40Z</time>
      </trkpt>
      <trkpt lat="47.11363" lon="-1.80192">
        <ele>67</ele>
        <time>2022-06-28T08:13:42Z</time>
      </trkpt>
      <trkpt lat="47.11353" lon="-1.80205">
        <ele>67</ele>
        <time>2022-06-28T08:13:44Z</time>
      </trkpt>
      <trkpt lat="47.11344" lon="-1.8022">
        <ele>66</ele>
        <time>2022-06-28T08:13:46Z</time>
      </trkpt>
      <trkpt lat="47.11334" lon="-1.80233">
        <ele>66</ele>
        <time>2022-06-28T08:13:48Z</time>
      </trkpt>
      <trkpt lat="47.11324" lon="-1.80247">
        <ele>66</ele>
        <time>2022-06-28T08:13:50Z</time>
      </trkpt>
      <trkpt lat="47.11315" lon="-1.80261">
        <ele>66</ele>
        <time>2022-06-28T08:13:52Z</time>
      </trkpt>
      <trkpt lat="47.11305" lon="-1.80275">
        <ele>66</ele>
        <time>2022-06-28T08:13:54Z</time>
      </trkpt>
      <trkpt lat="47.11295" lon="-1.80288">
        <ele>65</ele>
        <time>2022-06-28T08:13:56Z</time>
      </trkpt>
      <trkpt lat="47.11285" lon="-1.80302">
        <ele>65</ele>
        <time>2022-06-28T08:13:58Z</time>
      </trkpt>
      <trkpt lat="47.11275" lon="-1.80316">
        <ele>65</ele>
        <time>2022-06-28T08:14:00Z</time>
      </trkpt>
      <trkpt lat="47.11265" lon="-1.80329">
        <ele>65</ele>
        <time>2022-06-28T08:14:02Z</time>
      </trkpt>
      <trkpt lat="47.11255" lon="-1.80343">
        <ele>65</ele>
        <time>2022-06-28T08:14:04Z</time>
      </trkpt>
      <trkpt lat="47.11245" lon="-1.80357">
        <ele>65</ele>
        <time>2022-06-28T08:14:06Z</time>
      </trkpt>
      <trkpt lat="47.11235" lon="-1.80369">
        <ele>65</ele>
        <time>2022-06-28T08:14:08Z</time>
      </trkpt>
      <trkpt lat="47.11225" lon="-1.80382">
        <ele>65</ele>
        <time>2022-06-28T08:14:10Z</time>
      </trkpt>
      <trkpt lat="47.11215" lon="-1.80394">
        <ele>66</ele>
        <time>2022-06-28T08:14:12Z</time>
      </trkpt>
      <trkpt lat="47.11204" lon="-1.80406">
        <ele>65</ele>
        <time>2022-06-28T08:14:14Z</time>
      </trkpt>
      <trkpt lat="47.11193" lon="-1.80417">
        <ele>65</ele>
        <time>2022-06-28T08:14:16Z</time>
      </trkpt>
      <trkpt lat="47.11182" lon="-1.80426">
        <ele>65</ele>
        <time>2022-06-28T08:14:18Z</time>
      </trkpt>
      <trkpt lat="47.1117" lon="-1.80435">
        <ele>65</ele>
        <time>2022-06-28T08:14:20Z</time>
      </trkpt>
      <trkpt lat="47.11159" lon="-1.80443">
        <ele>65</ele>
        <time>2022-06-28T08:14:22Z</time>
      </trkpt>
      <trkpt lat="47.11147" lon="-1.80451">
        <ele>65</ele>
        <time>2022-06-28T08:14:24Z</time>
      </trkpt>
      <trkpt lat="47.11136" lon="-1.80458">
        <ele>65</ele>
        <time>2022-06-28T08:14:26Z</time>
      </trkpt>
      <trkpt lat="47.11124" lon="-1.80466">
        <ele>65</ele>
        <time>2022-06-28T08:14:28Z</time>
      </trkpt>
      <trkpt lat="47.11112" lon="-1.80474">
        <ele>65</ele>
        <time>2022-06-28T08:14:30Z</time>
      </trkpt>
      <trkpt lat="47.11101" lon="-1.80482">
        <ele>65</ele>
        <time>2022-06-28T08:14:32Z</time>
      </trkpt>
      <trkpt lat="47.11089" lon="-1.8049">
        <ele>65</ele>
        <time>2022-06-28T08:14:34Z</time>
      </trkpt>
      <trkpt lat="47.11078" lon="-1.80498">
        <ele>66</ele>
        <time>2022-06-28T08:14:36Z</time>
      </trkpt>
      <trkpt lat="47.11066" lon="-1.80505">
        <ele>66</ele>
        <time>2022-06-28T08:14:38Z</time>
      </trkpt>
      <trkpt lat="47.11055" lon="-1.80513">
        <ele>65</ele>
        <time>2022-06-28T08:14:40Z</time>
      </trkpt>
      <trkpt lat="47.11044" lon="-1.80521">
        <ele>65</ele>
        <time>2022-06-28T08:14:42Z</time>
      </trkpt>
      <trkpt lat="47.11033" lon="-1.80528">
        <ele>65</ele>
        <time>2022-06-28T08:14:44Z</time>
      </trkpt>
      <trkpt lat="47.11021" lon="-1.80535">
        <ele>66</ele>
        <time>2022-06-28T08:14:46Z</time>
      </trkpt>
      <trkpt lat="47.1101" lon="-1.80542">
        <ele>65</ele>
        <time>2022-06-28T08:14:48Z</time>
      </trkpt>
      <trkpt lat="47.10998" lon="-1.8055">
        <ele>65</ele>
        <time>2022-06-28T08:14:50Z</time>
      </trkpt>
      <trkpt lat="47.10987" lon="-1.80558">
        <ele>66</ele>
        <time>2022-06-28T08:14:52Z</time>
      </trkpt>
      <trkpt lat="47.10975" lon="-1.80566">
        <ele>65</ele>
        <time>2022-06-28T08:14:54Z</time>
      </trkpt>
      <trkpt lat="47.10964" lon="-1.80574">
        <ele>65</ele>
        <time>2022-06-28T08:14:56Z</time>
      </trkpt>
      <trkpt lat="47.10953" lon="-1.80582">
        <ele>65</ele>
        <time>2022-06-28T08:14:58Z</time>
      </trkpt>
      <trkpt lat="47.10941" lon="-1.80589">
        <ele>65</ele>
        <time>2022-06-28T08:15:00Z</time>
      </trkpt>
      <trkpt lat="47.10929" lon="-1.80597">
        <ele>65</ele>
        <time>2022-06-28T08:15:02Z</time>
      </trkpt>
      <trkpt lat="47.10917" lon="-1.80604">
        <ele>65</ele>
        <time>2022-06-28T08:15:04Z</time>
      </trkpt>
      <trkpt lat="47.10905" lon="-1.80611">
        <ele>65</ele>
        <time>2022-06-28T08:15:06Z</time>
      </trkpt>
      <trkpt lat="47.10893" lon="-1.80619">
        <ele>65</ele>
        <time>2022-06-28T08:15:08Z</time>
      </trkpt>
      <trkpt lat="47.10882" lon="-1.80626">
        <ele>65</ele>
        <time>2022-06-28T08:15:10Z</time>
      </trkpt>
      <trkpt lat="47.1087" lon="-1.80632">
        <ele>65</ele>
        <time>2022-06-28T08:15:12Z</time>
      </trkpt>
      <trkpt lat="47.10858" lon="-1.80638">
        <ele>65</ele>
        <time>2022-06-28T08:15:14Z</time>
      </trkpt>
      <trkpt lat="47.10847" lon="-1.80644">
        <ele>65</ele>
        <time>2022-06-28T08:15:16Z</time>
      </trkpt>
      <trkpt lat="47.10835" lon="-1.80648">
        <ele>65</ele>
        <time>2022-06-28T08:15:18Z</time>
      </trkpt>
      <trkpt lat="47.10823" lon="-1.80653">
        <ele>64</ele>
        <time>2022-06-28T08:15:20Z</time>
      </trkpt>
      <trkpt lat="47.1081" lon="-1.80658">
        <ele>64</ele>
        <time>2022-06-28T08:15:22Z</time>
      </trkpt>
      <trkpt lat="47.10797" lon="-1.80663">
        <ele>64</ele>
        <time>2022-06-28T08:15:24Z</time>
      </trkpt>
      <trkpt lat="47.10784" lon="-1.80668">
        <ele>63</ele>
        <time>2022-06-28T08:15:26Z</time>
      </trkpt>
      <trkpt lat="47.10771" lon="-1.80672">
        <ele>63</ele>
        <time>2022-06-28T08:15:28Z</time>
      </trkpt>
      <trkpt lat="47.10758" lon="-1.80677">
        <ele>63</ele>
        <time>2022-06-28T08:15:30Z</time>
      </trkpt>
      <trkpt lat="47.10745" lon="-1.8068">
        <ele>63</ele>
        <time>2022-06-28T08:15:32Z</time>
      </trkpt>
      <trkpt lat="47.10732" lon="-1.80683">
        <ele>63</ele>
        <time>2022-06-28T08:15:34Z</time>
      </trkpt>
      <trkpt lat="47.10719" lon="-1.80685">
        <ele>63</ele>
        <time>2022-06-28T08:15:36Z</time>
      </trkpt>
      <trkpt lat="47.10706" lon="-1.80686">
        <ele>63</ele>
        <time>2022-06-28T08:15:38Z</time>
      </trkpt>
      <trkpt lat="47.10694" lon="-1.80687">
        <ele>63</ele>
        <time>2022-06-28T08:15:40Z</time>
      </trkpt>
      <trkpt lat="47.10681" lon="-1.80689">
        <ele>63</ele>
        <time>2022-06-28T08:15:42Z</time>
      </trkpt>
      <trkpt lat="47.10668" lon="-1.8069">
        <ele>63</ele>
        <time>2022-06-28T08:15:44Z</time>
      </trkpt>
      <trkpt lat="47.10656" lon="-1.80691">
        <ele>64</ele>
        <time>2022-06-28T08:15:46Z</time>
      </trkpt>
      <trkpt lat="47.10643" lon="-1.80692">
        <ele>64</ele>
        <time>2022-06-28T08:15:48Z</time>
      </trkpt>
      <trkpt lat="47.10631" lon="-1.80694">
        <ele>63</ele>
        <time>2022-06-28T08:15:50Z</time>
      </trkpt>
      <trkpt lat="47.10619" lon="-1.80698">
        <ele>63</ele>
        <time>2022-06-28T08:15:52Z</time>
      </trkpt>
      <trkpt lat="47.10607" lon="-1.80703">
        <ele>63</ele>
        <time>2022-06-28T08:15:54Z</time>
      </trkpt>
      <trkpt lat="47.10594" lon="-1.80709">
        <ele>63</ele>
        <time>2022-06-28T08:15:56Z</time>
      </trkpt>
      <trkpt lat="47.10582" lon="-1.80716">
        <ele>62</ele>
        <time>2022-06-28T08:15:58Z</time>
      </trkpt>
      <trkpt lat="47.10572" lon="-1.80725">
        <ele>62</ele>
        <time>2022-06-28T08:16:00Z</time>
      </trkpt>
      <trkpt lat="47.10562" lon="-1.80736">
        <ele>62</ele>
        <time>2022-06-28T08:16:02Z</time>
      </trkpt>
      <trkpt lat="47.10552" lon="-1.80747">
        <ele>62</ele>
        <time>2022-06-28T08:16:04Z</time>
      </trkpt>
      <trkpt lat="47.10542" lon="-1.80759">
        <ele>62</ele>
        <time>2022-06-28T08:16:06Z</time>
      </trkpt>
      <trkpt lat="47.10533" lon="-1.80771">
        <ele>62</ele>
        <time>2022-06-28T08:16:08Z</time>
      </trkpt>
      <trkpt lat="47.10523" lon="-1.80783">
        <ele>61</ele>
        <time>2022-06-28T08:16:10Z</time>
      </trkpt>
      <trkpt lat="47.10515" lon="-1.80797">
        <ele>61</ele>
        <time>2022-06-28T08:16:12Z</time>
      </trkpt>
      <trkpt lat="47.10505" lon="-1.80808">
        <ele>61</ele>
        <time>2022-06-28T08:16:14Z</time>
      </trkpt>
      <trkpt lat="47.10493" lon="-1.80815">
        <ele>60</ele>
        <time>2022-06-28T08:16:16Z</time>
      </trkpt>
      <trkpt lat="47.10483" lon="-1.80825">
        <ele>60</ele>
        <time>2022-06-28T08:16:18Z</time>
      </trkpt>
      <trkpt lat="47.10475" lon="-1.80838">
        <ele>60</ele>
        <time>2022-06-28T08:16:20Z</time>
      </trkpt>
      <trkpt lat="47.10466" lon="-1.80851">
        <ele>60</ele>
        <time>2022-06-28T08:16:22Z</time>
      </trkpt>
      <trkpt lat="47.10458" lon="-1.80864">
        <ele>60</ele>
        <time>2022-06-28T08:16:24Z</time>
      </trkpt>
      <trkpt lat="47.1045" lon="-1.80878">
        <ele>60</ele>
        <time>2022-06-28T08:16:26Z</time>
      </trkpt>
      <trkpt lat="47.10442" lon="-1.80892">
        <ele>60</ele>
        <time>2022-06-28T08:16:28Z</time>
      </trkpt>
      <trkpt lat="47.10434" lon="-1.80905">
        <ele>60</ele>
        <time>2022-06-28T08:16:30Z</time>
      </trkpt>
      <trkpt lat="47.10426" lon="-1.80918">
        <ele>60</ele>
        <time>2022-06-28T08:16:32Z</time>
      </trkpt>
      <trkpt lat="47.10418" lon="-1.8093">
        <ele>60</ele>
        <time>2022-06-28T08:16:34Z</time>
      </trkpt>
      <trkpt lat="47.1041" lon="-1.80942">
        <ele>60</ele>
        <time>2022-06-28T08:16:36Z</time>
      </trkpt>
      <trkpt lat="47.10402" lon="-1.80955">
        <ele>60</ele>
        <time>2022-06-28T08:16:38Z</time>
      </trkpt>
      <trkpt lat="47.10395" lon="-1.80967">
        <ele>60</ele>
        <time>2022-06-28T08:16:40Z</time>
      </trkpt>
      <trkpt lat="47.10387" lon="-1.80979">
        <ele>60</ele>
        <time>2022-06-28T08:16:42Z</time>
      </trkpt>
      <trkpt lat="47.10381" lon="-1.80988">
        <ele>60</ele>
        <time>2022-06-28T08:16:44Z</time>
      </trkpt>
      <trkpt lat="47.10375" lon="-1.81">
        <ele>61</ele>
        <time>2022-06-28T08:16:46Z</time>
      </trkpt>
      <trkpt lat="47.10372" lon="-1.81013">
        <ele>61</ele>
        <time>2022-06-28T08:16:48Z</time>
      </trkpt>
      <trkpt lat="47.10367" lon="-1.81026">
        <ele>61</ele>
        <time>2022-06-28T08:16:50Z</time>
      </trkpt>
      <trkpt lat="47.10361" lon="-1.81042">
        <ele>62</ele>
        <time>2022-06-28T08:16:53Z</time>
      </trkpt>
      <trkpt lat="47.1035" lon="-1.81044">
        <ele>63</ele>
        <time>2022-06-28T08:16:56Z</time>
      </trkpt>
      <trkpt lat="47.10343" lon="-1.81032">
        <ele>62</ele>
        <time>2022-06-28T08:16:58Z</time>
      </trkpt>
      <trkpt lat="47.10335" lon="-1.8102">
        <ele>62</ele>
        <time>2022-06-28T08:17:00Z</time>
      </trkpt>
      <trkpt lat="47.10324" lon="-1.81012">
        <ele>62</ele>
        <time>2022-06-28T08:17:02Z</time>
      </trkpt>
      <trkpt lat="47.10313" lon="-1.81008">
        <ele>62</ele>
        <time>2022-06-28T08:17:04Z</time>
      </trkpt>
      <trkpt lat="47.103" lon="-1.81007">
        <ele>62</ele>
        <time>2022-06-28T08:17:06Z</time>
      </trkpt>
      <trkpt lat="47.10287" lon="-1.81007">
        <ele>62</ele>
        <time>2022-06-28T08:17:08Z</time>
      </trkpt>
      <trkpt lat="47.10274" lon="-1.81007">
        <ele>62</ele>
        <time>2022-06-28T08:17:10Z</time>
      </trkpt>
      <trkpt lat="47.1026" lon="-1.81008">
        <ele>61</ele>
        <time>2022-06-28T08:17:12Z</time>
      </trkpt>
      <trkpt lat="47.10246" lon="-1.81009">
        <ele>61</ele>
        <time>2022-06-28T08:17:14Z</time>
      </trkpt>
      <trkpt lat="47.10233" lon="-1.81011">
        <ele>60</ele>
        <time>2022-06-28T08:17:16Z</time>
      </trkpt>
      <trkpt lat="47.10219" lon="-1.8101">
        <ele>60</ele>
        <time>2022-06-28T08:17:18Z</time>
      </trkpt>
      <trkpt lat="47.102" lon="-1.81003">
        <ele>62</ele>
        <time>2022-06-28T08:17:21Z</time>
      </trkpt>
      <trkpt lat="47.10187" lon="-1.80998">
        <ele>62</ele>
        <time>2022-06-28T08:17:23Z</time>
      </trkpt>
      <trkpt lat="47.10167" lon="-1.8099">
        <ele>63</ele>
        <time>2022-06-28T08:17:26Z</time>
      </trkpt>
      <trkpt lat="47.10156" lon="-1.80983">
        <ele>63</ele>
        <time>2022-06-28T08:17:28Z</time>
      </trkpt>
      <trkpt lat="47.10144" lon="-1.80977">
        <ele>62</ele>
        <time>2022-06-28T08:17:30Z</time>
      </trkpt>
      <trkpt lat="47.10132" lon="-1.80974">
        <ele>61</ele>
        <time>2022-06-28T08:17:32Z</time>
      </trkpt>
      <trkpt lat="47.10119" lon="-1.80973">
        <ele>60</ele>
        <time>2022-06-28T08:17:34Z</time>
      </trkpt>
      <trkpt lat="47.10101" lon="-1.80974">
        <ele>60</ele>
        <time>2022-06-28T08:17:37Z</time>
      </trkpt>
      <trkpt lat="47.10089" lon="-1.80974">
        <ele>60</ele>
        <time>2022-06-28T08:17:39Z</time>
      </trkpt>
      <trkpt lat="47.10077" lon="-1.80973">
        <ele>59</ele>
        <time>2022-06-28T08:17:41Z</time>
      </trkpt>
      <trkpt lat="47.10065" lon="-1.80973">
        <ele>59</ele>
        <time>2022-06-28T08:17:43Z</time>
      </trkpt>
      <trkpt lat="47.10048" lon="-1.80972">
        <ele>59</ele>
        <time>2022-06-28T08:17:46Z</time>
      </trkpt>
      <trkpt lat="47.10037" lon="-1.80973">
        <ele>59</ele>
        <time>2022-06-28T08:17:48Z</time>
      </trkpt>
      <trkpt lat="47.10025" lon="-1.80975">
        <ele>58</ele>
        <time>2022-06-28T08:17:50Z</time>
      </trkpt>
      <trkpt lat="47.10014" lon="-1.80977">
        <ele>58</ele>
        <time>2022-06-28T08:17:52Z</time>
      </trkpt>
      <trkpt lat="47.10002" lon="-1.80977">
        <ele>59</ele>
        <time>2022-06-28T08:17:54Z</time>
      </trkpt>
      <trkpt lat="47.0999" lon="-1.80978">
        <ele>59</ele>
        <time>2022-06-28T08:17:56Z</time>
      </trkpt>
      <trkpt lat="47.09978" lon="-1.80979">
        <ele>59</ele>
        <time>2022-06-28T08:17:58Z</time>
      </trkpt>
      <trkpt lat="47.09967" lon="-1.80979">
        <ele>60</ele>
        <time>2022-06-28T08:18:00Z</time>
      </trkpt>
      <trkpt lat="47.09955" lon="-1.80979">
        <ele>60</ele>
        <time>2022-06-28T08:18:02Z</time>
      </trkpt>
      <trkpt lat="47.09944" lon="-1.8098">
        <ele>60</ele>
        <time>2022-06-28T08:18:04Z</time>
      </trkpt>
      <trkpt lat="47.09933" lon="-1.80982">
        <ele>60</ele>
        <time>2022-06-28T08:18:06Z</time>
      </trkpt>
      <trkpt lat="47.09921" lon="-1.80983">
        <ele>61</ele>
        <time>2022-06-28T08:18:08Z</time>
      </trkpt>
      <trkpt lat="47.0991" lon="-1.80984">
        <ele>61</ele>
        <time>2022-06-28T08:18:10Z</time>
      </trkpt>
      <trkpt lat="47.09898" lon="-1.80985">
        <ele>62</ele>
        <time>2022-06-28T08:18:12Z</time>
      </trkpt>
      <trkpt lat="47.09887" lon="-1.80986">
        <ele>62</ele>
        <time>2022-06-28T08:18:14Z</time>
      </trkpt>
      <trkpt lat="47.09875" lon="-1.80987">
        <ele>62</ele>
        <time>2022-06-28T08:18:16Z</time>
      </trkpt>
      <trkpt lat="47.09863" lon="-1.80987">
        <ele>63</ele>
        <time>2022-06-28T08:18:18Z</time>
      </trkpt>
      <trkpt lat="47.09852" lon="-1.80988">
        <ele>63</ele>
        <time>2022-06-28T08:18:20Z</time>
      </trkpt>
      <trkpt lat="47.09841" lon="-1.80989">
        <ele>63</ele>
        <time>2022-06-28T08:18:22Z</time>
      </trkpt>
      <trkpt lat="47.09829" lon="-1.80989">
        <ele>62</ele>
        <time>2022-06-28T08:18:24Z</time>
      </trkpt>
      <trkpt lat="47.09817" lon="-1.8099">
        <ele>62</ele>
        <time>2022-06-28T08:18:26Z</time>
      </trkpt>
      <trkpt lat="47.09806" lon="-1.80992">
        <ele>63</ele>
        <time>2022-06-28T08:18:28Z</time>
      </trkpt>
      <trkpt lat="47.09795" lon="-1.80991">
        <ele>63</ele>
        <time>2022-06-28T08:18:30Z</time>
      </trkpt>
      <trkpt lat="47.09784" lon="-1.8099">
        <ele>64</ele>
        <time>2022-06-28T08:18:32Z</time>
      </trkpt>
      <trkpt lat="47.09772" lon="-1.80988">
        <ele>64</ele>
        <time>2022-06-28T08:18:34Z</time>
      </trkpt>
      <trkpt lat="47.09761" lon="-1.80986">
        <ele>64</ele>
        <time>2022-06-28T08:18:36Z</time>
      </trkpt>
      <trkpt lat="47.09749" lon="-1.80984">
        <ele>64</ele>
        <time>2022-06-28T08:18:38Z</time>
      </trkpt>
      <trkpt lat="47.09737" lon="-1.80981">
        <ele>63</ele>
        <time>2022-06-28T08:18:40Z</time>
      </trkpt>
      <trkpt lat="47.09725" lon="-1.80978">
        <ele>62</ele>
        <time>2022-06-28T08:18:42Z</time>
      </trkpt>
      <trkpt lat="47.09712" lon="-1.80975">
        <ele>62</ele>
        <time>2022-06-28T08:18:44Z</time>
      </trkpt>
      <trkpt lat="47.09701" lon="-1.80973">
        <ele>61</ele>
        <time>2022-06-28T08:18:46Z</time>
      </trkpt>
      <trkpt lat="47.09689" lon="-1.80971">
        <ele>61</ele>
        <time>2022-06-28T08:18:48Z</time>
      </trkpt>
      <trkpt lat="47.09676" lon="-1.80968">
        <ele>61</ele>
        <time>2022-06-28T08:18:50Z</time>
      </trkpt>
      <trkpt lat="47.09664" lon="-1.80965">
        <ele>61</ele>
        <time>2022-06-28T08:18:52Z</time>
      </trkpt>
      <trkpt lat="47.09651" lon="-1.80962">
        <ele>61</ele>
        <time>2022-06-28T08:18:54Z</time>
      </trkpt>
      <trkpt lat="47.09639" lon="-1.80959">
        <ele>62</ele>
        <time>2022-06-28T08:18:56Z</time>
      </trkpt>
      <trkpt lat="47.09627" lon="-1.80956">
        <ele>62</ele>
        <time>2022-06-28T08:18:58Z</time>
      </trkpt>
      <trkpt lat="47.09614" lon="-1.80952">
        <ele>62</ele>
        <time>2022-06-28T08:19:00Z</time>
      </trkpt>
      <trkpt lat="47.09602" lon="-1.8095">
        <ele>61</ele>
        <time>2022-06-28T08:19:02Z</time>
      </trkpt>
      <trkpt lat="47.09589" lon="-1.80947">
        <ele>60</ele>
        <time>2022-06-28T08:19:04Z</time>
      </trkpt>
      <trkpt lat="47.09577" lon="-1.80943">
        <ele>60</ele>
        <time>2022-06-28T08:19:06Z</time>
      </trkpt>
      <trkpt lat="47.09564" lon="-1.8094">
        <ele>59</ele>
        <time>2022-06-28T08:19:08Z</time>
      </trkpt>
      <trkpt lat="47.09552" lon="-1.80937">
        <ele>59</ele>
        <time>2022-06-28T08:19:10Z</time>
      </trkpt>
      <trkpt lat="47.0954" lon="-1.80935">
        <ele>59</ele>
        <time>2022-06-28T08:19:12Z</time>
      </trkpt>
      <trkpt lat="47.09527" lon="-1.80932">
        <ele>59</ele>
        <time>2022-06-28T08:19:14Z</time>
      </trkpt>
      <trkpt lat="47.09515" lon="-1.8093">
        <ele>59</ele>
        <time>2022-06-28T08:19:16Z</time>
      </trkpt>
      <trkpt lat="47.09503" lon="-1.80928">
        <ele>59</ele>
        <time>2022-06-28T08:19:18Z</time>
      </trkpt>
      <trkpt lat="47.09491" lon="-1.80927">
        <ele>59</ele>
        <time>2022-06-28T08:19:20Z</time>
      </trkpt>
      <trkpt lat="47.09479" lon="-1.80929">
        <ele>59</ele>
        <time>2022-06-28T08:19:22Z</time>
      </trkpt>
      <trkpt lat="47.09467" lon="-1.80934">
        <ele>60</ele>
        <time>2022-06-28T08:19:24Z</time>
      </trkpt>
      <trkpt lat="47.09456" lon="-1.80941">
        <ele>60</ele>
        <time>2022-06-28T08:19:26Z</time>
      </trkpt>
      <trkpt lat="47.09445" lon="-1.80947">
        <ele>60</ele>
        <time>2022-06-28T08:19:28Z</time>
      </trkpt>
      <trkpt lat="47.09434" lon="-1.80954">
        <ele>60</ele>
        <time>2022-06-28T08:19:30Z</time>
      </trkpt>
      <trkpt lat="47.09423" lon="-1.80961">
        <ele>60</ele>
        <time>2022-06-28T08:19:32Z</time>
      </trkpt>
      <trkpt lat="47.09411" lon="-1.80967">
        <ele>60</ele>
        <time>2022-06-28T08:19:34Z</time>
      </trkpt>
      <trkpt lat="47.094" lon="-1.80974">
        <ele>60</ele>
        <time>2022-06-28T08:19:36Z</time>
      </trkpt>
      <trkpt lat="47.09387" lon="-1.80981">
        <ele>61</ele>
        <time>2022-06-28T08:19:38Z</time>
      </trkpt>
      <trkpt lat="47.09375" lon="-1.80989">
        <ele>60</ele>
        <time>2022-06-28T08:19:40Z</time>
      </trkpt>
      <trkpt lat="47.09363" lon="-1.80996">
        <ele>59</ele>
        <time>2022-06-28T08:19:42Z</time>
      </trkpt>
      <trkpt lat="47.09351" lon="-1.81003">
        <ele>58</ele>
        <time>2022-06-28T08:19:44Z</time>
      </trkpt>
      <trkpt lat="47.09339" lon="-1.8101">
        <ele>58</ele>
        <time>2022-06-28T08:19:46Z</time>
      </trkpt>
      <trkpt lat="47.09327" lon="-1.81018">
        <ele>58</ele>
        <time>2022-06-28T08:19:48Z</time>
      </trkpt>
      <trkpt lat="47.09315" lon="-1.81024">
        <ele>58</ele>
        <time>2022-06-28T08:19:50Z</time>
      </trkpt>
      <trkpt lat="47.09303" lon="-1.8103">
        <ele>58</ele>
        <time>2022-06-28T08:19:52Z</time>
      </trkpt>
      <trkpt lat="47.09291" lon="-1.81037">
        <ele>58</ele>
        <time>2022-06-28T08:19:54Z</time>
      </trkpt>
      <trkpt lat="47.0928" lon="-1.81044">
        <ele>58</ele>
        <time>2022-06-28T08:19:56Z</time>
      </trkpt>
      <trkpt lat="47.09269" lon="-1.81051">
        <ele>58</ele>
        <time>2022-06-28T08:19:58Z</time>
      </trkpt>
      <trkpt lat="47.0926" lon="-1.81058">
        <ele>57</ele>
        <time>2022-06-28T08:20:00Z</time>
      </trkpt>
      <trkpt lat="47.09253" lon="-1.81065">
        <ele>56</ele>
        <time>2022-06-28T08:20:05Z</time>
      </trkpt>
      <trkpt lat="47.09244" lon="-1.81068">
        <ele>53</ele>
        <time>2022-06-28T08:22:03Z</time>
      </trkpt>
      <trkpt lat="47.09235" lon="-1.81077">
        <ele>53</ele>
        <time>2022-06-28T08:22:06Z</time>
      </trkpt>
      <trkpt lat="47.09227" lon="-1.81087">
        <ele>54</ele>
        <time>2022-06-28T08:22:09Z</time>
      </trkpt>
      <trkpt lat="47.09214" lon="-1.81088">
        <ele>54</ele>
        <time>2022-06-28T08:22:13Z</time>
      </trkpt>
      <trkpt lat="47.09204" lon="-1.81082">
        <ele>54</ele>
        <time>2022-06-28T08:22:15Z</time>
      </trkpt>
      <trkpt lat="47.09196" lon="-1.81075">
        <ele>54</ele>
        <time>2022-06-28T08:22:17Z</time>
      </trkpt>
      <trkpt lat="47.09187" lon="-1.81068">
        <ele>55</ele>
        <time>2022-06-28T08:22:19Z</time>
      </trkpt>
      <trkpt lat="47.09178" lon="-1.8106">
        <ele>55</ele>
        <time>2022-06-28T08:22:21Z</time>
      </trkpt>
      <trkpt lat="47.09168" lon="-1.81054">
        <ele>55</ele>
        <time>2022-06-28T08:22:23Z</time>
      </trkpt>
      <trkpt lat="47.0916" lon="-1.81064">
        <ele>54</ele>
        <time>2022-06-28T08:22:25Z</time>
      </trkpt>
      <trkpt lat="47.09153" lon="-1.8108">
        <ele>54</ele>
        <time>2022-06-28T08:22:27Z</time>
      </trkpt>
      <trkpt lat="47.09144" lon="-1.81095">
        <ele>53</ele>
        <time>2022-06-28T08:22:29Z</time>
      </trkpt>
      <trkpt lat="47.09134" lon="-1.81106">
        <ele>53</ele>
        <time>2022-06-28T08:22:31Z</time>
      </trkpt>
      <trkpt lat="47.09121" lon="-1.81114">
        <ele>53</ele>
        <time>2022-06-28T08:22:33Z</time>
      </trkpt>
      <trkpt lat="47.09107" lon="-1.81117">
        <ele>52</ele>
        <time>2022-06-28T08:22:35Z</time>
      </trkpt>
      <trkpt lat="47.09094" lon="-1.81119">
        <ele>53</ele>
        <time>2022-06-28T08:22:37Z</time>
      </trkpt>
      <trkpt lat="47.0908" lon="-1.81121">
        <ele>52</ele>
        <time>2022-06-28T08:22:39Z</time>
      </trkpt>
      <trkpt lat="47.09068" lon="-1.81127">
        <ele>52</ele>
        <time>2022-06-28T08:22:41Z</time>
      </trkpt>
      <trkpt lat="47.09057" lon="-1.81138">
        <ele>52</ele>
        <time>2022-06-28T08:22:43Z</time>
      </trkpt>
      <trkpt lat="47.09048" lon="-1.81152">
        <ele>52</ele>
        <time>2022-06-28T08:22:45Z</time>
      </trkpt>
      <trkpt lat="47.09042" lon="-1.81169">
        <ele>53</ele>
        <time>2022-06-28T08:22:47Z</time>
      </trkpt>
      <trkpt lat="47.09037" lon="-1.81186">
        <ele>53</ele>
        <time>2022-06-28T08:22:49Z</time>
      </trkpt>
      <trkpt lat="47.09032" lon="-1.81203">
        <ele>53</ele>
        <time>2022-06-28T08:22:51Z</time>
      </trkpt>
      <trkpt lat="47.09027" lon="-1.81221">
        <ele>54</ele>
        <time>2022-06-28T08:22:53Z</time>
      </trkpt>
      <trkpt lat="47.09021" lon="-1.81237">
        <ele>54</ele>
        <time>2022-06-28T08:22:55Z</time>
      </trkpt>
      <trkpt lat="47.09014" lon="-1.81252">
        <ele>55</ele>
        <time>2022-06-28T08:22:57Z</time>
      </trkpt>
      <trkpt lat="47.09006" lon="-1.81266">
        <ele>55</ele>
        <time>2022-06-28T08:22:59Z</time>
      </trkpt>
      <trkpt lat="47.08997" lon="-1.81279">
        <ele>55</ele>
        <time>2022-06-28T08:23:01Z</time>
      </trkpt>
      <trkpt lat="47.08988" lon="-1.81291">
        <ele>55</ele>
        <time>2022-06-28T08:23:03Z</time>
      </trkpt>
      <trkpt lat="47.08979" lon="-1.81303">
        <ele>55</ele>
        <time>2022-06-28T08:23:05Z</time>
      </trkpt>
      <trkpt lat="47.08969" lon="-1.81316">
        <ele>56</ele>
        <time>2022-06-28T08:23:07Z</time>
      </trkpt>
      <trkpt lat="47.0896" lon="-1.81328">
        <ele>55</ele>
        <time>2022-06-28T08:23:09Z</time>
      </trkpt>
      <trkpt lat="47.08951" lon="-1.81341">
        <ele>55</ele>
        <time>2022-06-28T08:23:11Z</time>
      </trkpt>
      <trkpt lat="47.08941" lon="-1.81353">
        <ele>55</ele>
        <time>2022-06-28T08:23:13Z</time>
      </trkpt>
      <trkpt lat="47.08931" lon="-1.81364">
        <ele>55</ele>
        <time>2022-06-28T08:23:15Z</time>
      </trkpt>
      <trkpt lat="47.08921" lon="-1.81375">
        <ele>56</ele>
        <time>2022-06-28T08:23:17Z</time>
      </trkpt>
      <trkpt lat="47.08911" lon="-1.81385">
        <ele>56</ele>
        <time>2022-06-28T08:23:19Z</time>
      </trkpt>
      <trkpt lat="47.089" lon="-1.81396">
        <ele>56</ele>
        <time>2022-06-28T08:23:21Z</time>
      </trkpt>
      <trkpt lat="47.08891" lon="-1.81407">
        <ele>56</ele>
        <time>2022-06-28T08:23:23Z</time>
      </trkpt>
      <trkpt lat="47.08882" lon="-1.8142">
        <ele>56</ele>
        <time>2022-06-28T08:23:25Z</time>
      </trkpt>
      <trkpt lat="47.08873" lon="-1.81432">
        <ele>57</ele>
        <time>2022-06-28T08:23:27Z</time>
      </trkpt>
      <trkpt lat="47.08864" lon="-1.81443">
        <ele>58</ele>
        <time>2022-06-28T08:23:29Z</time>
      </trkpt>
      <trkpt lat="47.08854" lon="-1.81454">
        <ele>58</ele>
        <time>2022-06-28T08:23:31Z</time>
      </trkpt>
      <trkpt lat="47.08844" lon="-1.81463">
        <ele>58</ele>
        <time>2022-06-28T08:23:33Z</time>
      </trkpt>
      <trkpt lat="47.08834" lon="-1.81472">
        <ele>58</ele>
        <time>2022-06-28T08:23:35Z</time>
      </trkpt>
      <trkpt lat="47.08824" lon="-1.8148">
        <ele>59</ele>
        <time>2022-06-28T08:23:37Z</time>
      </trkpt>
      <trkpt lat="47.08814" lon="-1.81488">
        <ele>60</ele>
        <time>2022-06-28T08:23:39Z</time>
      </trkpt>
      <trkpt lat="47.08804" lon="-1.81497">
        <ele>60</ele>
        <time>2022-06-28T08:23:41Z</time>
      </trkpt>
      <trkpt lat="47.08794" lon="-1.81506">
        <ele>61</ele>
        <time>2022-06-28T08:23:43Z</time>
      </trkpt>
      <trkpt lat="47.08785" lon="-1.81513">
        <ele>61</ele>
        <time>2022-06-28T08:23:45Z</time>
      </trkpt>
      <trkpt lat="47.08776" lon="-1.8152">
        <ele>61</ele>
        <time>2022-06-28T08:23:47Z</time>
      </trkpt>
      <trkpt lat="47.08766" lon="-1.81529">
        <ele>62</ele>
        <time>2022-06-28T08:23:49Z</time>
      </trkpt>
      <trkpt lat="47.08757" lon="-1.81538">
        <ele>62</ele>
        <time>2022-06-28T08:23:51Z</time>
      </trkpt>
      <trkpt lat="47.08748" lon="-1.81546">
        <ele>63</ele>
        <time>2022-06-28T08:23:53Z</time>
      </trkpt>
      <trkpt lat="47.0874" lon="-1.81554">
        <ele>63</ele>
        <time>2022-06-28T08:23:55Z</time>
      </trkpt>
      <trkpt lat="47.08732" lon="-1.81565">
        <ele>63</ele>
        <time>2022-06-28T08:23:57Z</time>
      </trkpt>
      <trkpt lat="47.08726" lon="-1.81578">
        <ele>64</ele>
        <time>2022-06-28T08:23:59Z</time>
      </trkpt>
      <trkpt lat="47.0872" lon="-1.81591">
        <ele>64</ele>
        <time>2022-06-28T08:24:01Z</time>
      </trkpt>
      <trkpt lat="47.08716" lon="-1.81605">
        <ele>63</ele>
        <time>2022-06-28T08:24:03Z</time>
      </trkpt>
      <trkpt lat="47.0871" lon="-1.81618">
        <ele>63</ele>
        <time>2022-06-28T08:24:05Z</time>
      </trkpt>
      <trkpt lat="47.08705" lon="-1.81631">
        <ele>63</ele>
        <time>2022-06-28T08:24:07Z</time>
      </trkpt>
      <trkpt lat="47.087" lon="-1.81645">
        <ele>63</ele>
        <time>2022-06-28T08:24:09Z</time>
      </trkpt>
      <trkpt lat="47.08695" lon="-1.81659">
        <ele>63</ele>
        <time>2022-06-28T08:24:11Z</time>
      </trkpt>
      <trkpt lat="47.08689" lon="-1.81672">
        <ele>63</ele>
        <time>2022-06-28T08:24:13Z</time>
      </trkpt>
      <trkpt lat="47.0868" lon="-1.81683">
        <ele>63</ele>
        <time>2022-06-28T08:24:15Z</time>
      </trkpt>
      <trkpt lat="47.08669" lon="-1.8169">
        <ele>64</ele>
        <time>2022-06-28T08:24:17Z</time>
      </trkpt>
      <trkpt lat="47.08659" lon="-1.81694">
        <ele>64</ele>
        <time>2022-06-28T08:24:19Z</time>
      </trkpt>
      <trkpt lat="47.08648" lon="-1.81696">
        <ele>64</ele>
        <time>2022-06-28T08:24:21Z</time>
      </trkpt>
      <trkpt lat="47.08637" lon="-1.81695">
        <ele>65</ele>
        <time>2022-06-28T08:24:23Z</time>
      </trkpt>
      <trkpt lat="47.08626" lon="-1.81692">
        <ele>66</ele>
        <time>2022-06-28T08:24:25Z</time>
      </trkpt>
      <trkpt lat="47.08615" lon="-1.81689">
        <ele>66</ele>
        <time>2022-06-28T08:24:27Z</time>
      </trkpt>
      <trkpt lat="47.08604" lon="-1.81687">
        <ele>66</ele>
        <time>2022-06-28T08:24:29Z</time>
      </trkpt>
      <trkpt lat="47.08593" lon="-1.81684">
        <ele>67</ele>
        <time>2022-06-28T08:24:31Z</time>
      </trkpt>
      <trkpt lat="47.08583" lon="-1.81681">
        <ele>67</ele>
        <time>2022-06-28T08:24:33Z</time>
      </trkpt>
      <trkpt lat="47.08572" lon="-1.81679">
        <ele>67</ele>
        <time>2022-06-28T08:24:35Z</time>
      </trkpt>
      <trkpt lat="47.08561" lon="-1.81676">
        <ele>67</ele>
        <time>2022-06-28T08:24:37Z</time>
      </trkpt>
      <trkpt lat="47.0855" lon="-1.81673">
        <ele>67</ele>
        <time>2022-06-28T08:24:39Z</time>
      </trkpt>
      <trkpt lat="47.08539" lon="-1.81671">
        <ele>67</ele>
        <time>2022-06-28T08:24:41Z</time>
      </trkpt>
      <trkpt lat="47.08528" lon="-1.81669">
        <ele>68</ele>
        <time>2022-06-28T08:24:43Z</time>
      </trkpt>
      <trkpt lat="47.08517" lon="-1.81666">
        <ele>67</ele>
        <time>2022-06-28T08:24:45Z</time>
      </trkpt>
      <trkpt lat="47.08506" lon="-1.81665">
        <ele>68</ele>
        <time>2022-06-28T08:24:47Z</time>
      </trkpt>
      <trkpt lat="47.08495" lon="-1.81663">
        <ele>68</ele>
        <time>2022-06-28T08:24:49Z</time>
      </trkpt>
      <trkpt lat="47.08483" lon="-1.81661">
        <ele>68</ele>
        <time>2022-06-28T08:24:51Z</time>
      </trkpt>
      <trkpt lat="47.08472" lon="-1.8166">
        <ele>68</ele>
        <time>2022-06-28T08:24:53Z</time>
      </trkpt>
      <trkpt lat="47.0846" lon="-1.81658">
        <ele>68</ele>
        <time>2022-06-28T08:24:55Z</time>
      </trkpt>
      <trkpt lat="47.08448" lon="-1.81656">
        <ele>68</ele>
        <time>2022-06-28T08:24:57Z</time>
      </trkpt>
      <trkpt lat="47.08437" lon="-1.81654">
        <ele>67</ele>
        <time>2022-06-28T08:24:59Z</time>
      </trkpt>
      <trkpt lat="47.08425" lon="-1.81652">
        <ele>67</ele>
        <time>2022-06-28T08:25:01Z</time>
      </trkpt>
      <trkpt lat="47.08413" lon="-1.81651">
        <ele>68</ele>
        <time>2022-06-28T08:25:03Z</time>
      </trkpt>
      <trkpt lat="47.08402" lon="-1.8165">
        <ele>67</ele>
        <time>2022-06-28T08:25:05Z</time>
      </trkpt>
      <trkpt lat="47.08391" lon="-1.81648">
        <ele>67</ele>
        <time>2022-06-28T08:25:07Z</time>
      </trkpt>
      <trkpt lat="47.08379" lon="-1.81647">
        <ele>67</ele>
        <time>2022-06-28T08:25:09Z</time>
      </trkpt>
      <trkpt lat="47.08368" lon="-1.81645">
        <ele>67</ele>
        <time>2022-06-28T08:25:11Z</time>
      </trkpt>
      <trkpt lat="47.08357" lon="-1.81643">
        <ele>67</ele>
        <time>2022-06-28T08:25:13Z</time>
      </trkpt>
      <trkpt lat="47.08346" lon="-1.81642">
        <ele>68</ele>
        <time>2022-06-28T08:25:15Z</time>
      </trkpt>
      <trkpt lat="47.08334" lon="-1.81641">
        <ele>68</ele>
        <time>2022-06-28T08:25:17Z</time>
      </trkpt>
      <trkpt lat="47.08323" lon="-1.81639">
        <ele>68</ele>
        <time>2022-06-28T08:25:19Z</time>
      </trkpt>
      <trkpt lat="47.08312" lon="-1.81638">
        <ele>68</ele>
        <time>2022-06-28T08:25:21Z</time>
      </trkpt>
      <trkpt lat="47.08302" lon="-1.81637">
        <ele>68</ele>
        <time>2022-06-28T08:25:23Z</time>
      </trkpt>
      <trkpt lat="47.0829" lon="-1.81637">
        <ele>68</ele>
        <time>2022-06-28T08:25:25Z</time>
      </trkpt>
      <trkpt lat="47.08279" lon="-1.81637">
        <ele>69</ele>
        <time>2022-06-28T08:25:27Z</time>
      </trkpt>
      <trkpt lat="47.08267" lon="-1.81636">
        <ele>69</ele>
        <time>2022-06-28T08:25:29Z</time>
      </trkpt>
      <trkpt lat="47.08255" lon="-1.81636">
        <ele>69</ele>
        <time>2022-06-28T08:25:31Z</time>
      </trkpt>
      <trkpt lat="47.08243" lon="-1.81636">
        <ele>69</ele>
        <time>2022-06-28T08:25:33Z</time>
      </trkpt>
      <trkpt lat="47.08231" lon="-1.81635">
        <ele>69</ele>
        <time>2022-06-28T08:25:35Z</time>
      </trkpt>
      <trkpt lat="47.08218" lon="-1.81635">
        <ele>69</ele>
        <time>2022-06-28T08:25:37Z</time>
      </trkpt>
      <trkpt lat="47.08206" lon="-1.81633">
        <ele>68</ele>
        <time>2022-06-28T08:25:39Z</time>
      </trkpt>
      <trkpt lat="47.08193" lon="-1.81633">
        <ele>69</ele>
        <time>2022-06-28T08:25:41Z</time>
      </trkpt>
      <trkpt lat="47.0818" lon="-1.81632">
        <ele>69</ele>
        <time>2022-06-28T08:25:43Z</time>
      </trkpt>
      <trkpt lat="47.08168" lon="-1.81631">
        <ele>69</ele>
        <time>2022-06-28T08:25:45Z</time>
      </trkpt>
      <trkpt lat="47.08155" lon="-1.8163">
        <ele>69</ele>
        <time>2022-06-28T08:25:47Z</time>
      </trkpt>
      <trkpt lat="47.08142" lon="-1.81628">
        <ele>69</ele>
        <time>2022-06-28T08:25:49Z</time>
      </trkpt>
      <trkpt lat="47.08129" lon="-1.81628">
        <ele>69</ele>
        <time>2022-06-28T08:25:51Z</time>
      </trkpt>
      <trkpt lat="47.08116" lon="-1.81626">
        <ele>69</ele>
        <time>2022-06-28T08:25:53Z</time>
      </trkpt>
      <trkpt lat="47.08104" lon="-1.81624">
        <ele>69</ele>
        <time>2022-06-28T08:25:55Z</time>
      </trkpt>
      <trkpt lat="47.08091" lon="-1.8162">
        <ele>69</ele>
        <time>2022-06-28T08:25:57Z</time>
      </trkpt>
      <trkpt lat="47.08079" lon="-1.81615">
        <ele>69</ele>
        <time>2022-06-28T08:25:59Z</time>
      </trkpt>
      <trkpt lat="47.08066" lon="-1.8161">
        <ele>68</ele>
        <time>2022-06-28T08:26:01Z</time>
      </trkpt>
      <trkpt lat="47.08053" lon="-1.81602">
        <ele>68</ele>
        <time>2022-06-28T08:26:03Z</time>
      </trkpt>
      <trkpt lat="47.08041" lon="-1.81596">
        <ele>68</ele>
        <time>2022-06-28T08:26:05Z</time>
      </trkpt>
      <trkpt lat="47.08029" lon="-1.81589">
        <ele>68</ele>
        <time>2022-06-28T08:26:07Z</time>
      </trkpt>
      <trkpt lat="47.08017" lon="-1.81583">
        <ele>68</ele>
        <time>2022-06-28T08:26:09Z</time>
      </trkpt>
      <trkpt lat="47.08005" lon="-1.81577">
        <ele>68</ele>
        <time>2022-06-28T08:26:11Z</time>
      </trkpt>
      <trkpt lat="47.07992" lon="-1.81572">
        <ele>69</ele>
        <time>2022-06-28T08:26:13Z</time>
      </trkpt>
      <trkpt lat="47.0798" lon="-1.81567">
        <ele>69</ele>
        <time>2022-06-28T08:26:15Z</time>
      </trkpt>
      <trkpt lat="47.07968" lon="-1.81563">
        <ele>70</ele>
        <time>2022-06-28T08:26:17Z</time>
      </trkpt>
      <trkpt lat="47.07954" lon="-1.81561">
        <ele>70</ele>
        <time>2022-06-28T08:26:19Z</time>
      </trkpt>
      <trkpt lat="47.0794" lon="-1.81559">
        <ele>69</ele>
        <time>2022-06-28T08:26:21Z</time>
      </trkpt>
      <trkpt lat="47.07927" lon="-1.8156">
        <ele>69</ele>
        <time>2022-06-28T08:26:23Z</time>
      </trkpt>
      <trkpt lat="47.07915" lon="-1.81561">
        <ele>68</ele>
        <time>2022-06-28T08:26:25Z</time>
      </trkpt>
      <trkpt lat="47.07902" lon="-1.81562">
        <ele>67</ele>
        <time>2022-06-28T08:26:27Z</time>
      </trkpt>
      <trkpt lat="47.07889" lon="-1.81563">
        <ele>67</ele>
        <time>2022-06-28T08:26:29Z</time>
      </trkpt>
      <trkpt lat="47.07876" lon="-1.81564">
        <ele>67</ele>
        <time>2022-06-28T08:26:31Z</time>
      </trkpt>
      <trkpt lat="47.07863" lon="-1.81564">
        <ele>66</ele>
        <time>2022-06-28T08:26:33Z</time>
      </trkpt>
      <trkpt lat="47.07851" lon="-1.81563">
        <ele>66</ele>
        <time>2022-06-28T08:26:35Z</time>
      </trkpt>
      <trkpt lat="47.07839" lon="-1.81562">
        <ele>66</ele>
        <time>2022-06-28T08:26:37Z</time>
      </trkpt>
      <trkpt lat="47.07827" lon="-1.8156">
        <ele>66</ele>
        <time>2022-06-28T08:26:39Z</time>
      </trkpt>
      <trkpt lat="47.07814" lon="-1.81557">
        <ele>66</ele>
        <time>2022-06-28T08:26:41Z</time>
      </trkpt>
      <trkpt lat="47.07801" lon="-1.81555">
        <ele>66</ele>
        <time>2022-06-28T08:26:43Z</time>
      </trkpt>
      <trkpt lat="47.07789" lon="-1.81553">
        <ele>66</ele>
        <time>2022-06-28T08:26:45Z</time>
      </trkpt>
      <trkpt lat="47.07777" lon="-1.81551">
        <ele>66</ele>
        <time>2022-06-28T08:26:47Z</time>
      </trkpt>
      <trkpt lat="47.07765" lon="-1.8155">
        <ele>67</ele>
        <time>2022-06-28T08:26:49Z</time>
      </trkpt>
      <trkpt lat="47.07753" lon="-1.8155">
        <ele>67</ele>
        <time>2022-06-28T08:26:51Z</time>
      </trkpt>
      <trkpt lat="47.0774" lon="-1.81548">
        <ele>67</ele>
        <time>2022-06-28T08:26:53Z</time>
      </trkpt>
      <trkpt lat="47.07728" lon="-1.81548">
        <ele>68</ele>
        <time>2022-06-28T08:26:55Z</time>
      </trkpt>
      <trkpt lat="47.07716" lon="-1.81548">
        <ele>68</ele>
        <time>2022-06-28T08:26:57Z</time>
      </trkpt>
      <trkpt lat="47.07703" lon="-1.81547">
        <ele>69</ele>
        <time>2022-06-28T08:26:59Z</time>
      </trkpt>
      <trkpt lat="47.07691" lon="-1.81546">
        <ele>69</ele>
        <time>2022-06-28T08:27:01Z</time>
      </trkpt>
      <trkpt lat="47.07678" lon="-1.81544">
        <ele>68</ele>
        <time>2022-06-28T08:27:03Z</time>
      </trkpt>
      <trkpt lat="47.07666" lon="-1.81543">
        <ele>68</ele>
        <time>2022-06-28T08:27:05Z</time>
      </trkpt>
      <trkpt lat="47.07654" lon="-1.81541">
        <ele>68</ele>
        <time>2022-06-28T08:27:07Z</time>
      </trkpt>
      <trkpt lat="47.07641" lon="-1.81538">
        <ele>69</ele>
        <time>2022-06-28T08:27:09Z</time>
      </trkpt>
      <trkpt lat="47.07629" lon="-1.81532">
        <ele>69</ele>
        <time>2022-06-28T08:27:11Z</time>
      </trkpt>
      <trkpt lat="47.07617" lon="-1.81523">
        <ele>70</ele>
        <time>2022-06-28T08:27:13Z</time>
      </trkpt>
      <trkpt lat="47.07607" lon="-1.81513">
        <ele>69</ele>
        <time>2022-06-28T08:27:15Z</time>
      </trkpt>
      <trkpt lat="47.07597" lon="-1.81502">
        <ele>69</ele>
        <time>2022-06-28T08:27:17Z</time>
      </trkpt>
      <trkpt lat="47.07587" lon="-1.81491">
        <ele>69</ele>
        <time>2022-06-28T08:27:19Z</time>
      </trkpt>
      <trkpt lat="47.07576" lon="-1.81481">
        <ele>69</ele>
        <time>2022-06-28T08:27:21Z</time>
      </trkpt>
      <trkpt lat="47.07566" lon="-1.8147">
        <ele>69</ele>
        <time>2022-06-28T08:27:23Z</time>
      </trkpt>
      <trkpt lat="47.07555" lon="-1.8146">
        <ele>70</ele>
        <time>2022-06-28T08:27:25Z</time>
      </trkpt>
      <trkpt lat="47.07544" lon="-1.81451">
        <ele>70</ele>
        <time>2022-06-28T08:27:27Z</time>
      </trkpt>
      <trkpt lat="47.07533" lon="-1.81444">
        <ele>69</ele>
        <time>2022-06-28T08:27:29Z</time>
      </trkpt>
      <trkpt lat="47.0752" lon="-1.81443">
        <ele>69</ele>
        <time>2022-06-28T08:27:31Z</time>
      </trkpt>
      <trkpt lat="47.07507" lon="-1.81449">
        <ele>69</ele>
        <time>2022-06-28T08:27:33Z</time>
      </trkpt>
      <trkpt lat="47.07495" lon="-1.81456">
        <ele>69</ele>
        <time>2022-06-28T08:27:35Z</time>
      </trkpt>
      <trkpt lat="47.07483" lon="-1.81464">
        <ele>69</ele>
        <time>2022-06-28T08:27:37Z</time>
      </trkpt>
      <trkpt lat="47.0747" lon="-1.81472">
        <ele>69</ele>
        <time>2022-06-28T08:27:39Z</time>
      </trkpt>
      <trkpt lat="47.07458" lon="-1.81478">
        <ele>70</ele>
        <time>2022-06-28T08:27:41Z</time>
      </trkpt>
      <trkpt lat="47.07444" lon="-1.81483">
        <ele>70</ele>
        <time>2022-06-28T08:27:43Z</time>
      </trkpt>
      <trkpt lat="47.0743" lon="-1.81487">
        <ele>72</ele>
        <time>2022-06-28T08:27:45Z</time>
      </trkpt>
      <trkpt lat="47.07417" lon="-1.81488">
        <ele>73</ele>
        <time>2022-06-28T08:27:47Z</time>
      </trkpt>
      <trkpt lat="47.07403" lon="-1.81488">
        <ele>73</ele>
        <time>2022-06-28T08:27:49Z</time>
      </trkpt>
      <trkpt lat="47.07391" lon="-1.81488">
        <ele>74</ele>
        <time>2022-06-28T08:27:51Z</time>
      </trkpt>
      <trkpt lat="47.07378" lon="-1.81489">
        <ele>74</ele>
        <time>2022-06-28T08:27:53Z</time>
      </trkpt>
      <trkpt lat="47.07365" lon="-1.81487">
        <ele>74</ele>
        <time>2022-06-28T08:27:55Z</time>
      </trkpt>
      <trkpt lat="47.07352" lon="-1.81484">
        <ele>74</ele>
        <time>2022-06-28T08:27:57Z</time>
      </trkpt>
      <trkpt lat="47.07339" lon="-1.81479">
        <ele>74</ele>
        <time>2022-06-28T08:27:59Z</time>
      </trkpt>
      <trkpt lat="47.07327" lon="-1.81473">
        <ele>74</ele>
        <time>2022-06-28T08:28:01Z</time>
      </trkpt>
      <trkpt lat="47.07315" lon="-1.81466">
        <ele>74</ele>
        <time>2022-06-28T08:28:03Z</time>
      </trkpt>
      <trkpt lat="47.07303" lon="-1.81459">
        <ele>73</ele>
        <time>2022-06-28T08:28:05Z</time>
      </trkpt>
      <trkpt lat="47.07292" lon="-1.8145">
        <ele>73</ele>
        <time>2022-06-28T08:28:07Z</time>
      </trkpt>
      <trkpt lat="47.0728" lon="-1.81441">
        <ele>73</ele>
        <time>2022-06-28T08:28:09Z</time>
      </trkpt>
      <trkpt lat="47.07269" lon="-1.81431">
        <ele>74</ele>
        <time>2022-06-28T08:28:11Z</time>
      </trkpt>
      <trkpt lat="47.07258" lon="-1.81421">
        <ele>73</ele>
        <time>2022-06-28T08:28:13Z</time>
      </trkpt>
      <trkpt lat="47.07248" lon="-1.81411">
        <ele>74</ele>
        <time>2022-06-28T08:28:15Z</time>
      </trkpt>
      <trkpt lat="47.07238" lon="-1.814">
        <ele>74</ele>
        <time>2022-06-28T08:28:17Z</time>
      </trkpt>
      <trkpt lat="47.07228" lon="-1.81389">
        <ele>73</ele>
        <time>2022-06-28T08:28:19Z</time>
      </trkpt>
      <trkpt lat="47.07217" lon="-1.81379">
        <ele>74</ele>
        <time>2022-06-28T08:28:21Z</time>
      </trkpt>
      <trkpt lat="47.07206" lon="-1.81369">
        <ele>74</ele>
        <time>2022-06-28T08:28:23Z</time>
      </trkpt>
      <trkpt lat="47.07196" lon="-1.8136">
        <ele>73</ele>
        <time>2022-06-28T08:28:25Z</time>
      </trkpt>
      <trkpt lat="47.07186" lon="-1.8135">
        <ele>73</ele>
        <time>2022-06-28T08:28:27Z</time>
      </trkpt>
      <trkpt lat="47.07175" lon="-1.81346">
        <ele>72</ele>
        <time>2022-06-28T08:28:29Z</time>
      </trkpt>
      <trkpt lat="47.07163" lon="-1.81349">
        <ele>72</ele>
        <time>2022-06-28T08:28:31Z</time>
      </trkpt>
      <trkpt lat="47.07153" lon="-1.81359">
        <ele>72</ele>
        <time>2022-06-28T08:28:33Z</time>
      </trkpt>
      <trkpt lat="47.07143" lon="-1.81371">
        <ele>72</ele>
        <time>2022-06-28T08:28:35Z</time>
      </trkpt>
      <trkpt lat="47.07133" lon="-1.81381">
        <ele>73</ele>
        <time>2022-06-28T08:28:37Z</time>
      </trkpt>
      <trkpt lat="47.07124" lon="-1.81391">
        <ele>73</ele>
        <time>2022-06-28T08:28:39Z</time>
      </trkpt>
      <trkpt lat="47.07115" lon="-1.81402">
        <ele>73</ele>
        <time>2022-06-28T08:28:41Z</time>
      </trkpt>
      <trkpt lat="47.07106" lon="-1.81414">
        <ele>73</ele>
        <time>2022-06-28T08:28:43Z</time>
      </trkpt>
      <trkpt lat="47.07097" lon="-1.81426">
        <ele>73</ele>
        <time>2022-06-28T08:28:45Z</time>
      </trkpt>
      <trkpt lat="47.07089" lon="-1.81439">
        <ele>73</ele>
        <time>2022-06-28T08:28:47Z</time>
      </trkpt>
      <trkpt lat="47.07081" lon="-1.81451">
        <ele>72</ele>
        <time>2022-06-28T08:28:49Z</time>
      </trkpt>
      <trkpt lat="47.07073" lon="-1.81463">
        <ele>72</ele>
        <time>2022-06-28T08:28:51Z</time>
      </trkpt>
      <trkpt lat="47.07066" lon="-1.81476">
        <ele>72</ele>
        <time>2022-06-28T08:28:53Z</time>
      </trkpt>
      <trkpt lat="47.07058" lon="-1.81489">
        <ele>72</ele>
        <time>2022-06-28T08:28:55Z</time>
      </trkpt>
      <trkpt lat="47.07052" lon="-1.81504">
        <ele>72</ele>
        <time>2022-06-28T08:28:57Z</time>
      </trkpt>
      <trkpt lat="47.07046" lon="-1.81518">
        <ele>72</ele>
        <time>2022-06-28T08:28:59Z</time>
      </trkpt>
      <trkpt lat="47.07039" lon="-1.81532">
        <ele>73</ele>
        <time>2022-06-28T08:29:01Z</time>
      </trkpt>
      <trkpt lat="47.07032" lon="-1.81545">
        <ele>72</ele>
        <time>2022-06-28T08:29:03Z</time>
      </trkpt>
      <trkpt lat="47.07026" lon="-1.81559">
        <ele>73</ele>
        <time>2022-06-28T08:29:05Z</time>
      </trkpt>
      <trkpt lat="47.07022" lon="-1.81575">
        <ele>73</ele>
        <time>2022-06-28T08:29:07Z</time>
      </trkpt>
      <trkpt lat="47.07018" lon="-1.8159">
        <ele>73</ele>
        <time>2022-06-28T08:29:09Z</time>
      </trkpt>
      <trkpt lat="47.07013" lon="-1.81604">
        <ele>73</ele>
        <time>2022-06-28T08:29:11Z</time>
      </trkpt>
      <trkpt lat="47.07009" lon="-1.81619">
        <ele>73</ele>
        <time>2022-06-28T08:29:13Z</time>
      </trkpt>
      <trkpt lat="47.07005" lon="-1.81634">
        <ele>73</ele>
        <time>2022-06-28T08:29:15Z</time>
      </trkpt>
      <trkpt lat="47.07" lon="-1.81648">
        <ele>73</ele>
        <time>2022-06-28T08:29:17Z</time>
      </trkpt>
      <trkpt lat="47.06996" lon="-1.81663">
        <ele>73</ele>
        <time>2022-06-28T08:29:19Z</time>
      </trkpt>
      <trkpt lat="47.06992" lon="-1.81678">
        <ele>73</ele>
        <time>2022-06-28T08:29:21Z</time>
      </trkpt>
      <trkpt lat="47.06987" lon="-1.81693">
        <ele>72</ele>
        <time>2022-06-28T08:29:23Z</time>
      </trkpt>
      <trkpt lat="47.06982" lon="-1.81707">
        <ele>73</ele>
        <time>2022-06-28T08:29:25Z</time>
      </trkpt>
      <trkpt lat="47.06977" lon="-1.81721">
        <ele>73</ele>
        <time>2022-06-28T08:29:27Z</time>
      </trkpt>
      <trkpt lat="47.06972" lon="-1.81735">
        <ele>73</ele>
        <time>2022-06-28T08:29:29Z</time>
      </trkpt>
      <trkpt lat="47.06966" lon="-1.81748">
        <ele>74</ele>
        <time>2022-06-28T08:29:31Z</time>
      </trkpt>
      <trkpt lat="47.0696" lon="-1.81762">
        <ele>74</ele>
        <time>2022-06-28T08:29:33Z</time>
      </trkpt>
      <trkpt lat="47.06953" lon="-1.81776">
        <ele>74</ele>
        <time>2022-06-28T08:29:35Z</time>
      </trkpt>
      <trkpt lat="47.06947" lon="-1.8179">
        <ele>74</ele>
        <time>2022-06-28T08:29:37Z</time>
      </trkpt>
      <trkpt lat="47.06941" lon="-1.81806">
        <ele>74</ele>
        <time>2022-06-28T08:29:39Z</time>
      </trkpt>
      <trkpt lat="47.06935" lon="-1.81822">
        <ele>74</ele>
        <time>2022-06-28T08:29:41Z</time>
      </trkpt>
      <trkpt lat="47.06929" lon="-1.81838">
        <ele>75</ele>
        <time>2022-06-28T08:29:43Z</time>
      </trkpt>
      <trkpt lat="47.06923" lon="-1.81852">
        <ele>75</ele>
        <time>2022-06-28T08:29:45Z</time>
      </trkpt>
      <trkpt lat="47.06917" lon="-1.81866">
        <ele>75</ele>
        <time>2022-06-28T08:29:47Z</time>
      </trkpt>
      <trkpt lat="47.06911" lon="-1.81881">
        <ele>76</ele>
        <time>2022-06-28T08:29:49Z</time>
      </trkpt>
      <trkpt lat="47.06905" lon="-1.81896">
        <ele>76</ele>
        <time>2022-06-28T08:29:51Z</time>
      </trkpt>
      <trkpt lat="47.06899" lon="-1.81911">
        <ele>76</ele>
        <time>2022-06-28T08:29:53Z</time>
      </trkpt>
      <trkpt lat="47.06893" lon="-1.81928">
        <ele>76</ele>
        <time>2022-06-28T08:29:55Z</time>
      </trkpt>
      <trkpt lat="47.0689" lon="-1.81946">
        <ele>76</ele>
        <time>2022-06-28T08:29:57Z</time>
      </trkpt>
      <trkpt lat="47.06889" lon="-1.81964">
        <ele>76</ele>
        <time>2022-06-28T08:29:59Z</time>
      </trkpt>
      <trkpt lat="47.0689" lon="-1.81982">
        <ele>76</ele>
        <time>2022-06-28T08:30:01Z</time>
      </trkpt>
      <trkpt lat="47.06891" lon="-1.82">
        <ele>77</ele>
        <time>2022-06-28T08:30:03Z</time>
      </trkpt>
      <trkpt lat="47.06893" lon="-1.82017">
        <ele>78</ele>
        <time>2022-06-28T08:30:05Z</time>
      </trkpt>
      <trkpt lat="47.06894" lon="-1.82034">
        <ele>78</ele>
        <time>2022-06-28T08:30:07Z</time>
      </trkpt>
      <trkpt lat="47.06896" lon="-1.82052">
        <ele>79</ele>
        <time>2022-06-28T08:30:09Z</time>
      </trkpt>
      <trkpt lat="47.06898" lon="-1.82069">
        <ele>79</ele>
        <time>2022-06-28T08:30:11Z</time>
      </trkpt>
      <trkpt lat="47.069" lon="-1.82087">
        <ele>80</ele>
        <time>2022-06-28T08:30:13Z</time>
      </trkpt>
      <trkpt lat="47.06902" lon="-1.82104">
        <ele>80</ele>
        <time>2022-06-28T08:30:15Z</time>
      </trkpt>
      <trkpt lat="47.06903" lon="-1.82122">
        <ele>79</ele>
        <time>2022-06-28T08:30:17Z</time>
      </trkpt>
      <trkpt lat="47.06903" lon="-1.8214">
        <ele>80</ele>
        <time>2022-06-28T08:30:19Z</time>
      </trkpt>
      <trkpt lat="47.06902" lon="-1.82158">
        <ele>81</ele>
        <time>2022-06-28T08:30:21Z</time>
      </trkpt>
      <trkpt lat="47.06902" lon="-1.82176">
        <ele>82</ele>
        <time>2022-06-28T08:30:23Z</time>
      </trkpt>
      <trkpt lat="47.06902" lon="-1.82193">
        <ele>82</ele>
        <time>2022-06-28T08:30:25Z</time>
      </trkpt>
      <trkpt lat="47.06901" lon="-1.8221">
        <ele>82</ele>
        <time>2022-06-28T08:30:27Z</time>
      </trkpt>
      <trkpt lat="47.06901" lon="-1.82228">
        <ele>83</ele>
        <time>2022-06-28T08:30:29Z</time>
      </trkpt>
      <trkpt lat="47.069" lon="-1.82245">
        <ele>83</ele>
        <time>2022-06-28T08:30:31Z</time>
      </trkpt>
      <trkpt lat="47.06899" lon="-1.82263">
        <ele>83</ele>
        <time>2022-06-28T08:30:33Z</time>
      </trkpt>
      <trkpt lat="47.06899" lon="-1.8228">
        <ele>83</ele>
        <time>2022-06-28T08:30:35Z</time>
      </trkpt>
      <trkpt lat="47.06898" lon="-1.82298">
        <ele>83</ele>
        <time>2022-06-28T08:30:37Z</time>
      </trkpt>
      <trkpt lat="47.06897" lon="-1.82315">
        <ele>83</ele>
        <time>2022-06-28T08:30:39Z</time>
      </trkpt>
      <trkpt lat="47.06895" lon="-1.82333">
        <ele>83</ele>
        <time>2022-06-28T08:30:41Z</time>
      </trkpt>
      <trkpt lat="47.06893" lon="-1.8235">
        <ele>84</ele>
        <time>2022-06-28T08:30:43Z</time>
      </trkpt>
      <trkpt lat="47.0689" lon="-1.82367">
        <ele>84</ele>
        <time>2022-06-28T08:30:45Z</time>
      </trkpt>
      <trkpt lat="47.06888" lon="-1.82385">
        <ele>84</ele>
        <time>2022-06-28T08:30:47Z</time>
      </trkpt>
      <trkpt lat="47.06885" lon="-1.82402">
        <ele>85</ele>
        <time>2022-06-28T08:30:49Z</time>
      </trkpt>
      <trkpt lat="47.06882" lon="-1.8242">
        <ele>85</ele>
        <time>2022-06-28T08:30:51Z</time>
      </trkpt>
      <trkpt lat="47.0688" lon="-1.82437">
        <ele>85</ele>
        <time>2022-06-28T08:30:53Z</time>
      </trkpt>
      <trkpt lat="47.06878" lon="-1.82455">
        <ele>85</ele>
        <time>2022-06-28T08:30:55Z</time>
      </trkpt>
      <trkpt lat="47.06877" lon="-1.82473">
        <ele>86</ele>
        <time>2022-06-28T08:30:57Z</time>
      </trkpt>
      <trkpt lat="47.06878" lon="-1.82492">
        <ele>86</ele>
        <time>2022-06-28T08:30:59Z</time>
      </trkpt>
      <trkpt lat="47.06879" lon="-1.8251">
        <ele>85</ele>
        <time>2022-06-28T08:31:01Z</time>
      </trkpt>
      <trkpt lat="47.0688" lon="-1.82527">
        <ele>85</ele>
        <time>2022-06-28T08:31:03Z</time>
      </trkpt>
      <trkpt lat="47.06883" lon="-1.82546">
        <ele>85</ele>
        <time>2022-06-28T08:31:05Z</time>
      </trkpt>
      <trkpt lat="47.06884" lon="-1.82565">
        <ele>85</ele>
        <time>2022-06-28T08:31:07Z</time>
      </trkpt>
      <trkpt lat="47.06885" lon="-1.82584">
        <ele>84</ele>
        <time>2022-06-28T08:31:09Z</time>
      </trkpt>
      <trkpt lat="47.06887" lon="-1.82602">
        <ele>84</ele>
        <time>2022-06-28T08:31:11Z</time>
      </trkpt>
      <trkpt lat="47.06889" lon="-1.8262">
        <ele>84</ele>
        <time>2022-06-28T08:31:13Z</time>
      </trkpt>
      <trkpt lat="47.0689" lon="-1.82638">
        <ele>85</ele>
        <time>2022-06-28T08:31:15Z</time>
      </trkpt>
      <trkpt lat="47.06891" lon="-1.82656">
        <ele>85</ele>
        <time>2022-06-28T08:31:17Z</time>
      </trkpt>
      <trkpt lat="47.06892" lon="-1.82674">
        <ele>85</ele>
        <time>2022-06-28T08:31:19Z</time>
      </trkpt>
      <trkpt lat="47.06892" lon="-1.82694">
        <ele>85</ele>
        <time>2022-06-28T08:31:21Z</time>
      </trkpt>
      <trkpt lat="47.06891" lon="-1.82713">
        <ele>85</ele>
        <time>2022-06-28T08:31:23Z</time>
      </trkpt>
      <trkpt lat="47.06891" lon="-1.82731">
        <ele>85</ele>
        <time>2022-06-28T08:31:25Z</time>
      </trkpt>
      <trkpt lat="47.06891" lon="-1.82749">
        <ele>84</ele>
        <time>2022-06-28T08:31:27Z</time>
      </trkpt>
      <trkpt lat="47.06892" lon="-1.82767">
        <ele>84</ele>
        <time>2022-06-28T08:31:29Z</time>
      </trkpt>
      <trkpt lat="47.06892" lon="-1.82785">
        <ele>84</ele>
        <time>2022-06-28T08:31:31Z</time>
      </trkpt>
      <trkpt lat="47.06893" lon="-1.82804">
        <ele>84</ele>
        <time>2022-06-28T08:31:33Z</time>
      </trkpt>
      <trkpt lat="47.06894" lon="-1.82822">
        <ele>84</ele>
        <time>2022-06-28T08:31:35Z</time>
      </trkpt>
      <trkpt lat="47.06895" lon="-1.8284">
        <ele>84</ele>
        <time>2022-06-28T08:31:37Z</time>
      </trkpt>
      <trkpt lat="47.06896" lon="-1.82858">
        <ele>84</ele>
        <time>2022-06-28T08:31:39Z</time>
      </trkpt>
      <trkpt lat="47.06897" lon="-1.82875">
        <ele>84</ele>
        <time>2022-06-28T08:31:41Z</time>
      </trkpt>
      <trkpt lat="47.06898" lon="-1.82893">
        <ele>84</ele>
        <time>2022-06-28T08:31:43Z</time>
      </trkpt>
      <trkpt lat="47.06899" lon="-1.82912">
        <ele>84</ele>
        <time>2022-06-28T08:31:45Z</time>
      </trkpt>
      <trkpt lat="47.069" lon="-1.8293">
        <ele>84</ele>
        <time>2022-06-28T08:31:47Z</time>
      </trkpt>
      <trkpt lat="47.06902" lon="-1.82948">
        <ele>84</ele>
        <time>2022-06-28T08:31:49Z</time>
      </trkpt>
      <trkpt lat="47.06902" lon="-1.82966">
        <ele>84</ele>
        <time>2022-06-28T08:31:51Z</time>
      </trkpt>
      <trkpt lat="47.06904" lon="-1.82985">
        <ele>84</ele>
        <time>2022-06-28T08:31:53Z</time>
      </trkpt>
      <trkpt lat="47.06905" lon="-1.83003">
        <ele>83</ele>
        <time>2022-06-28T08:31:55Z</time>
      </trkpt>
      <trkpt lat="47.0691" lon="-1.8302">
        <ele>83</ele>
        <time>2022-06-28T08:31:57Z</time>
      </trkpt>
      <trkpt lat="47.06913" lon="-1.83035">
        <ele>83</ele>
        <time>2022-06-28T08:31:59Z</time>
      </trkpt>
      <trkpt lat="47.06905" lon="-1.83044">
        <ele>83</ele>
        <time>2022-06-28T08:32:01Z</time>
      </trkpt>
      <trkpt lat="47.06892" lon="-1.83043">
        <ele>83</ele>
        <time>2022-06-28T08:32:03Z</time>
      </trkpt>
      <trkpt lat="47.06879" lon="-1.83041">
        <ele>83</ele>
        <time>2022-06-28T08:32:05Z</time>
      </trkpt>
      <trkpt lat="47.06866" lon="-1.83039">
        <ele>83</ele>
        <time>2022-06-28T08:32:07Z</time>
      </trkpt>
      <trkpt lat="47.06854" lon="-1.83037">
        <ele>83</ele>
        <time>2022-06-28T08:32:09Z</time>
      </trkpt>
      <trkpt lat="47.0684" lon="-1.83036">
        <ele>83</ele>
        <time>2022-06-28T08:32:11Z</time>
      </trkpt>
      <trkpt lat="47.06827" lon="-1.83035">
        <ele>83</ele>
        <time>2022-06-28T08:32:13Z</time>
      </trkpt>
      <trkpt lat="47.06814" lon="-1.83035">
        <ele>83</ele>
        <time>2022-06-28T08:32:15Z</time>
      </trkpt>
      <trkpt lat="47.068" lon="-1.83036">
        <ele>83</ele>
        <time>2022-06-28T08:32:17Z</time>
      </trkpt>
      <trkpt lat="47.06787" lon="-1.83038">
        <ele>83</ele>
        <time>2022-06-28T08:32:19Z</time>
      </trkpt>
      <trkpt lat="47.06774" lon="-1.8304">
        <ele>83</ele>
        <time>2022-06-28T08:32:21Z</time>
      </trkpt>
      <trkpt lat="47.06761" lon="-1.83042">
        <ele>83</ele>
        <time>2022-06-28T08:32:23Z</time>
      </trkpt>
      <trkpt lat="47.06747" lon="-1.83044">
        <ele>83</ele>
        <time>2022-06-28T08:32:25Z</time>
      </trkpt>
      <trkpt lat="47.06734" lon="-1.83046">
        <ele>83</ele>
        <time>2022-06-28T08:32:27Z</time>
      </trkpt>
      <trkpt lat="47.0672" lon="-1.83049">
        <ele>83</ele>
        <time>2022-06-28T08:32:29Z</time>
      </trkpt>
      <trkpt lat="47.06707" lon="-1.83051">
        <ele>82</ele>
        <time>2022-06-28T08:32:31Z</time>
      </trkpt>
      <trkpt lat="47.06694" lon="-1.83054">
        <ele>82</ele>
        <time>2022-06-28T08:32:33Z</time>
      </trkpt>
      <trkpt lat="47.06681" lon="-1.83057">
        <ele>83</ele>
        <time>2022-06-28T08:32:35Z</time>
      </trkpt>
      <trkpt lat="47.06667" lon="-1.83061">
        <ele>83</ele>
        <time>2022-06-28T08:32:37Z</time>
      </trkpt>
      <trkpt lat="47.06655" lon="-1.83064">
        <ele>83</ele>
        <time>2022-06-28T08:32:39Z</time>
      </trkpt>
      <trkpt lat="47.06641" lon="-1.83067">
        <ele>83</ele>
        <time>2022-06-28T08:32:41Z</time>
      </trkpt>
      <trkpt lat="47.06629" lon="-1.83071">
        <ele>82</ele>
        <time>2022-06-28T08:32:43Z</time>
      </trkpt>
      <trkpt lat="47.06616" lon="-1.83074">
        <ele>83</ele>
        <time>2022-06-28T08:32:45Z</time>
      </trkpt>
      <trkpt lat="47.06603" lon="-1.83077">
        <ele>83</ele>
        <time>2022-06-28T08:32:47Z</time>
      </trkpt>
      <trkpt lat="47.06591" lon="-1.83081">
        <ele>83</ele>
        <time>2022-06-28T08:32:49Z</time>
      </trkpt>
      <trkpt lat="47.06579" lon="-1.83084">
        <ele>83</ele>
        <time>2022-06-28T08:32:51Z</time>
      </trkpt>
      <trkpt lat="47.06567" lon="-1.83087">
        <ele>83</ele>
        <time>2022-06-28T08:32:53Z</time>
      </trkpt>
      <trkpt lat="47.06555" lon="-1.83091">
        <ele>83</ele>
        <time>2022-06-28T08:32:55Z</time>
      </trkpt>
      <trkpt lat="47.06542" lon="-1.83096">
        <ele>83</ele>
        <time>2022-06-28T08:32:57Z</time>
      </trkpt>
      <trkpt lat="47.0653" lon="-1.831">
        <ele>82</ele>
        <time>2022-06-28T08:32:59Z</time>
      </trkpt>
      <trkpt lat="47.06518" lon="-1.83105">
        <ele>83</ele>
        <time>2022-06-28T08:33:01Z</time>
      </trkpt>
      <trkpt lat="47.06506" lon="-1.83111">
        <ele>83</ele>
        <time>2022-06-28T08:33:03Z</time>
      </trkpt>
      <trkpt lat="47.06493" lon="-1.83115">
        <ele>82</ele>
        <time>2022-06-28T08:33:05Z</time>
      </trkpt>
      <trkpt lat="47.06482" lon="-1.83121">
        <ele>83</ele>
        <time>2022-06-28T08:33:07Z</time>
      </trkpt>
      <trkpt lat="47.0647" lon="-1.83126">
        <ele>83</ele>
        <time>2022-06-28T08:33:09Z</time>
      </trkpt>
      <trkpt lat="47.06458" lon="-1.83131">
        <ele>83</ele>
        <time>2022-06-28T08:33:11Z</time>
      </trkpt>
      <trkpt lat="47.06446" lon="-1.83136">
        <ele>83</ele>
        <time>2022-06-28T08:33:13Z</time>
      </trkpt>
      <trkpt lat="47.06434" lon="-1.83142">
        <ele>83</ele>
        <time>2022-06-28T08:33:15Z</time>
      </trkpt>
      <trkpt lat="47.06423" lon="-1.83147">
        <ele>83</ele>
        <time>2022-06-28T08:33:17Z</time>
      </trkpt>
      <trkpt lat="47.06411" lon="-1.83151">
        <ele>83</ele>
        <time>2022-06-28T08:33:19Z</time>
      </trkpt>
      <trkpt lat="47.06398" lon="-1.83157">
        <ele>83</ele>
        <time>2022-06-28T08:33:21Z</time>
      </trkpt>
      <trkpt lat="47.06387" lon="-1.83162">
        <ele>83</ele>
        <time>2022-06-28T08:33:23Z</time>
      </trkpt>
      <trkpt lat="47.06375" lon="-1.83167">
        <ele>83</ele>
        <time>2022-06-28T08:33:25Z</time>
      </trkpt>
      <trkpt lat="47.06363" lon="-1.83172">
        <ele>83</ele>
        <time>2022-06-28T08:33:27Z</time>
      </trkpt>
      <trkpt lat="47.06351" lon="-1.83177">
        <ele>83</ele>
        <time>2022-06-28T08:33:29Z</time>
      </trkpt>
      <trkpt lat="47.06338" lon="-1.83183">
        <ele>84</ele>
        <time>2022-06-28T08:33:31Z</time>
      </trkpt>
      <trkpt lat="47.06326" lon="-1.83188">
        <ele>84</ele>
        <time>2022-06-28T08:33:33Z</time>
      </trkpt>
      <trkpt lat="47.06315" lon="-1.83192">
        <ele>84</ele>
        <time>2022-06-28T08:33:35Z</time>
      </trkpt>
      <trkpt lat="47.06303" lon="-1.83196">
        <ele>84</ele>
        <time>2022-06-28T08:33:37Z</time>
      </trkpt>
      <trkpt lat="47.06291" lon="-1.83199">
        <ele>85</ele>
        <time>2022-06-28T08:33:39Z</time>
      </trkpt>
      <trkpt lat="47.06278" lon="-1.83202">
        <ele>85</ele>
        <time>2022-06-28T08:33:41Z</time>
      </trkpt>
      <trkpt lat="47.06266" lon="-1.83204">
        <ele>85</ele>
        <time>2022-06-28T08:33:43Z</time>
      </trkpt>
      <trkpt lat="47.06254" lon="-1.83205">
        <ele>85</ele>
        <time>2022-06-28T08:33:45Z</time>
      </trkpt>
      <trkpt lat="47.06241" lon="-1.83205">
        <ele>85</ele>
        <time>2022-06-28T08:33:47Z</time>
      </trkpt>
      <trkpt lat="47.06223" lon="-1.83206">
        <ele>85</ele>
        <time>2022-06-28T08:33:50Z</time>
      </trkpt>
      <trkpt lat="47.06211" lon="-1.83207">
        <ele>85</ele>
        <time>2022-06-28T08:33:52Z</time>
      </trkpt>
      <trkpt lat="47.06192" lon="-1.83208">
        <ele>85</ele>
        <time>2022-06-28T08:33:55Z</time>
      </trkpt>
      <trkpt lat="47.06174" lon="-1.83208">
        <ele>85</ele>
        <time>2022-06-28T08:33:58Z</time>
      </trkpt>
      <trkpt lat="47.06162" lon="-1.83209">
        <ele>85</ele>
        <time>2022-06-28T08:34:00Z</time>
      </trkpt>
      <trkpt lat="47.06143" lon="-1.8321">
        <ele>85</ele>
        <time>2022-06-28T08:34:03Z</time>
      </trkpt>
      <trkpt lat="47.06131" lon="-1.83211">
        <ele>85</ele>
        <time>2022-06-28T08:34:05Z</time>
      </trkpt>
      <trkpt lat="47.06119" lon="-1.83211">
        <ele>85</ele>
        <time>2022-06-28T08:34:07Z</time>
      </trkpt>
      <trkpt lat="47.06107" lon="-1.83212">
        <ele>85</ele>
        <time>2022-06-28T08:34:09Z</time>
      </trkpt>
      <trkpt lat="47.06089" lon="-1.83212">
        <ele>85</ele>
        <time>2022-06-28T08:34:12Z</time>
      </trkpt>
      <trkpt lat="47.06076" lon="-1.83214">
        <ele>85</ele>
        <time>2022-06-28T08:34:14Z</time>
      </trkpt>
      <trkpt lat="47.06058" lon="-1.83215">
        <ele>85</ele>
        <time>2022-06-28T08:34:17Z</time>
      </trkpt>
      <trkpt lat="47.06045" lon="-1.83216">
        <ele>85</ele>
        <time>2022-06-28T08:34:19Z</time>
      </trkpt>
      <trkpt lat="47.06033" lon="-1.83217">
        <ele>85</ele>
        <time>2022-06-28T08:34:21Z</time>
      </trkpt>
      <trkpt lat="47.0602" lon="-1.83217">
        <ele>86</ele>
        <time>2022-06-28T08:34:23Z</time>
      </trkpt>
      <trkpt lat="47.06008" lon="-1.83219">
        <ele>86</ele>
        <time>2022-06-28T08:34:25Z</time>
      </trkpt>
      <trkpt lat="47.05996" lon="-1.8322">
        <ele>86</ele>
        <time>2022-06-28T08:34:27Z</time>
      </trkpt>
      <trkpt lat="47.05983" lon="-1.83221">
        <ele>86</ele>
        <time>2022-06-28T08:34:29Z</time>
      </trkpt>
      <trkpt lat="47.05972" lon="-1.83226">
        <ele>86</ele>
        <time>2022-06-28T08:34:31Z</time>
      </trkpt>
      <trkpt lat="47.05963" lon="-1.83237">
        <ele>85</ele>
        <time>2022-06-28T08:34:33Z</time>
      </trkpt>
      <trkpt lat="47.05954" lon="-1.8325">
        <ele>85</ele>
        <time>2022-06-28T08:34:35Z</time>
      </trkpt>
      <trkpt lat="47.05945" lon="-1.83263">
        <ele>84</ele>
        <time>2022-06-28T08:34:37Z</time>
      </trkpt>
      <trkpt lat="47.05936" lon="-1.83276">
        <ele>84</ele>
        <time>2022-06-28T08:34:39Z</time>
      </trkpt>
      <trkpt lat="47.05927" lon="-1.83289">
        <ele>84</ele>
        <time>2022-06-28T08:34:41Z</time>
      </trkpt>
      <trkpt lat="47.05918" lon="-1.83302">
        <ele>84</ele>
        <time>2022-06-28T08:34:43Z</time>
      </trkpt>
      <trkpt lat="47.0591" lon="-1.83315">
        <ele>84</ele>
        <time>2022-06-28T08:34:45Z</time>
      </trkpt>
      <trkpt lat="47.05901" lon="-1.83328">
        <ele>83</ele>
        <time>2022-06-28T08:34:47Z</time>
      </trkpt>
      <trkpt lat="47.05892" lon="-1.83341">
        <ele>84</ele>
        <time>2022-06-28T08:34:49Z</time>
      </trkpt>
      <trkpt lat="47.05884" lon="-1.83354">
        <ele>84</ele>
        <time>2022-06-28T08:34:51Z</time>
      </trkpt>
      <trkpt lat="47.05875" lon="-1.83366">
        <ele>84</ele>
        <time>2022-06-28T08:34:53Z</time>
      </trkpt>
      <trkpt lat="47.05867" lon="-1.83379">
        <ele>84</ele>
        <time>2022-06-28T08:34:55Z</time>
      </trkpt>
      <trkpt lat="47.05859" lon="-1.83392">
        <ele>85</ele>
        <time>2022-06-28T08:34:57Z</time>
      </trkpt>
      <trkpt lat="47.0585" lon="-1.83405">
        <ele>85</ele>
        <time>2022-06-28T08:34:59Z</time>
      </trkpt>
      <trkpt lat="47.05842" lon="-1.83417">
        <ele>85</ele>
        <time>2022-06-28T08:35:01Z</time>
      </trkpt>
      <trkpt lat="47.05834" lon="-1.83429">
        <ele>85</ele>
        <time>2022-06-28T08:35:03Z</time>
      </trkpt>
      <trkpt lat="47.05825" lon="-1.83442">
        <ele>85</ele>
        <time>2022-06-28T08:35:05Z</time>
      </trkpt>
      <trkpt lat="47.05817" lon="-1.83454">
        <ele>85</ele>
        <time>2022-06-28T08:35:07Z</time>
      </trkpt>
      <trkpt lat="47.05808" lon="-1.83466">
        <ele>86</ele>
        <time>2022-06-28T08:35:09Z</time>
      </trkpt>
      <trkpt lat="47.05799" lon="-1.83478">
        <ele>86</ele>
        <time>2022-06-28T08:35:11Z</time>
      </trkpt>
      <trkpt lat="47.0579" lon="-1.8349">
        <ele>86</ele>
        <time>2022-06-28T08:35:13Z</time>
      </trkpt>
      <trkpt lat="47.0578" lon="-1.83501">
        <ele>86</ele>
        <time>2022-06-28T08:35:15Z</time>
      </trkpt>
      <trkpt lat="47.05771" lon="-1.83513">
        <ele>86</ele>
        <time>2022-06-28T08:35:17Z</time>
      </trkpt>
      <trkpt lat="47.05761" lon="-1.83524">
        <ele>86</ele>
        <time>2022-06-28T08:35:19Z</time>
      </trkpt>
      <trkpt lat="47.05752" lon="-1.83535">
        <ele>86</ele>
        <time>2022-06-28T08:35:21Z</time>
      </trkpt>
      <trkpt lat="47.05743" lon="-1.83547">
        <ele>86</ele>
        <time>2022-06-28T08:35:23Z</time>
      </trkpt>
      <trkpt lat="47.05733" lon="-1.83557">
        <ele>86</ele>
        <time>2022-06-28T08:35:25Z</time>
      </trkpt>
      <trkpt lat="47.05725" lon="-1.8357">
        <ele>86</ele>
        <time>2022-06-28T08:35:27Z</time>
      </trkpt>
      <trkpt lat="47.05718" lon="-1.83584">
        <ele>86</ele>
        <time>2022-06-28T08:35:29Z</time>
      </trkpt>
      <trkpt lat="47.0571" lon="-1.83598">
        <ele>86</ele>
        <time>2022-06-28T08:35:31Z</time>
      </trkpt>
      <trkpt lat="47.05701" lon="-1.83612">
        <ele>86</ele>
        <time>2022-06-28T08:35:33Z</time>
      </trkpt>
      <trkpt lat="47.05693" lon="-1.83626">
        <ele>85</ele>
        <time>2022-06-28T08:35:35Z</time>
      </trkpt>
      <trkpt lat="47.05685" lon="-1.83639">
        <ele>86</ele>
        <time>2022-06-28T08:35:37Z</time>
      </trkpt>
      <trkpt lat="47.05678" lon="-1.83652">
        <ele>86</ele>
        <time>2022-06-28T08:35:39Z</time>
      </trkpt>
      <trkpt lat="47.0567" lon="-1.83667">
        <ele>86</ele>
        <time>2022-06-28T08:35:41Z</time>
      </trkpt>
      <trkpt lat="47.05661" lon="-1.83681">
        <ele>86</ele>
        <time>2022-06-28T08:35:43Z</time>
      </trkpt>
      <trkpt lat="47.05653" lon="-1.83696">
        <ele>86</ele>
        <time>2022-06-28T08:35:45Z</time>
      </trkpt>
      <trkpt lat="47.05646" lon="-1.83709">
        <ele>86</ele>
        <time>2022-06-28T08:35:47Z</time>
      </trkpt>
      <trkpt lat="47.05638" lon="-1.83724">
        <ele>86</ele>
        <time>2022-06-28T08:35:49Z</time>
      </trkpt>
      <trkpt lat="47.0563" lon="-1.83737">
        <ele>86</ele>
        <time>2022-06-28T08:35:51Z</time>
      </trkpt>
      <trkpt lat="47.05622" lon="-1.83752">
        <ele>86</ele>
        <time>2022-06-28T08:35:53Z</time>
      </trkpt>
      <trkpt lat="47.05614" lon="-1.83766">
        <ele>86</ele>
        <time>2022-06-28T08:35:55Z</time>
      </trkpt>
      <trkpt lat="47.05606" lon="-1.8378">
        <ele>86</ele>
        <time>2022-06-28T08:35:57Z</time>
      </trkpt>
      <trkpt lat="47.05599" lon="-1.83794">
        <ele>86</ele>
        <time>2022-06-28T08:35:59Z</time>
      </trkpt>
      <trkpt lat="47.05591" lon="-1.83809">
        <ele>86</ele>
        <time>2022-06-28T08:36:01Z</time>
      </trkpt>
      <trkpt lat="47.05583" lon="-1.83823">
        <ele>86</ele>
        <time>2022-06-28T08:36:03Z</time>
      </trkpt>
      <trkpt lat="47.05574" lon="-1.83837">
        <ele>86</ele>
        <time>2022-06-28T08:36:05Z</time>
      </trkpt>
      <trkpt lat="47.05567" lon="-1.83851">
        <ele>86</ele>
        <time>2022-06-28T08:36:07Z</time>
      </trkpt>
      <trkpt lat="47.05559" lon="-1.83866">
        <ele>86</ele>
        <time>2022-06-28T08:36:09Z</time>
      </trkpt>
      <trkpt lat="47.05551" lon="-1.8388">
        <ele>86</ele>
        <time>2022-06-28T08:36:11Z</time>
      </trkpt>
      <trkpt lat="47.05543" lon="-1.83894">
        <ele>86</ele>
        <time>2022-06-28T08:36:13Z</time>
      </trkpt>
      <trkpt lat="47.05535" lon="-1.83909">
        <ele>86</ele>
        <time>2022-06-28T08:36:15Z</time>
      </trkpt>
      <trkpt lat="47.05528" lon="-1.83923">
        <ele>87</ele>
        <time>2022-06-28T08:36:17Z</time>
      </trkpt>
      <trkpt lat="47.05519" lon="-1.83937">
        <ele>86</ele>
        <time>2022-06-28T08:36:19Z</time>
      </trkpt>
      <trkpt lat="47.05511" lon="-1.83952">
        <ele>86</ele>
        <time>2022-06-28T08:36:21Z</time>
      </trkpt>
      <trkpt lat="47.05504" lon="-1.83966">
        <ele>87</ele>
        <time>2022-06-28T08:36:23Z</time>
      </trkpt>
      <trkpt lat="47.05496" lon="-1.83981">
        <ele>87</ele>
        <time>2022-06-28T08:36:25Z</time>
      </trkpt>
      <trkpt lat="47.05488" lon="-1.83995">
        <ele>87</ele>
        <time>2022-06-28T08:36:27Z</time>
      </trkpt>
      <trkpt lat="47.05481" lon="-1.8401">
        <ele>87</ele>
        <time>2022-06-28T08:36:29Z</time>
      </trkpt>
      <trkpt lat="47.05474" lon="-1.84024">
        <ele>87</ele>
        <time>2022-06-28T08:36:31Z</time>
      </trkpt>
      <trkpt lat="47.05466" lon="-1.84039">
        <ele>87</ele>
        <time>2022-06-28T08:36:33Z</time>
      </trkpt>
      <trkpt lat="47.05459" lon="-1.84054">
        <ele>87</ele>
        <time>2022-06-28T08:36:35Z</time>
      </trkpt>
      <trkpt lat="47.05451" lon="-1.84068">
        <ele>87</ele>
        <time>2022-06-28T08:36:37Z</time>
      </trkpt>
      <trkpt lat="47.05444" lon="-1.84083">
        <ele>87</ele>
        <time>2022-06-28T08:36:39Z</time>
      </trkpt>
      <trkpt lat="47.05437" lon="-1.84098">
        <ele>87</ele>
        <time>2022-06-28T08:36:41Z</time>
      </trkpt>
      <trkpt lat="47.05429" lon="-1.84112">
        <ele>87</ele>
        <time>2022-06-28T08:36:43Z</time>
      </trkpt>
      <trkpt lat="47.05422" lon="-1.84126">
        <ele>87</ele>
        <time>2022-06-28T08:36:45Z</time>
      </trkpt>
      <trkpt lat="47.05415" lon="-1.84141">
        <ele>87</ele>
        <time>2022-06-28T08:36:47Z</time>
      </trkpt>
      <trkpt lat="47.05408" lon="-1.84155">
        <ele>87</ele>
        <time>2022-06-28T08:36:49Z</time>
      </trkpt>
      <trkpt lat="47.05401" lon="-1.84169">
        <ele>87</ele>
        <time>2022-06-28T08:36:51Z</time>
      </trkpt>
      <trkpt lat="47.05393" lon="-1.84183">
        <ele>87</ele>
        <time>2022-06-28T08:36:53Z</time>
      </trkpt>
      <trkpt lat="47.05386" lon="-1.84196">
        <ele>87</ele>
        <time>2022-06-28T08:36:55Z</time>
      </trkpt>
      <trkpt lat="47.05379" lon="-1.8421">
        <ele>87</ele>
        <time>2022-06-28T08:36:57Z</time>
      </trkpt>
      <trkpt lat="47.05372" lon="-1.84224">
        <ele>87</ele>
        <time>2022-06-28T08:36:59Z</time>
      </trkpt>
      <trkpt lat="47.05365" lon="-1.84238">
        <ele>87</ele>
        <time>2022-06-28T08:37:01Z</time>
      </trkpt>
      <trkpt lat="47.05357" lon="-1.84252">
        <ele>87</ele>
        <time>2022-06-28T08:37:03Z</time>
      </trkpt>
      <trkpt lat="47.0535" lon="-1.84265">
        <ele>87</ele>
        <time>2022-06-28T08:37:05Z</time>
      </trkpt>
      <trkpt lat="47.05343" lon="-1.84279">
        <ele>87</ele>
        <time>2022-06-28T08:37:07Z</time>
      </trkpt>
      <trkpt lat="47.05336" lon="-1.84293">
        <ele>87</ele>
        <time>2022-06-28T08:37:09Z</time>
      </trkpt>
      <trkpt lat="47.05329" lon="-1.84307">
        <ele>87</ele>
        <time>2022-06-28T08:37:11Z</time>
      </trkpt>
      <trkpt lat="47.05322" lon="-1.84322">
        <ele>86</ele>
        <time>2022-06-28T08:37:13Z</time>
      </trkpt>
      <trkpt lat="47.05315" lon="-1.84336">
        <ele>87</ele>
        <time>2022-06-28T08:37:15Z</time>
      </trkpt>
      <trkpt lat="47.05308" lon="-1.8435">
        <ele>87</ele>
        <time>2022-06-28T08:37:17Z</time>
      </trkpt>
      <trkpt lat="47.05301" lon="-1.84364">
        <ele>87</ele>
        <time>2022-06-28T08:37:19Z</time>
      </trkpt>
      <trkpt lat="47.05294" lon="-1.84378">
        <ele>87</ele>
        <time>2022-06-28T08:37:21Z</time>
      </trkpt>
      <trkpt lat="47.05287" lon="-1.84391">
        <ele>87</ele>
        <time>2022-06-28T08:37:23Z</time>
      </trkpt>
      <trkpt lat="47.05281" lon="-1.84405">
        <ele>87</ele>
        <time>2022-06-28T08:37:25Z</time>
      </trkpt>
      <trkpt lat="47.05274" lon="-1.84419">
        <ele>87</ele>
        <time>2022-06-28T08:37:27Z</time>
      </trkpt>
      <trkpt lat="47.05267" lon="-1.84432">
        <ele>87</ele>
        <time>2022-06-28T08:37:29Z</time>
      </trkpt>
      <trkpt lat="47.0526" lon="-1.84446">
        <ele>87</ele>
        <time>2022-06-28T08:37:31Z</time>
      </trkpt>
      <trkpt lat="47.05253" lon="-1.8446">
        <ele>87</ele>
        <time>2022-06-28T08:37:33Z</time>
      </trkpt>
      <trkpt lat="47.05247" lon="-1.84474">
        <ele>87</ele>
        <time>2022-06-28T08:37:35Z</time>
      </trkpt>
      <trkpt lat="47.05239" lon="-1.84487">
        <ele>87</ele>
        <time>2022-06-28T08:37:37Z</time>
      </trkpt>
      <trkpt lat="47.05232" lon="-1.84501">
        <ele>87</ele>
        <time>2022-06-28T08:37:39Z</time>
      </trkpt>
      <trkpt lat="47.05225" lon="-1.84515">
        <ele>87</ele>
        <time>2022-06-28T08:37:41Z</time>
      </trkpt>
      <trkpt lat="47.05219" lon="-1.84529">
        <ele>87</ele>
        <time>2022-06-28T08:37:43Z</time>
      </trkpt>
      <trkpt lat="47.05212" lon="-1.84541">
        <ele>88</ele>
        <time>2022-06-28T08:37:45Z</time>
      </trkpt>
      <trkpt lat="47.05199" lon="-1.84545">
        <ele>88</ele>
        <time>2022-06-28T08:37:48Z</time>
      </trkpt>
      <trkpt lat="47.05192" lon="-1.84534">
        <ele>88</ele>
        <time>2022-06-28T08:37:50Z</time>
      </trkpt>
      <trkpt lat="47.05184" lon="-1.84522">
        <ele>88</ele>
        <time>2022-06-28T08:37:52Z</time>
      </trkpt>
      <trkpt lat="47.05174" lon="-1.84509">
        <ele>89</ele>
        <time>2022-06-28T08:37:54Z</time>
      </trkpt>
      <trkpt lat="47.05165" lon="-1.84497">
        <ele>88</ele>
        <time>2022-06-28T08:37:56Z</time>
      </trkpt>
      <trkpt lat="47.05156" lon="-1.84484">
        <ele>88</ele>
        <time>2022-06-28T08:37:58Z</time>
      </trkpt>
      <trkpt lat="47.05147" lon="-1.84472">
        <ele>88</ele>
        <time>2022-06-28T08:38:00Z</time>
      </trkpt>
      <trkpt lat="47.05139" lon="-1.84459">
        <ele>88</ele>
        <time>2022-06-28T08:38:02Z</time>
      </trkpt>
      <trkpt lat="47.0513" lon="-1.84446">
        <ele>88</ele>
        <time>2022-06-28T08:38:04Z</time>
      </trkpt>
      <trkpt lat="47.05121" lon="-1.84434">
        <ele>89</ele>
        <time>2022-06-28T08:38:06Z</time>
      </trkpt>
      <trkpt lat="47.05111" lon="-1.84421">
        <ele>89</ele>
        <time>2022-06-28T08:38:08Z</time>
      </trkpt>
      <trkpt lat="47.05101" lon="-1.84408">
        <ele>89</ele>
        <time>2022-06-28T08:38:10Z</time>
      </trkpt>
      <trkpt lat="47.05091" lon="-1.84396">
        <ele>89</ele>
        <time>2022-06-28T08:38:12Z</time>
      </trkpt>
      <trkpt lat="47.05081" lon="-1.84383">
        <ele>89</ele>
        <time>2022-06-28T08:38:14Z</time>
      </trkpt>
      <trkpt lat="47.0507" lon="-1.84371">
        <ele>89</ele>
        <time>2022-06-28T08:38:16Z</time>
      </trkpt>
      <trkpt lat="47.0506" lon="-1.84359">
        <ele>89</ele>
        <time>2022-06-28T08:38:18Z</time>
      </trkpt>
      <trkpt lat="47.05049" lon="-1.84348">
        <ele>89</ele>
        <time>2022-06-28T08:38:20Z</time>
      </trkpt>
      <trkpt lat="47.05039" lon="-1.84337">
        <ele>89</ele>
        <time>2022-06-28T08:38:22Z</time>
      </trkpt>
      <trkpt lat="47.05028" lon="-1.84327">
        <ele>89</ele>
        <time>2022-06-28T08:38:24Z</time>
      </trkpt>
      <trkpt lat="47.05018" lon="-1.84317">
        <ele>90</ele>
        <time>2022-06-28T08:38:26Z</time>
      </trkpt>
      <trkpt lat="47.05007" lon="-1.84308">
        <ele>90</ele>
        <time>2022-06-28T08:38:28Z</time>
      </trkpt>
      <trkpt lat="47.04995" lon="-1.843">
        <ele>91</ele>
        <time>2022-06-28T08:38:30Z</time>
      </trkpt>
      <trkpt lat="47.04984" lon="-1.84291">
        <ele>91</ele>
        <time>2022-06-28T08:38:32Z</time>
      </trkpt>
      <trkpt lat="47.04973" lon="-1.84282">
        <ele>91</ele>
        <time>2022-06-28T08:38:34Z</time>
      </trkpt>
      <trkpt lat="47.04961" lon="-1.84273">
        <ele>91</ele>
        <time>2022-06-28T08:38:36Z</time>
      </trkpt>
      <trkpt lat="47.04951" lon="-1.84262">
        <ele>91</ele>
        <time>2022-06-28T08:38:38Z</time>
      </trkpt>
      <trkpt lat="47.0494" lon="-1.84252">
        <ele>91</ele>
        <time>2022-06-28T08:38:40Z</time>
      </trkpt>
      <trkpt lat="47.0493" lon="-1.84241">
        <ele>91</ele>
        <time>2022-06-28T08:38:42Z</time>
      </trkpt>
      <trkpt lat="47.04919" lon="-1.8423">
        <ele>91</ele>
        <time>2022-06-28T08:38:44Z</time>
      </trkpt>
      <trkpt lat="47.04908" lon="-1.8422">
        <ele>91</ele>
        <time>2022-06-28T08:38:46Z</time>
      </trkpt>
      <trkpt lat="47.04897" lon="-1.84209">
        <ele>90</ele>
        <time>2022-06-28T08:38:48Z</time>
      </trkpt>
      <trkpt lat="47.04887" lon="-1.84198">
        <ele>90</ele>
        <time>2022-06-28T08:38:50Z</time>
      </trkpt>
      <trkpt lat="47.04876" lon="-1.84187">
        <ele>91</ele>
        <time>2022-06-28T08:38:52Z</time>
      </trkpt>
      <trkpt lat="47.04866" lon="-1.84176">
        <ele>91</ele>
        <time>2022-06-28T08:38:54Z</time>
      </trkpt>
      <trkpt lat="47.04856" lon="-1.84164">
        <ele>90</ele>
        <time>2022-06-28T08:38:56Z</time>
      </trkpt>
      <trkpt lat="47.04845" lon="-1.84152">
        <ele>90</ele>
        <time>2022-06-28T08:38:58Z</time>
      </trkpt>
      <trkpt lat="47.04834" lon="-1.8414">
        <ele>89</ele>
        <time>2022-06-28T08:39:00Z</time>
      </trkpt>
      <trkpt lat="47.04824" lon="-1.84128">
        <ele>89</ele>
        <time>2022-06-28T08:39:02Z</time>
      </trkpt>
      <trkpt lat="47.04814" lon="-1.84115">
        <ele>89</ele>
        <time>2022-06-28T08:39:04Z</time>
      </trkpt>
      <trkpt lat="47.04804" lon="-1.84102">
        <ele>88</ele>
        <time>2022-06-28T08:39:06Z</time>
      </trkpt>
      <trkpt lat="47.04794" lon="-1.8409">
        <ele>88</ele>
        <time>2022-06-28T08:39:08Z</time>
      </trkpt>
      <trkpt lat="47.04785" lon="-1.84077">
        <ele>88</ele>
        <time>2022-06-28T08:39:10Z</time>
      </trkpt>
      <trkpt lat="47.04774" lon="-1.84063">
        <ele>88</ele>
        <time>2022-06-28T08:39:12Z</time>
      </trkpt>
      <trkpt lat="47.04764" lon="-1.8405">
        <ele>88</ele>
        <time>2022-06-28T08:39:14Z</time>
      </trkpt>
      <trkpt lat="47.04754" lon="-1.84037">
        <ele>88</ele>
        <time>2022-06-28T08:39:16Z</time>
      </trkpt>
      <trkpt lat="47.04744" lon="-1.84024">
        <ele>88</ele>
        <time>2022-06-28T08:39:18Z</time>
      </trkpt>
      <trkpt lat="47.04733" lon="-1.84012">
        <ele>88</ele>
        <time>2022-06-28T08:39:20Z</time>
      </trkpt>
      <trkpt lat="47.04723" lon="-1.83999">
        <ele>88</ele>
        <time>2022-06-28T08:39:22Z</time>
      </trkpt>
      <trkpt lat="47.04712" lon="-1.83986">
        <ele>88</ele>
        <time>2022-06-28T08:39:24Z</time>
      </trkpt>
      <trkpt lat="47.04702" lon="-1.83973">
        <ele>87</ele>
        <time>2022-06-28T08:39:26Z</time>
      </trkpt>
      <trkpt lat="47.04692" lon="-1.8396">
        <ele>86</ele>
        <time>2022-06-28T08:39:28Z</time>
      </trkpt>
      <trkpt lat="47.04681" lon="-1.83948">
        <ele>86</ele>
        <time>2022-06-28T08:39:30Z</time>
      </trkpt>
      <trkpt lat="47.0467" lon="-1.83935">
        <ele>86</ele>
        <time>2022-06-28T08:39:32Z</time>
      </trkpt>
      <trkpt lat="47.04659" lon="-1.83923">
        <ele>86</ele>
        <time>2022-06-28T08:39:34Z</time>
      </trkpt>
      <trkpt lat="47.0465" lon="-1.8391">
        <ele>86</ele>
        <time>2022-06-28T08:39:36Z</time>
      </trkpt>
      <trkpt lat="47.0464" lon="-1.83895">
        <ele>86</ele>
        <time>2022-06-28T08:39:38Z</time>
      </trkpt>
      <trkpt lat="47.04631" lon="-1.83882">
        <ele>86</ele>
        <time>2022-06-28T08:39:40Z</time>
      </trkpt>
      <trkpt lat="47.04622" lon="-1.83868">
        <ele>86</ele>
        <time>2022-06-28T08:39:42Z</time>
      </trkpt>
      <trkpt lat="47.04612" lon="-1.83855">
        <ele>86</ele>
        <time>2022-06-28T08:39:44Z</time>
      </trkpt>
      <trkpt lat="47.04602" lon="-1.83843">
        <ele>86</ele>
        <time>2022-06-28T08:39:46Z</time>
      </trkpt>
      <trkpt lat="47.04591" lon="-1.83832">
        <ele>86</ele>
        <time>2022-06-28T08:39:48Z</time>
      </trkpt>
      <trkpt lat="47.04579" lon="-1.83824">
        <ele>86</ele>
        <time>2022-06-28T08:39:50Z</time>
      </trkpt>
      <trkpt lat="47.04567" lon="-1.83815">
        <ele>85</ele>
        <time>2022-06-28T08:39:52Z</time>
      </trkpt>
      <trkpt lat="47.04556" lon="-1.83807">
        <ele>86</ele>
        <time>2022-06-28T08:39:54Z</time>
      </trkpt>
      <trkpt lat="47.04543" lon="-1.83799">
        <ele>85</ele>
        <time>2022-06-28T08:39:56Z</time>
      </trkpt>
      <trkpt lat="47.04532" lon="-1.83791">
        <ele>86</ele>
        <time>2022-06-28T08:39:58Z</time>
      </trkpt>
      <trkpt lat="47.0452" lon="-1.83783">
        <ele>86</ele>
        <time>2022-06-28T08:40:00Z</time>
      </trkpt>
      <trkpt lat="47.04509" lon="-1.83775">
        <ele>86</ele>
        <time>2022-06-28T08:40:02Z</time>
      </trkpt>
      <trkpt lat="47.04497" lon="-1.83766">
        <ele>85</ele>
        <time>2022-06-28T08:40:04Z</time>
      </trkpt>
      <trkpt lat="47.04486" lon="-1.83757">
        <ele>85</ele>
        <time>2022-06-28T08:40:06Z</time>
      </trkpt>
      <trkpt lat="47.04475" lon="-1.83749">
        <ele>86</ele>
        <time>2022-06-28T08:40:08Z</time>
      </trkpt>
      <trkpt lat="47.04464" lon="-1.8374">
        <ele>86</ele>
        <time>2022-06-28T08:40:10Z</time>
      </trkpt>
      <trkpt lat="47.04453" lon="-1.83731">
        <ele>86</ele>
        <time>2022-06-28T08:40:12Z</time>
      </trkpt>
      <trkpt lat="47.04442" lon="-1.83722">
        <ele>86</ele>
        <time>2022-06-28T08:40:14Z</time>
      </trkpt>
      <trkpt lat="47.0443" lon="-1.83713">
        <ele>86</ele>
        <time>2022-06-28T08:40:16Z</time>
      </trkpt>
      <trkpt lat="47.04418" lon="-1.83704">
        <ele>87</ele>
        <time>2022-06-28T08:40:18Z</time>
      </trkpt>
      <trkpt lat="47.04407" lon="-1.83696">
        <ele>86</ele>
        <time>2022-06-28T08:40:20Z</time>
      </trkpt>
      <trkpt lat="47.04395" lon="-1.83688">
        <ele>86</ele>
        <time>2022-06-28T08:40:22Z</time>
      </trkpt>
      <trkpt lat="47.04384" lon="-1.8368">
        <ele>86</ele>
        <time>2022-06-28T08:40:24Z</time>
      </trkpt>
      <trkpt lat="47.04372" lon="-1.83673">
        <ele>85</ele>
        <time>2022-06-28T08:40:26Z</time>
      </trkpt>
      <trkpt lat="47.04359" lon="-1.83669">
        <ele>85</ele>
        <time>2022-06-28T08:40:28Z</time>
      </trkpt>
      <trkpt lat="47.04346" lon="-1.83666">
        <ele>85</ele>
        <time>2022-06-28T08:40:30Z</time>
      </trkpt>
      <trkpt lat="47.04332" lon="-1.83663">
        <ele>85</ele>
        <time>2022-06-28T08:40:32Z</time>
      </trkpt>
      <trkpt lat="47.04319" lon="-1.8366">
        <ele>85</ele>
        <time>2022-06-28T08:40:34Z</time>
      </trkpt>
      <trkpt lat="47.04307" lon="-1.83657">
        <ele>85</ele>
        <time>2022-06-28T08:40:36Z</time>
      </trkpt>
      <trkpt lat="47.04294" lon="-1.83654">
        <ele>85</ele>
        <time>2022-06-28T08:40:38Z</time>
      </trkpt>
      <trkpt lat="47.0428" lon="-1.8365">
        <ele>85</ele>
        <time>2022-06-28T08:40:40Z</time>
      </trkpt>
      <trkpt lat="47.04268" lon="-1.83647">
        <ele>85</ele>
        <time>2022-06-28T08:40:42Z</time>
      </trkpt>
      <trkpt lat="47.04255" lon="-1.83643">
        <ele>85</ele>
        <time>2022-06-28T08:40:44Z</time>
      </trkpt>
      <trkpt lat="47.04242" lon="-1.83639">
        <ele>85</ele>
        <time>2022-06-28T08:40:46Z</time>
      </trkpt>
      <trkpt lat="47.04229" lon="-1.83635">
        <ele>85</ele>
        <time>2022-06-28T08:40:48Z</time>
      </trkpt>
      <trkpt lat="47.04217" lon="-1.83626">
        <ele>85</ele>
        <time>2022-06-28T08:40:50Z</time>
      </trkpt>
      <trkpt lat="47.04206" lon="-1.83618">
        <ele>85</ele>
        <time>2022-06-28T08:40:52Z</time>
      </trkpt>
      <trkpt lat="47.04193" lon="-1.83616">
        <ele>84</ele>
        <time>2022-06-28T08:40:54Z</time>
      </trkpt>
      <trkpt lat="47.0418" lon="-1.83616">
        <ele>84</ele>
        <time>2022-06-28T08:40:56Z</time>
      </trkpt>
      <trkpt lat="47.04167" lon="-1.83612">
        <ele>84</ele>
        <time>2022-06-28T08:40:58Z</time>
      </trkpt>
      <trkpt lat="47.04155" lon="-1.83606">
        <ele>84</ele>
        <time>2022-06-28T08:41:00Z</time>
      </trkpt>
      <trkpt lat="47.04144" lon="-1.83599">
        <ele>85</ele>
        <time>2022-06-28T08:41:02Z</time>
      </trkpt>
      <trkpt lat="47.04132" lon="-1.83593">
        <ele>85</ele>
        <time>2022-06-28T08:41:04Z</time>
      </trkpt>
      <trkpt lat="47.0412" lon="-1.83588">
        <ele>86</ele>
        <time>2022-06-28T08:41:06Z</time>
      </trkpt>
      <trkpt lat="47.04108" lon="-1.83583">
        <ele>86</ele>
        <time>2022-06-28T08:41:08Z</time>
      </trkpt>
      <trkpt lat="47.04096" lon="-1.83579">
        <ele>86</ele>
        <time>2022-06-28T08:41:10Z</time>
      </trkpt>
      <trkpt lat="47.04084" lon="-1.83576">
        <ele>86</ele>
        <time>2022-06-28T08:41:12Z</time>
      </trkpt>
      <trkpt lat="47.04071" lon="-1.83573">
        <ele>86</ele>
        <time>2022-06-28T08:41:14Z</time>
      </trkpt>
      <trkpt lat="47.04059" lon="-1.83571">
        <ele>86</ele>
        <time>2022-06-28T08:41:16Z</time>
      </trkpt>
      <trkpt lat="47.04047" lon="-1.83569">
        <ele>87</ele>
        <time>2022-06-28T08:41:18Z</time>
      </trkpt>
      <trkpt lat="47.04034" lon="-1.83568">
        <ele>87</ele>
        <time>2022-06-28T08:41:20Z</time>
      </trkpt>
      <trkpt lat="47.04022" lon="-1.83566">
        <ele>87</ele>
        <time>2022-06-28T08:41:22Z</time>
      </trkpt>
      <trkpt lat="47.04009" lon="-1.83564">
        <ele>87</ele>
        <time>2022-06-28T08:41:24Z</time>
      </trkpt>
      <trkpt lat="47.03997" lon="-1.83563">
        <ele>87</ele>
        <time>2022-06-28T08:41:26Z</time>
      </trkpt>
      <trkpt lat="47.03984" lon="-1.83561">
        <ele>87</ele>
        <time>2022-06-28T08:41:28Z</time>
      </trkpt>
      <trkpt lat="47.03971" lon="-1.83559">
        <ele>87</ele>
        <time>2022-06-28T08:41:30Z</time>
      </trkpt>
      <trkpt lat="47.03958" lon="-1.83557">
        <ele>87</ele>
        <time>2022-06-28T08:41:32Z</time>
      </trkpt>
      <trkpt lat="47.03945" lon="-1.83556">
        <ele>87</ele>
        <time>2022-06-28T08:41:34Z</time>
      </trkpt>
      <trkpt lat="47.03932" lon="-1.83554">
        <ele>87</ele>
        <time>2022-06-28T08:41:36Z</time>
      </trkpt>
      <trkpt lat="47.03919" lon="-1.83551">
        <ele>88</ele>
        <time>2022-06-28T08:41:38Z</time>
      </trkpt>
      <trkpt lat="47.03905" lon="-1.83549">
        <ele>87</ele>
        <time>2022-06-28T08:41:40Z</time>
      </trkpt>
      <trkpt lat="47.03892" lon="-1.83547">
        <ele>87</ele>
        <time>2022-06-28T08:41:42Z</time>
      </trkpt>
      <trkpt lat="47.03879" lon="-1.83546">
        <ele>87</ele>
        <time>2022-06-28T08:41:44Z</time>
      </trkpt>
      <trkpt lat="47.03867" lon="-1.83544">
        <ele>87</ele>
        <time>2022-06-28T08:41:46Z</time>
      </trkpt>
      <trkpt lat="47.03853" lon="-1.83543">
        <ele>87</ele>
        <time>2022-06-28T08:41:48Z</time>
      </trkpt>
      <trkpt lat="47.03841" lon="-1.83541">
        <ele>87</ele>
        <time>2022-06-28T08:41:50Z</time>
      </trkpt>
      <trkpt lat="47.03828" lon="-1.83539">
        <ele>87</ele>
        <time>2022-06-28T08:41:52Z</time>
      </trkpt>
      <trkpt lat="47.03815" lon="-1.83538">
        <ele>87</ele>
        <time>2022-06-28T08:41:54Z</time>
      </trkpt>
      <trkpt lat="47.03802" lon="-1.83537">
        <ele>86</ele>
        <time>2022-06-28T08:41:56Z</time>
      </trkpt>
      <trkpt lat="47.03789" lon="-1.83536">
        <ele>86</ele>
        <time>2022-06-28T08:41:58Z</time>
      </trkpt>
      <trkpt lat="47.03777" lon="-1.83535">
        <ele>86</ele>
        <time>2022-06-28T08:42:00Z</time>
      </trkpt>
      <trkpt lat="47.03764" lon="-1.83535">
        <ele>86</ele>
        <time>2022-06-28T08:42:02Z</time>
      </trkpt>
      <trkpt lat="47.03751" lon="-1.83535">
        <ele>85</ele>
        <time>2022-06-28T08:42:04Z</time>
      </trkpt>
      <trkpt lat="47.03739" lon="-1.83536">
        <ele>85</ele>
        <time>2022-06-28T08:42:06Z</time>
      </trkpt>
      <trkpt lat="47.03726" lon="-1.83536">
        <ele>85</ele>
        <time>2022-06-28T08:42:08Z</time>
      </trkpt>
      <trkpt lat="47.03713" lon="-1.83536">
        <ele>85</ele>
        <time>2022-06-28T08:42:10Z</time>
      </trkpt>
      <trkpt lat="47.03701" lon="-1.83537">
        <ele>85</ele>
        <time>2022-06-28T08:42:12Z</time>
      </trkpt>
      <trkpt lat="47.03689" lon="-1.83538">
        <ele>85</ele>
        <time>2022-06-28T08:42:14Z</time>
      </trkpt>
      <trkpt lat="47.03676" lon="-1.83538">
        <ele>85</ele>
        <time>2022-06-28T08:42:16Z</time>
      </trkpt>
      <trkpt lat="47.03663" lon="-1.83538">
        <ele>85</ele>
        <time>2022-06-28T08:42:18Z</time>
      </trkpt>
      <trkpt lat="47.03651" lon="-1.83538">
        <ele>85</ele>
        <time>2022-06-28T08:42:20Z</time>
      </trkpt>
      <trkpt lat="47.03638" lon="-1.83538">
        <ele>85</ele>
        <time>2022-06-28T08:42:22Z</time>
      </trkpt>
      <trkpt lat="47.03626" lon="-1.83539">
        <ele>84</ele>
        <time>2022-06-28T08:42:24Z</time>
      </trkpt>
      <trkpt lat="47.03613" lon="-1.83539">
        <ele>84</ele>
        <time>2022-06-28T08:42:26Z</time>
      </trkpt>
      <trkpt lat="47.036" lon="-1.83539">
        <ele>84</ele>
        <time>2022-06-28T08:42:28Z</time>
      </trkpt>
      <trkpt lat="47.03587" lon="-1.83539">
        <ele>84</ele>
        <time>2022-06-28T08:42:30Z</time>
      </trkpt>
      <trkpt lat="47.03574" lon="-1.83539">
        <ele>84</ele>
        <time>2022-06-28T08:42:32Z</time>
      </trkpt>
      <trkpt lat="47.03562" lon="-1.8354">
        <ele>83</ele>
        <time>2022-06-28T08:42:34Z</time>
      </trkpt>
      <trkpt lat="47.03548" lon="-1.83539">
        <ele>83</ele>
        <time>2022-06-28T08:42:36Z</time>
      </trkpt>
      <trkpt lat="47.03535" lon="-1.83539">
        <ele>83</ele>
        <time>2022-06-28T08:42:38Z</time>
      </trkpt>
      <trkpt lat="47.03522" lon="-1.83539">
        <ele>83</ele>
        <time>2022-06-28T08:42:40Z</time>
      </trkpt>
      <trkpt lat="47.03509" lon="-1.83538">
        <ele>83</ele>
        <time>2022-06-28T08:42:42Z</time>
      </trkpt>
      <trkpt lat="47.03495" lon="-1.83537">
        <ele>83</ele>
        <time>2022-06-28T08:42:44Z</time>
      </trkpt>
      <trkpt lat="47.03482" lon="-1.83535">
        <ele>83</ele>
        <time>2022-06-28T08:42:46Z</time>
      </trkpt>
      <trkpt lat="47.03469" lon="-1.83532">
        <ele>82</ele>
        <time>2022-06-28T08:42:48Z</time>
      </trkpt>
      <trkpt lat="47.03456" lon="-1.83529">
        <ele>82</ele>
        <time>2022-06-28T08:42:50Z</time>
      </trkpt>
      <trkpt lat="47.03442" lon="-1.83526">
        <ele>82</ele>
        <time>2022-06-28T08:42:52Z</time>
      </trkpt>
      <trkpt lat="47.03429" lon="-1.83522">
        <ele>81</ele>
        <time>2022-06-28T08:42:54Z</time>
      </trkpt>
      <trkpt lat="47.03416" lon="-1.83518">
        <ele>81</ele>
        <time>2022-06-28T08:42:56Z</time>
      </trkpt>
      <trkpt lat="47.03403" lon="-1.83514">
        <ele>81</ele>
        <time>2022-06-28T08:42:58Z</time>
      </trkpt>
      <trkpt lat="47.0339" lon="-1.83511">
        <ele>81</ele>
        <time>2022-06-28T08:43:00Z</time>
      </trkpt>
      <trkpt lat="47.03378" lon="-1.83507">
        <ele>81</ele>
        <time>2022-06-28T08:43:02Z</time>
      </trkpt>
      <trkpt lat="47.03365" lon="-1.83503">
        <ele>81</ele>
        <time>2022-06-28T08:43:04Z</time>
      </trkpt>
      <trkpt lat="47.03352" lon="-1.835">
        <ele>80</ele>
        <time>2022-06-28T08:43:06Z</time>
      </trkpt>
      <trkpt lat="47.03339" lon="-1.83496">
        <ele>81</ele>
        <time>2022-06-28T08:43:08Z</time>
      </trkpt>
      <trkpt lat="47.03327" lon="-1.83492">
        <ele>80</ele>
        <time>2022-06-28T08:43:10Z</time>
      </trkpt>
      <trkpt lat="47.03314" lon="-1.83489">
        <ele>81</ele>
        <time>2022-06-28T08:43:12Z</time>
      </trkpt>
      <trkpt lat="47.03301" lon="-1.83485">
        <ele>81</ele>
        <time>2022-06-28T08:43:14Z</time>
      </trkpt>
      <trkpt lat="47.03288" lon="-1.83481">
        <ele>81</ele>
        <time>2022-06-28T08:43:16Z</time>
      </trkpt>
      <trkpt lat="47.03275" lon="-1.83478">
        <ele>81</ele>
        <time>2022-06-28T08:43:18Z</time>
      </trkpt>
      <trkpt lat="47.03262" lon="-1.83475">
        <ele>81</ele>
        <time>2022-06-28T08:43:20Z</time>
      </trkpt>
      <trkpt lat="47.0325" lon="-1.83471">
        <ele>80</ele>
        <time>2022-06-28T08:43:22Z</time>
      </trkpt>
      <trkpt lat="47.03237" lon="-1.83468">
        <ele>80</ele>
        <time>2022-06-28T08:43:24Z</time>
      </trkpt>
      <trkpt lat="47.03225" lon="-1.83464">
        <ele>80</ele>
        <time>2022-06-28T08:43:26Z</time>
      </trkpt>
      <trkpt lat="47.03212" lon="-1.8346">
        <ele>80</ele>
        <time>2022-06-28T08:43:28Z</time>
      </trkpt>
      <trkpt lat="47.032" lon="-1.83457">
        <ele>80</ele>
        <time>2022-06-28T08:43:30Z</time>
      </trkpt>
      <trkpt lat="47.03187" lon="-1.83453">
        <ele>80</ele>
        <time>2022-06-28T08:43:32Z</time>
      </trkpt>
      <trkpt lat="47.03176" lon="-1.83451">
        <ele>80</ele>
        <time>2022-06-28T08:43:34Z</time>
      </trkpt>
      <trkpt lat="47.03166" lon="-1.83455">
        <ele>79</ele>
        <time>2022-06-28T08:43:36Z</time>
      </trkpt>
      <trkpt lat="47.03159" lon="-1.83473">
        <ele>79</ele>
        <time>2022-06-28T08:43:39Z</time>
      </trkpt>
      <trkpt lat="47.03152" lon="-1.83485">
        <ele>79</ele>
        <time>2022-06-28T08:43:41Z</time>
      </trkpt>
      <trkpt lat="47.0314" lon="-1.83489">
        <ele>79</ele>
        <time>2022-06-28T08:43:43Z</time>
      </trkpt>
      <trkpt lat="47.03128" lon="-1.8349">
        <ele>79</ele>
        <time>2022-06-28T08:43:45Z</time>
      </trkpt>
      <trkpt lat="47.03114" lon="-1.83491">
        <ele>79</ele>
        <time>2022-06-28T08:43:47Z</time>
      </trkpt>
      <trkpt lat="47.03101" lon="-1.83492">
        <ele>78</ele>
        <time>2022-06-28T08:43:49Z</time>
      </trkpt>
      <trkpt lat="47.03089" lon="-1.83494">
        <ele>78</ele>
        <time>2022-06-28T08:43:51Z</time>
      </trkpt>
      <trkpt lat="47.03076" lon="-1.83495">
        <ele>78</ele>
        <time>2022-06-28T08:43:53Z</time>
      </trkpt>
      <trkpt lat="47.03063" lon="-1.83497">
        <ele>78</ele>
        <time>2022-06-28T08:43:55Z</time>
      </trkpt>
      <trkpt lat="47.0305" lon="-1.83498">
        <ele>78</ele>
        <time>2022-06-28T08:43:57Z</time>
      </trkpt>
      <trkpt lat="47.03037" lon="-1.83499">
        <ele>77</ele>
        <time>2022-06-28T08:43:59Z</time>
      </trkpt>
      <trkpt lat="47.03023" lon="-1.83501">
        <ele>77</ele>
        <time>2022-06-28T08:44:01Z</time>
      </trkpt>
      <trkpt lat="47.0301" lon="-1.83502">
        <ele>77</ele>
        <time>2022-06-28T08:44:03Z</time>
      </trkpt>
      <trkpt lat="47.02996" lon="-1.83504">
        <ele>77</ele>
        <time>2022-06-28T08:44:05Z</time>
      </trkpt>
      <trkpt lat="47.02983" lon="-1.83505">
        <ele>76</ele>
        <time>2022-06-28T08:44:07Z</time>
      </trkpt>
      <trkpt lat="47.02969" lon="-1.83507">
        <ele>76</ele>
        <time>2022-06-28T08:44:09Z</time>
      </trkpt>
      <trkpt lat="47.02956" lon="-1.83509">
        <ele>76</ele>
        <time>2022-06-28T08:44:11Z</time>
      </trkpt>
      <trkpt lat="47.02943" lon="-1.8351">
        <ele>76</ele>
        <time>2022-06-28T08:44:13Z</time>
      </trkpt>
      <trkpt lat="47.0293" lon="-1.83512">
        <ele>76</ele>
        <time>2022-06-28T08:44:15Z</time>
      </trkpt>
      <trkpt lat="47.02917" lon="-1.83515">
        <ele>76</ele>
        <time>2022-06-28T08:44:17Z</time>
      </trkpt>
      <trkpt lat="47.02904" lon="-1.83518">
        <ele>76</ele>
        <time>2022-06-28T08:44:19Z</time>
      </trkpt>
      <trkpt lat="47.02892" lon="-1.83522">
        <ele>76</ele>
        <time>2022-06-28T08:44:21Z</time>
      </trkpt>
      <trkpt lat="47.02879" lon="-1.83525">
        <ele>76</ele>
        <time>2022-06-28T08:44:23Z</time>
      </trkpt>
      <trkpt lat="47.02867" lon="-1.83528">
        <ele>76</ele>
        <time>2022-06-28T08:44:25Z</time>
      </trkpt>
      <trkpt lat="47.02855" lon="-1.83533">
        <ele>75</ele>
        <time>2022-06-28T08:44:27Z</time>
      </trkpt>
      <trkpt lat="47.02844" lon="-1.83538">
        <ele>76</ele>
        <time>2022-06-28T08:44:29Z</time>
      </trkpt>
      <trkpt lat="47.02834" lon="-1.83546">
        <ele>76</ele>
        <time>2022-06-28T08:44:31Z</time>
      </trkpt>
      <trkpt lat="47.02824" lon="-1.83554">
        <ele>76</ele>
        <time>2022-06-28T08:44:33Z</time>
      </trkpt>
      <trkpt lat="47.02814" lon="-1.83563">
        <ele>76</ele>
        <time>2022-06-28T08:44:35Z</time>
      </trkpt>
      <trkpt lat="47.02805" lon="-1.83573">
        <ele>76</ele>
        <time>2022-06-28T08:44:37Z</time>
      </trkpt>
      <trkpt lat="47.02795" lon="-1.83583">
        <ele>76</ele>
        <time>2022-06-28T08:44:39Z</time>
      </trkpt>
      <trkpt lat="47.02785" lon="-1.83592">
        <ele>76</ele>
        <time>2022-06-28T08:44:41Z</time>
      </trkpt>
      <trkpt lat="47.02774" lon="-1.836">
        <ele>76</ele>
        <time>2022-06-28T08:44:43Z</time>
      </trkpt>
      <trkpt lat="47.02763" lon="-1.83606">
        <ele>76</ele>
        <time>2022-06-28T08:44:45Z</time>
      </trkpt>
      <trkpt lat="47.02751" lon="-1.83611">
        <ele>76</ele>
        <time>2022-06-28T08:44:47Z</time>
      </trkpt>
      <trkpt lat="47.0274" lon="-1.83615">
        <ele>76</ele>
        <time>2022-06-28T08:44:49Z</time>
      </trkpt>
      <trkpt lat="47.02727" lon="-1.83617">
        <ele>76</ele>
        <time>2022-06-28T08:44:51Z</time>
      </trkpt>
      <trkpt lat="47.02714" lon="-1.83618">
        <ele>75</ele>
        <time>2022-06-28T08:44:53Z</time>
      </trkpt>
      <trkpt lat="47.02701" lon="-1.83619">
        <ele>76</ele>
        <time>2022-06-28T08:44:55Z</time>
      </trkpt>
      <trkpt lat="47.02687" lon="-1.8362">
        <ele>76</ele>
        <time>2022-06-28T08:44:57Z</time>
      </trkpt>
      <trkpt lat="47.02674" lon="-1.83621">
        <ele>77</ele>
        <time>2022-06-28T08:44:59Z</time>
      </trkpt>
      <trkpt lat="47.02661" lon="-1.83622">
        <ele>77</ele>
        <time>2022-06-28T08:45:01Z</time>
      </trkpt>
      <trkpt lat="47.02648" lon="-1.83622">
        <ele>77</ele>
        <time>2022-06-28T08:45:03Z</time>
      </trkpt>
      <trkpt lat="47.02635" lon="-1.83623">
        <ele>77</ele>
        <time>2022-06-28T08:45:05Z</time>
      </trkpt>
      <trkpt lat="47.02622" lon="-1.83624">
        <ele>77</ele>
        <time>2022-06-28T08:45:07Z</time>
      </trkpt>
      <trkpt lat="47.02609" lon="-1.83625">
        <ele>77</ele>
        <time>2022-06-28T08:45:09Z</time>
      </trkpt>
      <trkpt lat="47.02595" lon="-1.83626">
        <ele>77</ele>
        <time>2022-06-28T08:45:11Z</time>
      </trkpt>
      <trkpt lat="47.02582" lon="-1.83627">
        <ele>77</ele>
        <time>2022-06-28T08:45:13Z</time>
      </trkpt>
      <trkpt lat="47.02569" lon="-1.83628">
        <ele>77</ele>
        <time>2022-06-28T08:45:15Z</time>
      </trkpt>
      <trkpt lat="47.02555" lon="-1.83628">
        <ele>77</ele>
        <time>2022-06-28T08:45:17Z</time>
      </trkpt>
      <trkpt lat="47.02542" lon="-1.8363">
        <ele>77</ele>
        <time>2022-06-28T08:45:19Z</time>
      </trkpt>
      <trkpt lat="47.02528" lon="-1.83632">
        <ele>77</ele>
        <time>2022-06-28T08:45:21Z</time>
      </trkpt>
      <trkpt lat="47.02514" lon="-1.83635">
        <ele>78</ele>
        <time>2022-06-28T08:45:23Z</time>
      </trkpt>
      <trkpt lat="47.02501" lon="-1.83638">
        <ele>78</ele>
        <time>2022-06-28T08:45:25Z</time>
      </trkpt>
      <trkpt lat="47.02488" lon="-1.83641">
        <ele>77</ele>
        <time>2022-06-28T08:45:27Z</time>
      </trkpt>
      <trkpt lat="47.02474" lon="-1.83644">
        <ele>77</ele>
        <time>2022-06-28T08:45:29Z</time>
      </trkpt>
      <trkpt lat="47.0246" lon="-1.83647">
        <ele>77</ele>
        <time>2022-06-28T08:45:31Z</time>
      </trkpt>
      <trkpt lat="47.02447" lon="-1.8365">
        <ele>77</ele>
        <time>2022-06-28T08:45:33Z</time>
      </trkpt>
      <trkpt lat="47.02434" lon="-1.83653">
        <ele>77</ele>
        <time>2022-06-28T08:45:35Z</time>
      </trkpt>
      <trkpt lat="47.02421" lon="-1.83656">
        <ele>76</ele>
        <time>2022-06-28T08:45:37Z</time>
      </trkpt>
      <trkpt lat="47.02408" lon="-1.83658">
        <ele>76</ele>
        <time>2022-06-28T08:45:39Z</time>
      </trkpt>
      <trkpt lat="47.02395" lon="-1.83659">
        <ele>76</ele>
        <time>2022-06-28T08:45:41Z</time>
      </trkpt>
      <trkpt lat="47.02382" lon="-1.83659">
        <ele>76</ele>
        <time>2022-06-28T08:45:43Z</time>
      </trkpt>
      <trkpt lat="47.02368" lon="-1.83659">
        <ele>76</ele>
        <time>2022-06-28T08:45:45Z</time>
      </trkpt>
      <trkpt lat="47.02355" lon="-1.83658">
        <ele>75</ele>
        <time>2022-06-28T08:45:47Z</time>
      </trkpt>
      <trkpt lat="47.02342" lon="-1.83657">
        <ele>75</ele>
        <time>2022-06-28T08:45:49Z</time>
      </trkpt>
      <trkpt lat="47.02328" lon="-1.83656">
        <ele>75</ele>
        <time>2022-06-28T08:45:51Z</time>
      </trkpt>
      <trkpt lat="47.02314" lon="-1.83655">
        <ele>75</ele>
        <time>2022-06-28T08:45:53Z</time>
      </trkpt>
      <trkpt lat="47.02301" lon="-1.83655">
        <ele>75</ele>
        <time>2022-06-28T08:45:55Z</time>
      </trkpt>
      <trkpt lat="47.02287" lon="-1.83654">
        <ele>75</ele>
        <time>2022-06-28T08:45:57Z</time>
      </trkpt>
      <trkpt lat="47.02273" lon="-1.83653">
        <ele>75</ele>
        <time>2022-06-28T08:45:59Z</time>
      </trkpt>
      <trkpt lat="47.0226" lon="-1.83652">
        <ele>75</ele>
        <time>2022-06-28T08:46:01Z</time>
      </trkpt>
      <trkpt lat="47.02246" lon="-1.83651">
        <ele>75</ele>
        <time>2022-06-28T08:46:03Z</time>
      </trkpt>
      <trkpt lat="47.02232" lon="-1.8365">
        <ele>75</ele>
        <time>2022-06-28T08:46:05Z</time>
      </trkpt>
      <trkpt lat="47.02219" lon="-1.83649">
        <ele>75</ele>
        <time>2022-06-28T08:46:07Z</time>
      </trkpt>
      <trkpt lat="47.02205" lon="-1.83646">
        <ele>75</ele>
        <time>2022-06-28T08:46:09Z</time>
      </trkpt>
      <trkpt lat="47.02191" lon="-1.83643">
        <ele>75</ele>
        <time>2022-06-28T08:46:11Z</time>
      </trkpt>
      <trkpt lat="47.02178" lon="-1.83636">
        <ele>75</ele>
        <time>2022-06-28T08:46:13Z</time>
      </trkpt>
      <trkpt lat="47.02165" lon="-1.83629">
        <ele>75</ele>
        <time>2022-06-28T08:46:15Z</time>
      </trkpt>
      <trkpt lat="47.02152" lon="-1.8362">
        <ele>74</ele>
        <time>2022-06-28T08:46:17Z</time>
      </trkpt>
      <trkpt lat="47.02139" lon="-1.83612">
        <ele>74</ele>
        <time>2022-06-28T08:46:19Z</time>
      </trkpt>
      <trkpt lat="47.02125" lon="-1.83604">
        <ele>73</ele>
        <time>2022-06-28T08:46:21Z</time>
      </trkpt>
      <trkpt lat="47.02112" lon="-1.83596">
        <ele>73</ele>
        <time>2022-06-28T08:46:23Z</time>
      </trkpt>
      <trkpt lat="47.02099" lon="-1.83588">
        <ele>73</ele>
        <time>2022-06-28T08:46:25Z</time>
      </trkpt>
      <trkpt lat="47.02086" lon="-1.8358">
        <ele>73</ele>
        <time>2022-06-28T08:46:27Z</time>
      </trkpt>
      <trkpt lat="47.02072" lon="-1.83572">
        <ele>73</ele>
        <time>2022-06-28T08:46:29Z</time>
      </trkpt>
      <trkpt lat="47.02059" lon="-1.83565">
        <ele>72</ele>
        <time>2022-06-28T08:46:31Z</time>
      </trkpt>
      <trkpt lat="47.02045" lon="-1.83557">
        <ele>72</ele>
        <time>2022-06-28T08:46:33Z</time>
      </trkpt>
      <trkpt lat="47.02033" lon="-1.83549">
        <ele>71</ele>
        <time>2022-06-28T08:46:35Z</time>
      </trkpt>
      <trkpt lat="47.0202" lon="-1.83541">
        <ele>71</ele>
        <time>2022-06-28T08:46:37Z</time>
      </trkpt>
      <trkpt lat="47.02007" lon="-1.83533">
        <ele>71</ele>
        <time>2022-06-28T08:46:39Z</time>
      </trkpt>
      <trkpt lat="47.01994" lon="-1.83526">
        <ele>71</ele>
        <time>2022-06-28T08:46:41Z</time>
      </trkpt>
      <trkpt lat="47.01982" lon="-1.83518">
        <ele>71</ele>
        <time>2022-06-28T08:46:43Z</time>
      </trkpt>
      <trkpt lat="47.01968" lon="-1.83511">
        <ele>70</ele>
        <time>2022-06-28T08:46:45Z</time>
      </trkpt>
      <trkpt lat="47.01955" lon="-1.83505">
        <ele>70</ele>
        <time>2022-06-28T08:46:47Z</time>
      </trkpt>
      <trkpt lat="47.01942" lon="-1.835">
        <ele>70</ele>
        <time>2022-06-28T08:46:49Z</time>
      </trkpt>
      <trkpt lat="47.01927" lon="-1.83498">
        <ele>70</ele>
        <time>2022-06-28T08:46:51Z</time>
      </trkpt>
      <trkpt lat="47.01913" lon="-1.835">
        <ele>69</ele>
        <time>2022-06-28T08:46:53Z</time>
      </trkpt>
      <trkpt lat="47.01898" lon="-1.83503">
        <ele>68</ele>
        <time>2022-06-28T08:46:55Z</time>
      </trkpt>
      <trkpt lat="47.01882" lon="-1.83506">
        <ele>68</ele>
        <time>2022-06-28T08:46:57Z</time>
      </trkpt>
      <trkpt lat="47.01867" lon="-1.8351">
        <ele>68</ele>
        <time>2022-06-28T08:46:59Z</time>
      </trkpt>
      <trkpt lat="47.01852" lon="-1.83514">
        <ele>67</ele>
        <time>2022-06-28T08:47:01Z</time>
      </trkpt>
      <trkpt lat="47.01837" lon="-1.83517">
        <ele>67</ele>
        <time>2022-06-28T08:47:03Z</time>
      </trkpt>
      <trkpt lat="47.01822" lon="-1.83521">
        <ele>67</ele>
        <time>2022-06-28T08:47:05Z</time>
      </trkpt>
      <trkpt lat="47.01806" lon="-1.83525">
        <ele>67</ele>
        <time>2022-06-28T08:47:07Z</time>
      </trkpt>
      <trkpt lat="47.01791" lon="-1.83528">
        <ele>66</ele>
        <time>2022-06-28T08:47:09Z</time>
      </trkpt>
      <trkpt lat="47.01776" lon="-1.83533">
        <ele>66</ele>
        <time>2022-06-28T08:47:11Z</time>
      </trkpt>
      <trkpt lat="47.01763" lon="-1.83538">
        <ele>66</ele>
        <time>2022-06-28T08:47:13Z</time>
      </trkpt>
      <trkpt lat="47.0175" lon="-1.83547">
        <ele>66</ele>
        <time>2022-06-28T08:47:15Z</time>
      </trkpt>
      <trkpt lat="47.01738" lon="-1.83558">
        <ele>64</ele>
        <time>2022-06-28T08:47:17Z</time>
      </trkpt>
      <trkpt lat="47.0173" lon="-1.83573">
        <ele>63</ele>
        <time>2022-06-28T08:47:19Z</time>
      </trkpt>
      <trkpt lat="47.01722" lon="-1.83588">
        <ele>62</ele>
        <time>2022-06-28T08:47:21Z</time>
      </trkpt>
      <trkpt lat="47.01715" lon="-1.83603">
        <ele>62</ele>
        <time>2022-06-28T08:47:23Z</time>
      </trkpt>
      <trkpt lat="47.01707" lon="-1.83618">
        <ele>61</ele>
        <time>2022-06-28T08:47:25Z</time>
      </trkpt>
      <trkpt lat="47.017" lon="-1.83632">
        <ele>61</ele>
        <time>2022-06-28T08:47:27Z</time>
      </trkpt>
      <trkpt lat="47.01691" lon="-1.83647">
        <ele>61</ele>
        <time>2022-06-28T08:47:29Z</time>
      </trkpt>
      <trkpt lat="47.01683" lon="-1.8366">
        <ele>61</ele>
        <time>2022-06-28T08:47:31Z</time>
      </trkpt>
      <trkpt lat="47.01674" lon="-1.83673">
        <ele>61</ele>
        <time>2022-06-28T08:47:33Z</time>
      </trkpt>
      <trkpt lat="47.01665" lon="-1.83686">
        <ele>61</ele>
        <time>2022-06-28T08:47:35Z</time>
      </trkpt>
      <trkpt lat="47.01655" lon="-1.83698">
        <ele>61</ele>
        <time>2022-06-28T08:47:37Z</time>
      </trkpt>
      <trkpt lat="47.01644" lon="-1.8371">
        <ele>61</ele>
        <time>2022-06-28T08:47:39Z</time>
      </trkpt>
      <trkpt lat="47.01635" lon="-1.83722">
        <ele>61</ele>
        <time>2022-06-28T08:47:41Z</time>
      </trkpt>
      <trkpt lat="47.01625" lon="-1.83733">
        <ele>61</ele>
        <time>2022-06-28T08:47:43Z</time>
      </trkpt>
      <trkpt lat="47.01614" lon="-1.83745">
        <ele>61</ele>
        <time>2022-06-28T08:47:45Z</time>
      </trkpt>
      <trkpt lat="47.01605" lon="-1.83756">
        <ele>60</ele>
        <time>2022-06-28T08:47:47Z</time>
      </trkpt>
      <trkpt lat="47.01595" lon="-1.83768">
        <ele>60</ele>
        <time>2022-06-28T08:47:49Z</time>
      </trkpt>
      <trkpt lat="47.01585" lon="-1.8378">
        <ele>60</ele>
        <time>2022-06-28T08:47:51Z</time>
      </trkpt>
      <trkpt lat="47.01575" lon="-1.83792">
        <ele>59</ele>
        <time>2022-06-28T08:47:53Z</time>
      </trkpt>
      <trkpt lat="47.01565" lon="-1.83805">
        <ele>59</ele>
        <time>2022-06-28T08:47:55Z</time>
      </trkpt>
      <trkpt lat="47.01555" lon="-1.83818">
        <ele>59</ele>
        <time>2022-06-28T08:47:57Z</time>
      </trkpt>
      <trkpt lat="47.01545" lon="-1.83831">
        <ele>59</ele>
        <time>2022-06-28T08:47:59Z</time>
      </trkpt>
      <trkpt lat="47.01535" lon="-1.83845">
        <ele>59</ele>
        <time>2022-06-28T08:48:01Z</time>
      </trkpt>
      <trkpt lat="47.01525" lon="-1.8386">
        <ele>58</ele>
        <time>2022-06-28T08:48:03Z</time>
      </trkpt>
      <trkpt lat="47.01515" lon="-1.83875">
        <ele>58</ele>
        <time>2022-06-28T08:48:05Z</time>
      </trkpt>
      <trkpt lat="47.01506" lon="-1.83889">
        <ele>58</ele>
        <time>2022-06-28T08:48:07Z</time>
      </trkpt>
      <trkpt lat="47.01496" lon="-1.83905">
        <ele>58</ele>
        <time>2022-06-28T08:48:09Z</time>
      </trkpt>
      <trkpt lat="47.01487" lon="-1.8392">
        <ele>58</ele>
        <time>2022-06-28T08:48:11Z</time>
      </trkpt>
      <trkpt lat="47.01477" lon="-1.83933">
        <ele>58</ele>
        <time>2022-06-28T08:48:13Z</time>
      </trkpt>
      <trkpt lat="47.01467" lon="-1.83948">
        <ele>58</ele>
        <time>2022-06-28T08:48:15Z</time>
      </trkpt>
      <trkpt lat="47.01457" lon="-1.83963">
        <ele>58</ele>
        <time>2022-06-28T08:48:17Z</time>
      </trkpt>
      <trkpt lat="47.01448" lon="-1.83978">
        <ele>57</ele>
        <time>2022-06-28T08:48:19Z</time>
      </trkpt>
      <trkpt lat="47.01438" lon="-1.83994">
        <ele>57</ele>
        <time>2022-06-28T08:48:21Z</time>
      </trkpt>
      <trkpt lat="47.01428" lon="-1.84008">
        <ele>57</ele>
        <time>2022-06-28T08:48:23Z</time>
      </trkpt>
      <trkpt lat="47.01418" lon="-1.84023">
        <ele>56</ele>
        <time>2022-06-28T08:48:25Z</time>
      </trkpt>
      <trkpt lat="47.01408" lon="-1.84037">
        <ele>56</ele>
        <time>2022-06-28T08:48:27Z</time>
      </trkpt>
      <trkpt lat="47.01398" lon="-1.84052">
        <ele>56</ele>
        <time>2022-06-28T08:48:29Z</time>
      </trkpt>
      <trkpt lat="47.01387" lon="-1.84066">
        <ele>56</ele>
        <time>2022-06-28T08:48:31Z</time>
      </trkpt>
      <trkpt lat="47.01377" lon="-1.8408">
        <ele>56</ele>
        <time>2022-06-28T08:48:33Z</time>
      </trkpt>
      <trkpt lat="47.01367" lon="-1.84093">
        <ele>56</ele>
        <time>2022-06-28T08:48:35Z</time>
      </trkpt>
      <trkpt lat="47.01356" lon="-1.84106">
        <ele>56</ele>
        <time>2022-06-28T08:48:37Z</time>
      </trkpt>
      <trkpt lat="47.01345" lon="-1.84118">
        <ele>56</ele>
        <time>2022-06-28T08:48:39Z</time>
      </trkpt>
      <trkpt lat="47.01335" lon="-1.84129">
        <ele>55</ele>
        <time>2022-06-28T08:48:41Z</time>
      </trkpt>
      <trkpt lat="47.01324" lon="-1.84141">
        <ele>56</ele>
        <time>2022-06-28T08:48:43Z</time>
      </trkpt>
      <trkpt lat="47.01314" lon="-1.84152">
        <ele>56</ele>
        <time>2022-06-28T08:48:45Z</time>
      </trkpt>
      <trkpt lat="47.01303" lon="-1.84164">
        <ele>56</ele>
        <time>2022-06-28T08:48:47Z</time>
      </trkpt>
      <trkpt lat="47.01293" lon="-1.84175">
        <ele>56</ele>
        <time>2022-06-28T08:48:49Z</time>
      </trkpt>
      <trkpt lat="47.01283" lon="-1.84187">
        <ele>55</ele>
        <time>2022-06-28T08:48:51Z</time>
      </trkpt>
      <trkpt lat="47.01272" lon="-1.84198">
        <ele>55</ele>
        <time>2022-06-28T08:48:53Z</time>
      </trkpt>
      <trkpt lat="47.01262" lon="-1.84209">
        <ele>55</ele>
        <time>2022-06-28T08:48:55Z</time>
      </trkpt>
      <trkpt lat="47.01251" lon="-1.84222">
        <ele>56</ele>
        <time>2022-06-28T08:48:57Z</time>
      </trkpt>
      <trkpt lat="47.0124" lon="-1.84233">
        <ele>55</ele>
        <time>2022-06-28T08:48:59Z</time>
      </trkpt>
      <trkpt lat="47.01229" lon="-1.84244">
        <ele>55</ele>
        <time>2022-06-28T08:49:01Z</time>
      </trkpt>
      <trkpt lat="47.01219" lon="-1.84257">
        <ele>55</ele>
        <time>2022-06-28T08:49:03Z</time>
      </trkpt>
      <trkpt lat="47.01208" lon="-1.84269">
        <ele>55</ele>
        <time>2022-06-28T08:49:05Z</time>
      </trkpt>
      <trkpt lat="47.01198" lon="-1.84282">
        <ele>55</ele>
        <time>2022-06-28T08:49:07Z</time>
      </trkpt>
      <trkpt lat="47.01189" lon="-1.84297">
        <ele>55</ele>
        <time>2022-06-28T08:49:09Z</time>
      </trkpt>
      <trkpt lat="47.01181" lon="-1.84313">
        <ele>55</ele>
        <time>2022-06-28T08:49:11Z</time>
      </trkpt>
      <trkpt lat="47.01175" lon="-1.84331">
        <ele>55</ele>
        <time>2022-06-28T08:49:13Z</time>
      </trkpt>
      <trkpt lat="47.0117" lon="-1.84349">
        <ele>55</ele>
        <time>2022-06-28T08:49:15Z</time>
      </trkpt>
      <trkpt lat="47.01165" lon="-1.84367">
        <ele>54</ele>
        <time>2022-06-28T08:49:17Z</time>
      </trkpt>
      <trkpt lat="47.01161" lon="-1.84385">
        <ele>55</ele>
        <time>2022-06-28T08:49:19Z</time>
      </trkpt>
      <trkpt lat="47.01156" lon="-1.84403">
        <ele>55</ele>
        <time>2022-06-28T08:49:21Z</time>
      </trkpt>
      <trkpt lat="47.01152" lon="-1.84422">
        <ele>55</ele>
        <time>2022-06-28T08:49:23Z</time>
      </trkpt>
      <trkpt lat="47.01147" lon="-1.8444">
        <ele>55</ele>
        <time>2022-06-28T08:49:25Z</time>
      </trkpt>
      <trkpt lat="47.01142" lon="-1.84458">
        <ele>54</ele>
        <time>2022-06-28T08:49:27Z</time>
      </trkpt>
      <trkpt lat="47.01137" lon="-1.84476">
        <ele>54</ele>
        <time>2022-06-28T08:49:29Z</time>
      </trkpt>
      <trkpt lat="47.01132" lon="-1.84494">
        <ele>54</ele>
        <time>2022-06-28T08:49:31Z</time>
      </trkpt>
      <trkpt lat="47.01127" lon="-1.84512">
        <ele>54</ele>
        <time>2022-06-28T08:49:33Z</time>
      </trkpt>
      <trkpt lat="47.01122" lon="-1.8453">
        <ele>54</ele>
        <time>2022-06-28T08:49:35Z</time>
      </trkpt>
      <trkpt lat="47.01114" lon="-1.84546">
        <ele>54</ele>
        <time>2022-06-28T08:49:37Z</time>
      </trkpt>
      <trkpt lat="47.01106" lon="-1.8456">
        <ele>54</ele>
        <time>2022-06-28T08:49:39Z</time>
      </trkpt>
      <trkpt lat="47.01095" lon="-1.84572">
        <ele>54</ele>
        <time>2022-06-28T08:49:41Z</time>
      </trkpt>
      <trkpt lat="47.01084" lon="-1.84584">
        <ele>54</ele>
        <time>2022-06-28T08:49:43Z</time>
      </trkpt>
      <trkpt lat="47.01074" lon="-1.84597">
        <ele>53</ele>
        <time>2022-06-28T08:49:45Z</time>
      </trkpt>
      <trkpt lat="47.01064" lon="-1.84608">
        <ele>54</ele>
        <time>2022-06-28T08:49:47Z</time>
      </trkpt>
      <trkpt lat="47.01054" lon="-1.84619">
        <ele>54</ele>
        <time>2022-06-28T08:49:49Z</time>
      </trkpt>
      <trkpt lat="47.01044" lon="-1.8463">
        <ele>53</ele>
        <time>2022-06-28T08:49:51Z</time>
      </trkpt>
      <trkpt lat="47.01035" lon="-1.84641">
        <ele>54</ele>
        <time>2022-06-28T08:49:53Z</time>
      </trkpt>
      <trkpt lat="47.01025" lon="-1.8465">
        <ele>54</ele>
        <time>2022-06-28T08:49:55Z</time>
      </trkpt>
      <trkpt lat="47.01014" lon="-1.84659">
        <ele>54</ele>
        <time>2022-06-28T08:49:57Z</time>
      </trkpt>
      <trkpt lat="47.01004" lon="-1.84666">
        <ele>54</ele>
        <time>2022-06-28T08:49:59Z</time>
      </trkpt>
      <trkpt lat="47.00992" lon="-1.84673">
        <ele>54</ele>
        <time>2022-06-28T08:50:01Z</time>
      </trkpt>
      <trkpt lat="47.00981" lon="-1.8468">
        <ele>54</ele>
        <time>2022-06-28T08:50:03Z</time>
      </trkpt>
      <trkpt lat="47.0097" lon="-1.84686">
        <ele>54</ele>
        <time>2022-06-28T08:50:05Z</time>
      </trkpt>
      <trkpt lat="47.00959" lon="-1.84692">
        <ele>54</ele>
        <time>2022-06-28T08:50:07Z</time>
      </trkpt>
      <trkpt lat="47.00948" lon="-1.84699">
        <ele>54</ele>
        <time>2022-06-28T08:50:09Z</time>
      </trkpt>
      <trkpt lat="47.00937" lon="-1.84705">
        <ele>54</ele>
        <time>2022-06-28T08:50:11Z</time>
      </trkpt>
      <trkpt lat="47.00925" lon="-1.84711">
        <ele>54</ele>
        <time>2022-06-28T08:50:13Z</time>
      </trkpt>
      <trkpt lat="47.00915" lon="-1.84717">
        <ele>54</ele>
        <time>2022-06-28T08:50:15Z</time>
      </trkpt>
      <trkpt lat="47.00906" lon="-1.84722">
        <ele>54</ele>
        <time>2022-06-28T08:50:17Z</time>
      </trkpt>
      <trkpt lat="47.00894" lon="-1.84729">
        <ele>54</ele>
        <time>2022-06-28T08:50:20Z</time>
      </trkpt>
      <trkpt lat="47.00886" lon="-1.84736">
        <ele>54</ele>
        <time>2022-06-28T08:50:23Z</time>
      </trkpt>
      <trkpt lat="47.00877" lon="-1.84746">
        <ele>55</ele>
        <time>2022-06-28T08:50:26Z</time>
      </trkpt>
      <trkpt lat="47.00867" lon="-1.84754">
        <ele>55</ele>
        <time>2022-06-28T08:50:28Z</time>
      </trkpt>
      <trkpt lat="47.00856" lon="-1.84761">
        <ele>55</ele>
        <time>2022-06-28T08:50:30Z</time>
      </trkpt>
      <trkpt lat="47.00845" lon="-1.84769">
        <ele>54</ele>
        <time>2022-06-28T08:50:32Z</time>
      </trkpt>
      <trkpt lat="47.00834" lon="-1.84777">
        <ele>54</ele>
        <time>2022-06-28T08:50:34Z</time>
      </trkpt>
      <trkpt lat="47.00823" lon="-1.84783">
        <ele>53</ele>
        <time>2022-06-28T08:50:36Z</time>
      </trkpt>
      <trkpt lat="47.00812" lon="-1.84789">
        <ele>53</ele>
        <time>2022-06-28T08:50:38Z</time>
      </trkpt>
      <trkpt lat="47.00801" lon="-1.84796">
        <ele>53</ele>
        <time>2022-06-28T08:50:40Z</time>
      </trkpt>
      <trkpt lat="47.0079" lon="-1.84801">
        <ele>52</ele>
        <time>2022-06-28T08:50:42Z</time>
      </trkpt>
      <trkpt lat="47.00779" lon="-1.84807">
        <ele>52</ele>
        <time>2022-06-28T08:50:44Z</time>
      </trkpt>
      <trkpt lat="47.00768" lon="-1.84813">
        <ele>52</ele>
        <time>2022-06-28T08:50:46Z</time>
      </trkpt>
      <trkpt lat="47.00756" lon="-1.84818">
        <ele>52</ele>
        <time>2022-06-28T08:50:48Z</time>
      </trkpt>
      <trkpt lat="47.00746" lon="-1.84824">
        <ele>52</ele>
        <time>2022-06-28T08:50:50Z</time>
      </trkpt>
      <trkpt lat="47.00735" lon="-1.84829">
        <ele>52</ele>
        <time>2022-06-28T08:50:52Z</time>
      </trkpt>
      <trkpt lat="47.00719" lon="-1.84838">
        <ele>52</ele>
        <time>2022-06-28T08:50:55Z</time>
      </trkpt>
      <trkpt lat="47.00708" lon="-1.84843">
        <ele>52</ele>
        <time>2022-06-28T08:50:57Z</time>
      </trkpt>
      <trkpt lat="47.00698" lon="-1.84849">
        <ele>52</ele>
        <time>2022-06-28T08:50:59Z</time>
      </trkpt>
      <trkpt lat="47.00687" lon="-1.84854">
        <ele>52</ele>
        <time>2022-06-28T08:51:01Z</time>
      </trkpt>
      <trkpt lat="47.00677" lon="-1.8486">
        <ele>52</ele>
        <time>2022-06-28T08:51:03Z</time>
      </trkpt>
      <trkpt lat="47.00667" lon="-1.84866">
        <ele>52</ele>
        <time>2022-06-28T08:51:05Z</time>
      </trkpt>
      <trkpt lat="47.00655" lon="-1.84871">
        <ele>52</ele>
        <time>2022-06-28T08:51:07Z</time>
      </trkpt>
      <trkpt lat="47.00645" lon="-1.84877">
        <ele>52</ele>
        <time>2022-06-28T08:51:09Z</time>
      </trkpt>
      <trkpt lat="47.00634" lon="-1.84884">
        <ele>53</ele>
        <time>2022-06-28T08:51:11Z</time>
      </trkpt>
      <trkpt lat="47.00624" lon="-1.84891">
        <ele>53</ele>
        <time>2022-06-28T08:51:13Z</time>
      </trkpt>
      <trkpt lat="47.00614" lon="-1.849">
        <ele>53</ele>
        <time>2022-06-28T08:51:15Z</time>
      </trkpt>
      <trkpt lat="47.00603" lon="-1.84909">
        <ele>53</ele>
        <time>2022-06-28T08:51:17Z</time>
      </trkpt>
      <trkpt lat="47.00594" lon="-1.84919">
        <ele>53</ele>
        <time>2022-06-28T08:51:19Z</time>
      </trkpt>
      <trkpt lat="47.00586" lon="-1.8493">
        <ele>53</ele>
        <time>2022-06-28T08:51:21Z</time>
      </trkpt>
      <trkpt lat="47.00577" lon="-1.84941">
        <ele>52</ele>
        <time>2022-06-28T08:51:23Z</time>
      </trkpt>
      <trkpt lat="47.00568" lon="-1.84953">
        <ele>52</ele>
        <time>2022-06-28T08:51:25Z</time>
      </trkpt>
      <trkpt lat="47.00559" lon="-1.84964">
        <ele>53</ele>
        <time>2022-06-28T08:51:27Z</time>
      </trkpt>
      <trkpt lat="47.00546" lon="-1.84981">
        <ele>52</ele>
        <time>2022-06-28T08:51:30Z</time>
      </trkpt>
      <trkpt lat="47.00537" lon="-1.84994">
        <ele>52</ele>
        <time>2022-06-28T08:51:32Z</time>
      </trkpt>
      <trkpt lat="47.00528" lon="-1.85005">
        <ele>52</ele>
        <time>2022-06-28T08:51:34Z</time>
      </trkpt>
      <trkpt lat="47.0052" lon="-1.85016">
        <ele>52</ele>
        <time>2022-06-28T08:51:36Z</time>
      </trkpt>
      <trkpt lat="47.0051" lon="-1.85028">
        <ele>52</ele>
        <time>2022-06-28T08:51:38Z</time>
      </trkpt>
      <trkpt lat="47.00501" lon="-1.85039">
        <ele>52</ele>
        <time>2022-06-28T08:51:40Z</time>
      </trkpt>
      <trkpt lat="47.00492" lon="-1.85049">
        <ele>52</ele>
        <time>2022-06-28T08:51:42Z</time>
      </trkpt>
      <trkpt lat="47.00483" lon="-1.8506">
        <ele>52</ele>
        <time>2022-06-28T08:51:44Z</time>
      </trkpt>
      <trkpt lat="47.00474" lon="-1.85069">
        <ele>52</ele>
        <time>2022-06-28T08:51:46Z</time>
      </trkpt>
      <trkpt lat="47.00464" lon="-1.85078">
        <ele>52</ele>
        <time>2022-06-28T08:51:48Z</time>
      </trkpt>
      <trkpt lat="47.00455" lon="-1.85086">
        <ele>52</ele>
        <time>2022-06-28T08:51:50Z</time>
      </trkpt>
      <trkpt lat="47.00445" lon="-1.85093">
        <ele>52</ele>
        <time>2022-06-28T08:51:52Z</time>
      </trkpt>
      <trkpt lat="47.00435" lon="-1.85101">
        <ele>52</ele>
        <time>2022-06-28T08:51:54Z</time>
      </trkpt>
      <trkpt lat="47.00426" lon="-1.85109">
        <ele>52</ele>
        <time>2022-06-28T08:51:56Z</time>
      </trkpt>
      <trkpt lat="47.00416" lon="-1.85117">
        <ele>53</ele>
        <time>2022-06-28T08:51:58Z</time>
      </trkpt>
      <trkpt lat="47.00407" lon="-1.85124">
        <ele>53</ele>
        <time>2022-06-28T08:52:00Z</time>
      </trkpt>
      <trkpt lat="47.00397" lon="-1.85133">
        <ele>53</ele>
        <time>2022-06-28T08:52:02Z</time>
      </trkpt>
      <trkpt lat="47.00388" lon="-1.85142">
        <ele>54</ele>
        <time>2022-06-28T08:52:04Z</time>
      </trkpt>
      <trkpt lat="47.00378" lon="-1.8515">
        <ele>54</ele>
        <time>2022-06-28T08:52:06Z</time>
      </trkpt>
      <trkpt lat="47.00369" lon="-1.85159">
        <ele>54</ele>
        <time>2022-06-28T08:52:08Z</time>
      </trkpt>
      <trkpt lat="47.00359" lon="-1.85167">
        <ele>54</ele>
        <time>2022-06-28T08:52:10Z</time>
      </trkpt>
      <trkpt lat="47.0035" lon="-1.85174">
        <ele>54</ele>
        <time>2022-06-28T08:52:12Z</time>
      </trkpt>
      <trkpt lat="47.0034" lon="-1.85182">
        <ele>54</ele>
        <time>2022-06-28T08:52:14Z</time>
      </trkpt>
      <trkpt lat="47.0033" lon="-1.8519">
        <ele>54</ele>
        <time>2022-06-28T08:52:16Z</time>
      </trkpt>
      <trkpt lat="47.00321" lon="-1.85199">
        <ele>54</ele>
        <time>2022-06-28T08:52:18Z</time>
      </trkpt>
      <trkpt lat="47.00311" lon="-1.85207">
        <ele>54</ele>
        <time>2022-06-28T08:52:20Z</time>
      </trkpt>
      <trkpt lat="47.00301" lon="-1.85214">
        <ele>54</ele>
        <time>2022-06-28T08:52:22Z</time>
      </trkpt>
      <trkpt lat="47.00292" lon="-1.85223">
        <ele>54</ele>
        <time>2022-06-28T08:52:24Z</time>
      </trkpt>
      <trkpt lat="47.00282" lon="-1.85231">
        <ele>54</ele>
        <time>2022-06-28T08:52:26Z</time>
      </trkpt>
      <trkpt lat="47.00273" lon="-1.85238">
        <ele>54</ele>
        <time>2022-06-28T08:52:28Z</time>
      </trkpt>
      <trkpt lat="47.00263" lon="-1.85246">
        <ele>54</ele>
        <time>2022-06-28T08:52:30Z</time>
      </trkpt>
      <trkpt lat="47.00253" lon="-1.85255">
        <ele>54</ele>
        <time>2022-06-28T08:52:32Z</time>
      </trkpt>
      <trkpt lat="47.00243" lon="-1.85264">
        <ele>54</ele>
        <time>2022-06-28T08:52:34Z</time>
      </trkpt>
      <trkpt lat="47.00233" lon="-1.85273">
        <ele>53</ele>
        <time>2022-06-28T08:52:36Z</time>
      </trkpt>
      <trkpt lat="47.00224" lon="-1.85283">
        <ele>53</ele>
        <time>2022-06-28T08:52:38Z</time>
      </trkpt>
      <trkpt lat="47.00215" lon="-1.85295">
        <ele>53</ele>
        <time>2022-06-28T08:52:40Z</time>
      </trkpt>
      <trkpt lat="47.00207" lon="-1.85308">
        <ele>53</ele>
        <time>2022-06-28T08:52:42Z</time>
      </trkpt>
      <trkpt lat="47.00201" lon="-1.85322">
        <ele>53</ele>
        <time>2022-06-28T08:52:44Z</time>
      </trkpt>
      <trkpt lat="47.00194" lon="-1.85336">
        <ele>53</ele>
        <time>2022-06-28T08:52:46Z</time>
      </trkpt>
      <trkpt lat="47.00188" lon="-1.8535">
        <ele>53</ele>
        <time>2022-06-28T08:52:48Z</time>
      </trkpt>
      <trkpt lat="47.00181" lon="-1.85364">
        <ele>53</ele>
        <time>2022-06-28T08:52:50Z</time>
      </trkpt>
      <trkpt lat="47.00175" lon="-1.85378">
        <ele>53</ele>
        <time>2022-06-28T08:52:52Z</time>
      </trkpt>
      <trkpt lat="47.00168" lon="-1.85392">
        <ele>53</ele>
        <time>2022-06-28T08:52:54Z</time>
      </trkpt>
      <trkpt lat="47.00161" lon="-1.85405">
        <ele>53</ele>
        <time>2022-06-28T08:52:56Z</time>
      </trkpt>
      <trkpt lat="47.00154" lon="-1.85417">
        <ele>53</ele>
        <time>2022-06-28T08:52:58Z</time>
      </trkpt>
      <trkpt lat="47.00145" lon="-1.85429">
        <ele>52</ele>
        <time>2022-06-28T08:53:00Z</time>
      </trkpt>
      <trkpt lat="47.00135" lon="-1.85439">
        <ele>52</ele>
        <time>2022-06-28T08:53:02Z</time>
      </trkpt>
      <trkpt lat="47.00125" lon="-1.85447">
        <ele>52</ele>
        <time>2022-06-28T08:53:04Z</time>
      </trkpt>
      <trkpt lat="47.00114" lon="-1.85452">
        <ele>53</ele>
        <time>2022-06-28T08:53:06Z</time>
      </trkpt>
      <trkpt lat="47.00103" lon="-1.85451">
        <ele>53</ele>
        <time>2022-06-28T08:53:08Z</time>
      </trkpt>
      <trkpt lat="47.00092" lon="-1.85443">
        <ele>53</ele>
        <time>2022-06-28T08:53:10Z</time>
      </trkpt>
      <trkpt lat="47.00083" lon="-1.85432">
        <ele>54</ele>
        <time>2022-06-28T08:53:12Z</time>
      </trkpt>
      <trkpt lat="47.00074" lon="-1.8542">
        <ele>54</ele>
        <time>2022-06-28T08:53:14Z</time>
      </trkpt>
      <trkpt lat="47.00066" lon="-1.85408">
        <ele>54</ele>
        <time>2022-06-28T08:53:16Z</time>
      </trkpt>
      <trkpt lat="47.00058" lon="-1.85397">
        <ele>54</ele>
        <time>2022-06-28T08:53:18Z</time>
      </trkpt>
      <trkpt lat="47.00049" lon="-1.85386">
        <ele>54</ele>
        <time>2022-06-28T08:53:20Z</time>
      </trkpt>
      <trkpt lat="47.00039" lon="-1.85376">
        <ele>54</ele>
        <time>2022-06-28T08:53:22Z</time>
      </trkpt>
      <trkpt lat="47.00028" lon="-1.8537">
        <ele>53</ele>
        <time>2022-06-28T08:53:24Z</time>
      </trkpt>
      <trkpt lat="47.00017" lon="-1.85367">
        <ele>54</ele>
        <time>2022-06-28T08:53:26Z</time>
      </trkpt>
      <trkpt lat="47.00004" lon="-1.85367">
        <ele>54</ele>
        <time>2022-06-28T08:53:28Z</time>
      </trkpt>
      <trkpt lat="46.99992" lon="-1.85365">
        <ele>54</ele>
        <time>2022-06-28T08:53:30Z</time>
      </trkpt>
      <trkpt lat="46.99982" lon="-1.85358">
        <ele>54</ele>
        <time>2022-06-28T08:53:32Z</time>
      </trkpt>
      <trkpt lat="46.99974" lon="-1.85346">
        <ele>55</ele>
        <time>2022-06-28T08:53:34Z</time>
      </trkpt>
      <trkpt lat="46.99967" lon="-1.85331">
        <ele>55</ele>
        <time>2022-06-28T08:53:36Z</time>
      </trkpt>
      <trkpt lat="46.9996" lon="-1.85316">
        <ele>55</ele>
        <time>2022-06-28T08:53:38Z</time>
      </trkpt>
      <trkpt lat="46.99953" lon="-1.85301">
        <ele>55</ele>
        <time>2022-06-28T08:53:40Z</time>
      </trkpt>
      <trkpt lat="46.99945" lon="-1.85287">
        <ele>55</ele>
        <time>2022-06-28T08:53:42Z</time>
      </trkpt>
      <trkpt lat="46.99937" lon="-1.85273">
        <ele>55</ele>
        <time>2022-06-28T08:53:44Z</time>
      </trkpt>
      <trkpt lat="46.9993" lon="-1.85259">
        <ele>55</ele>
        <time>2022-06-28T08:53:46Z</time>
      </trkpt>
      <trkpt lat="46.99924" lon="-1.85244">
        <ele>55</ele>
        <time>2022-06-28T08:53:48Z</time>
      </trkpt>
      <trkpt lat="46.99919" lon="-1.85226">
        <ele>56</ele>
        <time>2022-06-28T08:53:50Z</time>
      </trkpt>
      <trkpt lat="46.99915" lon="-1.85208">
        <ele>55</ele>
        <time>2022-06-28T08:53:52Z</time>
      </trkpt>
      <trkpt lat="46.99913" lon="-1.85191">
        <ele>55</ele>
        <time>2022-06-28T08:53:54Z</time>
      </trkpt>
      <trkpt lat="46.99911" lon="-1.85173">
        <ele>55</ele>
        <time>2022-06-28T08:53:56Z</time>
      </trkpt>
      <trkpt lat="46.99908" lon="-1.85156">
        <ele>55</ele>
        <time>2022-06-28T08:53:58Z</time>
      </trkpt>
      <trkpt lat="46.99906" lon="-1.85139">
        <ele>54</ele>
        <time>2022-06-28T08:54:00Z</time>
      </trkpt>
      <trkpt lat="46.99904" lon="-1.85122">
        <ele>54</ele>
        <time>2022-06-28T08:54:02Z</time>
      </trkpt>
      <trkpt lat="46.99901" lon="-1.85105">
        <ele>54</ele>
        <time>2022-06-28T08:54:04Z</time>
      </trkpt>
      <trkpt lat="46.999" lon="-1.85088">
        <ele>54</ele>
        <time>2022-06-28T08:54:06Z</time>
      </trkpt>
      <trkpt lat="46.99898" lon="-1.85071">
        <ele>55</ele>
        <time>2022-06-28T08:54:08Z</time>
      </trkpt>
      <trkpt lat="46.99897" lon="-1.85054">
        <ele>55</ele>
        <time>2022-06-28T08:54:10Z</time>
      </trkpt>
      <trkpt lat="46.99897" lon="-1.85037">
        <ele>55</ele>
        <time>2022-06-28T08:54:12Z</time>
      </trkpt>
      <trkpt lat="46.99896" lon="-1.8502">
        <ele>55</ele>
        <time>2022-06-28T08:54:14Z</time>
      </trkpt>
      <trkpt lat="46.99895" lon="-1.85004">
        <ele>55</ele>
        <time>2022-06-28T08:54:16Z</time>
      </trkpt>
      <trkpt lat="46.99894" lon="-1.84987">
        <ele>56</ele>
        <time>2022-06-28T08:54:18Z</time>
      </trkpt>
      <trkpt lat="46.99893" lon="-1.8497">
        <ele>56</ele>
        <time>2022-06-28T08:54:20Z</time>
      </trkpt>
      <trkpt lat="46.99892" lon="-1.84953">
        <ele>56</ele>
        <time>2022-06-28T08:54:22Z</time>
      </trkpt>
      <trkpt lat="46.99891" lon="-1.84937">
        <ele>56</ele>
        <time>2022-06-28T08:54:24Z</time>
      </trkpt>
      <trkpt lat="46.99891" lon="-1.8492">
        <ele>56</ele>
        <time>2022-06-28T08:54:26Z</time>
      </trkpt>
      <trkpt lat="46.9989" lon="-1.84903">
        <ele>56</ele>
        <time>2022-06-28T08:54:28Z</time>
      </trkpt>
      <trkpt lat="46.99889" lon="-1.84887">
        <ele>56</ele>
        <time>2022-06-28T08:54:30Z</time>
      </trkpt>
      <trkpt lat="46.99887" lon="-1.84869">
        <ele>57</ele>
        <time>2022-06-28T08:54:32Z</time>
      </trkpt>
      <trkpt lat="46.99884" lon="-1.84852">
        <ele>57</ele>
        <time>2022-06-28T08:54:34Z</time>
      </trkpt>
      <trkpt lat="46.99882" lon="-1.84834">
        <ele>57</ele>
        <time>2022-06-28T08:54:36Z</time>
      </trkpt>
      <trkpt lat="46.99878" lon="-1.84817">
        <ele>57</ele>
        <time>2022-06-28T08:54:38Z</time>
      </trkpt>
      <trkpt lat="46.99874" lon="-1.848">
        <ele>57</ele>
        <time>2022-06-28T08:54:40Z</time>
      </trkpt>
      <trkpt lat="46.99869" lon="-1.84784">
        <ele>57</ele>
        <time>2022-06-28T08:54:42Z</time>
      </trkpt>
      <trkpt lat="46.99864" lon="-1.84769">
        <ele>57</ele>
        <time>2022-06-28T08:54:44Z</time>
      </trkpt>
      <trkpt lat="46.99858" lon="-1.84753">
        <ele>57</ele>
        <time>2022-06-28T08:54:46Z</time>
      </trkpt>
      <trkpt lat="46.99852" lon="-1.84737">
        <ele>57</ele>
        <time>2022-06-28T08:54:48Z</time>
      </trkpt>
      <trkpt lat="46.99845" lon="-1.84721">
        <ele>56</ele>
        <time>2022-06-28T08:54:50Z</time>
      </trkpt>
      <trkpt lat="46.99838" lon="-1.84705">
        <ele>56</ele>
        <time>2022-06-28T08:54:52Z</time>
      </trkpt>
      <trkpt lat="46.99833" lon="-1.84688">
        <ele>56</ele>
        <time>2022-06-28T08:54:54Z</time>
      </trkpt>
      <trkpt lat="46.99827" lon="-1.84671">
        <ele>56</ele>
        <time>2022-06-28T08:54:56Z</time>
      </trkpt>
      <trkpt lat="46.99821" lon="-1.84655">
        <ele>56</ele>
        <time>2022-06-28T08:54:58Z</time>
      </trkpt>
      <trkpt lat="46.99815" lon="-1.84638">
        <ele>56</ele>
        <time>2022-06-28T08:55:00Z</time>
      </trkpt>
      <trkpt lat="46.99811" lon="-1.8462">
        <ele>56</ele>
        <time>2022-06-28T08:55:02Z</time>
      </trkpt>
      <trkpt lat="46.99806" lon="-1.84603">
        <ele>56</ele>
        <time>2022-06-28T08:55:04Z</time>
      </trkpt>
      <trkpt lat="46.99802" lon="-1.84585">
        <ele>56</ele>
        <time>2022-06-28T08:55:06Z</time>
      </trkpt>
      <trkpt lat="46.99798" lon="-1.84567">
        <ele>56</ele>
        <time>2022-06-28T08:55:08Z</time>
      </trkpt>
      <trkpt lat="46.99795" lon="-1.84549">
        <ele>56</ele>
        <time>2022-06-28T08:55:10Z</time>
      </trkpt>
      <trkpt lat="46.99791" lon="-1.84531">
        <ele>56</ele>
        <time>2022-06-28T08:55:12Z</time>
      </trkpt>
      <trkpt lat="46.99788" lon="-1.84513">
        <ele>56</ele>
        <time>2022-06-28T08:55:14Z</time>
      </trkpt>
      <trkpt lat="46.99785" lon="-1.84495">
        <ele>56</ele>
        <time>2022-06-28T08:55:16Z</time>
      </trkpt>
      <trkpt lat="46.99781" lon="-1.84476">
        <ele>56</ele>
        <time>2022-06-28T08:55:18Z</time>
      </trkpt>
      <trkpt lat="46.99778" lon="-1.84457">
        <ele>56</ele>
        <time>2022-06-28T08:55:20Z</time>
      </trkpt>
      <trkpt lat="46.99775" lon="-1.84439">
        <ele>56</ele>
        <time>2022-06-28T08:55:22Z</time>
      </trkpt>
      <trkpt lat="46.99771" lon="-1.8442">
        <ele>57</ele>
        <time>2022-06-28T08:55:24Z</time>
      </trkpt>
      <trkpt lat="46.99768" lon="-1.84402">
        <ele>56</ele>
        <time>2022-06-28T08:55:26Z</time>
      </trkpt>
      <trkpt lat="46.99765" lon="-1.84384">
        <ele>56</ele>
        <time>2022-06-28T08:55:28Z</time>
      </trkpt>
      <trkpt lat="46.99762" lon="-1.84366">
        <ele>56</ele>
        <time>2022-06-28T08:55:30Z</time>
      </trkpt>
      <trkpt lat="46.99759" lon="-1.84348">
        <ele>56</ele>
        <time>2022-06-28T08:55:32Z</time>
      </trkpt>
      <trkpt lat="46.99756" lon="-1.84329">
        <ele>55</ele>
        <time>2022-06-28T08:55:34Z</time>
      </trkpt>
      <trkpt lat="46.99754" lon="-1.84311">
        <ele>55</ele>
        <time>2022-06-28T08:55:36Z</time>
      </trkpt>
      <trkpt lat="46.99752" lon="-1.84292">
        <ele>55</ele>
        <time>2022-06-28T08:55:38Z</time>
      </trkpt>
      <trkpt lat="46.9975" lon="-1.84273">
        <ele>56</ele>
        <time>2022-06-28T08:55:40Z</time>
      </trkpt>
      <trkpt lat="46.99748" lon="-1.84255">
        <ele>56</ele>
        <time>2022-06-28T08:55:42Z</time>
      </trkpt>
      <trkpt lat="46.99746" lon="-1.84237">
        <ele>56</ele>
        <time>2022-06-28T08:55:44Z</time>
      </trkpt>
      <trkpt lat="46.99743" lon="-1.84219">
        <ele>56</ele>
        <time>2022-06-28T08:55:46Z</time>
      </trkpt>
      <trkpt lat="46.99739" lon="-1.84202">
        <ele>56</ele>
        <time>2022-06-28T08:55:48Z</time>
      </trkpt>
      <trkpt lat="46.99731" lon="-1.84188">
        <ele>56</ele>
        <time>2022-06-28T08:55:50Z</time>
      </trkpt>
      <trkpt lat="46.9972" lon="-1.8418">
        <ele>57</ele>
        <time>2022-06-28T08:55:52Z</time>
      </trkpt>
      <trkpt lat="46.99708" lon="-1.84175">
        <ele>57</ele>
        <time>2022-06-28T08:55:54Z</time>
      </trkpt>
      <trkpt lat="46.99697" lon="-1.84169">
        <ele>57</ele>
        <time>2022-06-28T08:55:56Z</time>
      </trkpt>
      <trkpt lat="46.99686" lon="-1.84161">
        <ele>57</ele>
        <time>2022-06-28T08:55:58Z</time>
      </trkpt>
      <trkpt lat="46.99675" lon="-1.84152">
        <ele>57</ele>
        <time>2022-06-28T08:56:00Z</time>
      </trkpt>
      <trkpt lat="46.99665" lon="-1.84141">
        <ele>57</ele>
        <time>2022-06-28T08:56:02Z</time>
      </trkpt>
      <trkpt lat="46.99656" lon="-1.84129">
        <ele>58</ele>
        <time>2022-06-28T08:56:04Z</time>
      </trkpt>
      <trkpt lat="46.99647" lon="-1.84117">
        <ele>58</ele>
        <time>2022-06-28T08:56:06Z</time>
      </trkpt>
      <trkpt lat="46.99639" lon="-1.84102">
        <ele>58</ele>
        <time>2022-06-28T08:56:08Z</time>
      </trkpt>
      <trkpt lat="46.99632" lon="-1.84088">
        <ele>58</ele>
        <time>2022-06-28T08:56:10Z</time>
      </trkpt>
      <trkpt lat="46.99626" lon="-1.84072">
        <ele>58</ele>
        <time>2022-06-28T08:56:12Z</time>
      </trkpt>
      <trkpt lat="46.99621" lon="-1.84057">
        <ele>58</ele>
        <time>2022-06-28T08:56:14Z</time>
      </trkpt>
      <trkpt lat="46.99617" lon="-1.8404">
        <ele>58</ele>
        <time>2022-06-28T08:56:16Z</time>
      </trkpt>
      <trkpt lat="46.99613" lon="-1.84023">
        <ele>58</ele>
        <time>2022-06-28T08:56:18Z</time>
      </trkpt>
      <trkpt lat="46.9961" lon="-1.84005">
        <ele>58</ele>
        <time>2022-06-28T08:56:20Z</time>
      </trkpt>
      <trkpt lat="46.99607" lon="-1.83987">
        <ele>58</ele>
        <time>2022-06-28T08:56:22Z</time>
      </trkpt>
      <trkpt lat="46.99604" lon="-1.8397">
        <ele>58</ele>
        <time>2022-06-28T08:56:24Z</time>
      </trkpt>
      <trkpt lat="46.99599" lon="-1.83953">
        <ele>58</ele>
        <time>2022-06-28T08:56:26Z</time>
      </trkpt>
      <trkpt lat="46.99592" lon="-1.83938">
        <ele>57</ele>
        <time>2022-06-28T08:56:28Z</time>
      </trkpt>
      <trkpt lat="46.99583" lon="-1.83926">
        <ele>58</ele>
        <time>2022-06-28T08:56:30Z</time>
      </trkpt>
      <trkpt lat="46.99572" lon="-1.83918">
        <ele>58</ele>
        <time>2022-06-28T08:56:32Z</time>
      </trkpt>
      <trkpt lat="46.9956" lon="-1.83912">
        <ele>58</ele>
        <time>2022-06-28T08:56:34Z</time>
      </trkpt>
      <trkpt lat="46.99548" lon="-1.83905">
        <ele>58</ele>
        <time>2022-06-28T08:56:36Z</time>
      </trkpt>
      <trkpt lat="46.99536" lon="-1.83899">
        <ele>58</ele>
        <time>2022-06-28T08:56:38Z</time>
      </trkpt>
      <trkpt lat="46.99525" lon="-1.83893">
        <ele>59</ele>
        <time>2022-06-28T08:56:40Z</time>
      </trkpt>
      <trkpt lat="46.99514" lon="-1.83886">
        <ele>59</ele>
        <time>2022-06-28T08:56:42Z</time>
      </trkpt>
      <trkpt lat="46.99503" lon="-1.83879">
        <ele>59</ele>
        <time>2022-06-28T08:56:44Z</time>
      </trkpt>
      <trkpt lat="46.99492" lon="-1.8387">
        <ele>59</ele>
        <time>2022-06-28T08:56:46Z</time>
      </trkpt>
      <trkpt lat="46.99482" lon="-1.8386">
        <ele>59</ele>
        <time>2022-06-28T08:56:48Z</time>
      </trkpt>
      <trkpt lat="46.99473" lon="-1.83846">
        <ele>59</ele>
        <time>2022-06-28T08:56:50Z</time>
      </trkpt>
      <trkpt lat="46.99466" lon="-1.83831">
        <ele>59</ele>
        <time>2022-06-28T08:56:52Z</time>
      </trkpt>
      <trkpt lat="46.9946" lon="-1.83816">
        <ele>59</ele>
        <time>2022-06-28T08:56:54Z</time>
      </trkpt>
      <trkpt lat="46.99453" lon="-1.83801">
        <ele>59</ele>
        <time>2022-06-28T08:56:56Z</time>
      </trkpt>
      <trkpt lat="46.99445" lon="-1.83787">
        <ele>59</ele>
        <time>2022-06-28T08:56:58Z</time>
      </trkpt>
      <trkpt lat="46.99435" lon="-1.83777">
        <ele>59</ele>
        <time>2022-06-28T08:57:00Z</time>
      </trkpt>
      <trkpt lat="46.99425" lon="-1.83769">
        <ele>59</ele>
        <time>2022-06-28T08:57:02Z</time>
      </trkpt>
      <trkpt lat="46.99414" lon="-1.83762">
        <ele>59</ele>
        <time>2022-06-28T08:57:04Z</time>
      </trkpt>
      <trkpt lat="46.99402" lon="-1.83756">
        <ele>59</ele>
        <time>2022-06-28T08:57:06Z</time>
      </trkpt>
      <trkpt lat="46.99391" lon="-1.83749">
        <ele>60</ele>
        <time>2022-06-28T08:57:08Z</time>
      </trkpt>
      <trkpt lat="46.99379" lon="-1.83742">
        <ele>59</ele>
        <time>2022-06-28T08:57:10Z</time>
      </trkpt>
      <trkpt lat="46.99367" lon="-1.83736">
        <ele>60</ele>
        <time>2022-06-28T08:57:12Z</time>
      </trkpt>
      <trkpt lat="46.99356" lon="-1.83729">
        <ele>60</ele>
        <time>2022-06-28T08:57:14Z</time>
      </trkpt>
      <trkpt lat="46.99345" lon="-1.83723">
        <ele>60</ele>
        <time>2022-06-28T08:57:16Z</time>
      </trkpt>
      <trkpt lat="46.99333" lon="-1.83716">
        <ele>60</ele>
        <time>2022-06-28T08:57:18Z</time>
      </trkpt>
      <trkpt lat="46.99322" lon="-1.83708">
        <ele>60</ele>
        <time>2022-06-28T08:57:20Z</time>
      </trkpt>
      <trkpt lat="46.99311" lon="-1.83701">
        <ele>60</ele>
        <time>2022-06-28T08:57:22Z</time>
      </trkpt>
      <trkpt lat="46.99301" lon="-1.83692">
        <ele>60</ele>
        <time>2022-06-28T08:57:24Z</time>
      </trkpt>
      <trkpt lat="46.99291" lon="-1.83684">
        <ele>61</ele>
        <time>2022-06-28T08:57:26Z</time>
      </trkpt>
      <trkpt lat="46.99281" lon="-1.83674">
        <ele>61</ele>
        <time>2022-06-28T08:57:28Z</time>
      </trkpt>
      <trkpt lat="46.99272" lon="-1.83662">
        <ele>61</ele>
        <time>2022-06-28T08:57:30Z</time>
      </trkpt>
      <trkpt lat="46.99263" lon="-1.83651">
        <ele>61</ele>
        <time>2022-06-28T08:57:32Z</time>
      </trkpt>
      <trkpt lat="46.99254" lon="-1.83641">
        <ele>61</ele>
        <time>2022-06-28T08:57:34Z</time>
      </trkpt>
      <trkpt lat="46.99245" lon="-1.8363">
        <ele>61</ele>
        <time>2022-06-28T08:57:36Z</time>
      </trkpt>
      <trkpt lat="46.99236" lon="-1.8362">
        <ele>61</ele>
        <time>2022-06-28T08:57:38Z</time>
      </trkpt>
      <trkpt lat="46.99227" lon="-1.83608">
        <ele>61</ele>
        <time>2022-06-28T08:57:40Z</time>
      </trkpt>
      <trkpt lat="46.99219" lon="-1.83597">
        <ele>60</ele>
        <time>2022-06-28T08:57:42Z</time>
      </trkpt>
      <trkpt lat="46.9921" lon="-1.83585">
        <ele>60</ele>
        <time>2022-06-28T08:57:44Z</time>
      </trkpt>
      <trkpt lat="46.99201" lon="-1.83574">
        <ele>59</ele>
        <time>2022-06-28T08:57:46Z</time>
      </trkpt>
      <trkpt lat="46.99192" lon="-1.83563">
        <ele>59</ele>
        <time>2022-06-28T08:57:48Z</time>
      </trkpt>
      <trkpt lat="46.99184" lon="-1.83552">
        <ele>58</ele>
        <time>2022-06-28T08:57:50Z</time>
      </trkpt>
      <trkpt lat="46.99175" lon="-1.83541">
        <ele>58</ele>
        <time>2022-06-28T08:57:52Z</time>
      </trkpt>
      <trkpt lat="46.99167" lon="-1.83531">
        <ele>58</ele>
        <time>2022-06-28T08:57:54Z</time>
      </trkpt>
      <trkpt lat="46.99157" lon="-1.83523">
        <ele>57</ele>
        <time>2022-06-28T08:57:56Z</time>
      </trkpt>
      <trkpt lat="46.99146" lon="-1.83516">
        <ele>57</ele>
        <time>2022-06-28T08:57:58Z</time>
      </trkpt>
      <trkpt lat="46.99143" lon="-1.83503">
        <ele>57</ele>
        <time>2022-06-28T08:58:00Z</time>
      </trkpt>
      <trkpt lat="46.99151" lon="-1.83486">
        <ele>57</ele>
        <time>2022-06-28T08:58:02Z</time>
      </trkpt>
      <trkpt lat="46.99155" lon="-1.83468">
        <ele>57</ele>
        <time>2022-06-28T08:58:04Z</time>
      </trkpt>
      <trkpt lat="46.9916" lon="-1.8345">
        <ele>56</ele>
        <time>2022-06-28T08:58:06Z</time>
      </trkpt>
      <trkpt lat="46.99164" lon="-1.83432">
        <ele>56</ele>
        <time>2022-06-28T08:58:08Z</time>
      </trkpt>
      <trkpt lat="46.99168" lon="-1.83414">
        <ele>55</ele>
        <time>2022-06-28T08:58:10Z</time>
      </trkpt>
      <trkpt lat="46.99172" lon="-1.83395">
        <ele>55</ele>
        <time>2022-06-28T08:58:12Z</time>
      </trkpt>
      <trkpt lat="46.99176" lon="-1.83377">
        <ele>55</ele>
        <time>2022-06-28T08:58:14Z</time>
      </trkpt>
      <trkpt lat="46.9918" lon="-1.8336">
        <ele>55</ele>
        <time>2022-06-28T08:58:16Z</time>
      </trkpt>
      <trkpt lat="46.99183" lon="-1.83342">
        <ele>56</ele>
        <time>2022-06-28T08:58:18Z</time>
      </trkpt>
      <trkpt lat="46.99187" lon="-1.83325">
        <ele>56</ele>
        <time>2022-06-28T08:58:20Z</time>
      </trkpt>
      <trkpt lat="46.99191" lon="-1.83307">
        <ele>56</ele>
        <time>2022-06-28T08:58:22Z</time>
      </trkpt>
      <trkpt lat="46.99195" lon="-1.83289">
        <ele>56</ele>
        <time>2022-06-28T08:58:24Z</time>
      </trkpt>
      <trkpt lat="46.99199" lon="-1.8327">
        <ele>56</ele>
        <time>2022-06-28T08:58:26Z</time>
      </trkpt>
      <trkpt lat="46.99203" lon="-1.83252">
        <ele>56</ele>
        <time>2022-06-28T08:58:28Z</time>
      </trkpt>
      <trkpt lat="46.99208" lon="-1.83234">
        <ele>57</ele>
        <time>2022-06-28T08:58:30Z</time>
      </trkpt>
      <trkpt lat="46.99213" lon="-1.83216">
        <ele>57</ele>
        <time>2022-06-28T08:58:32Z</time>
      </trkpt>
      <trkpt lat="46.99217" lon="-1.83198">
        <ele>56</ele>
        <time>2022-06-28T08:58:34Z</time>
      </trkpt>
      <trkpt lat="46.99221" lon="-1.83179">
        <ele>56</ele>
        <time>2022-06-28T08:58:36Z</time>
      </trkpt>
      <trkpt lat="46.99224" lon="-1.83159">
        <ele>56</ele>
        <time>2022-06-28T08:58:38Z</time>
      </trkpt>
      <trkpt lat="46.99228" lon="-1.8314">
        <ele>56</ele>
        <time>2022-06-28T08:58:40Z</time>
      </trkpt>
      <trkpt lat="46.99232" lon="-1.8312">
        <ele>56</ele>
        <time>2022-06-28T08:58:42Z</time>
      </trkpt>
      <trkpt lat="46.99236" lon="-1.83101">
        <ele>56</ele>
        <time>2022-06-28T08:58:44Z</time>
      </trkpt>
      <trkpt lat="46.99241" lon="-1.83082">
        <ele>56</ele>
        <time>2022-06-28T08:58:46Z</time>
      </trkpt>
      <trkpt lat="46.99245" lon="-1.83063">
        <ele>57</ele>
        <time>2022-06-28T08:58:48Z</time>
      </trkpt>
      <trkpt lat="46.99249" lon="-1.83044">
        <ele>57</ele>
        <time>2022-06-28T08:58:50Z</time>
      </trkpt>
      <trkpt lat="46.99254" lon="-1.83025">
        <ele>57</ele>
        <time>2022-06-28T08:58:52Z</time>
      </trkpt>
      <trkpt lat="46.99258" lon="-1.83007">
        <ele>57</ele>
        <time>2022-06-28T08:58:54Z</time>
      </trkpt>
      <trkpt lat="46.99262" lon="-1.82989">
        <ele>57</ele>
        <time>2022-06-28T08:58:56Z</time>
      </trkpt>
      <trkpt lat="46.99267" lon="-1.82971">
        <ele>57</ele>
        <time>2022-06-28T08:58:58Z</time>
      </trkpt>
      <trkpt lat="46.99271" lon="-1.82953">
        <ele>57</ele>
        <time>2022-06-28T08:59:00Z</time>
      </trkpt>
      <trkpt lat="46.99274" lon="-1.82935">
        <ele>58</ele>
        <time>2022-06-28T08:59:02Z</time>
      </trkpt>
      <trkpt lat="46.99278" lon="-1.82917">
        <ele>58</ele>
        <time>2022-06-28T08:59:04Z</time>
      </trkpt>
      <trkpt lat="46.99282" lon="-1.82898">
        <ele>58</ele>
        <time>2022-06-28T08:59:06Z</time>
      </trkpt>
      <trkpt lat="46.99286" lon="-1.8288">
        <ele>58</ele>
        <time>2022-06-28T08:59:08Z</time>
      </trkpt>
      <trkpt lat="46.9929" lon="-1.82861">
        <ele>58</ele>
        <time>2022-06-28T08:59:10Z</time>
      </trkpt>
      <trkpt lat="46.99295" lon="-1.82842">
        <ele>58</ele>
        <time>2022-06-28T08:59:12Z</time>
      </trkpt>
      <trkpt lat="46.99298" lon="-1.82824">
        <ele>57</ele>
        <time>2022-06-28T08:59:14Z</time>
      </trkpt>
      <trkpt lat="46.99302" lon="-1.82806">
        <ele>56</ele>
        <time>2022-06-28T08:59:16Z</time>
      </trkpt>
      <trkpt lat="46.99306" lon="-1.82788">
        <ele>56</ele>
        <time>2022-06-28T08:59:18Z</time>
      </trkpt>
      <trkpt lat="46.99311" lon="-1.8277">
        <ele>56</ele>
        <time>2022-06-28T08:59:20Z</time>
      </trkpt>
      <trkpt lat="46.99315" lon="-1.82752">
        <ele>57</ele>
        <time>2022-06-28T08:59:22Z</time>
      </trkpt>
      <trkpt lat="46.99319" lon="-1.82734">
        <ele>57</ele>
        <time>2022-06-28T08:59:24Z</time>
      </trkpt>
      <trkpt lat="46.99322" lon="-1.82715">
        <ele>57</ele>
        <time>2022-06-28T08:59:26Z</time>
      </trkpt>
      <trkpt lat="46.99327" lon="-1.82697">
        <ele>57</ele>
        <time>2022-06-28T08:59:28Z</time>
      </trkpt>
      <trkpt lat="46.99331" lon="-1.82679">
        <ele>57</ele>
        <time>2022-06-28T08:59:30Z</time>
      </trkpt>
      <trkpt lat="46.99335" lon="-1.82662">
        <ele>57</ele>
        <time>2022-06-28T08:59:32Z</time>
      </trkpt>
      <trkpt lat="46.99339" lon="-1.82644">
        <ele>58</ele>
        <time>2022-06-28T08:59:34Z</time>
      </trkpt>
      <trkpt lat="46.99343" lon="-1.82626">
        <ele>57</ele>
        <time>2022-06-28T08:59:36Z</time>
      </trkpt>
      <trkpt lat="46.9935" lon="-1.82611">
        <ele>57</ele>
        <time>2022-06-28T08:59:38Z</time>
      </trkpt>
      <trkpt lat="46.99357" lon="-1.82596">
        <ele>58</ele>
        <time>2022-06-28T08:59:40Z</time>
      </trkpt>
      <trkpt lat="46.99362" lon="-1.82579">
        <ele>57</ele>
        <time>2022-06-28T08:59:42Z</time>
      </trkpt>
      <trkpt lat="46.99364" lon="-1.8256">
        <ele>57</ele>
        <time>2022-06-28T08:59:44Z</time>
      </trkpt>
      <trkpt lat="46.9936" lon="-1.82542">
        <ele>58</ele>
        <time>2022-06-28T08:59:46Z</time>
      </trkpt>
      <trkpt lat="46.99356" lon="-1.82525">
        <ele>57</ele>
        <time>2022-06-28T08:59:48Z</time>
      </trkpt>
      <trkpt lat="46.99352" lon="-1.82508">
        <ele>58</ele>
        <time>2022-06-28T08:59:50Z</time>
      </trkpt>
      <trkpt lat="46.99348" lon="-1.82494">
        <ele>57</ele>
        <time>2022-06-28T08:59:52Z</time>
      </trkpt>
      <trkpt lat="46.99344" lon="-1.82479">
        <ele>58</ele>
        <time>2022-06-28T08:59:54Z</time>
      </trkpt>
      <trkpt lat="46.9934" lon="-1.82461">
        <ele>59</ele>
        <time>2022-06-28T08:59:56Z</time>
      </trkpt>
      <trkpt lat="46.99336" lon="-1.82444">
        <ele>59</ele>
        <time>2022-06-28T08:59:58Z</time>
      </trkpt>
      <trkpt lat="46.99331" lon="-1.82427">
        <ele>59</ele>
        <time>2022-06-28T09:00:00Z</time>
      </trkpt>
      <trkpt lat="46.99327" lon="-1.82408">
        <ele>59</ele>
        <time>2022-06-28T09:00:02Z</time>
      </trkpt>
      <trkpt lat="46.99325" lon="-1.82389">
        <ele>58</ele>
        <time>2022-06-28T09:00:04Z</time>
      </trkpt>
      <trkpt lat="46.99323" lon="-1.82371">
        <ele>58</ele>
        <time>2022-06-28T09:00:06Z</time>
      </trkpt>
      <trkpt lat="46.99321" lon="-1.82352">
        <ele>58</ele>
        <time>2022-06-28T09:00:08Z</time>
      </trkpt>
      <trkpt lat="46.99318" lon="-1.82334">
        <ele>58</ele>
        <time>2022-06-28T09:00:10Z</time>
      </trkpt>
      <trkpt lat="46.99315" lon="-1.82316">
        <ele>58</ele>
        <time>2022-06-28T09:00:12Z</time>
      </trkpt>
      <trkpt lat="46.99311" lon="-1.823">
        <ele>58</ele>
        <time>2022-06-28T09:00:14Z</time>
      </trkpt>
      <trkpt lat="46.99307" lon="-1.82283">
        <ele>58</ele>
        <time>2022-06-28T09:00:16Z</time>
      </trkpt>
      <trkpt lat="46.99303" lon="-1.82266">
        <ele>57</ele>
        <time>2022-06-28T09:00:18Z</time>
      </trkpt>
      <trkpt lat="46.99298" lon="-1.82249">
        <ele>57</ele>
        <time>2022-06-28T09:00:20Z</time>
      </trkpt>
      <trkpt lat="46.99294" lon="-1.82233">
        <ele>57</ele>
        <time>2022-06-28T09:00:22Z</time>
      </trkpt>
      <trkpt lat="46.99288" lon="-1.82218">
        <ele>56</ele>
        <time>2022-06-28T09:00:24Z</time>
      </trkpt>
      <trkpt lat="46.99277" lon="-1.82218">
        <ele>57</ele>
        <time>2022-06-28T09:00:26Z</time>
      </trkpt>
      <trkpt lat="46.99264" lon="-1.8222">
        <ele>58</ele>
        <time>2022-06-28T09:00:28Z</time>
      </trkpt>
      <trkpt lat="46.99252" lon="-1.82221">
        <ele>59</ele>
        <time>2022-06-28T09:00:30Z</time>
      </trkpt>
      <trkpt lat="46.99239" lon="-1.82222">
        <ele>59</ele>
        <time>2022-06-28T09:00:32Z</time>
      </trkpt>
      <trkpt lat="46.99227" lon="-1.8222">
        <ele>59</ele>
        <time>2022-06-28T09:00:34Z</time>
      </trkpt>
      <trkpt lat="46.99216" lon="-1.82216">
        <ele>59</ele>
        <time>2022-06-28T09:00:36Z</time>
      </trkpt>
      <trkpt lat="46.99203" lon="-1.82212">
        <ele>59</ele>
        <time>2022-06-28T09:00:38Z</time>
      </trkpt>
      <trkpt lat="46.9919" lon="-1.82207">
        <ele>60</ele>
        <time>2022-06-28T09:00:40Z</time>
      </trkpt>
      <trkpt lat="46.99178" lon="-1.82202">
        <ele>60</ele>
        <time>2022-06-28T09:00:42Z</time>
      </trkpt>
      <trkpt lat="46.99166" lon="-1.82197">
        <ele>60</ele>
        <time>2022-06-28T09:00:44Z</time>
      </trkpt>
      <trkpt lat="46.99155" lon="-1.82191">
        <ele>60</ele>
        <time>2022-06-28T09:00:46Z</time>
      </trkpt>
      <trkpt lat="46.99143" lon="-1.82188">
        <ele>60</ele>
        <time>2022-06-28T09:00:48Z</time>
      </trkpt>
      <trkpt lat="46.9913" lon="-1.82186">
        <ele>60</ele>
        <time>2022-06-28T09:00:50Z</time>
      </trkpt>
      <trkpt lat="46.99119" lon="-1.82187">
        <ele>60</ele>
        <time>2022-06-28T09:00:52Z</time>
      </trkpt>
      <trkpt lat="46.99108" lon="-1.8219">
        <ele>60</ele>
        <time>2022-06-28T09:00:54Z</time>
      </trkpt>
      <trkpt lat="46.99098" lon="-1.8219">
        <ele>60</ele>
        <time>2022-06-28T09:00:56Z</time>
      </trkpt>
      <trkpt lat="46.99089" lon="-1.82182">
        <ele>60</ele>
        <time>2022-06-28T09:00:58Z</time>
      </trkpt>
      <trkpt lat="46.99089" lon="-1.82165">
        <ele>59</ele>
        <time>2022-06-28T09:01:00Z</time>
      </trkpt>
      <trkpt lat="46.99088" lon="-1.82147">
        <ele>58</ele>
        <time>2022-06-28T09:01:02Z</time>
      </trkpt>
      <trkpt lat="46.99085" lon="-1.82129">
        <ele>58</ele>
        <time>2022-06-28T09:01:04Z</time>
      </trkpt>
      <trkpt lat="46.99082" lon="-1.82111">
        <ele>59</ele>
        <time>2022-06-28T09:01:06Z</time>
      </trkpt>
      <trkpt lat="46.9908" lon="-1.82093">
        <ele>59</ele>
        <time>2022-06-28T09:01:08Z</time>
      </trkpt>
      <trkpt lat="46.99079" lon="-1.82074">
        <ele>59</ele>
        <time>2022-06-28T09:01:10Z</time>
      </trkpt>
      <trkpt lat="46.9908" lon="-1.82055">
        <ele>59</ele>
        <time>2022-06-28T09:01:12Z</time>
      </trkpt>
      <trkpt lat="46.99082" lon="-1.82037">
        <ele>58</ele>
        <time>2022-06-28T09:01:14Z</time>
      </trkpt>
      <trkpt lat="46.99083" lon="-1.82019">
        <ele>58</ele>
        <time>2022-06-28T09:01:16Z</time>
      </trkpt>
      <trkpt lat="46.99084" lon="-1.82">
        <ele>57</ele>
        <time>2022-06-28T09:01:18Z</time>
      </trkpt>
      <trkpt lat="46.99085" lon="-1.81981">
        <ele>57</ele>
        <time>2022-06-28T09:01:20Z</time>
      </trkpt>
      <trkpt lat="46.99087" lon="-1.81963">
        <ele>56</ele>
        <time>2022-06-28T09:01:22Z</time>
      </trkpt>
      <trkpt lat="46.99089" lon="-1.81945">
        <ele>56</ele>
        <time>2022-06-28T09:01:24Z</time>
      </trkpt>
      <trkpt lat="46.99091" lon="-1.81927">
        <ele>56</ele>
        <time>2022-06-28T09:01:26Z</time>
      </trkpt>
      <trkpt lat="46.99092" lon="-1.81908">
        <ele>56</ele>
        <time>2022-06-28T09:01:28Z</time>
      </trkpt>
      <trkpt lat="46.99095" lon="-1.81889">
        <ele>56</ele>
        <time>2022-06-28T09:01:30Z</time>
      </trkpt>
      <trkpt lat="46.99098" lon="-1.81871">
        <ele>56</ele>
        <time>2022-06-28T09:01:32Z</time>
      </trkpt>
      <trkpt lat="46.99102" lon="-1.81853">
        <ele>56</ele>
        <time>2022-06-28T09:01:34Z</time>
      </trkpt>
      <trkpt lat="46.99107" lon="-1.81836">
        <ele>56</ele>
        <time>2022-06-28T09:01:36Z</time>
      </trkpt>
      <trkpt lat="46.99112" lon="-1.8182">
        <ele>56</ele>
        <time>2022-06-28T09:01:38Z</time>
      </trkpt>
      <trkpt lat="46.99121" lon="-1.81807">
        <ele>56</ele>
        <time>2022-06-28T09:01:40Z</time>
      </trkpt>
      <trkpt lat="46.9913" lon="-1.81794">
        <ele>55</ele>
        <time>2022-06-28T09:01:42Z</time>
      </trkpt>
      <trkpt lat="46.99139" lon="-1.81781">
        <ele>55</ele>
        <time>2022-06-28T09:01:44Z</time>
      </trkpt>
      <trkpt lat="46.99148" lon="-1.81769">
        <ele>55</ele>
        <time>2022-06-28T09:01:46Z</time>
      </trkpt>
      <trkpt lat="46.99158" lon="-1.81757">
        <ele>55</ele>
        <time>2022-06-28T09:01:48Z</time>
      </trkpt>
      <trkpt lat="46.99167" lon="-1.81746">
        <ele>55</ele>
        <time>2022-06-28T09:01:50Z</time>
      </trkpt>
      <trkpt lat="46.99176" lon="-1.81735">
        <ele>55</ele>
        <time>2022-06-28T09:01:52Z</time>
      </trkpt>
      <trkpt lat="46.99185" lon="-1.81724">
        <ele>55</ele>
        <time>2022-06-28T09:01:54Z</time>
      </trkpt>
      <trkpt lat="46.99191" lon="-1.81712">
        <ele>56</ele>
        <time>2022-06-28T09:01:56Z</time>
      </trkpt>
      <trkpt lat="46.99181" lon="-1.81701">
        <ele>57</ele>
        <time>2022-06-28T09:01:58Z</time>
      </trkpt>
      <trkpt lat="46.9917" lon="-1.81692">
        <ele>57</ele>
        <time>2022-06-28T09:02:00Z</time>
      </trkpt>
      <trkpt lat="46.99159" lon="-1.81681">
        <ele>57</ele>
        <time>2022-06-28T09:02:02Z</time>
      </trkpt>
      <trkpt lat="46.99148" lon="-1.81671">
        <ele>57</ele>
        <time>2022-06-28T09:02:04Z</time>
      </trkpt>
      <trkpt lat="46.99139" lon="-1.8166">
        <ele>57</ele>
        <time>2022-06-28T09:02:06Z</time>
      </trkpt>
      <trkpt lat="46.9913" lon="-1.81648">
        <ele>57</ele>
        <time>2022-06-28T09:02:08Z</time>
      </trkpt>
      <trkpt lat="46.9912" lon="-1.81638">
        <ele>57</ele>
        <time>2022-06-28T09:02:10Z</time>
      </trkpt>
      <trkpt lat="46.99111" lon="-1.81626">
        <ele>57</ele>
        <time>2022-06-28T09:02:12Z</time>
      </trkpt>
      <trkpt lat="46.99103" lon="-1.81613">
        <ele>57</ele>
        <time>2022-06-28T09:02:14Z</time>
      </trkpt>
      <trkpt lat="46.991" lon="-1.81599">
        <ele>58</ele>
        <time>2022-06-28T09:02:16Z</time>
      </trkpt>
      <trkpt lat="46.99111" lon="-1.81591">
        <ele>59</ele>
        <time>2022-06-28T09:02:18Z</time>
      </trkpt>
      <trkpt lat="46.99123" lon="-1.81589">
        <ele>60</ele>
        <time>2022-06-28T09:02:20Z</time>
      </trkpt>
      <trkpt lat="46.99136" lon="-1.81589">
        <ele>61</ele>
        <time>2022-06-28T09:02:22Z</time>
      </trkpt>
      <trkpt lat="46.99148" lon="-1.8159">
        <ele>61</ele>
        <time>2022-06-28T09:02:24Z</time>
      </trkpt>
      <trkpt lat="46.9916" lon="-1.81592">
        <ele>61</ele>
        <time>2022-06-28T09:02:26Z</time>
      </trkpt>
      <trkpt lat="46.99173" lon="-1.81594">
        <ele>61</ele>
        <time>2022-06-28T09:02:28Z</time>
      </trkpt>
      <trkpt lat="46.99186" lon="-1.81597">
        <ele>61</ele>
        <time>2022-06-28T09:02:30Z</time>
      </trkpt>
      <trkpt lat="46.99199" lon="-1.81598">
        <ele>61</ele>
        <time>2022-06-28T09:02:32Z</time>
      </trkpt>
      <trkpt lat="46.99213" lon="-1.816">
        <ele>61</ele>
        <time>2022-06-28T09:02:34Z</time>
      </trkpt>
      <trkpt lat="46.99226" lon="-1.81602">
        <ele>61</ele>
        <time>2022-06-28T09:02:36Z</time>
      </trkpt>
      <trkpt lat="46.99238" lon="-1.81603">
        <ele>60</ele>
        <time>2022-06-28T09:02:38Z</time>
      </trkpt>
      <trkpt lat="46.99249" lon="-1.81597">
        <ele>59</ele>
        <time>2022-06-28T09:02:40Z</time>
      </trkpt>
      <trkpt lat="46.99251" lon="-1.8158">
        <ele>58</ele>
        <time>2022-06-28T09:02:42Z</time>
      </trkpt>
      <trkpt lat="46.99248" lon="-1.81562">
        <ele>60</ele>
        <time>2022-06-28T09:02:44Z</time>
      </trkpt>
      <trkpt lat="46.99246" lon="-1.81546">
        <ele>60</ele>
        <time>2022-06-28T09:02:46Z</time>
      </trkpt>
      <trkpt lat="46.99243" lon="-1.81529">
        <ele>62</ele>
        <time>2022-06-28T09:02:48Z</time>
      </trkpt>
      <trkpt lat="46.9924" lon="-1.81511">
        <ele>62</ele>
        <time>2022-06-28T09:02:50Z</time>
      </trkpt>
      <trkpt lat="46.99239" lon="-1.81493">
        <ele>63</ele>
        <time>2022-06-28T09:02:52Z</time>
      </trkpt>
      <trkpt lat="46.99236" lon="-1.81475">
        <ele>63</ele>
        <time>2022-06-28T09:02:54Z</time>
      </trkpt>
      <trkpt lat="46.99234" lon="-1.81456">
        <ele>64</ele>
        <time>2022-06-28T09:02:56Z</time>
      </trkpt>
      <trkpt lat="46.99232" lon="-1.81437">
        <ele>65</ele>
        <time>2022-06-28T09:02:58Z</time>
      </trkpt>
      <trkpt lat="46.99228" lon="-1.81417">
        <ele>65</ele>
        <time>2022-06-28T09:03:00Z</time>
      </trkpt>
      <trkpt lat="46.99225" lon="-1.81398">
        <ele>65</ele>
        <time>2022-06-28T09:03:02Z</time>
      </trkpt>
      <trkpt lat="46.99223" lon="-1.8138">
        <ele>64</ele>
        <time>2022-06-28T09:03:04Z</time>
      </trkpt>
      <trkpt lat="46.9922" lon="-1.81361">
        <ele>64</ele>
        <time>2022-06-28T09:03:06Z</time>
      </trkpt>
      <trkpt lat="46.99217" lon="-1.81342">
        <ele>63</ele>
        <time>2022-06-28T09:03:08Z</time>
      </trkpt>
      <trkpt lat="46.99215" lon="-1.81324">
        <ele>64</ele>
        <time>2022-06-28T09:03:10Z</time>
      </trkpt>
      <trkpt lat="46.99213" lon="-1.81303">
        <ele>63</ele>
        <time>2022-06-28T09:03:12Z</time>
      </trkpt>
      <trkpt lat="46.99211" lon="-1.81284">
        <ele>62</ele>
        <time>2022-06-28T09:03:14Z</time>
      </trkpt>
      <trkpt lat="46.99209" lon="-1.81263">
        <ele>62</ele>
        <time>2022-06-28T09:03:16Z</time>
      </trkpt>
      <trkpt lat="46.99206" lon="-1.81245">
        <ele>62</ele>
        <time>2022-06-28T09:03:18Z</time>
      </trkpt>
      <trkpt lat="46.99203" lon="-1.81227">
        <ele>63</ele>
        <time>2022-06-28T09:03:20Z</time>
      </trkpt>
      <trkpt lat="46.99201" lon="-1.8121">
        <ele>62</ele>
        <time>2022-06-28T09:03:22Z</time>
      </trkpt>
      <trkpt lat="46.99198" lon="-1.81191">
        <ele>62</ele>
        <time>2022-06-28T09:03:24Z</time>
      </trkpt>
      <trkpt lat="46.99195" lon="-1.8117">
        <ele>62</ele>
        <time>2022-06-28T09:03:26Z</time>
      </trkpt>
      <trkpt lat="46.99192" lon="-1.81149">
        <ele>61</ele>
        <time>2022-06-28T09:03:28Z</time>
      </trkpt>
      <trkpt lat="46.99189" lon="-1.81131">
        <ele>61</ele>
        <time>2022-06-28T09:03:30Z</time>
      </trkpt>
      <trkpt lat="46.99187" lon="-1.81111">
        <ele>61</ele>
        <time>2022-06-28T09:03:32Z</time>
      </trkpt>
      <trkpt lat="46.99184" lon="-1.81091">
        <ele>61</ele>
        <time>2022-06-28T09:03:34Z</time>
      </trkpt>
      <trkpt lat="46.99182" lon="-1.81072">
        <ele>60</ele>
        <time>2022-06-28T09:03:36Z</time>
      </trkpt>
      <trkpt lat="46.9918" lon="-1.81054">
        <ele>60</ele>
        <time>2022-06-28T09:03:38Z</time>
      </trkpt>
      <trkpt lat="46.99177" lon="-1.81036">
        <ele>59</ele>
        <time>2022-06-28T09:03:40Z</time>
      </trkpt>
      <trkpt lat="46.99175" lon="-1.81018">
        <ele>59</ele>
        <time>2022-06-28T09:03:42Z</time>
      </trkpt>
      <trkpt lat="46.99172" lon="-1.80999">
        <ele>58</ele>
        <time>2022-06-28T09:03:44Z</time>
      </trkpt>
      <trkpt lat="46.9917" lon="-1.8098">
        <ele>57</ele>
        <time>2022-06-28T09:03:46Z</time>
      </trkpt>
      <trkpt lat="46.99168" lon="-1.80962">
        <ele>57</ele>
        <time>2022-06-28T09:03:48Z</time>
      </trkpt>
      <trkpt lat="46.99166" lon="-1.80944">
        <ele>57</ele>
        <time>2022-06-28T09:03:50Z</time>
      </trkpt>
      <trkpt lat="46.99165" lon="-1.80925">
        <ele>57</ele>
        <time>2022-06-28T09:03:52Z</time>
      </trkpt>
      <trkpt lat="46.99164" lon="-1.80907">
        <ele>57</ele>
        <time>2022-06-28T09:03:54Z</time>
      </trkpt>
      <trkpt lat="46.99171" lon="-1.80894">
        <ele>57</ele>
        <time>2022-06-28T09:03:56Z</time>
      </trkpt>
      <trkpt lat="46.99182" lon="-1.80885">
        <ele>56</ele>
        <time>2022-06-28T09:03:58Z</time>
      </trkpt>
      <trkpt lat="46.99193" lon="-1.80877">
        <ele>56</ele>
        <time>2022-06-28T09:04:00Z</time>
      </trkpt>
      <trkpt lat="46.99204" lon="-1.80869">
        <ele>56</ele>
        <time>2022-06-28T09:04:02Z</time>
      </trkpt>
      <trkpt lat="46.99216" lon="-1.8086">
        <ele>56</ele>
        <time>2022-06-28T09:04:04Z</time>
      </trkpt>
      <trkpt lat="46.99227" lon="-1.80852">
        <ele>56</ele>
        <time>2022-06-28T09:04:06Z</time>
      </trkpt>
      <trkpt lat="46.9924" lon="-1.80845">
        <ele>56</ele>
        <time>2022-06-28T09:04:08Z</time>
      </trkpt>
      <trkpt lat="46.99251" lon="-1.80838">
        <ele>56</ele>
        <time>2022-06-28T09:04:10Z</time>
      </trkpt>
      <trkpt lat="46.99263" lon="-1.8083">
        <ele>56</ele>
        <time>2022-06-28T09:04:12Z</time>
      </trkpt>
      <trkpt lat="46.99274" lon="-1.80823">
        <ele>56</ele>
        <time>2022-06-28T09:04:14Z</time>
      </trkpt>
      <trkpt lat="46.99286" lon="-1.80816">
        <ele>56</ele>
        <time>2022-06-28T09:04:16Z</time>
      </trkpt>
      <trkpt lat="46.99297" lon="-1.80809">
        <ele>57</ele>
        <time>2022-06-28T09:04:18Z</time>
      </trkpt>
      <trkpt lat="46.99309" lon="-1.80801">
        <ele>57</ele>
        <time>2022-06-28T09:04:20Z</time>
      </trkpt>
      <trkpt lat="46.99321" lon="-1.80794">
        <ele>56</ele>
        <time>2022-06-28T09:04:22Z</time>
      </trkpt>
      <trkpt lat="46.99333" lon="-1.80786">
        <ele>57</ele>
        <time>2022-06-28T09:04:24Z</time>
      </trkpt>
      <trkpt lat="46.99345" lon="-1.80778">
        <ele>56</ele>
        <time>2022-06-28T09:04:26Z</time>
      </trkpt>
      <trkpt lat="46.99356" lon="-1.8077">
        <ele>56</ele>
        <time>2022-06-28T09:04:28Z</time>
      </trkpt>
      <trkpt lat="46.99368" lon="-1.80763">
        <ele>56</ele>
        <time>2022-06-28T09:04:30Z</time>
      </trkpt>
      <trkpt lat="46.9938" lon="-1.80755">
        <ele>56</ele>
        <time>2022-06-28T09:04:32Z</time>
      </trkpt>
      <trkpt lat="46.99391" lon="-1.80748">
        <ele>56</ele>
        <time>2022-06-28T09:04:34Z</time>
      </trkpt>
      <trkpt lat="46.99403" lon="-1.80741">
        <ele>56</ele>
        <time>2022-06-28T09:04:36Z</time>
      </trkpt>
      <trkpt lat="46.99415" lon="-1.80733">
        <ele>56</ele>
        <time>2022-06-28T09:04:38Z</time>
      </trkpt>
      <trkpt lat="46.99426" lon="-1.80726">
        <ele>56</ele>
        <time>2022-06-28T09:04:40Z</time>
      </trkpt>
      <trkpt lat="46.99438" lon="-1.80718">
        <ele>56</ele>
        <time>2022-06-28T09:04:42Z</time>
      </trkpt>
      <trkpt lat="46.9945" lon="-1.80711">
        <ele>56</ele>
        <time>2022-06-28T09:04:44Z</time>
      </trkpt>
      <trkpt lat="46.99461" lon="-1.80704">
        <ele>56</ele>
        <time>2022-06-28T09:04:46Z</time>
      </trkpt>
      <trkpt lat="46.9947" lon="-1.80695">
        <ele>56</ele>
        <time>2022-06-28T09:04:48Z</time>
      </trkpt>
      <trkpt lat="46.99477" lon="-1.8068">
        <ele>57</ele>
        <time>2022-06-28T09:04:51Z</time>
      </trkpt>
      <trkpt lat="46.99483" lon="-1.80668">
        <ele>57</ele>
        <time>2022-06-28T09:04:53Z</time>
      </trkpt>
      <trkpt lat="46.99493" lon="-1.80659">
        <ele>57</ele>
        <time>2022-06-28T09:04:55Z</time>
      </trkpt>
      <trkpt lat="46.99506" lon="-1.80655">
        <ele>56</ele>
        <time>2022-06-28T09:04:57Z</time>
      </trkpt>
      <trkpt lat="46.99518" lon="-1.80646">
        <ele>56</ele>
        <time>2022-06-28T09:04:59Z</time>
      </trkpt>
      <trkpt lat="46.99529" lon="-1.80634">
        <ele>56</ele>
        <time>2022-06-28T09:05:01Z</time>
      </trkpt>
      <trkpt lat="46.99539" lon="-1.80621">
        <ele>56</ele>
        <time>2022-06-28T09:05:03Z</time>
      </trkpt>
      <trkpt lat="46.9955" lon="-1.80608">
        <ele>55</ele>
        <time>2022-06-28T09:05:05Z</time>
      </trkpt>
      <trkpt lat="46.99561" lon="-1.80595">
        <ele>56</ele>
        <time>2022-06-28T09:05:07Z</time>
      </trkpt>
      <trkpt lat="46.99571" lon="-1.80581">
        <ele>56</ele>
        <time>2022-06-28T09:05:09Z</time>
      </trkpt>
      <trkpt lat="46.99581" lon="-1.80568">
        <ele>55</ele>
        <time>2022-06-28T09:05:11Z</time>
      </trkpt>
      <trkpt lat="46.99592" lon="-1.80554">
        <ele>55</ele>
        <time>2022-06-28T09:05:13Z</time>
      </trkpt>
      <trkpt lat="46.99602" lon="-1.8054">
        <ele>55</ele>
        <time>2022-06-28T09:05:15Z</time>
      </trkpt>
      <trkpt lat="46.99613" lon="-1.80527">
        <ele>55</ele>
        <time>2022-06-28T09:05:17Z</time>
      </trkpt>
      <trkpt lat="46.99624" lon="-1.80514">
        <ele>54</ele>
        <time>2022-06-28T09:05:19Z</time>
      </trkpt>
      <trkpt lat="46.99634" lon="-1.80501">
        <ele>54</ele>
        <time>2022-06-28T09:05:21Z</time>
      </trkpt>
      <trkpt lat="46.99645" lon="-1.80487">
        <ele>54</ele>
        <time>2022-06-28T09:05:23Z</time>
      </trkpt>
      <trkpt lat="46.99655" lon="-1.80473">
        <ele>54</ele>
        <time>2022-06-28T09:05:25Z</time>
      </trkpt>
      <trkpt lat="46.99665" lon="-1.8046">
        <ele>55</ele>
        <time>2022-06-28T09:05:27Z</time>
      </trkpt>
      <trkpt lat="46.99675" lon="-1.80448">
        <ele>55</ele>
        <time>2022-06-28T09:05:29Z</time>
      </trkpt>
      <trkpt lat="46.99686" lon="-1.80434">
        <ele>55</ele>
        <time>2022-06-28T09:05:31Z</time>
      </trkpt>
      <trkpt lat="46.99696" lon="-1.80421">
        <ele>55</ele>
        <time>2022-06-28T09:05:33Z</time>
      </trkpt>
      <trkpt lat="46.99706" lon="-1.80407">
        <ele>55</ele>
        <time>2022-06-28T09:05:35Z</time>
      </trkpt>
      <trkpt lat="46.99717" lon="-1.80393">
        <ele>55</ele>
        <time>2022-06-28T09:05:37Z</time>
      </trkpt>
      <trkpt lat="46.99727" lon="-1.8038">
        <ele>55</ele>
        <time>2022-06-28T09:05:39Z</time>
      </trkpt>
      <trkpt lat="46.99738" lon="-1.80367">
        <ele>55</ele>
        <time>2022-06-28T09:05:41Z</time>
      </trkpt>
      <trkpt lat="46.99748" lon="-1.80353">
        <ele>55</ele>
        <time>2022-06-28T09:05:43Z</time>
      </trkpt>
      <trkpt lat="46.99759" lon="-1.8034">
        <ele>55</ele>
        <time>2022-06-28T09:05:45Z</time>
      </trkpt>
      <trkpt lat="46.99769" lon="-1.80326">
        <ele>55</ele>
        <time>2022-06-28T09:05:47Z</time>
      </trkpt>
      <trkpt lat="46.99779" lon="-1.80313">
        <ele>56</ele>
        <time>2022-06-28T09:05:49Z</time>
      </trkpt>
      <trkpt lat="46.99789" lon="-1.80299">
        <ele>56</ele>
        <time>2022-06-28T09:05:51Z</time>
      </trkpt>
      <trkpt lat="46.99799" lon="-1.80286">
        <ele>56</ele>
        <time>2022-06-28T09:05:53Z</time>
      </trkpt>
      <trkpt lat="46.99809" lon="-1.80274">
        <ele>56</ele>
        <time>2022-06-28T09:05:55Z</time>
      </trkpt>
      <trkpt lat="46.99819" lon="-1.80261">
        <ele>56</ele>
        <time>2022-06-28T09:05:57Z</time>
      </trkpt>
      <trkpt lat="46.99829" lon="-1.80247">
        <ele>56</ele>
        <time>2022-06-28T09:05:59Z</time>
      </trkpt>
      <trkpt lat="46.99839" lon="-1.80233">
        <ele>56</ele>
        <time>2022-06-28T09:06:01Z</time>
      </trkpt>
      <trkpt lat="46.99848" lon="-1.80219">
        <ele>56</ele>
        <time>2022-06-28T09:06:03Z</time>
      </trkpt>
      <trkpt lat="46.99856" lon="-1.80203">
        <ele>56</ele>
        <time>2022-06-28T09:06:05Z</time>
      </trkpt>
      <trkpt lat="46.99864" lon="-1.80188">
        <ele>56</ele>
        <time>2022-06-28T09:06:07Z</time>
      </trkpt>
      <trkpt lat="46.99872" lon="-1.80171">
        <ele>56</ele>
        <time>2022-06-28T09:06:09Z</time>
      </trkpt>
      <trkpt lat="46.9988" lon="-1.80155">
        <ele>57</ele>
        <time>2022-06-28T09:06:11Z</time>
      </trkpt>
      <trkpt lat="46.99888" lon="-1.80138">
        <ele>57</ele>
        <time>2022-06-28T09:06:13Z</time>
      </trkpt>
      <trkpt lat="46.99896" lon="-1.80121">
        <ele>57</ele>
        <time>2022-06-28T09:06:15Z</time>
      </trkpt>
      <trkpt lat="46.99904" lon="-1.80104">
        <ele>57</ele>
        <time>2022-06-28T09:06:17Z</time>
      </trkpt>
      <trkpt lat="46.99911" lon="-1.80088">
        <ele>57</ele>
        <time>2022-06-28T09:06:19Z</time>
      </trkpt>
      <trkpt lat="46.99919" lon="-1.80071">
        <ele>57</ele>
        <time>2022-06-28T09:06:21Z</time>
      </trkpt>
      <trkpt lat="46.99927" lon="-1.80055">
        <ele>58</ele>
        <time>2022-06-28T09:06:23Z</time>
      </trkpt>
      <trkpt lat="46.99935" lon="-1.80039">
        <ele>58</ele>
        <time>2022-06-28T09:06:25Z</time>
      </trkpt>
      <trkpt lat="46.99944" lon="-1.80023">
        <ele>58</ele>
        <time>2022-06-28T09:06:27Z</time>
      </trkpt>
      <trkpt lat="46.99954" lon="-1.80009">
        <ele>58</ele>
        <time>2022-06-28T09:06:29Z</time>
      </trkpt>
      <trkpt lat="46.99964" lon="-1.79996">
        <ele>58</ele>
        <time>2022-06-28T09:06:31Z</time>
      </trkpt>
      <trkpt lat="46.99975" lon="-1.79986">
        <ele>58</ele>
        <time>2022-06-28T09:06:33Z</time>
      </trkpt>
      <trkpt lat="46.99987" lon="-1.79977">
        <ele>57</ele>
        <time>2022-06-28T09:06:35Z</time>
      </trkpt>
      <trkpt lat="46.99999" lon="-1.79968">
        <ele>57</ele>
        <time>2022-06-28T09:06:37Z</time>
      </trkpt>
      <trkpt lat="47.00011" lon="-1.79959">
        <ele>57</ele>
        <time>2022-06-28T09:06:39Z</time>
      </trkpt>
      <trkpt lat="47.00023" lon="-1.7995">
        <ele>57</ele>
        <time>2022-06-28T09:06:41Z</time>
      </trkpt>
      <trkpt lat="47.00035" lon="-1.79941">
        <ele>57</ele>
        <time>2022-06-28T09:06:43Z</time>
      </trkpt>
      <trkpt lat="47.00047" lon="-1.79932">
        <ele>56</ele>
        <time>2022-06-28T09:06:45Z</time>
      </trkpt>
      <trkpt lat="47.0006" lon="-1.79923">
        <ele>56</ele>
        <time>2022-06-28T09:06:47Z</time>
      </trkpt>
      <trkpt lat="47.00072" lon="-1.79913">
        <ele>56</ele>
        <time>2022-06-28T09:06:49Z</time>
      </trkpt>
      <trkpt lat="47.00083" lon="-1.79904">
        <ele>56</ele>
        <time>2022-06-28T09:06:51Z</time>
      </trkpt>
      <trkpt lat="47.00095" lon="-1.79893">
        <ele>56</ele>
        <time>2022-06-28T09:06:53Z</time>
      </trkpt>
      <trkpt lat="47.00105" lon="-1.79881">
        <ele>56</ele>
        <time>2022-06-28T09:06:55Z</time>
      </trkpt>
      <trkpt lat="47.00115" lon="-1.79868">
        <ele>56</ele>
        <time>2022-06-28T09:06:57Z</time>
      </trkpt>
      <trkpt lat="47.00124" lon="-1.79854">
        <ele>56</ele>
        <time>2022-06-28T09:06:59Z</time>
      </trkpt>
      <trkpt lat="47.00132" lon="-1.79837">
        <ele>56</ele>
        <time>2022-06-28T09:07:01Z</time>
      </trkpt>
      <trkpt lat="47.00139" lon="-1.79821">
        <ele>56</ele>
        <time>2022-06-28T09:07:03Z</time>
      </trkpt>
      <trkpt lat="47.00145" lon="-1.79804">
        <ele>56</ele>
        <time>2022-06-28T09:07:05Z</time>
      </trkpt>
      <trkpt lat="47.00151" lon="-1.79786">
        <ele>57</ele>
        <time>2022-06-28T09:07:07Z</time>
      </trkpt>
      <trkpt lat="47.00157" lon="-1.79768">
        <ele>57</ele>
        <time>2022-06-28T09:07:09Z</time>
      </trkpt>
      <trkpt lat="47.00162" lon="-1.7975">
        <ele>57</ele>
        <time>2022-06-28T09:07:11Z</time>
      </trkpt>
      <trkpt lat="47.00168" lon="-1.79733">
        <ele>57</ele>
        <time>2022-06-28T09:07:13Z</time>
      </trkpt>
      <trkpt lat="47.00173" lon="-1.79715">
        <ele>58</ele>
        <time>2022-06-28T09:07:15Z</time>
      </trkpt>
      <trkpt lat="47.00178" lon="-1.79696">
        <ele>58</ele>
        <time>2022-06-28T09:07:17Z</time>
      </trkpt>
      <trkpt lat="47.00184" lon="-1.79678">
        <ele>58</ele>
        <time>2022-06-28T09:07:19Z</time>
      </trkpt>
      <trkpt lat="47.00189" lon="-1.79659">
        <ele>57</ele>
        <time>2022-06-28T09:07:21Z</time>
      </trkpt>
      <trkpt lat="47.00195" lon="-1.7964">
        <ele>57</ele>
        <time>2022-06-28T09:07:23Z</time>
      </trkpt>
      <trkpt lat="47.002" lon="-1.79622">
        <ele>57</ele>
        <time>2022-06-28T09:07:25Z</time>
      </trkpt>
      <trkpt lat="47.00206" lon="-1.79604">
        <ele>57</ele>
        <time>2022-06-28T09:07:27Z</time>
      </trkpt>
      <trkpt lat="47.00211" lon="-1.79586">
        <ele>57</ele>
        <time>2022-06-28T09:07:29Z</time>
      </trkpt>
      <trkpt lat="47.00217" lon="-1.79568">
        <ele>57</ele>
        <time>2022-06-28T09:07:31Z</time>
      </trkpt>
      <trkpt lat="47.00222" lon="-1.7955">
        <ele>57</ele>
        <time>2022-06-28T09:07:33Z</time>
      </trkpt>
      <trkpt lat="47.00227" lon="-1.79532">
        <ele>57</ele>
        <time>2022-06-28T09:07:35Z</time>
      </trkpt>
      <trkpt lat="47.00233" lon="-1.79513">
        <ele>57</ele>
        <time>2022-06-28T09:07:37Z</time>
      </trkpt>
      <trkpt lat="47.00238" lon="-1.79495">
        <ele>57</ele>
        <time>2022-06-28T09:07:39Z</time>
      </trkpt>
      <trkpt lat="47.00243" lon="-1.79477">
        <ele>57</ele>
        <time>2022-06-28T09:07:41Z</time>
      </trkpt>
      <trkpt lat="47.00249" lon="-1.79459">
        <ele>57</ele>
        <time>2022-06-28T09:07:43Z</time>
      </trkpt>
      <trkpt lat="47.00254" lon="-1.79441">
        <ele>57</ele>
        <time>2022-06-28T09:07:45Z</time>
      </trkpt>
      <trkpt lat="47.0026" lon="-1.79422">
        <ele>57</ele>
        <time>2022-06-28T09:07:47Z</time>
      </trkpt>
      <trkpt lat="47.00265" lon="-1.79405">
        <ele>57</ele>
        <time>2022-06-28T09:07:49Z</time>
      </trkpt>
      <trkpt lat="47.00271" lon="-1.79387">
        <ele>58</ele>
        <time>2022-06-28T09:07:51Z</time>
      </trkpt>
      <trkpt lat="47.00276" lon="-1.79369">
        <ele>58</ele>
        <time>2022-06-28T09:07:53Z</time>
      </trkpt>
      <trkpt lat="47.0028" lon="-1.79351">
        <ele>58</ele>
        <time>2022-06-28T09:07:55Z</time>
      </trkpt>
      <trkpt lat="47.00284" lon="-1.79331">
        <ele>58</ele>
        <time>2022-06-28T09:07:57Z</time>
      </trkpt>
      <trkpt lat="47.00287" lon="-1.79311">
        <ele>58</ele>
        <time>2022-06-28T09:07:59Z</time>
      </trkpt>
      <trkpt lat="47.0029" lon="-1.79292">
        <ele>58</ele>
        <time>2022-06-28T09:08:01Z</time>
      </trkpt>
      <trkpt lat="47.00293" lon="-1.79272">
        <ele>57</ele>
        <time>2022-06-28T09:08:03Z</time>
      </trkpt>
      <trkpt lat="47.00296" lon="-1.79253">
        <ele>58</ele>
        <time>2022-06-28T09:08:05Z</time>
      </trkpt>
      <trkpt lat="47.00299" lon="-1.79234">
        <ele>57</ele>
        <time>2022-06-28T09:08:07Z</time>
      </trkpt>
      <trkpt lat="47.00302" lon="-1.79215">
        <ele>58</ele>
        <time>2022-06-28T09:08:09Z</time>
      </trkpt>
      <trkpt lat="47.00306" lon="-1.79195">
        <ele>57</ele>
        <time>2022-06-28T09:08:11Z</time>
      </trkpt>
      <trkpt lat="47.00309" lon="-1.79175">
        <ele>57</ele>
        <time>2022-06-28T09:08:13Z</time>
      </trkpt>
      <trkpt lat="47.00315" lon="-1.79146">
        <ele>58</ele>
        <time>2022-06-28T09:08:16Z</time>
      </trkpt>
      <trkpt lat="47.0032" lon="-1.79127">
        <ele>58</ele>
        <time>2022-06-28T09:08:18Z</time>
      </trkpt>
      <trkpt lat="47.00325" lon="-1.79108">
        <ele>58</ele>
        <time>2022-06-28T09:08:20Z</time>
      </trkpt>
      <trkpt lat="47.0033" lon="-1.7909">
        <ele>58</ele>
        <time>2022-06-28T09:08:22Z</time>
      </trkpt>
      <trkpt lat="47.00335" lon="-1.79072">
        <ele>59</ele>
        <time>2022-06-28T09:08:24Z</time>
      </trkpt>
      <trkpt lat="47.00344" lon="-1.79043">
        <ele>58</ele>
        <time>2022-06-28T09:08:27Z</time>
      </trkpt>
      <trkpt lat="47.00351" lon="-1.79015">
        <ele>58</ele>
        <time>2022-06-28T09:08:30Z</time>
      </trkpt>
      <trkpt lat="47.00355" lon="-1.78995">
        <ele>58</ele>
        <time>2022-06-28T09:08:32Z</time>
      </trkpt>
      <trkpt lat="47.0036" lon="-1.78977">
        <ele>58</ele>
        <time>2022-06-28T09:08:34Z</time>
      </trkpt>
      <trkpt lat="47.00364" lon="-1.78957">
        <ele>59</ele>
        <time>2022-06-28T09:08:36Z</time>
      </trkpt>
      <trkpt lat="47.00368" lon="-1.78938">
        <ele>59</ele>
        <time>2022-06-28T09:08:38Z</time>
      </trkpt>
      <trkpt lat="47.00372" lon="-1.78919">
        <ele>59</ele>
        <time>2022-06-28T09:08:40Z</time>
      </trkpt>
      <trkpt lat="47.00378" lon="-1.7889">
        <ele>59</ele>
        <time>2022-06-28T09:08:43Z</time>
      </trkpt>
      <trkpt lat="47.00383" lon="-1.7887">
        <ele>60</ele>
        <time>2022-06-28T09:08:45Z</time>
      </trkpt>
      <trkpt lat="47.00389" lon="-1.78841">
        <ele>59</ele>
        <time>2022-06-28T09:08:48Z</time>
      </trkpt>
      <trkpt lat="47.00393" lon="-1.78822">
        <ele>59</ele>
        <time>2022-06-28T09:08:50Z</time>
      </trkpt>
      <trkpt lat="47.00397" lon="-1.78803">
        <ele>59</ele>
        <time>2022-06-28T09:08:52Z</time>
      </trkpt>
      <trkpt lat="47.004" lon="-1.78783">
        <ele>58</ele>
        <time>2022-06-28T09:08:54Z</time>
      </trkpt>
      <trkpt lat="47.00403" lon="-1.78763">
        <ele>58</ele>
        <time>2022-06-28T09:08:56Z</time>
      </trkpt>
      <trkpt lat="47.00406" lon="-1.78742">
        <ele>58</ele>
        <time>2022-06-28T09:08:58Z</time>
      </trkpt>
      <trkpt lat="47.00409" lon="-1.78722">
        <ele>58</ele>
        <time>2022-06-28T09:09:00Z</time>
      </trkpt>
      <trkpt lat="47.00411" lon="-1.78702">
        <ele>58</ele>
        <time>2022-06-28T09:09:02Z</time>
      </trkpt>
      <trkpt lat="47.00414" lon="-1.78682">
        <ele>58</ele>
        <time>2022-06-28T09:09:04Z</time>
      </trkpt>
      <trkpt lat="47.00417" lon="-1.78662">
        <ele>58</ele>
        <time>2022-06-28T09:09:06Z</time>
      </trkpt>
      <trkpt lat="47.00419" lon="-1.78641">
        <ele>58</ele>
        <time>2022-06-28T09:09:08Z</time>
      </trkpt>
      <trkpt lat="47.00422" lon="-1.78622">
        <ele>58</ele>
        <time>2022-06-28T09:09:10Z</time>
      </trkpt>
      <trkpt lat="47.00424" lon="-1.78601">
        <ele>58</ele>
        <time>2022-06-28T09:09:12Z</time>
      </trkpt>
      <trkpt lat="47.00427" lon="-1.78581">
        <ele>58</ele>
        <time>2022-06-28T09:09:14Z</time>
      </trkpt>
      <trkpt lat="47.0043" lon="-1.78562">
        <ele>58</ele>
        <time>2022-06-28T09:09:16Z</time>
      </trkpt>
      <trkpt lat="47.00433" lon="-1.78541">
        <ele>57</ele>
        <time>2022-06-28T09:09:18Z</time>
      </trkpt>
      <trkpt lat="47.00435" lon="-1.78521">
        <ele>57</ele>
        <time>2022-06-28T09:09:20Z</time>
      </trkpt>
      <trkpt lat="47.00438" lon="-1.785">
        <ele>56</ele>
        <time>2022-06-28T09:09:22Z</time>
      </trkpt>
      <trkpt lat="47.00442" lon="-1.7848">
        <ele>56</ele>
        <time>2022-06-28T09:09:24Z</time>
      </trkpt>
      <trkpt lat="47.00446" lon="-1.78459">
        <ele>55</ele>
        <time>2022-06-28T09:09:26Z</time>
      </trkpt>
      <trkpt lat="47.0045" lon="-1.7844">
        <ele>56</ele>
        <time>2022-06-28T09:09:28Z</time>
      </trkpt>
      <trkpt lat="47.00454" lon="-1.78421">
        <ele>55</ele>
        <time>2022-06-28T09:09:30Z</time>
      </trkpt>
      <trkpt lat="47.00459" lon="-1.78402">
        <ele>55</ele>
        <time>2022-06-28T09:09:32Z</time>
      </trkpt>
      <trkpt lat="47.00463" lon="-1.78384">
        <ele>55</ele>
        <time>2022-06-28T09:09:34Z</time>
      </trkpt>
      <trkpt lat="47.00467" lon="-1.78365">
        <ele>55</ele>
        <time>2022-06-28T09:09:36Z</time>
      </trkpt>
      <trkpt lat="47.00472" lon="-1.78345">
        <ele>55</ele>
        <time>2022-06-28T09:09:38Z</time>
      </trkpt>
      <trkpt lat="47.00477" lon="-1.78327">
        <ele>55</ele>
        <time>2022-06-28T09:09:40Z</time>
      </trkpt>
      <trkpt lat="47.00482" lon="-1.78308">
        <ele>55</ele>
        <time>2022-06-28T09:09:42Z</time>
      </trkpt>
      <trkpt lat="47.00486" lon="-1.78289">
        <ele>56</ele>
        <time>2022-06-28T09:09:44Z</time>
      </trkpt>
      <trkpt lat="47.00491" lon="-1.78271">
        <ele>56</ele>
        <time>2022-06-28T09:09:46Z</time>
      </trkpt>
      <trkpt lat="47.00495" lon="-1.78253">
        <ele>56</ele>
        <time>2022-06-28T09:09:48Z</time>
      </trkpt>
      <trkpt lat="47.00499" lon="-1.78235">
        <ele>57</ele>
        <time>2022-06-28T09:09:50Z</time>
      </trkpt>
      <trkpt lat="47.00504" lon="-1.78217">
        <ele>58</ele>
        <time>2022-06-28T09:09:52Z</time>
      </trkpt>
      <trkpt lat="47.00508" lon="-1.782">
        <ele>58</ele>
        <time>2022-06-28T09:09:54Z</time>
      </trkpt>
      <trkpt lat="47.00512" lon="-1.78183">
        <ele>58</ele>
        <time>2022-06-28T09:09:56Z</time>
      </trkpt>
      <trkpt lat="47.00516" lon="-1.78165">
        <ele>59</ele>
        <time>2022-06-28T09:09:58Z</time>
      </trkpt>
      <trkpt lat="47.0052" lon="-1.78146">
        <ele>58</ele>
        <time>2022-06-28T09:10:00Z</time>
      </trkpt>
      <trkpt lat="47.00526" lon="-1.78126">
        <ele>58</ele>
        <time>2022-06-28T09:10:02Z</time>
      </trkpt>
      <trkpt lat="47.0053" lon="-1.78107">
        <ele>58</ele>
        <time>2022-06-28T09:10:04Z</time>
      </trkpt>
      <trkpt lat="47.00535" lon="-1.78087">
        <ele>58</ele>
        <time>2022-06-28T09:10:06Z</time>
      </trkpt>
      <trkpt lat="47.0054" lon="-1.78067">
        <ele>57</ele>
        <time>2022-06-28T09:10:08Z</time>
      </trkpt>
      <trkpt lat="47.00545" lon="-1.78048">
        <ele>57</ele>
        <time>2022-06-28T09:10:10Z</time>
      </trkpt>
      <trkpt lat="47.00549" lon="-1.78029">
        <ele>56</ele>
        <time>2022-06-28T09:10:12Z</time>
      </trkpt>
      <trkpt lat="47.00554" lon="-1.78011">
        <ele>56</ele>
        <time>2022-06-28T09:10:14Z</time>
      </trkpt>
      <trkpt lat="47.00559" lon="-1.77993">
        <ele>56</ele>
        <time>2022-06-28T09:10:16Z</time>
      </trkpt>
      <trkpt lat="47.00564" lon="-1.77974">
        <ele>56</ele>
        <time>2022-06-28T09:10:18Z</time>
      </trkpt>
      <trkpt lat="47.00568" lon="-1.77957">
        <ele>56</ele>
        <time>2022-06-28T09:10:20Z</time>
      </trkpt>
      <trkpt lat="47.00572" lon="-1.77939">
        <ele>56</ele>
        <time>2022-06-28T09:10:22Z</time>
      </trkpt>
      <trkpt lat="47.00577" lon="-1.7792">
        <ele>56</ele>
        <time>2022-06-28T09:10:24Z</time>
      </trkpt>
      <trkpt lat="47.00581" lon="-1.77902">
        <ele>56</ele>
        <time>2022-06-28T09:10:26Z</time>
      </trkpt>
      <trkpt lat="47.00586" lon="-1.77885">
        <ele>57</ele>
        <time>2022-06-28T09:10:28Z</time>
      </trkpt>
      <trkpt lat="47.0059" lon="-1.77867">
        <ele>57</ele>
        <time>2022-06-28T09:10:30Z</time>
      </trkpt>
      <trkpt lat="47.00594" lon="-1.77849">
        <ele>57</ele>
        <time>2022-06-28T09:10:32Z</time>
      </trkpt>
      <trkpt lat="47.00599" lon="-1.77831">
        <ele>57</ele>
        <time>2022-06-28T09:10:34Z</time>
      </trkpt>
      <trkpt lat="47.00604" lon="-1.77813">
        <ele>57</ele>
        <time>2022-06-28T09:10:36Z</time>
      </trkpt>
      <trkpt lat="47.00608" lon="-1.77795">
        <ele>57</ele>
        <time>2022-06-28T09:10:38Z</time>
      </trkpt>
      <trkpt lat="47.00612" lon="-1.77777">
        <ele>57</ele>
        <time>2022-06-28T09:10:40Z</time>
      </trkpt>
      <trkpt lat="47.00616" lon="-1.77759">
        <ele>58</ele>
        <time>2022-06-28T09:10:42Z</time>
      </trkpt>
      <trkpt lat="47.00621" lon="-1.77742">
        <ele>58</ele>
        <time>2022-06-28T09:10:44Z</time>
      </trkpt>
      <trkpt lat="47.00625" lon="-1.77725">
        <ele>58</ele>
        <time>2022-06-28T09:10:46Z</time>
      </trkpt>
      <trkpt lat="47.0063" lon="-1.77708">
        <ele>58</ele>
        <time>2022-06-28T09:10:48Z</time>
      </trkpt>
      <trkpt lat="47.00634" lon="-1.7769">
        <ele>58</ele>
        <time>2022-06-28T09:10:50Z</time>
      </trkpt>
      <trkpt lat="47.00638" lon="-1.77672">
        <ele>58</ele>
        <time>2022-06-28T09:10:52Z</time>
      </trkpt>
      <trkpt lat="47.00642" lon="-1.77655">
        <ele>59</ele>
        <time>2022-06-28T09:10:54Z</time>
      </trkpt>
      <trkpt lat="47.00647" lon="-1.77638">
        <ele>59</ele>
        <time>2022-06-28T09:10:56Z</time>
      </trkpt>
      <trkpt lat="47.00651" lon="-1.77621">
        <ele>59</ele>
        <time>2022-06-28T09:10:58Z</time>
      </trkpt>
      <trkpt lat="47.00655" lon="-1.77604">
        <ele>60</ele>
        <time>2022-06-28T09:11:00Z</time>
      </trkpt>
      <trkpt lat="47.00659" lon="-1.77587">
        <ele>60</ele>
        <time>2022-06-28T09:11:02Z</time>
      </trkpt>
      <trkpt lat="47.00663" lon="-1.7757">
        <ele>60</ele>
        <time>2022-06-28T09:11:04Z</time>
      </trkpt>
      <trkpt lat="47.00667" lon="-1.77554">
        <ele>60</ele>
        <time>2022-06-28T09:11:06Z</time>
      </trkpt>
      <trkpt lat="47.00671" lon="-1.77538">
        <ele>60</ele>
        <time>2022-06-28T09:11:08Z</time>
      </trkpt>
      <trkpt lat="47.00676" lon="-1.77523">
        <ele>60</ele>
        <time>2022-06-28T09:11:10Z</time>
      </trkpt>
      <trkpt lat="47.00681" lon="-1.77507">
        <ele>60</ele>
        <time>2022-06-28T09:11:12Z</time>
      </trkpt>
      <trkpt lat="47.00686" lon="-1.77492">
        <ele>61</ele>
        <time>2022-06-28T09:11:14Z</time>
      </trkpt>
      <trkpt lat="47.00691" lon="-1.77477">
        <ele>61</ele>
        <time>2022-06-28T09:11:16Z</time>
      </trkpt>
      <trkpt lat="47.00697" lon="-1.77463">
        <ele>61</ele>
        <time>2022-06-28T09:11:18Z</time>
      </trkpt>
      <trkpt lat="47.00703" lon="-1.77449">
        <ele>61</ele>
        <time>2022-06-28T09:11:20Z</time>
      </trkpt>
      <trkpt lat="47.00708" lon="-1.77435">
        <ele>62</ele>
        <time>2022-06-28T09:11:22Z</time>
      </trkpt>
      <trkpt lat="47.00713" lon="-1.77421">
        <ele>62</ele>
        <time>2022-06-28T09:11:24Z</time>
      </trkpt>
      <trkpt lat="47.00718" lon="-1.77407">
        <ele>63</ele>
        <time>2022-06-28T09:11:26Z</time>
      </trkpt>
      <trkpt lat="47.00723" lon="-1.77393">
        <ele>63</ele>
        <time>2022-06-28T09:11:28Z</time>
      </trkpt>
      <trkpt lat="47.00728" lon="-1.77379">
        <ele>63</ele>
        <time>2022-06-28T09:11:30Z</time>
      </trkpt>
      <trkpt lat="47.00735" lon="-1.77366">
        <ele>64</ele>
        <time>2022-06-28T09:11:32Z</time>
      </trkpt>
      <trkpt lat="47.00743" lon="-1.77353">
        <ele>64</ele>
        <time>2022-06-28T09:11:34Z</time>
      </trkpt>
      <trkpt lat="47.00751" lon="-1.77342">
        <ele>65</ele>
        <time>2022-06-28T09:11:36Z</time>
      </trkpt>
      <trkpt lat="47.0076" lon="-1.77331">
        <ele>65</ele>
        <time>2022-06-28T09:11:38Z</time>
      </trkpt>
      <trkpt lat="47.0077" lon="-1.7732">
        <ele>65</ele>
        <time>2022-06-28T09:11:40Z</time>
      </trkpt>
      <trkpt lat="47.0078" lon="-1.77311">
        <ele>65</ele>
        <time>2022-06-28T09:11:42Z</time>
      </trkpt>
      <trkpt lat="47.00791" lon="-1.77304">
        <ele>65</ele>
        <time>2022-06-28T09:11:44Z</time>
      </trkpt>
      <trkpt lat="47.00802" lon="-1.77297">
        <ele>66</ele>
        <time>2022-06-28T09:11:46Z</time>
      </trkpt>
      <trkpt lat="47.00814" lon="-1.77291">
        <ele>66</ele>
        <time>2022-06-28T09:11:48Z</time>
      </trkpt>
      <trkpt lat="47.00824" lon="-1.77284">
        <ele>66</ele>
        <time>2022-06-28T09:11:50Z</time>
      </trkpt>
      <trkpt lat="47.00835" lon="-1.77278">
        <ele>66</ele>
        <time>2022-06-28T09:11:52Z</time>
      </trkpt>
      <trkpt lat="47.00846" lon="-1.77271">
        <ele>66</ele>
        <time>2022-06-28T09:11:54Z</time>
      </trkpt>
      <trkpt lat="47.00857" lon="-1.77264">
        <ele>66</ele>
        <time>2022-06-28T09:11:56Z</time>
      </trkpt>
      <trkpt lat="47.00867" lon="-1.77255">
        <ele>65</ele>
        <time>2022-06-28T09:11:58Z</time>
      </trkpt>
      <trkpt lat="47.00878" lon="-1.77246">
        <ele>65</ele>
        <time>2022-06-28T09:12:00Z</time>
      </trkpt>
      <trkpt lat="47.00887" lon="-1.77236">
        <ele>65</ele>
        <time>2022-06-28T09:12:02Z</time>
      </trkpt>
      <trkpt lat="47.00897" lon="-1.77226">
        <ele>65</ele>
        <time>2022-06-28T09:12:04Z</time>
      </trkpt>
      <trkpt lat="47.00907" lon="-1.77216">
        <ele>65</ele>
        <time>2022-06-28T09:12:06Z</time>
      </trkpt>
      <trkpt lat="47.00917" lon="-1.77206">
        <ele>65</ele>
        <time>2022-06-28T09:12:08Z</time>
      </trkpt>
      <trkpt lat="47.00927" lon="-1.77196">
        <ele>65</ele>
        <time>2022-06-28T09:12:10Z</time>
      </trkpt>
      <trkpt lat="47.00936" lon="-1.77187">
        <ele>64</ele>
        <time>2022-06-28T09:12:12Z</time>
      </trkpt>
      <trkpt lat="47.00944" lon="-1.77177">
        <ele>64</ele>
        <time>2022-06-28T09:12:14Z</time>
      </trkpt>
      <trkpt lat="47.00952" lon="-1.77168">
        <ele>64</ele>
        <time>2022-06-28T09:12:16Z</time>
      </trkpt>
      <trkpt lat="47.0096" lon="-1.77159">
        <ele>64</ele>
        <time>2022-06-28T09:12:19Z</time>
      </trkpt>
      <trkpt lat="47.00971" lon="-1.77149">
        <ele>64</ele>
        <time>2022-06-28T09:12:22Z</time>
      </trkpt>
      <trkpt lat="47.0098" lon="-1.7714">
        <ele>64</ele>
        <time>2022-06-28T09:12:24Z</time>
      </trkpt>
      <trkpt lat="47.0099" lon="-1.7713">
        <ele>65</ele>
        <time>2022-06-28T09:12:26Z</time>
      </trkpt>
      <trkpt lat="47.01001" lon="-1.7712">
        <ele>64</ele>
        <time>2022-06-28T09:12:28Z</time>
      </trkpt>
      <trkpt lat="47.01011" lon="-1.77109">
        <ele>64</ele>
        <time>2022-06-28T09:12:30Z</time>
      </trkpt>
      <trkpt lat="47.01021" lon="-1.77098">
        <ele>64</ele>
        <time>2022-06-28T09:12:32Z</time>
      </trkpt>
      <trkpt lat="47.01032" lon="-1.77087">
        <ele>64</ele>
        <time>2022-06-28T09:12:34Z</time>
      </trkpt>
      <trkpt lat="47.01042" lon="-1.77076">
        <ele>64</ele>
        <time>2022-06-28T09:12:36Z</time>
      </trkpt>
      <trkpt lat="47.01052" lon="-1.77064">
        <ele>65</ele>
        <time>2022-06-28T09:12:38Z</time>
      </trkpt>
      <trkpt lat="47.01062" lon="-1.77052">
        <ele>65</ele>
        <time>2022-06-28T09:12:40Z</time>
      </trkpt>
      <trkpt lat="47.01072" lon="-1.7704">
        <ele>65</ele>
        <time>2022-06-28T09:12:42Z</time>
      </trkpt>
      <trkpt lat="47.01082" lon="-1.77028">
        <ele>66</ele>
        <time>2022-06-28T09:12:44Z</time>
      </trkpt>
      <trkpt lat="47.01093" lon="-1.77017">
        <ele>66</ele>
        <time>2022-06-28T09:12:46Z</time>
      </trkpt>
      <trkpt lat="47.01103" lon="-1.77004">
        <ele>66</ele>
        <time>2022-06-28T09:12:48Z</time>
      </trkpt>
      <trkpt lat="47.01112" lon="-1.76993">
        <ele>66</ele>
        <time>2022-06-28T09:12:50Z</time>
      </trkpt>
      <trkpt lat="47.01122" lon="-1.76981">
        <ele>66</ele>
        <time>2022-06-28T09:12:52Z</time>
      </trkpt>
      <trkpt lat="47.01132" lon="-1.76969">
        <ele>67</ele>
        <time>2022-06-28T09:12:54Z</time>
      </trkpt>
      <trkpt lat="47.01143" lon="-1.76957">
        <ele>67</ele>
        <time>2022-06-28T09:12:56Z</time>
      </trkpt>
      <trkpt lat="47.01153" lon="-1.76946">
        <ele>68</ele>
        <time>2022-06-28T09:12:58Z</time>
      </trkpt>
      <trkpt lat="47.01163" lon="-1.76934">
        <ele>68</ele>
        <time>2022-06-28T09:13:00Z</time>
      </trkpt>
      <trkpt lat="47.01173" lon="-1.76922">
        <ele>68</ele>
        <time>2022-06-28T09:13:02Z</time>
      </trkpt>
      <trkpt lat="47.01183" lon="-1.7691">
        <ele>69</ele>
        <time>2022-06-28T09:13:04Z</time>
      </trkpt>
      <trkpt lat="47.01194" lon="-1.76898">
        <ele>69</ele>
        <time>2022-06-28T09:13:06Z</time>
      </trkpt>
      <trkpt lat="47.01205" lon="-1.76887">
        <ele>69</ele>
        <time>2022-06-28T09:13:08Z</time>
      </trkpt>
      <trkpt lat="47.01216" lon="-1.76878">
        <ele>69</ele>
        <time>2022-06-28T09:13:10Z</time>
      </trkpt>
      <trkpt lat="47.01227" lon="-1.76868">
        <ele>69</ele>
        <time>2022-06-28T09:13:12Z</time>
      </trkpt>
      <trkpt lat="47.01239" lon="-1.7686">
        <ele>69</ele>
        <time>2022-06-28T09:13:14Z</time>
      </trkpt>
      <trkpt lat="47.0125" lon="-1.76851">
        <ele>70</ele>
        <time>2022-06-28T09:13:16Z</time>
      </trkpt>
      <trkpt lat="47.01261" lon="-1.76842">
        <ele>70</ele>
        <time>2022-06-28T09:13:18Z</time>
      </trkpt>
      <trkpt lat="47.01272" lon="-1.76833">
        <ele>70</ele>
        <time>2022-06-28T09:13:20Z</time>
      </trkpt>
      <trkpt lat="47.01282" lon="-1.76822">
        <ele>70</ele>
        <time>2022-06-28T09:13:22Z</time>
      </trkpt>
      <trkpt lat="47.01291" lon="-1.7681">
        <ele>70</ele>
        <time>2022-06-28T09:13:24Z</time>
      </trkpt>
      <trkpt lat="47.013" lon="-1.76797">
        <ele>70</ele>
        <time>2022-06-28T09:13:26Z</time>
      </trkpt>
      <trkpt lat="47.01309" lon="-1.76784">
        <ele>71</ele>
        <time>2022-06-28T09:13:28Z</time>
      </trkpt>
      <trkpt lat="47.01317" lon="-1.76769">
        <ele>71</ele>
        <time>2022-06-28T09:13:30Z</time>
      </trkpt>
      <trkpt lat="47.01326" lon="-1.76755">
        <ele>71</ele>
        <time>2022-06-28T09:13:32Z</time>
      </trkpt>
      <trkpt lat="47.01334" lon="-1.76741">
        <ele>71</ele>
        <time>2022-06-28T09:13:34Z</time>
      </trkpt>
      <trkpt lat="47.01342" lon="-1.76727">
        <ele>71</ele>
        <time>2022-06-28T09:13:36Z</time>
      </trkpt>
      <trkpt lat="47.01349" lon="-1.76713">
        <ele>71</ele>
        <time>2022-06-28T09:13:38Z</time>
      </trkpt>
      <trkpt lat="47.01355" lon="-1.76698">
        <ele>71</ele>
        <time>2022-06-28T09:13:40Z</time>
      </trkpt>
      <trkpt lat="47.0136" lon="-1.76681">
        <ele>71</ele>
        <time>2022-06-28T09:13:42Z</time>
      </trkpt>
      <trkpt lat="47.01364" lon="-1.76664">
        <ele>71</ele>
        <time>2022-06-28T09:13:44Z</time>
      </trkpt>
      <trkpt lat="47.01368" lon="-1.76647">
        <ele>71</ele>
        <time>2022-06-28T09:13:46Z</time>
      </trkpt>
      <trkpt lat="47.01372" lon="-1.76628">
        <ele>71</ele>
        <time>2022-06-28T09:13:48Z</time>
      </trkpt>
      <trkpt lat="47.01376" lon="-1.7661">
        <ele>71</ele>
        <time>2022-06-28T09:13:50Z</time>
      </trkpt>
      <trkpt lat="47.0138" lon="-1.76591">
        <ele>71</ele>
        <time>2022-06-28T09:13:52Z</time>
      </trkpt>
      <trkpt lat="47.01383" lon="-1.76572">
        <ele>71</ele>
        <time>2022-06-28T09:13:54Z</time>
      </trkpt>
      <trkpt lat="47.01387" lon="-1.76553">
        <ele>71</ele>
        <time>2022-06-28T09:13:56Z</time>
      </trkpt>
      <trkpt lat="47.01391" lon="-1.76534">
        <ele>71</ele>
        <time>2022-06-28T09:13:58Z</time>
      </trkpt>
      <trkpt lat="47.01396" lon="-1.76515">
        <ele>71</ele>
        <time>2022-06-28T09:14:00Z</time>
      </trkpt>
      <trkpt lat="47.01401" lon="-1.76495">
        <ele>71</ele>
        <time>2022-06-28T09:14:02Z</time>
      </trkpt>
      <trkpt lat="47.01407" lon="-1.76477">
        <ele>71</ele>
        <time>2022-06-28T09:14:04Z</time>
      </trkpt>
      <trkpt lat="47.01415" lon="-1.76458">
        <ele>71</ele>
        <time>2022-06-28T09:14:06Z</time>
      </trkpt>
      <trkpt lat="47.01422" lon="-1.7644">
        <ele>71</ele>
        <time>2022-06-28T09:14:08Z</time>
      </trkpt>
      <trkpt lat="47.01431" lon="-1.76423">
        <ele>70</ele>
        <time>2022-06-28T09:14:10Z</time>
      </trkpt>
      <trkpt lat="47.01439" lon="-1.76406">
        <ele>70</ele>
        <time>2022-06-28T09:14:12Z</time>
      </trkpt>
      <trkpt lat="47.01448" lon="-1.76389">
        <ele>70</ele>
        <time>2022-06-28T09:14:14Z</time>
      </trkpt>
      <trkpt lat="47.01456" lon="-1.76371">
        <ele>71</ele>
        <time>2022-06-28T09:14:16Z</time>
      </trkpt>
      <trkpt lat="47.01464" lon="-1.76354">
        <ele>70</ele>
        <time>2022-06-28T09:14:18Z</time>
      </trkpt>
      <trkpt lat="47.01473" lon="-1.76336">
        <ele>70</ele>
        <time>2022-06-28T09:14:20Z</time>
      </trkpt>
      <trkpt lat="47.01478" lon="-1.76317">
        <ele>69</ele>
        <time>2022-06-28T09:14:22Z</time>
      </trkpt>
      <trkpt lat="47.01476" lon="-1.76296">
        <ele>69</ele>
        <time>2022-06-28T09:14:24Z</time>
      </trkpt>
      <trkpt lat="47.01468" lon="-1.76276">
        <ele>69</ele>
        <time>2022-06-28T09:14:26Z</time>
      </trkpt>
      <trkpt lat="47.01461" lon="-1.76258">
        <ele>69</ele>
        <time>2022-06-28T09:14:28Z</time>
      </trkpt>
      <trkpt lat="47.01453" lon="-1.76239">
        <ele>70</ele>
        <time>2022-06-28T09:14:30Z</time>
      </trkpt>
      <trkpt lat="47.01445" lon="-1.76221">
        <ele>69</ele>
        <time>2022-06-28T09:14:32Z</time>
      </trkpt>
      <trkpt lat="47.01438" lon="-1.76202">
        <ele>69</ele>
        <time>2022-06-28T09:14:34Z</time>
      </trkpt>
      <trkpt lat="47.0143" lon="-1.76183">
        <ele>68</ele>
        <time>2022-06-28T09:14:36Z</time>
      </trkpt>
      <trkpt lat="47.01422" lon="-1.76164">
        <ele>68</ele>
        <time>2022-06-28T09:14:38Z</time>
      </trkpt>
      <trkpt lat="47.01415" lon="-1.76145">
        <ele>68</ele>
        <time>2022-06-28T09:14:40Z</time>
      </trkpt>
      <trkpt lat="47.01407" lon="-1.76127">
        <ele>68</ele>
        <time>2022-06-28T09:14:42Z</time>
      </trkpt>
      <trkpt lat="47.014" lon="-1.76108">
        <ele>68</ele>
        <time>2022-06-28T09:14:44Z</time>
      </trkpt>
      <trkpt lat="47.01393" lon="-1.76089">
        <ele>67</ele>
        <time>2022-06-28T09:14:46Z</time>
      </trkpt>
      <trkpt lat="47.01386" lon="-1.76071">
        <ele>67</ele>
        <time>2022-06-28T09:14:48Z</time>
      </trkpt>
      <trkpt lat="47.01379" lon="-1.76053">
        <ele>67</ele>
        <time>2022-06-28T09:14:50Z</time>
      </trkpt>
      <trkpt lat="47.01372" lon="-1.76035">
        <ele>67</ele>
        <time>2022-06-28T09:14:52Z</time>
      </trkpt>
      <trkpt lat="47.01365" lon="-1.76017">
        <ele>67</ele>
        <time>2022-06-28T09:14:54Z</time>
      </trkpt>
      <trkpt lat="47.01357" lon="-1.75999">
        <ele>67</ele>
        <time>2022-06-28T09:14:56Z</time>
      </trkpt>
      <trkpt lat="47.0135" lon="-1.75981">
        <ele>67</ele>
        <time>2022-06-28T09:14:58Z</time>
      </trkpt>
      <trkpt lat="47.01343" lon="-1.75963">
        <ele>67</ele>
        <time>2022-06-28T09:15:00Z</time>
      </trkpt>
      <trkpt lat="47.01336" lon="-1.75946">
        <ele>67</ele>
        <time>2022-06-28T09:15:02Z</time>
      </trkpt>
      <trkpt lat="47.01329" lon="-1.75928">
        <ele>66</ele>
        <time>2022-06-28T09:15:04Z</time>
      </trkpt>
      <trkpt lat="47.01322" lon="-1.75909">
        <ele>66</ele>
        <time>2022-06-28T09:15:06Z</time>
      </trkpt>
      <trkpt lat="47.01314" lon="-1.7589">
        <ele>65</ele>
        <time>2022-06-28T09:15:08Z</time>
      </trkpt>
      <trkpt lat="47.01307" lon="-1.75871">
        <ele>65</ele>
        <time>2022-06-28T09:15:10Z</time>
      </trkpt>
      <trkpt lat="47.01299" lon="-1.75852">
        <ele>65</ele>
        <time>2022-06-28T09:15:12Z</time>
      </trkpt>
      <trkpt lat="47.01291" lon="-1.75834">
        <ele>65</ele>
        <time>2022-06-28T09:15:14Z</time>
      </trkpt>
      <trkpt lat="47.01283" lon="-1.75814">
        <ele>65</ele>
        <time>2022-06-28T09:15:16Z</time>
      </trkpt>
      <trkpt lat="47.01276" lon="-1.75795">
        <ele>65</ele>
        <time>2022-06-28T09:15:18Z</time>
      </trkpt>
      <trkpt lat="47.01268" lon="-1.75776">
        <ele>66</ele>
        <time>2022-06-28T09:15:20Z</time>
      </trkpt>
      <trkpt lat="47.01261" lon="-1.75757">
        <ele>66</ele>
        <time>2022-06-28T09:15:22Z</time>
      </trkpt>
      <trkpt lat="47.01254" lon="-1.75739">
        <ele>66</ele>
        <time>2022-06-28T09:15:24Z</time>
      </trkpt>
      <trkpt lat="47.01248" lon="-1.75721">
        <ele>67</ele>
        <time>2022-06-28T09:15:26Z</time>
      </trkpt>
      <trkpt lat="47.01241" lon="-1.75706">
        <ele>67</ele>
        <time>2022-06-28T09:15:28Z</time>
      </trkpt>
      <trkpt lat="47.01234" lon="-1.7569">
        <ele>67</ele>
        <time>2022-06-28T09:15:30Z</time>
      </trkpt>
      <trkpt lat="47.01229" lon="-1.75675">
        <ele>67</ele>
        <time>2022-06-28T09:15:32Z</time>
      </trkpt>
      <trkpt lat="47.01223" lon="-1.75659">
        <ele>67</ele>
        <time>2022-06-28T09:15:34Z</time>
      </trkpt>
      <trkpt lat="47.01217" lon="-1.75645">
        <ele>67</ele>
        <time>2022-06-28T09:15:36Z</time>
      </trkpt>
      <trkpt lat="47.01211" lon="-1.75629">
        <ele>68</ele>
        <time>2022-06-28T09:15:38Z</time>
      </trkpt>
      <trkpt lat="47.01205" lon="-1.75614">
        <ele>69</ele>
        <time>2022-06-28T09:15:40Z</time>
      </trkpt>
      <trkpt lat="47.01198" lon="-1.75598">
        <ele>69</ele>
        <time>2022-06-28T09:15:42Z</time>
      </trkpt>
      <trkpt lat="47.01191" lon="-1.75584">
        <ele>70</ele>
        <time>2022-06-28T09:15:44Z</time>
      </trkpt>
      <trkpt lat="47.01184" lon="-1.75569">
        <ele>71</ele>
        <time>2022-06-28T09:15:46Z</time>
      </trkpt>
      <trkpt lat="47.01178" lon="-1.75553">
        <ele>71</ele>
        <time>2022-06-28T09:15:48Z</time>
      </trkpt>
      <trkpt lat="47.01171" lon="-1.75536">
        <ele>72</ele>
        <time>2022-06-28T09:15:50Z</time>
      </trkpt>
      <trkpt lat="47.01165" lon="-1.75519">
        <ele>72</ele>
        <time>2022-06-28T09:15:52Z</time>
      </trkpt>
      <trkpt lat="47.01158" lon="-1.75502">
        <ele>71</ele>
        <time>2022-06-28T09:15:54Z</time>
      </trkpt>
      <trkpt lat="47.01152" lon="-1.75485">
        <ele>71</ele>
        <time>2022-06-28T09:15:56Z</time>
      </trkpt>
      <trkpt lat="47.01145" lon="-1.75469">
        <ele>70</ele>
        <time>2022-06-28T09:15:58Z</time>
      </trkpt>
      <trkpt lat="47.0114" lon="-1.75453">
        <ele>71</ele>
        <time>2022-06-28T09:16:00Z</time>
      </trkpt>
      <trkpt lat="47.01133" lon="-1.75437">
        <ele>71</ele>
        <time>2022-06-28T09:16:02Z</time>
      </trkpt>
      <trkpt lat="47.01127" lon="-1.75422">
        <ele>71</ele>
        <time>2022-06-28T09:16:04Z</time>
      </trkpt>
      <trkpt lat="47.01121" lon="-1.75406">
        <ele>72</ele>
        <time>2022-06-28T09:16:06Z</time>
      </trkpt>
      <trkpt lat="47.01115" lon="-1.7539">
        <ele>72</ele>
        <time>2022-06-28T09:16:08Z</time>
      </trkpt>
      <trkpt lat="47.01109" lon="-1.75374">
        <ele>72</ele>
        <time>2022-06-28T09:16:10Z</time>
      </trkpt>
      <trkpt lat="47.01102" lon="-1.75358">
        <ele>71</ele>
        <time>2022-06-28T09:16:12Z</time>
      </trkpt>
      <trkpt lat="47.01096" lon="-1.75342">
        <ele>72</ele>
        <time>2022-06-28T09:16:14Z</time>
      </trkpt>
      <trkpt lat="47.0109" lon="-1.75327">
        <ele>72</ele>
        <time>2022-06-28T09:16:16Z</time>
      </trkpt>
      <trkpt lat="47.01084" lon="-1.75312">
        <ele>73</ele>
        <time>2022-06-28T09:16:18Z</time>
      </trkpt>
      <trkpt lat="47.01077" lon="-1.75296">
        <ele>73</ele>
        <time>2022-06-28T09:16:20Z</time>
      </trkpt>
      <trkpt lat="47.01071" lon="-1.75279">
        <ele>72</ele>
        <time>2022-06-28T09:16:22Z</time>
      </trkpt>
      <trkpt lat="47.01065" lon="-1.75263">
        <ele>72</ele>
        <time>2022-06-28T09:16:24Z</time>
      </trkpt>
      <trkpt lat="47.01059" lon="-1.75247">
        <ele>72</ele>
        <time>2022-06-28T09:16:26Z</time>
      </trkpt>
      <trkpt lat="47.01053" lon="-1.75231">
        <ele>71</ele>
        <time>2022-06-28T09:16:28Z</time>
      </trkpt>
      <trkpt lat="47.01048" lon="-1.75214">
        <ele>71</ele>
        <time>2022-06-28T09:16:30Z</time>
      </trkpt>
      <trkpt lat="47.01045" lon="-1.75196">
        <ele>71</ele>
        <time>2022-06-28T09:16:32Z</time>
      </trkpt>
      <trkpt lat="47.01043" lon="-1.75178">
        <ele>71</ele>
        <time>2022-06-28T09:16:34Z</time>
      </trkpt>
      <trkpt lat="47.01042" lon="-1.75159">
        <ele>71</ele>
        <time>2022-06-28T09:16:36Z</time>
      </trkpt>
      <trkpt lat="47.01042" lon="-1.75141">
        <ele>71</ele>
        <time>2022-06-28T09:16:38Z</time>
      </trkpt>
      <trkpt lat="47.01042" lon="-1.75122">
        <ele>70</ele>
        <time>2022-06-28T09:16:40Z</time>
      </trkpt>
      <trkpt lat="47.01042" lon="-1.75104">
        <ele>70</ele>
        <time>2022-06-28T09:16:42Z</time>
      </trkpt>
      <trkpt lat="47.01042" lon="-1.75085">
        <ele>70</ele>
        <time>2022-06-28T09:16:44Z</time>
      </trkpt>
      <trkpt lat="47.01042" lon="-1.75067">
        <ele>70</ele>
        <time>2022-06-28T09:16:46Z</time>
      </trkpt>
      <trkpt lat="47.01041" lon="-1.75048">
        <ele>69</ele>
        <time>2022-06-28T09:16:48Z</time>
      </trkpt>
      <trkpt lat="47.01041" lon="-1.75029">
        <ele>69</ele>
        <time>2022-06-28T09:16:50Z</time>
      </trkpt>
      <trkpt lat="47.01041" lon="-1.75011">
        <ele>69</ele>
        <time>2022-06-28T09:16:52Z</time>
      </trkpt>
      <trkpt lat="47.01041" lon="-1.74993">
        <ele>69</ele>
        <time>2022-06-28T09:16:54Z</time>
      </trkpt>
      <trkpt lat="47.01041" lon="-1.74974">
        <ele>69</ele>
        <time>2022-06-28T09:16:56Z</time>
      </trkpt>
      <trkpt lat="47.01041" lon="-1.74956">
        <ele>69</ele>
        <time>2022-06-28T09:16:58Z</time>
      </trkpt>
      <trkpt lat="47.0104" lon="-1.74937">
        <ele>69</ele>
        <time>2022-06-28T09:17:00Z</time>
      </trkpt>
      <trkpt lat="47.0104" lon="-1.74918">
        <ele>69</ele>
        <time>2022-06-28T09:17:02Z</time>
      </trkpt>
      <trkpt lat="47.0104" lon="-1.749">
        <ele>69</ele>
        <time>2022-06-28T09:17:04Z</time>
      </trkpt>
      <trkpt lat="47.0104" lon="-1.74881">
        <ele>69</ele>
        <time>2022-06-28T09:17:06Z</time>
      </trkpt>
      <trkpt lat="47.0104" lon="-1.74863">
        <ele>69</ele>
        <time>2022-06-28T09:17:08Z</time>
      </trkpt>
      <trkpt lat="47.01039" lon="-1.74845">
        <ele>69</ele>
        <time>2022-06-28T09:17:10Z</time>
      </trkpt>
      <trkpt lat="47.01039" lon="-1.74826">
        <ele>68</ele>
        <time>2022-06-28T09:17:12Z</time>
      </trkpt>
      <trkpt lat="47.01039" lon="-1.74808">
        <ele>68</ele>
        <time>2022-06-28T09:17:14Z</time>
      </trkpt>
      <trkpt lat="47.01038" lon="-1.74791">
        <ele>69</ele>
        <time>2022-06-28T09:17:16Z</time>
      </trkpt>
      <trkpt lat="47.01038" lon="-1.74772">
        <ele>69</ele>
        <time>2022-06-28T09:17:18Z</time>
      </trkpt>
      <trkpt lat="47.01037" lon="-1.74754">
        <ele>69</ele>
        <time>2022-06-28T09:17:20Z</time>
      </trkpt>
      <trkpt lat="47.01037" lon="-1.74736">
        <ele>69</ele>
        <time>2022-06-28T09:17:22Z</time>
      </trkpt>
      <trkpt lat="47.01036" lon="-1.74717">
        <ele>69</ele>
        <time>2022-06-28T09:17:24Z</time>
      </trkpt>
      <trkpt lat="47.01036" lon="-1.74699">
        <ele>69</ele>
        <time>2022-06-28T09:17:26Z</time>
      </trkpt>
      <trkpt lat="47.01035" lon="-1.74679">
        <ele>69</ele>
        <time>2022-06-28T09:17:28Z</time>
      </trkpt>
      <trkpt lat="47.01036" lon="-1.74661">
        <ele>69</ele>
        <time>2022-06-28T09:17:30Z</time>
      </trkpt>
      <trkpt lat="47.01036" lon="-1.74642">
        <ele>69</ele>
        <time>2022-06-28T09:17:32Z</time>
      </trkpt>
      <trkpt lat="47.01036" lon="-1.74624">
        <ele>69</ele>
        <time>2022-06-28T09:17:34Z</time>
      </trkpt>
      <trkpt lat="47.01036" lon="-1.74605">
        <ele>69</ele>
        <time>2022-06-28T09:17:36Z</time>
      </trkpt>
      <trkpt lat="47.01035" lon="-1.74586">
        <ele>69</ele>
        <time>2022-06-28T09:17:38Z</time>
      </trkpt>
      <trkpt lat="47.01037" lon="-1.74568">
        <ele>69</ele>
        <time>2022-06-28T09:17:40Z</time>
      </trkpt>
      <trkpt lat="47.01039" lon="-1.74549">
        <ele>69</ele>
        <time>2022-06-28T09:17:42Z</time>
      </trkpt>
      <trkpt lat="47.01044" lon="-1.74531">
        <ele>69</ele>
        <time>2022-06-28T09:17:44Z</time>
      </trkpt>
      <trkpt lat="47.01049" lon="-1.74514">
        <ele>69</ele>
        <time>2022-06-28T09:17:46Z</time>
      </trkpt>
      <trkpt lat="47.01055" lon="-1.74498">
        <ele>69</ele>
        <time>2022-06-28T09:17:48Z</time>
      </trkpt>
      <trkpt lat="47.01061" lon="-1.74481">
        <ele>69</ele>
        <time>2022-06-28T09:17:50Z</time>
      </trkpt>
      <trkpt lat="47.01067" lon="-1.74464">
        <ele>69</ele>
        <time>2022-06-28T09:17:52Z</time>
      </trkpt>
      <trkpt lat="47.01072" lon="-1.74447">
        <ele>70</ele>
        <time>2022-06-28T09:17:54Z</time>
      </trkpt>
      <trkpt lat="47.01077" lon="-1.74429">
        <ele>69</ele>
        <time>2022-06-28T09:17:56Z</time>
      </trkpt>
      <trkpt lat="47.01082" lon="-1.74411">
        <ele>69</ele>
        <time>2022-06-28T09:17:58Z</time>
      </trkpt>
      <trkpt lat="47.01086" lon="-1.74393">
        <ele>69</ele>
        <time>2022-06-28T09:18:00Z</time>
      </trkpt>
      <trkpt lat="47.0109" lon="-1.74375">
        <ele>69</ele>
        <time>2022-06-28T09:18:02Z</time>
      </trkpt>
      <trkpt lat="47.01095" lon="-1.74357">
        <ele>69</ele>
        <time>2022-06-28T09:18:04Z</time>
      </trkpt>
      <trkpt lat="47.01099" lon="-1.7434">
        <ele>69</ele>
        <time>2022-06-28T09:18:06Z</time>
      </trkpt>
      <trkpt lat="47.01103" lon="-1.74323">
        <ele>69</ele>
        <time>2022-06-28T09:18:08Z</time>
      </trkpt>
      <trkpt lat="47.01108" lon="-1.74305">
        <ele>69</ele>
        <time>2022-06-28T09:18:10Z</time>
      </trkpt>
      <trkpt lat="47.01112" lon="-1.74288">
        <ele>69</ele>
        <time>2022-06-28T09:18:12Z</time>
      </trkpt>
      <trkpt lat="47.01116" lon="-1.7427">
        <ele>69</ele>
        <time>2022-06-28T09:18:14Z</time>
      </trkpt>
      <trkpt lat="47.0112" lon="-1.74253">
        <ele>69</ele>
        <time>2022-06-28T09:18:16Z</time>
      </trkpt>
      <trkpt lat="47.01125" lon="-1.74235">
        <ele>69</ele>
        <time>2022-06-28T09:18:18Z</time>
      </trkpt>
      <trkpt lat="47.01129" lon="-1.74218">
        <ele>69</ele>
        <time>2022-06-28T09:18:20Z</time>
      </trkpt>
      <trkpt lat="47.01134" lon="-1.742">
        <ele>70</ele>
        <time>2022-06-28T09:18:22Z</time>
      </trkpt>
      <trkpt lat="47.01138" lon="-1.74182">
        <ele>70</ele>
        <time>2022-06-28T09:18:24Z</time>
      </trkpt>
      <trkpt lat="47.01143" lon="-1.74164">
        <ele>70</ele>
        <time>2022-06-28T09:18:26Z</time>
      </trkpt>
      <trkpt lat="47.01147" lon="-1.74146">
        <ele>70</ele>
        <time>2022-06-28T09:18:28Z</time>
      </trkpt>
      <trkpt lat="47.01151" lon="-1.74129">
        <ele>70</ele>
        <time>2022-06-28T09:18:30Z</time>
      </trkpt>
      <trkpt lat="47.01156" lon="-1.74111">
        <ele>70</ele>
        <time>2022-06-28T09:18:32Z</time>
      </trkpt>
      <trkpt lat="47.0116" lon="-1.74095">
        <ele>71</ele>
        <time>2022-06-28T09:18:34Z</time>
      </trkpt>
      <trkpt lat="47.01164" lon="-1.74078">
        <ele>72</ele>
        <time>2022-06-28T09:18:36Z</time>
      </trkpt>
      <trkpt lat="47.01168" lon="-1.74062">
        <ele>74</ele>
        <time>2022-06-28T09:18:38Z</time>
      </trkpt>
      <trkpt lat="47.01171" lon="-1.74045">
        <ele>74</ele>
        <time>2022-06-28T09:18:40Z</time>
      </trkpt>
      <trkpt lat="47.01176" lon="-1.74028">
        <ele>75</ele>
        <time>2022-06-28T09:18:42Z</time>
      </trkpt>
      <trkpt lat="47.0118" lon="-1.74011">
        <ele>75</ele>
        <time>2022-06-28T09:18:44Z</time>
      </trkpt>
      <trkpt lat="47.01184" lon="-1.73994">
        <ele>75</ele>
        <time>2022-06-28T09:18:46Z</time>
      </trkpt>
      <trkpt lat="47.01188" lon="-1.73977">
        <ele>76</ele>
        <time>2022-06-28T09:18:48Z</time>
      </trkpt>
      <trkpt lat="47.01192" lon="-1.73961">
        <ele>76</ele>
        <time>2022-06-28T09:18:50Z</time>
      </trkpt>
      <trkpt lat="47.01197" lon="-1.73943">
        <ele>76</ele>
        <time>2022-06-28T09:18:52Z</time>
      </trkpt>
      <trkpt lat="47.012" lon="-1.73926">
        <ele>76</ele>
        <time>2022-06-28T09:18:54Z</time>
      </trkpt>
      <trkpt lat="47.01202" lon="-1.73908">
        <ele>75</ele>
        <time>2022-06-28T09:18:56Z</time>
      </trkpt>
      <trkpt lat="47.01204" lon="-1.7389">
        <ele>74</ele>
        <time>2022-06-28T09:18:58Z</time>
      </trkpt>
      <trkpt lat="47.01205" lon="-1.73872">
        <ele>74</ele>
        <time>2022-06-28T09:19:00Z</time>
      </trkpt>
      <trkpt lat="47.01206" lon="-1.73854">
        <ele>73</ele>
        <time>2022-06-28T09:19:02Z</time>
      </trkpt>
      <trkpt lat="47.01207" lon="-1.73837">
        <ele>73</ele>
        <time>2022-06-28T09:19:04Z</time>
      </trkpt>
      <trkpt lat="47.01208" lon="-1.73819">
        <ele>73</ele>
        <time>2022-06-28T09:19:06Z</time>
      </trkpt>
      <trkpt lat="47.01208" lon="-1.73801">
        <ele>73</ele>
        <time>2022-06-28T09:19:08Z</time>
      </trkpt>
      <trkpt lat="47.01209" lon="-1.73784">
        <ele>73</ele>
        <time>2022-06-28T09:19:10Z</time>
      </trkpt>
      <trkpt lat="47.0121" lon="-1.73766">
        <ele>72</ele>
        <time>2022-06-28T09:19:12Z</time>
      </trkpt>
      <trkpt lat="47.01211" lon="-1.73747">
        <ele>72</ele>
        <time>2022-06-28T09:19:14Z</time>
      </trkpt>
      <trkpt lat="47.01212" lon="-1.73729">
        <ele>73</ele>
        <time>2022-06-28T09:19:16Z</time>
      </trkpt>
      <trkpt lat="47.01213" lon="-1.73712">
        <ele>72</ele>
        <time>2022-06-28T09:19:18Z</time>
      </trkpt>
      <trkpt lat="47.01213" lon="-1.73694">
        <ele>73</ele>
        <time>2022-06-28T09:19:20Z</time>
      </trkpt>
      <trkpt lat="47.01214" lon="-1.73675">
        <ele>73</ele>
        <time>2022-06-28T09:19:22Z</time>
      </trkpt>
      <trkpt lat="47.01215" lon="-1.73656">
        <ele>73</ele>
        <time>2022-06-28T09:19:24Z</time>
      </trkpt>
      <trkpt lat="47.01215" lon="-1.73638">
        <ele>74</ele>
        <time>2022-06-28T09:19:26Z</time>
      </trkpt>
      <trkpt lat="47.01216" lon="-1.7362">
        <ele>74</ele>
        <time>2022-06-28T09:19:28Z</time>
      </trkpt>
      <trkpt lat="47.01217" lon="-1.73603">
        <ele>74</ele>
        <time>2022-06-28T09:19:30Z</time>
      </trkpt>
      <trkpt lat="47.01217" lon="-1.73586">
        <ele>74</ele>
        <time>2022-06-28T09:19:32Z</time>
      </trkpt>
      <trkpt lat="47.01218" lon="-1.73569">
        <ele>74</ele>
        <time>2022-06-28T09:19:34Z</time>
      </trkpt>
      <trkpt lat="47.01219" lon="-1.73552">
        <ele>74</ele>
        <time>2022-06-28T09:19:36Z</time>
      </trkpt>
      <trkpt lat="47.01219" lon="-1.73533">
        <ele>74</ele>
        <time>2022-06-28T09:19:38Z</time>
      </trkpt>
      <trkpt lat="47.01221" lon="-1.73517">
        <ele>74</ele>
        <time>2022-06-28T09:19:40Z</time>
      </trkpt>
      <trkpt lat="47.01221" lon="-1.73502">
        <ele>73</ele>
        <time>2022-06-28T09:19:42Z</time>
      </trkpt>
      <trkpt lat="47.0122" lon="-1.73489">
        <ele>73</ele>
        <time>2022-06-28T09:19:44Z</time>
      </trkpt>
      <trkpt lat="47.01206" lon="-1.73482">
        <ele>73</ele>
        <time>2022-06-28T09:19:47Z</time>
      </trkpt>
      <trkpt lat="47.01195" lon="-1.73479">
        <ele>73</ele>
        <time>2022-06-28T09:19:49Z</time>
      </trkpt>
      <trkpt lat="47.01183" lon="-1.73477">
        <ele>73</ele>
        <time>2022-06-28T09:19:51Z</time>
      </trkpt>
      <trkpt lat="47.0117" lon="-1.73474">
        <ele>73</ele>
        <time>2022-06-28T09:19:53Z</time>
      </trkpt>
      <trkpt lat="47.01157" lon="-1.73471">
        <ele>74</ele>
        <time>2022-06-28T09:19:55Z</time>
      </trkpt>
      <trkpt lat="47.01146" lon="-1.73467">
        <ele>74</ele>
        <time>2022-06-28T09:19:57Z</time>
      </trkpt>
      <trkpt lat="47.01133" lon="-1.73463">
        <ele>74</ele>
        <time>2022-06-28T09:19:59Z</time>
      </trkpt>
      <trkpt lat="47.0112" lon="-1.7346">
        <ele>74</ele>
        <time>2022-06-28T09:20:01Z</time>
      </trkpt>
      <trkpt lat="47.01107" lon="-1.73457">
        <ele>74</ele>
        <time>2022-06-28T09:20:03Z</time>
      </trkpt>
      <trkpt lat="47.01097" lon="-1.7345">
        <ele>74</ele>
        <time>2022-06-28T09:20:05Z</time>
      </trkpt>
      <trkpt lat="47.01098" lon="-1.73431">
        <ele>75</ele>
        <time>2022-06-28T09:20:07Z</time>
      </trkpt>
      <trkpt lat="47.01106" lon="-1.73415">
        <ele>75</ele>
        <time>2022-06-28T09:20:09Z</time>
      </trkpt>
      <trkpt lat="47.01114" lon="-1.73399">
        <ele>75</ele>
        <time>2022-06-28T09:20:11Z</time>
      </trkpt>
      <trkpt lat="47.01121" lon="-1.73384">
        <ele>75</ele>
        <time>2022-06-28T09:20:13Z</time>
      </trkpt>
      <trkpt lat="47.01128" lon="-1.7337">
        <ele>75</ele>
        <time>2022-06-28T09:20:15Z</time>
      </trkpt>
      <trkpt lat="47.01135" lon="-1.73355">
        <ele>75</ele>
        <time>2022-06-28T09:20:17Z</time>
      </trkpt>
      <trkpt lat="47.01141" lon="-1.73339">
        <ele>75</ele>
        <time>2022-06-28T09:20:19Z</time>
      </trkpt>
      <trkpt lat="47.01148" lon="-1.73323">
        <ele>75</ele>
        <time>2022-06-28T09:20:21Z</time>
      </trkpt>
      <trkpt lat="47.01154" lon="-1.73307">
        <ele>75</ele>
        <time>2022-06-28T09:20:23Z</time>
      </trkpt>
      <trkpt lat="47.01161" lon="-1.73291">
        <ele>75</ele>
        <time>2022-06-28T09:20:25Z</time>
      </trkpt>
      <trkpt lat="47.01167" lon="-1.73276">
        <ele>75</ele>
        <time>2022-06-28T09:20:27Z</time>
      </trkpt>
      <trkpt lat="47.01174" lon="-1.73261">
        <ele>76</ele>
        <time>2022-06-28T09:20:29Z</time>
      </trkpt>
      <trkpt lat="47.01181" lon="-1.73245">
        <ele>76</ele>
        <time>2022-06-28T09:20:31Z</time>
      </trkpt>
      <trkpt lat="47.01188" lon="-1.73229">
        <ele>76</ele>
        <time>2022-06-28T09:20:33Z</time>
      </trkpt>
      <trkpt lat="47.01195" lon="-1.73213">
        <ele>77</ele>
        <time>2022-06-28T09:20:35Z</time>
      </trkpt>
      <trkpt lat="47.01202" lon="-1.73196">
        <ele>76</ele>
        <time>2022-06-28T09:20:37Z</time>
      </trkpt>
      <trkpt lat="47.01209" lon="-1.7318">
        <ele>76</ele>
        <time>2022-06-28T09:20:39Z</time>
      </trkpt>
      <trkpt lat="47.01216" lon="-1.73164">
        <ele>76</ele>
        <time>2022-06-28T09:20:41Z</time>
      </trkpt>
      <trkpt lat="47.01224" lon="-1.73149">
        <ele>75</ele>
        <time>2022-06-28T09:20:43Z</time>
      </trkpt>
      <trkpt lat="47.01231" lon="-1.73132">
        <ele>75</ele>
        <time>2022-06-28T09:20:45Z</time>
      </trkpt>
      <trkpt lat="47.01238" lon="-1.73116">
        <ele>75</ele>
        <time>2022-06-28T09:20:47Z</time>
      </trkpt>
      <trkpt lat="47.01245" lon="-1.731">
        <ele>75</ele>
        <time>2022-06-28T09:20:49Z</time>
      </trkpt>
      <trkpt lat="47.01252" lon="-1.73084">
        <ele>75</ele>
        <time>2022-06-28T09:20:51Z</time>
      </trkpt>
      <trkpt lat="47.01259" lon="-1.73069">
        <ele>75</ele>
        <time>2022-06-28T09:20:53Z</time>
      </trkpt>
      <trkpt lat="47.01265" lon="-1.73053">
        <ele>74</ele>
        <time>2022-06-28T09:20:55Z</time>
      </trkpt>
      <trkpt lat="47.01272" lon="-1.73038">
        <ele>75</ele>
        <time>2022-06-28T09:20:57Z</time>
      </trkpt>
      <trkpt lat="47.01278" lon="-1.73023">
        <ele>74</ele>
        <time>2022-06-28T09:20:59Z</time>
      </trkpt>
      <trkpt lat="47.01285" lon="-1.73009">
        <ele>74</ele>
        <time>2022-06-28T09:21:01Z</time>
      </trkpt>
      <trkpt lat="47.01292" lon="-1.72993">
        <ele>75</ele>
        <time>2022-06-28T09:21:03Z</time>
      </trkpt>
      <trkpt lat="47.01298" lon="-1.72979">
        <ele>74</ele>
        <time>2022-06-28T09:21:05Z</time>
      </trkpt>
      <trkpt lat="47.01305" lon="-1.72964">
        <ele>75</ele>
        <time>2022-06-28T09:21:07Z</time>
      </trkpt>
      <trkpt lat="47.01311" lon="-1.72949">
        <ele>75</ele>
        <time>2022-06-28T09:21:09Z</time>
      </trkpt>
      <trkpt lat="47.01318" lon="-1.72933">
        <ele>75</ele>
        <time>2022-06-28T09:21:11Z</time>
      </trkpt>
      <trkpt lat="47.01325" lon="-1.72919">
        <ele>75</ele>
        <time>2022-06-28T09:21:13Z</time>
      </trkpt>
      <trkpt lat="47.01331" lon="-1.72903">
        <ele>75</ele>
        <time>2022-06-28T09:21:15Z</time>
      </trkpt>
      <trkpt lat="47.01338" lon="-1.72889">
        <ele>75</ele>
        <time>2022-06-28T09:21:17Z</time>
      </trkpt>
      <trkpt lat="47.01344" lon="-1.72874">
        <ele>75</ele>
        <time>2022-06-28T09:21:19Z</time>
      </trkpt>
      <trkpt lat="47.0135" lon="-1.72859">
        <ele>74</ele>
        <time>2022-06-28T09:21:21Z</time>
      </trkpt>
      <trkpt lat="47.01356" lon="-1.72844">
        <ele>74</ele>
        <time>2022-06-28T09:21:23Z</time>
      </trkpt>
      <trkpt lat="47.01363" lon="-1.72829">
        <ele>75</ele>
        <time>2022-06-28T09:21:25Z</time>
      </trkpt>
      <trkpt lat="47.01369" lon="-1.72814">
        <ele>75</ele>
        <time>2022-06-28T09:21:27Z</time>
      </trkpt>
      <trkpt lat="47.01376" lon="-1.72799">
        <ele>75</ele>
        <time>2022-06-28T09:21:29Z</time>
      </trkpt>
      <trkpt lat="47.01383" lon="-1.72785">
        <ele>75</ele>
        <time>2022-06-28T09:21:31Z</time>
      </trkpt>
      <trkpt lat="47.01389" lon="-1.7277">
        <ele>75</ele>
        <time>2022-06-28T09:21:33Z</time>
      </trkpt>
      <trkpt lat="47.01395" lon="-1.72755">
        <ele>75</ele>
        <time>2022-06-28T09:21:35Z</time>
      </trkpt>
      <trkpt lat="47.01402" lon="-1.72741">
        <ele>75</ele>
        <time>2022-06-28T09:21:37Z</time>
      </trkpt>
      <trkpt lat="47.01408" lon="-1.72726">
        <ele>75</ele>
        <time>2022-06-28T09:21:39Z</time>
      </trkpt>
      <trkpt lat="47.01414" lon="-1.72711">
        <ele>75</ele>
        <time>2022-06-28T09:21:41Z</time>
      </trkpt>
      <trkpt lat="47.0142" lon="-1.72695">
        <ele>75</ele>
        <time>2022-06-28T09:21:43Z</time>
      </trkpt>
      <trkpt lat="47.01427" lon="-1.7268">
        <ele>75</ele>
        <time>2022-06-28T09:21:45Z</time>
      </trkpt>
      <trkpt lat="47.01433" lon="-1.72667">
        <ele>75</ele>
        <time>2022-06-28T09:21:47Z</time>
      </trkpt>
      <trkpt lat="47.0144" lon="-1.72652">
        <ele>75</ele>
        <time>2022-06-28T09:21:49Z</time>
      </trkpt>
      <trkpt lat="47.01447" lon="-1.72638">
        <ele>75</ele>
        <time>2022-06-28T09:21:51Z</time>
      </trkpt>
      <trkpt lat="47.01454" lon="-1.72623">
        <ele>76</ele>
        <time>2022-06-28T09:21:53Z</time>
      </trkpt>
      <trkpt lat="47.0146" lon="-1.72608">
        <ele>76</ele>
        <time>2022-06-28T09:21:55Z</time>
      </trkpt>
      <trkpt lat="47.01466" lon="-1.72595">
        <ele>76</ele>
        <time>2022-06-28T09:21:57Z</time>
      </trkpt>
      <trkpt lat="47.01472" lon="-1.72581">
        <ele>77</ele>
        <time>2022-06-28T09:21:59Z</time>
      </trkpt>
      <trkpt lat="47.01477" lon="-1.72566">
        <ele>77</ele>
        <time>2022-06-28T09:22:01Z</time>
      </trkpt>
      <trkpt lat="47.01484" lon="-1.7255">
        <ele>78</ele>
        <time>2022-06-28T09:22:03Z</time>
      </trkpt>
      <trkpt lat="47.01491" lon="-1.72534">
        <ele>79</ele>
        <time>2022-06-28T09:22:05Z</time>
      </trkpt>
      <trkpt lat="47.01499" lon="-1.72518">
        <ele>79</ele>
        <time>2022-06-28T09:22:07Z</time>
      </trkpt>
      <trkpt lat="47.01506" lon="-1.72501">
        <ele>78</ele>
        <time>2022-06-28T09:22:09Z</time>
      </trkpt>
      <trkpt lat="47.01512" lon="-1.72487">
        <ele>78</ele>
        <time>2022-06-28T09:22:11Z</time>
      </trkpt>
      <trkpt lat="47.01519" lon="-1.72471">
        <ele>78</ele>
        <time>2022-06-28T09:22:13Z</time>
      </trkpt>
      <trkpt lat="47.01525" lon="-1.72456">
        <ele>78</ele>
        <time>2022-06-28T09:22:15Z</time>
      </trkpt>
      <trkpt lat="47.01532" lon="-1.7244">
        <ele>78</ele>
        <time>2022-06-28T09:22:17Z</time>
      </trkpt>
      <trkpt lat="47.01538" lon="-1.72425">
        <ele>78</ele>
        <time>2022-06-28T09:22:19Z</time>
      </trkpt>
      <trkpt lat="47.01545" lon="-1.72409">
        <ele>78</ele>
        <time>2022-06-28T09:22:21Z</time>
      </trkpt>
      <trkpt lat="47.01551" lon="-1.72394">
        <ele>78</ele>
        <time>2022-06-28T09:22:23Z</time>
      </trkpt>
      <trkpt lat="47.01557" lon="-1.7238">
        <ele>78</ele>
        <time>2022-06-28T09:22:25Z</time>
      </trkpt>
      <trkpt lat="47.01564" lon="-1.72365">
        <ele>78</ele>
        <time>2022-06-28T09:22:27Z</time>
      </trkpt>
      <trkpt lat="47.01571" lon="-1.7235">
        <ele>78</ele>
        <time>2022-06-28T09:22:29Z</time>
      </trkpt>
      <trkpt lat="47.01577" lon="-1.72336">
        <ele>78</ele>
        <time>2022-06-28T09:22:31Z</time>
      </trkpt>
      <trkpt lat="47.01584" lon="-1.72321">
        <ele>78</ele>
        <time>2022-06-28T09:22:33Z</time>
      </trkpt>
      <trkpt lat="47.0159" lon="-1.72306">
        <ele>78</ele>
        <time>2022-06-28T09:22:35Z</time>
      </trkpt>
      <trkpt lat="47.01596" lon="-1.72291">
        <ele>77</ele>
        <time>2022-06-28T09:22:37Z</time>
      </trkpt>
      <trkpt lat="47.01603" lon="-1.72276">
        <ele>78</ele>
        <time>2022-06-28T09:22:39Z</time>
      </trkpt>
      <trkpt lat="47.01609" lon="-1.72261">
        <ele>77</ele>
        <time>2022-06-28T09:22:41Z</time>
      </trkpt>
      <trkpt lat="47.01614" lon="-1.72245">
        <ele>78</ele>
        <time>2022-06-28T09:22:43Z</time>
      </trkpt>
      <trkpt lat="47.0162" lon="-1.7223">
        <ele>78</ele>
        <time>2022-06-28T09:22:45Z</time>
      </trkpt>
      <trkpt lat="47.01625" lon="-1.72214">
        <ele>78</ele>
        <time>2022-06-28T09:22:47Z</time>
      </trkpt>
      <trkpt lat="47.0163" lon="-1.72198">
        <ele>79</ele>
        <time>2022-06-28T09:22:49Z</time>
      </trkpt>
      <trkpt lat="47.01636" lon="-1.72183">
        <ele>79</ele>
        <time>2022-06-28T09:22:51Z</time>
      </trkpt>
      <trkpt lat="47.01642" lon="-1.72167">
        <ele>79</ele>
        <time>2022-06-28T09:22:53Z</time>
      </trkpt>
      <trkpt lat="47.01647" lon="-1.72151">
        <ele>79</ele>
        <time>2022-06-28T09:22:55Z</time>
      </trkpt>
      <trkpt lat="47.01653" lon="-1.72135">
        <ele>80</ele>
        <time>2022-06-28T09:22:57Z</time>
      </trkpt>
      <trkpt lat="47.01658" lon="-1.72119">
        <ele>80</ele>
        <time>2022-06-28T09:22:59Z</time>
      </trkpt>
      <trkpt lat="47.01664" lon="-1.72104">
        <ele>80</ele>
        <time>2022-06-28T09:23:01Z</time>
      </trkpt>
      <trkpt lat="47.01669" lon="-1.72089">
        <ele>81</ele>
        <time>2022-06-28T09:23:03Z</time>
      </trkpt>
      <trkpt lat="47.01674" lon="-1.72073">
        <ele>81</ele>
        <time>2022-06-28T09:23:05Z</time>
      </trkpt>
      <trkpt lat="47.0168" lon="-1.72058">
        <ele>81</ele>
        <time>2022-06-28T09:23:07Z</time>
      </trkpt>
      <trkpt lat="47.01685" lon="-1.72043">
        <ele>81</ele>
        <time>2022-06-28T09:23:09Z</time>
      </trkpt>
      <trkpt lat="47.0169" lon="-1.72027">
        <ele>82</ele>
        <time>2022-06-28T09:23:11Z</time>
      </trkpt>
      <trkpt lat="47.01695" lon="-1.72012">
        <ele>82</ele>
        <time>2022-06-28T09:23:13Z</time>
      </trkpt>
      <trkpt lat="47.01701" lon="-1.71995">
        <ele>82</ele>
        <time>2022-06-28T09:23:15Z</time>
      </trkpt>
      <trkpt lat="47.01706" lon="-1.71979">
        <ele>81</ele>
        <time>2022-06-28T09:23:17Z</time>
      </trkpt>
      <trkpt lat="47.01711" lon="-1.71965">
        <ele>82</ele>
        <time>2022-06-28T09:23:19Z</time>
      </trkpt>
      <trkpt lat="47.01716" lon="-1.7195">
        <ele>82</ele>
        <time>2022-06-28T09:23:21Z</time>
      </trkpt>
      <trkpt lat="47.0172" lon="-1.71934">
        <ele>81</ele>
        <time>2022-06-28T09:23:23Z</time>
      </trkpt>
      <trkpt lat="47.01725" lon="-1.71919">
        <ele>81</ele>
        <time>2022-06-28T09:23:25Z</time>
      </trkpt>
      <trkpt lat="47.01731" lon="-1.71904">
        <ele>82</ele>
        <time>2022-06-28T09:23:27Z</time>
      </trkpt>
      <trkpt lat="47.01736" lon="-1.71888">
        <ele>82</ele>
        <time>2022-06-28T09:23:29Z</time>
      </trkpt>
      <trkpt lat="47.01742" lon="-1.71873">
        <ele>82</ele>
        <time>2022-06-28T09:23:31Z</time>
      </trkpt>
      <trkpt lat="47.01747" lon="-1.71857">
        <ele>82</ele>
        <time>2022-06-28T09:23:33Z</time>
      </trkpt>
      <trkpt lat="47.01752" lon="-1.71842">
        <ele>82</ele>
        <time>2022-06-28T09:23:35Z</time>
      </trkpt>
      <trkpt lat="47.01758" lon="-1.71826">
        <ele>82</ele>
        <time>2022-06-28T09:23:37Z</time>
      </trkpt>
      <trkpt lat="47.01763" lon="-1.7181">
        <ele>81</ele>
        <time>2022-06-28T09:23:39Z</time>
      </trkpt>
      <trkpt lat="47.01768" lon="-1.71795">
        <ele>82</ele>
        <time>2022-06-28T09:23:41Z</time>
      </trkpt>
      <trkpt lat="47.01773" lon="-1.71778">
        <ele>81</ele>
        <time>2022-06-28T09:23:43Z</time>
      </trkpt>
      <trkpt lat="47.01779" lon="-1.71763">
        <ele>81</ele>
        <time>2022-06-28T09:23:45Z</time>
      </trkpt>
      <trkpt lat="47.01784" lon="-1.71748">
        <ele>81</ele>
        <time>2022-06-28T09:23:47Z</time>
      </trkpt>
      <trkpt lat="47.01789" lon="-1.71732">
        <ele>81</ele>
        <time>2022-06-28T09:23:49Z</time>
      </trkpt>
      <trkpt lat="47.01795" lon="-1.71716">
        <ele>81</ele>
        <time>2022-06-28T09:23:51Z</time>
      </trkpt>
      <trkpt lat="47.018" lon="-1.71701">
        <ele>81</ele>
        <time>2022-06-28T09:23:53Z</time>
      </trkpt>
      <trkpt lat="47.01806" lon="-1.71685">
        <ele>82</ele>
        <time>2022-06-28T09:23:55Z</time>
      </trkpt>
      <trkpt lat="47.01811" lon="-1.71668">
        <ele>82</ele>
        <time>2022-06-28T09:23:57Z</time>
      </trkpt>
      <trkpt lat="47.01816" lon="-1.71651">
        <ele>82</ele>
        <time>2022-06-28T09:23:59Z</time>
      </trkpt>
      <trkpt lat="47.01822" lon="-1.71635">
        <ele>82</ele>
        <time>2022-06-28T09:24:01Z</time>
      </trkpt>
      <trkpt lat="47.01829" lon="-1.71619">
        <ele>82</ele>
        <time>2022-06-28T09:24:03Z</time>
      </trkpt>
      <trkpt lat="47.01837" lon="-1.71604">
        <ele>82</ele>
        <time>2022-06-28T09:24:05Z</time>
      </trkpt>
      <trkpt lat="47.01844" lon="-1.71589">
        <ele>82</ele>
        <time>2022-06-28T09:24:07Z</time>
      </trkpt>
      <trkpt lat="47.01852" lon="-1.71575">
        <ele>82</ele>
        <time>2022-06-28T09:24:09Z</time>
      </trkpt>
      <trkpt lat="47.01861" lon="-1.71561">
        <ele>82</ele>
        <time>2022-06-28T09:24:11Z</time>
      </trkpt>
      <trkpt lat="47.01871" lon="-1.71547">
        <ele>82</ele>
        <time>2022-06-28T09:24:13Z</time>
      </trkpt>
      <trkpt lat="47.01878" lon="-1.71533">
        <ele>83</ele>
        <time>2022-06-28T09:24:15Z</time>
      </trkpt>
      <trkpt lat="47.01887" lon="-1.71519">
        <ele>83</ele>
        <time>2022-06-28T09:24:17Z</time>
      </trkpt>
      <trkpt lat="47.01895" lon="-1.71505">
        <ele>83</ele>
        <time>2022-06-28T09:24:19Z</time>
      </trkpt>
      <trkpt lat="47.01905" lon="-1.71492">
        <ele>83</ele>
        <time>2022-06-28T09:24:21Z</time>
      </trkpt>
      <trkpt lat="47.01914" lon="-1.71478">
        <ele>83</ele>
        <time>2022-06-28T09:24:23Z</time>
      </trkpt>
      <trkpt lat="47.01923" lon="-1.71464">
        <ele>83</ele>
        <time>2022-06-28T09:24:25Z</time>
      </trkpt>
      <trkpt lat="47.01932" lon="-1.71451">
        <ele>83</ele>
        <time>2022-06-28T09:24:27Z</time>
      </trkpt>
      <trkpt lat="47.0194" lon="-1.71437">
        <ele>83</ele>
        <time>2022-06-28T09:24:29Z</time>
      </trkpt>
      <trkpt lat="47.01948" lon="-1.71423">
        <ele>82</ele>
        <time>2022-06-28T09:24:31Z</time>
      </trkpt>
      <trkpt lat="47.01957" lon="-1.7141">
        <ele>82</ele>
        <time>2022-06-28T09:24:33Z</time>
      </trkpt>
      <trkpt lat="47.01966" lon="-1.71397">
        <ele>82</ele>
        <time>2022-06-28T09:24:35Z</time>
      </trkpt>
      <trkpt lat="47.01976" lon="-1.71384">
        <ele>81</ele>
        <time>2022-06-28T09:24:37Z</time>
      </trkpt>
      <trkpt lat="47.01985" lon="-1.71372">
        <ele>82</ele>
        <time>2022-06-28T09:24:39Z</time>
      </trkpt>
      <trkpt lat="47.01994" lon="-1.7136">
        <ele>82</ele>
        <time>2022-06-28T09:24:41Z</time>
      </trkpt>
      <trkpt lat="47.02004" lon="-1.71349">
        <ele>82</ele>
        <time>2022-06-28T09:24:43Z</time>
      </trkpt>
      <trkpt lat="47.02014" lon="-1.71339">
        <ele>82</ele>
        <time>2022-06-28T09:24:45Z</time>
      </trkpt>
      <trkpt lat="47.02025" lon="-1.71327">
        <ele>82</ele>
        <time>2022-06-28T09:24:47Z</time>
      </trkpt>
      <trkpt lat="47.02035" lon="-1.71315">
        <ele>82</ele>
        <time>2022-06-28T09:24:49Z</time>
      </trkpt>
      <trkpt lat="47.02044" lon="-1.71301">
        <ele>82</ele>
        <time>2022-06-28T09:24:51Z</time>
      </trkpt>
      <trkpt lat="47.02052" lon="-1.71288">
        <ele>82</ele>
        <time>2022-06-28T09:24:53Z</time>
      </trkpt>
      <trkpt lat="47.02059" lon="-1.71272">
        <ele>81</ele>
        <time>2022-06-28T09:24:55Z</time>
      </trkpt>
      <trkpt lat="47.02066" lon="-1.71257">
        <ele>81</ele>
        <time>2022-06-28T09:24:57Z</time>
      </trkpt>
      <trkpt lat="47.02074" lon="-1.71242">
        <ele>82</ele>
        <time>2022-06-28T09:24:59Z</time>
      </trkpt>
      <trkpt lat="47.02081" lon="-1.71227">
        <ele>82</ele>
        <time>2022-06-28T09:25:01Z</time>
      </trkpt>
      <trkpt lat="47.02088" lon="-1.71212">
        <ele>81</ele>
        <time>2022-06-28T09:25:03Z</time>
      </trkpt>
      <trkpt lat="47.02096" lon="-1.71196">
        <ele>81</ele>
        <time>2022-06-28T09:25:05Z</time>
      </trkpt>
      <trkpt lat="47.02102" lon="-1.7118">
        <ele>80</ele>
        <time>2022-06-28T09:25:07Z</time>
      </trkpt>
      <trkpt lat="47.02107" lon="-1.71163">
        <ele>80</ele>
        <time>2022-06-28T09:25:09Z</time>
      </trkpt>
      <trkpt lat="47.02112" lon="-1.71146">
        <ele>81</ele>
        <time>2022-06-28T09:25:11Z</time>
      </trkpt>
      <trkpt lat="47.02117" lon="-1.7113">
        <ele>81</ele>
        <time>2022-06-28T09:25:13Z</time>
      </trkpt>
      <trkpt lat="47.02123" lon="-1.71113">
        <ele>81</ele>
        <time>2022-06-28T09:25:15Z</time>
      </trkpt>
      <trkpt lat="47.02129" lon="-1.71097">
        <ele>81</ele>
        <time>2022-06-28T09:25:17Z</time>
      </trkpt>
      <trkpt lat="47.02137" lon="-1.71083">
        <ele>81</ele>
        <time>2022-06-28T09:25:19Z</time>
      </trkpt>
      <trkpt lat="47.02145" lon="-1.71067">
        <ele>81</ele>
        <time>2022-06-28T09:25:21Z</time>
      </trkpt>
      <trkpt lat="47.02152" lon="-1.71052">
        <ele>81</ele>
        <time>2022-06-28T09:25:23Z</time>
      </trkpt>
      <trkpt lat="47.0216" lon="-1.71037">
        <ele>80</ele>
        <time>2022-06-28T09:25:25Z</time>
      </trkpt>
      <trkpt lat="47.02168" lon="-1.71022">
        <ele>80</ele>
        <time>2022-06-28T09:25:27Z</time>
      </trkpt>
      <trkpt lat="47.02176" lon="-1.71007">
        <ele>80</ele>
        <time>2022-06-28T09:25:29Z</time>
      </trkpt>
      <trkpt lat="47.02184" lon="-1.70991">
        <ele>80</ele>
        <time>2022-06-28T09:25:31Z</time>
      </trkpt>
      <trkpt lat="47.02192" lon="-1.70977">
        <ele>80</ele>
        <time>2022-06-28T09:25:33Z</time>
      </trkpt>
      <trkpt lat="47.02199" lon="-1.70962">
        <ele>80</ele>
        <time>2022-06-28T09:25:35Z</time>
      </trkpt>
      <trkpt lat="47.02207" lon="-1.70948">
        <ele>81</ele>
        <time>2022-06-28T09:25:37Z</time>
      </trkpt>
      <trkpt lat="47.02215" lon="-1.70934">
        <ele>81</ele>
        <time>2022-06-28T09:25:39Z</time>
      </trkpt>
      <trkpt lat="47.02223" lon="-1.70919">
        <ele>80</ele>
        <time>2022-06-28T09:25:41Z</time>
      </trkpt>
      <trkpt lat="47.02233" lon="-1.70905">
        <ele>80</ele>
        <time>2022-06-28T09:25:43Z</time>
      </trkpt>
      <trkpt lat="47.02242" lon="-1.70891">
        <ele>80</ele>
        <time>2022-06-28T09:25:45Z</time>
      </trkpt>
      <trkpt lat="47.02252" lon="-1.70876">
        <ele>80</ele>
        <time>2022-06-28T09:25:47Z</time>
      </trkpt>
      <trkpt lat="47.02265" lon="-1.70854">
        <ele>80</ele>
        <time>2022-06-28T09:25:50Z</time>
      </trkpt>
      <trkpt lat="47.02275" lon="-1.7084">
        <ele>79</ele>
        <time>2022-06-28T09:25:52Z</time>
      </trkpt>
      <trkpt lat="47.02285" lon="-1.70826">
        <ele>79</ele>
        <time>2022-06-28T09:25:54Z</time>
      </trkpt>
      <trkpt lat="47.02299" lon="-1.70805">
        <ele>79</ele>
        <time>2022-06-28T09:25:57Z</time>
      </trkpt>
      <trkpt lat="47.02308" lon="-1.70791">
        <ele>78</ele>
        <time>2022-06-28T09:25:59Z</time>
      </trkpt>
      <trkpt lat="47.02317" lon="-1.70777">
        <ele>79</ele>
        <time>2022-06-28T09:26:01Z</time>
      </trkpt>
      <trkpt lat="47.02326" lon="-1.70763">
        <ele>79</ele>
        <time>2022-06-28T09:26:03Z</time>
      </trkpt>
      <trkpt lat="47.02335" lon="-1.70748">
        <ele>78</ele>
        <time>2022-06-28T09:26:05Z</time>
      </trkpt>
      <trkpt lat="47.02344" lon="-1.70735">
        <ele>78</ele>
        <time>2022-06-28T09:26:07Z</time>
      </trkpt>
      <trkpt lat="47.02353" lon="-1.70722">
        <ele>79</ele>
        <time>2022-06-28T09:26:09Z</time>
      </trkpt>
      <trkpt lat="47.02362" lon="-1.70708">
        <ele>79</ele>
        <time>2022-06-28T09:26:11Z</time>
      </trkpt>
      <trkpt lat="47.02371" lon="-1.70694">
        <ele>79</ele>
        <time>2022-06-28T09:26:13Z</time>
      </trkpt>
      <trkpt lat="47.0238" lon="-1.7068">
        <ele>79</ele>
        <time>2022-06-28T09:26:15Z</time>
      </trkpt>
      <trkpt lat="47.02389" lon="-1.70667">
        <ele>79</ele>
        <time>2022-06-28T09:26:17Z</time>
      </trkpt>
      <trkpt lat="47.02398" lon="-1.70654">
        <ele>79</ele>
        <time>2022-06-28T09:26:19Z</time>
      </trkpt>
      <trkpt lat="47.02407" lon="-1.70641">
        <ele>80</ele>
        <time>2022-06-28T09:26:21Z</time>
      </trkpt>
      <trkpt lat="47.02415" lon="-1.70628">
        <ele>81</ele>
        <time>2022-06-28T09:26:23Z</time>
      </trkpt>
      <trkpt lat="47.02423" lon="-1.70615">
        <ele>82</ele>
        <time>2022-06-28T09:26:25Z</time>
      </trkpt>
      <trkpt lat="47.02431" lon="-1.70602">
        <ele>82</ele>
        <time>2022-06-28T09:26:27Z</time>
      </trkpt>
      <trkpt lat="47.02439" lon="-1.70588">
        <ele>83</ele>
        <time>2022-06-28T09:26:29Z</time>
      </trkpt>
      <trkpt lat="47.02453" lon="-1.70567">
        <ele>84</ele>
        <time>2022-06-28T09:26:32Z</time>
      </trkpt>
      <trkpt lat="47.02462" lon="-1.70556">
        <ele>83</ele>
        <time>2022-06-28T09:26:34Z</time>
      </trkpt>
      <trkpt lat="47.02472" lon="-1.70545">
        <ele>83</ele>
        <time>2022-06-28T09:26:36Z</time>
      </trkpt>
      <trkpt lat="47.02483" lon="-1.70535">
        <ele>83</ele>
        <time>2022-06-28T09:26:38Z</time>
      </trkpt>
      <trkpt lat="47.02493" lon="-1.70525">
        <ele>82</ele>
        <time>2022-06-28T09:26:40Z</time>
      </trkpt>
      <trkpt lat="47.02504" lon="-1.70515">
        <ele>82</ele>
        <time>2022-06-28T09:26:42Z</time>
      </trkpt>
      <trkpt lat="47.02515" lon="-1.70506">
        <ele>82</ele>
        <time>2022-06-28T09:26:44Z</time>
      </trkpt>
      <trkpt lat="47.02525" lon="-1.70497">
        <ele>82</ele>
        <time>2022-06-28T09:26:46Z</time>
      </trkpt>
      <trkpt lat="47.02535" lon="-1.70487">
        <ele>82</ele>
        <time>2022-06-28T09:26:48Z</time>
      </trkpt>
      <trkpt lat="47.02546" lon="-1.70478">
        <ele>82</ele>
        <time>2022-06-28T09:26:50Z</time>
      </trkpt>
      <trkpt lat="47.02556" lon="-1.70469">
        <ele>83</ele>
        <time>2022-06-28T09:26:52Z</time>
      </trkpt>
      <trkpt lat="47.02567" lon="-1.70459">
        <ele>82</ele>
        <time>2022-06-28T09:26:54Z</time>
      </trkpt>
      <trkpt lat="47.02577" lon="-1.70451">
        <ele>81</ele>
        <time>2022-06-28T09:26:56Z</time>
      </trkpt>
      <trkpt lat="47.02588" lon="-1.70441">
        <ele>80</ele>
        <time>2022-06-28T09:26:58Z</time>
      </trkpt>
      <trkpt lat="47.02599" lon="-1.70431">
        <ele>79</ele>
        <time>2022-06-28T09:27:00Z</time>
      </trkpt>
      <trkpt lat="47.02609" lon="-1.70421">
        <ele>79</ele>
        <time>2022-06-28T09:27:02Z</time>
      </trkpt>
      <trkpt lat="47.0262" lon="-1.70411">
        <ele>79</ele>
        <time>2022-06-28T09:27:04Z</time>
      </trkpt>
      <trkpt lat="47.0263" lon="-1.704">
        <ele>79</ele>
        <time>2022-06-28T09:27:06Z</time>
      </trkpt>
      <trkpt lat="47.02639" lon="-1.70389">
        <ele>79</ele>
        <time>2022-06-28T09:27:08Z</time>
      </trkpt>
      <trkpt lat="47.02648" lon="-1.70377">
        <ele>79</ele>
        <time>2022-06-28T09:27:10Z</time>
      </trkpt>
      <trkpt lat="47.02656" lon="-1.70364">
        <ele>79</ele>
        <time>2022-06-28T09:27:12Z</time>
      </trkpt>
      <trkpt lat="47.02664" lon="-1.70352">
        <ele>79</ele>
        <time>2022-06-28T09:27:14Z</time>
      </trkpt>
      <trkpt lat="47.02666" lon="-1.70337">
        <ele>79</ele>
        <time>2022-06-28T09:27:16Z</time>
      </trkpt>
      <trkpt lat="47.02658" lon="-1.70327">
        <ele>79</ele>
        <time>2022-06-28T09:27:18Z</time>
      </trkpt>
      <trkpt lat="47.02646" lon="-1.7032">
        <ele>79</ele>
        <time>2022-06-28T09:27:20Z</time>
      </trkpt>
      <trkpt lat="47.02635" lon="-1.70313">
        <ele>79</ele>
        <time>2022-06-28T09:27:22Z</time>
      </trkpt>
      <trkpt lat="47.02623" lon="-1.70305">
        <ele>78</ele>
        <time>2022-06-28T09:27:24Z</time>
      </trkpt>
      <trkpt lat="47.02611" lon="-1.70298">
        <ele>78</ele>
        <time>2022-06-28T09:27:26Z</time>
      </trkpt>
      <trkpt lat="47.02599" lon="-1.70292">
        <ele>78</ele>
        <time>2022-06-28T09:27:28Z</time>
      </trkpt>
      <trkpt lat="47.02586" lon="-1.70288">
        <ele>78</ele>
        <time>2022-06-28T09:27:30Z</time>
      </trkpt>
      <trkpt lat="47.02573" lon="-1.70284">
        <ele>79</ele>
        <time>2022-06-28T09:27:32Z</time>
      </trkpt>
      <trkpt lat="47.0256" lon="-1.70281">
        <ele>79</ele>
        <time>2022-06-28T09:27:34Z</time>
      </trkpt>
      <trkpt lat="47.02547" lon="-1.70278">
        <ele>79</ele>
        <time>2022-06-28T09:27:36Z</time>
      </trkpt>
      <trkpt lat="47.02533" lon="-1.70275">
        <ele>79</ele>
        <time>2022-06-28T09:27:38Z</time>
      </trkpt>
      <trkpt lat="47.0252" lon="-1.70269">
        <ele>79</ele>
        <time>2022-06-28T09:27:40Z</time>
      </trkpt>
      <trkpt lat="47.02509" lon="-1.70259">
        <ele>79</ele>
        <time>2022-06-28T09:27:42Z</time>
      </trkpt>
      <trkpt lat="47.02501" lon="-1.70243">
        <ele>77</ele>
        <time>2022-06-28T09:27:44Z</time>
      </trkpt>
      <trkpt lat="47.02492" lon="-1.70228">
        <ele>77</ele>
        <time>2022-06-28T09:27:46Z</time>
      </trkpt>
      <trkpt lat="47.02484" lon="-1.70212">
        <ele>77</ele>
        <time>2022-06-28T09:27:48Z</time>
      </trkpt>
      <trkpt lat="47.02477" lon="-1.70196">
        <ele>77</ele>
        <time>2022-06-28T09:27:50Z</time>
      </trkpt>
      <trkpt lat="47.02469" lon="-1.7018">
        <ele>76</ele>
        <time>2022-06-28T09:27:52Z</time>
      </trkpt>
      <trkpt lat="47.02462" lon="-1.70164">
        <ele>76</ele>
        <time>2022-06-28T09:27:54Z</time>
      </trkpt>
      <trkpt lat="47.02454" lon="-1.70149">
        <ele>77</ele>
        <time>2022-06-28T09:27:56Z</time>
      </trkpt>
      <trkpt lat="47.02447" lon="-1.70133">
        <ele>77</ele>
        <time>2022-06-28T09:27:58Z</time>
      </trkpt>
      <trkpt lat="47.02441" lon="-1.70116">
        <ele>76</ele>
        <time>2022-06-28T09:28:00Z</time>
      </trkpt>
      <trkpt lat="47.02437" lon="-1.70099">
        <ele>76</ele>
        <time>2022-06-28T09:28:02Z</time>
      </trkpt>
      <trkpt lat="47.02435" lon="-1.70081">
        <ele>76</ele>
        <time>2022-06-28T09:28:04Z</time>
      </trkpt>
      <trkpt lat="47.02433" lon="-1.70063">
        <ele>77</ele>
        <time>2022-06-28T09:28:06Z</time>
      </trkpt>
      <trkpt lat="47.02431" lon="-1.70044">
        <ele>77</ele>
        <time>2022-06-28T09:28:08Z</time>
      </trkpt>
      <trkpt lat="47.02429" lon="-1.70026">
        <ele>77</ele>
        <time>2022-06-28T09:28:10Z</time>
      </trkpt>
      <trkpt lat="47.02427" lon="-1.70009">
        <ele>78</ele>
        <time>2022-06-28T09:28:12Z</time>
      </trkpt>
      <trkpt lat="47.02425" lon="-1.69992">
        <ele>79</ele>
        <time>2022-06-28T09:28:14Z</time>
      </trkpt>
      <trkpt lat="47.02423" lon="-1.69974">
        <ele>79</ele>
        <time>2022-06-28T09:28:16Z</time>
      </trkpt>
      <trkpt lat="47.0242" lon="-1.69957">
        <ele>80</ele>
        <time>2022-06-28T09:28:18Z</time>
      </trkpt>
      <trkpt lat="47.02419" lon="-1.69939">
        <ele>80</ele>
        <time>2022-06-28T09:28:20Z</time>
      </trkpt>
      <trkpt lat="47.02417" lon="-1.69922">
        <ele>81</ele>
        <time>2022-06-28T09:28:22Z</time>
      </trkpt>
      <trkpt lat="47.02414" lon="-1.69904">
        <ele>81</ele>
        <time>2022-06-28T09:28:24Z</time>
      </trkpt>
      <trkpt lat="47.02412" lon="-1.69886">
        <ele>81</ele>
        <time>2022-06-28T09:28:26Z</time>
      </trkpt>
      <trkpt lat="47.02408" lon="-1.69868">
        <ele>81</ele>
        <time>2022-06-28T09:28:28Z</time>
      </trkpt>
      <trkpt lat="47.02404" lon="-1.69851">
        <ele>82</ele>
        <time>2022-06-28T09:28:30Z</time>
      </trkpt>
      <trkpt lat="47.02398" lon="-1.69835">
        <ele>80</ele>
        <time>2022-06-28T09:28:32Z</time>
      </trkpt>
      <trkpt lat="47.02392" lon="-1.69819">
        <ele>81</ele>
        <time>2022-06-28T09:28:34Z</time>
      </trkpt>
      <trkpt lat="47.02384" lon="-1.69804">
        <ele>80</ele>
        <time>2022-06-28T09:28:36Z</time>
      </trkpt>
      <trkpt lat="47.02377" lon="-1.69792">
        <ele>81</ele>
        <time>2022-06-28T09:28:38Z</time>
      </trkpt>
      <trkpt lat="47.02369" lon="-1.69779">
        <ele>81</ele>
        <time>2022-06-28T09:28:40Z</time>
      </trkpt>
      <trkpt lat="47.02361" lon="-1.69766">
        <ele>81</ele>
        <time>2022-06-28T09:28:42Z</time>
      </trkpt>
      <trkpt lat="47.02354" lon="-1.69752">
        <ele>81</ele>
        <time>2022-06-28T09:28:44Z</time>
      </trkpt>
      <trkpt lat="47.02347" lon="-1.69738">
        <ele>81</ele>
        <time>2022-06-28T09:28:46Z</time>
      </trkpt>
      <trkpt lat="47.02339" lon="-1.69725">
        <ele>81</ele>
        <time>2022-06-28T09:28:48Z</time>
      </trkpt>
      <trkpt lat="47.02332" lon="-1.69712">
        <ele>81</ele>
        <time>2022-06-28T09:28:50Z</time>
      </trkpt>
      <trkpt lat="47.02324" lon="-1.69699">
        <ele>81</ele>
        <time>2022-06-28T09:28:52Z</time>
      </trkpt>
      <trkpt lat="47.02317" lon="-1.69686">
        <ele>81</ele>
        <time>2022-06-28T09:28:54Z</time>
      </trkpt>
      <trkpt lat="47.0231" lon="-1.69672">
        <ele>81</ele>
        <time>2022-06-28T09:28:56Z</time>
      </trkpt>
      <trkpt lat="47.02302" lon="-1.69659">
        <ele>81</ele>
        <time>2022-06-28T09:28:58Z</time>
      </trkpt>
      <trkpt lat="47.02295" lon="-1.69646">
        <ele>82</ele>
        <time>2022-06-28T09:29:00Z</time>
      </trkpt>
      <trkpt lat="47.02288" lon="-1.69633">
        <ele>82</ele>
        <time>2022-06-28T09:29:02Z</time>
      </trkpt>
      <trkpt lat="47.0228" lon="-1.6962">
        <ele>82</ele>
        <time>2022-06-28T09:29:04Z</time>
      </trkpt>
      <trkpt lat="47.02273" lon="-1.69606">
        <ele>82</ele>
        <time>2022-06-28T09:29:06Z</time>
      </trkpt>
      <trkpt lat="47.02267" lon="-1.69593">
        <ele>82</ele>
        <time>2022-06-28T09:29:08Z</time>
      </trkpt>
      <trkpt lat="47.0226" lon="-1.69578">
        <ele>82</ele>
        <time>2022-06-28T09:29:10Z</time>
      </trkpt>
      <trkpt lat="47.02254" lon="-1.69564">
        <ele>82</ele>
        <time>2022-06-28T09:29:12Z</time>
      </trkpt>
      <trkpt lat="47.02249" lon="-1.69548">
        <ele>82</ele>
        <time>2022-06-28T09:29:14Z</time>
      </trkpt>
      <trkpt lat="47.02244" lon="-1.69532">
        <ele>82</ele>
        <time>2022-06-28T09:29:16Z</time>
      </trkpt>
      <trkpt lat="47.02239" lon="-1.69516">
        <ele>82</ele>
        <time>2022-06-28T09:29:18Z</time>
      </trkpt>
      <trkpt lat="47.02235" lon="-1.69499">
        <ele>82</ele>
        <time>2022-06-28T09:29:20Z</time>
      </trkpt>
      <trkpt lat="47.02231" lon="-1.69483">
        <ele>82</ele>
        <time>2022-06-28T09:29:22Z</time>
      </trkpt>
      <trkpt lat="47.02227" lon="-1.69466">
        <ele>83</ele>
        <time>2022-06-28T09:29:24Z</time>
      </trkpt>
      <trkpt lat="47.02224" lon="-1.6945">
        <ele>83</ele>
        <time>2022-06-28T09:29:26Z</time>
      </trkpt>
      <trkpt lat="47.02221" lon="-1.69433">
        <ele>83</ele>
        <time>2022-06-28T09:29:28Z</time>
      </trkpt>
      <trkpt lat="47.02218" lon="-1.69417">
        <ele>83</ele>
        <time>2022-06-28T09:29:30Z</time>
      </trkpt>
      <trkpt lat="47.02216" lon="-1.69401">
        <ele>83</ele>
        <time>2022-06-28T09:29:32Z</time>
      </trkpt>
      <trkpt lat="47.02215" lon="-1.69387">
        <ele>83</ele>
        <time>2022-06-28T09:29:34Z</time>
      </trkpt>
      <trkpt lat="47.02214" lon="-1.69372">
        <ele>83</ele>
        <time>2022-06-28T09:29:36Z</time>
      </trkpt>
      <trkpt lat="47.02213" lon="-1.69354">
        <ele>82</ele>
        <time>2022-06-28T09:29:38Z</time>
      </trkpt>
      <trkpt lat="47.02214" lon="-1.69337">
        <ele>82</ele>
        <time>2022-06-28T09:29:40Z</time>
      </trkpt>
      <trkpt lat="47.02217" lon="-1.6932">
        <ele>82</ele>
        <time>2022-06-28T09:29:42Z</time>
      </trkpt>
      <trkpt lat="47.0222" lon="-1.69303">
        <ele>82</ele>
        <time>2022-06-28T09:29:44Z</time>
      </trkpt>
      <trkpt lat="47.02223" lon="-1.69286">
        <ele>82</ele>
        <time>2022-06-28T09:29:46Z</time>
      </trkpt>
      <trkpt lat="47.02226" lon="-1.69269">
        <ele>82</ele>
        <time>2022-06-28T09:29:48Z</time>
      </trkpt>
      <trkpt lat="47.02227" lon="-1.69252">
        <ele>82</ele>
        <time>2022-06-28T09:29:50Z</time>
      </trkpt>
      <trkpt lat="47.02227" lon="-1.69234">
        <ele>82</ele>
        <time>2022-06-28T09:29:52Z</time>
      </trkpt>
      <trkpt lat="47.02225" lon="-1.69216">
        <ele>82</ele>
        <time>2022-06-28T09:29:54Z</time>
      </trkpt>
      <trkpt lat="47.02223" lon="-1.69199">
        <ele>82</ele>
        <time>2022-06-28T09:29:56Z</time>
      </trkpt>
      <trkpt lat="47.0222" lon="-1.69182">
        <ele>83</ele>
        <time>2022-06-28T09:29:58Z</time>
      </trkpt>
      <trkpt lat="47.02217" lon="-1.69165">
        <ele>82</ele>
        <time>2022-06-28T09:30:00Z</time>
      </trkpt>
      <trkpt lat="47.02213" lon="-1.69148">
        <ele>83</ele>
        <time>2022-06-28T09:30:02Z</time>
      </trkpt>
      <trkpt lat="47.0221" lon="-1.69131">
        <ele>82</ele>
        <time>2022-06-28T09:30:04Z</time>
      </trkpt>
      <trkpt lat="47.02205" lon="-1.69114">
        <ele>83</ele>
        <time>2022-06-28T09:30:06Z</time>
      </trkpt>
      <trkpt lat="47.02201" lon="-1.69098">
        <ele>83</ele>
        <time>2022-06-28T09:30:08Z</time>
      </trkpt>
      <trkpt lat="47.02195" lon="-1.69081">
        <ele>83</ele>
        <time>2022-06-28T09:30:10Z</time>
      </trkpt>
      <trkpt lat="47.0219" lon="-1.69063">
        <ele>83</ele>
        <time>2022-06-28T09:30:12Z</time>
      </trkpt>
      <trkpt lat="47.02188" lon="-1.69045">
        <ele>83</ele>
        <time>2022-06-28T09:30:14Z</time>
      </trkpt>
      <trkpt lat="47.02187" lon="-1.69027">
        <ele>83</ele>
        <time>2022-06-28T09:30:16Z</time>
      </trkpt>
      <trkpt lat="47.02187" lon="-1.69009">
        <ele>83</ele>
        <time>2022-06-28T09:30:18Z</time>
      </trkpt>
      <trkpt lat="47.02187" lon="-1.68991">
        <ele>83</ele>
        <time>2022-06-28T09:30:20Z</time>
      </trkpt>
      <trkpt lat="47.02188" lon="-1.68972">
        <ele>83</ele>
        <time>2022-06-28T09:30:22Z</time>
      </trkpt>
      <trkpt lat="47.02188" lon="-1.68954">
        <ele>83</ele>
        <time>2022-06-28T09:30:24Z</time>
      </trkpt>
      <trkpt lat="47.02189" lon="-1.68936">
        <ele>83</ele>
        <time>2022-06-28T09:30:26Z</time>
      </trkpt>
      <trkpt lat="47.0219" lon="-1.68919">
        <ele>83</ele>
        <time>2022-06-28T09:30:28Z</time>
      </trkpt>
      <trkpt lat="47.02191" lon="-1.68901">
        <ele>84</ele>
        <time>2022-06-28T09:30:30Z</time>
      </trkpt>
      <trkpt lat="47.02192" lon="-1.68883">
        <ele>84</ele>
        <time>2022-06-28T09:30:32Z</time>
      </trkpt>
      <trkpt lat="47.02193" lon="-1.68866">
        <ele>84</ele>
        <time>2022-06-28T09:30:34Z</time>
      </trkpt>
      <trkpt lat="47.02195" lon="-1.68849">
        <ele>84</ele>
        <time>2022-06-28T09:30:36Z</time>
      </trkpt>
      <trkpt lat="47.02196" lon="-1.68832">
        <ele>84</ele>
        <time>2022-06-28T09:30:38Z</time>
      </trkpt>
      <trkpt lat="47.02197" lon="-1.68818">
        <ele>85</ele>
        <time>2022-06-28T09:30:40Z</time>
      </trkpt>
      <trkpt lat="47.02196" lon="-1.68801">
        <ele>86</ele>
        <time>2022-06-28T09:30:43Z</time>
      </trkpt>
      <trkpt lat="47.02199" lon="-1.68784">
        <ele>86</ele>
        <time>2022-06-28T09:30:46Z</time>
      </trkpt>
      <trkpt lat="47.02205" lon="-1.68771">
        <ele>86</ele>
        <time>2022-06-28T09:30:48Z</time>
      </trkpt>
      <trkpt lat="47.02213" lon="-1.68756">
        <ele>87</ele>
        <time>2022-06-28T09:30:50Z</time>
      </trkpt>
      <trkpt lat="47.0222" lon="-1.68742">
        <ele>87</ele>
        <time>2022-06-28T09:30:52Z</time>
      </trkpt>
      <trkpt lat="47.02228" lon="-1.68729">
        <ele>88</ele>
        <time>2022-06-28T09:30:54Z</time>
      </trkpt>
      <trkpt lat="47.02234" lon="-1.68717">
        <ele>89</ele>
        <time>2022-06-28T09:30:56Z</time>
      </trkpt>
      <trkpt lat="47.02241" lon="-1.68705">
        <ele>89</ele>
        <time>2022-06-28T09:30:58Z</time>
      </trkpt>
      <trkpt lat="47.02248" lon="-1.68694">
        <ele>90</ele>
        <time>2022-06-28T09:31:00Z</time>
      </trkpt>
      <trkpt lat="47.02254" lon="-1.68682">
        <ele>91</ele>
        <time>2022-06-28T09:31:02Z</time>
      </trkpt>
      <trkpt lat="47.02261" lon="-1.6867">
        <ele>91</ele>
        <time>2022-06-28T09:31:04Z</time>
      </trkpt>
      <trkpt lat="47.02267" lon="-1.68659">
        <ele>92</ele>
        <time>2022-06-28T09:31:06Z</time>
      </trkpt>
      <trkpt lat="47.02273" lon="-1.68648">
        <ele>92</ele>
        <time>2022-06-28T09:31:08Z</time>
      </trkpt>
      <trkpt lat="47.02279" lon="-1.68636">
        <ele>93</ele>
        <time>2022-06-28T09:31:10Z</time>
      </trkpt>
      <trkpt lat="47.02285" lon="-1.68624">
        <ele>93</ele>
        <time>2022-06-28T09:31:12Z</time>
      </trkpt>
      <trkpt lat="47.02292" lon="-1.68612">
        <ele>94</ele>
        <time>2022-06-28T09:31:14Z</time>
      </trkpt>
      <trkpt lat="47.02299" lon="-1.68601">
        <ele>94</ele>
        <time>2022-06-28T09:31:16Z</time>
      </trkpt>
      <trkpt lat="47.02305" lon="-1.68589">
        <ele>94</ele>
        <time>2022-06-28T09:31:18Z</time>
      </trkpt>
      <trkpt lat="47.02312" lon="-1.68578">
        <ele>95</ele>
        <time>2022-06-28T09:31:20Z</time>
      </trkpt>
      <trkpt lat="47.02318" lon="-1.68566">
        <ele>96</ele>
        <time>2022-06-28T09:31:22Z</time>
      </trkpt>
      <trkpt lat="47.02324" lon="-1.68555">
        <ele>96</ele>
        <time>2022-06-28T09:31:24Z</time>
      </trkpt>
      <trkpt lat="47.02331" lon="-1.68543">
        <ele>96</ele>
        <time>2022-06-28T09:31:26Z</time>
      </trkpt>
      <trkpt lat="47.02338" lon="-1.68531">
        <ele>96</ele>
        <time>2022-06-28T09:31:28Z</time>
      </trkpt>
      <trkpt lat="47.02344" lon="-1.68519">
        <ele>96</ele>
        <time>2022-06-28T09:31:30Z</time>
      </trkpt>
      <trkpt lat="47.02351" lon="-1.68507">
        <ele>97</ele>
        <time>2022-06-28T09:31:32Z</time>
      </trkpt>
      <trkpt lat="47.02357" lon="-1.68494">
        <ele>97</ele>
        <time>2022-06-28T09:31:34Z</time>
      </trkpt>
      <trkpt lat="47.02362" lon="-1.68482">
        <ele>97</ele>
        <time>2022-06-28T09:31:36Z</time>
      </trkpt>
      <trkpt lat="47.02368" lon="-1.68469">
        <ele>98</ele>
        <time>2022-06-28T09:31:38Z</time>
      </trkpt>
      <trkpt lat="47.02373" lon="-1.68456">
        <ele>98</ele>
        <time>2022-06-28T09:31:40Z</time>
      </trkpt>
      <trkpt lat="47.02378" lon="-1.68444">
        <ele>98</ele>
        <time>2022-06-28T09:31:42Z</time>
      </trkpt>
      <trkpt lat="47.02384" lon="-1.6843">
        <ele>98</ele>
        <time>2022-06-28T09:31:44Z</time>
      </trkpt>
      <trkpt lat="47.02389" lon="-1.68416">
        <ele>98</ele>
        <time>2022-06-28T09:31:46Z</time>
      </trkpt>
      <trkpt lat="47.02395" lon="-1.684">
        <ele>98</ele>
        <time>2022-06-28T09:31:48Z</time>
      </trkpt>
      <trkpt lat="47.02401" lon="-1.68385">
        <ele>97</ele>
        <time>2022-06-28T09:31:50Z</time>
      </trkpt>
      <trkpt lat="47.02407" lon="-1.68369">
        <ele>97</ele>
        <time>2022-06-28T09:31:52Z</time>
      </trkpt>
      <trkpt lat="47.02413" lon="-1.68352">
        <ele>97</ele>
        <time>2022-06-28T09:31:54Z</time>
      </trkpt>
      <trkpt lat="47.02419" lon="-1.68335">
        <ele>97</ele>
        <time>2022-06-28T09:31:56Z</time>
      </trkpt>
      <trkpt lat="47.02426" lon="-1.68317">
        <ele>97</ele>
        <time>2022-06-28T09:31:58Z</time>
      </trkpt>
      <trkpt lat="47.02432" lon="-1.68298">
        <ele>97</ele>
        <time>2022-06-28T09:32:00Z</time>
      </trkpt>
      <trkpt lat="47.02439" lon="-1.6828">
        <ele>97</ele>
        <time>2022-06-28T09:32:02Z</time>
      </trkpt>
      <trkpt lat="47.02446" lon="-1.68262">
        <ele>97</ele>
        <time>2022-06-28T09:32:04Z</time>
      </trkpt>
      <trkpt lat="47.02452" lon="-1.68243">
        <ele>96</ele>
        <time>2022-06-28T09:32:06Z</time>
      </trkpt>
      <trkpt lat="47.0246" lon="-1.68224">
        <ele>96</ele>
        <time>2022-06-28T09:32:08Z</time>
      </trkpt>
      <trkpt lat="47.02467" lon="-1.68204">
        <ele>96</ele>
        <time>2022-06-28T09:32:10Z</time>
      </trkpt>
      <trkpt lat="47.02474" lon="-1.68185">
        <ele>96</ele>
        <time>2022-06-28T09:32:12Z</time>
      </trkpt>
      <trkpt lat="47.02482" lon="-1.68164">
        <ele>96</ele>
        <time>2022-06-28T09:32:14Z</time>
      </trkpt>
      <trkpt lat="47.0249" lon="-1.68143">
        <ele>96</ele>
        <time>2022-06-28T09:32:16Z</time>
      </trkpt>
      <trkpt lat="47.02498" lon="-1.68122">
        <ele>95</ele>
        <time>2022-06-28T09:32:18Z</time>
      </trkpt>
      <trkpt lat="47.02505" lon="-1.68101">
        <ele>95</ele>
        <time>2022-06-28T09:32:20Z</time>
      </trkpt>
      <trkpt lat="47.02514" lon="-1.6808">
        <ele>95</ele>
        <time>2022-06-28T09:32:22Z</time>
      </trkpt>
      <trkpt lat="47.02521" lon="-1.68058">
        <ele>95</ele>
        <time>2022-06-28T09:32:24Z</time>
      </trkpt>
      <trkpt lat="47.02529" lon="-1.68037">
        <ele>95</ele>
        <time>2022-06-28T09:32:26Z</time>
      </trkpt>
      <trkpt lat="47.02537" lon="-1.68017">
        <ele>95</ele>
        <time>2022-06-28T09:32:28Z</time>
      </trkpt>
      <trkpt lat="47.02544" lon="-1.67996">
        <ele>95</ele>
        <time>2022-06-28T09:32:30Z</time>
      </trkpt>
      <trkpt lat="47.02552" lon="-1.67975">
        <ele>95</ele>
        <time>2022-06-28T09:32:32Z</time>
      </trkpt>
      <trkpt lat="47.0256" lon="-1.67954">
        <ele>95</ele>
        <time>2022-06-28T09:32:34Z</time>
      </trkpt>
      <trkpt lat="47.02567" lon="-1.67933">
        <ele>95</ele>
        <time>2022-06-28T09:32:36Z</time>
      </trkpt>
      <trkpt lat="47.02575" lon="-1.67913">
        <ele>95</ele>
        <time>2022-06-28T09:32:38Z</time>
      </trkpt>
      <trkpt lat="47.02582" lon="-1.67893">
        <ele>95</ele>
        <time>2022-06-28T09:32:40Z</time>
      </trkpt>
      <trkpt lat="47.0259" lon="-1.67872">
        <ele>95</ele>
        <time>2022-06-28T09:32:42Z</time>
      </trkpt>
      <trkpt lat="47.02597" lon="-1.67852">
        <ele>95</ele>
        <time>2022-06-28T09:32:44Z</time>
      </trkpt>
      <trkpt lat="47.02605" lon="-1.67831">
        <ele>95</ele>
        <time>2022-06-28T09:32:46Z</time>
      </trkpt>
      <trkpt lat="47.02613" lon="-1.6781">
        <ele>95</ele>
        <time>2022-06-28T09:32:48Z</time>
      </trkpt>
      <trkpt lat="47.02621" lon="-1.6779">
        <ele>95</ele>
        <time>2022-06-28T09:32:50Z</time>
      </trkpt>
      <trkpt lat="47.02628" lon="-1.67769">
        <ele>95</ele>
        <time>2022-06-28T09:32:52Z</time>
      </trkpt>
      <trkpt lat="47.02635" lon="-1.6775">
        <ele>94</ele>
        <time>2022-06-28T09:32:54Z</time>
      </trkpt>
      <trkpt lat="47.02642" lon="-1.67729">
        <ele>94</ele>
        <time>2022-06-28T09:32:56Z</time>
      </trkpt>
      <trkpt lat="47.0265" lon="-1.67709">
        <ele>95</ele>
        <time>2022-06-28T09:32:58Z</time>
      </trkpt>
      <trkpt lat="47.02657" lon="-1.67689">
        <ele>95</ele>
        <time>2022-06-28T09:33:00Z</time>
      </trkpt>
      <trkpt lat="47.02665" lon="-1.67669">
        <ele>95</ele>
        <time>2022-06-28T09:33:02Z</time>
      </trkpt>
      <trkpt lat="47.02672" lon="-1.6765">
        <ele>95</ele>
        <time>2022-06-28T09:33:04Z</time>
      </trkpt>
      <trkpt lat="47.02679" lon="-1.6763">
        <ele>95</ele>
        <time>2022-06-28T09:33:06Z</time>
      </trkpt>
      <trkpt lat="47.02686" lon="-1.6761">
        <ele>95</ele>
        <time>2022-06-28T09:33:08Z</time>
      </trkpt>
      <trkpt lat="47.02693" lon="-1.67591">
        <ele>95</ele>
        <time>2022-06-28T09:33:10Z</time>
      </trkpt>
      <trkpt lat="47.02701" lon="-1.67571">
        <ele>95</ele>
        <time>2022-06-28T09:33:12Z</time>
      </trkpt>
      <trkpt lat="47.02708" lon="-1.67551">
        <ele>95</ele>
        <time>2022-06-28T09:33:14Z</time>
      </trkpt>
      <trkpt lat="47.02715" lon="-1.67531">
        <ele>94</ele>
        <time>2022-06-28T09:33:16Z</time>
      </trkpt>
      <trkpt lat="47.02723" lon="-1.67511">
        <ele>94</ele>
        <time>2022-06-28T09:33:18Z</time>
      </trkpt>
      <trkpt lat="47.0273" lon="-1.67491">
        <ele>94</ele>
        <time>2022-06-28T09:33:20Z</time>
      </trkpt>
      <trkpt lat="47.02738" lon="-1.67473">
        <ele>93</ele>
        <time>2022-06-28T09:33:22Z</time>
      </trkpt>
      <trkpt lat="47.02744" lon="-1.67456">
        <ele>93</ele>
        <time>2022-06-28T09:33:25Z</time>
      </trkpt>
      <trkpt lat="47.02749" lon="-1.67441">
        <ele>93</ele>
        <time>2022-06-28T09:33:27Z</time>
      </trkpt>
      <trkpt lat="47.02755" lon="-1.67424">
        <ele>93</ele>
        <time>2022-06-28T09:33:29Z</time>
      </trkpt>
      <trkpt lat="47.02762" lon="-1.67404">
        <ele>92</ele>
        <time>2022-06-28T09:33:31Z</time>
      </trkpt>
      <trkpt lat="47.02769" lon="-1.67384">
        <ele>92</ele>
        <time>2022-06-28T09:33:33Z</time>
      </trkpt>
      <trkpt lat="47.02777" lon="-1.67364">
        <ele>92</ele>
        <time>2022-06-28T09:33:35Z</time>
      </trkpt>
      <trkpt lat="47.02785" lon="-1.67344">
        <ele>92</ele>
        <time>2022-06-28T09:33:37Z</time>
      </trkpt>
      <trkpt lat="47.02792" lon="-1.67322">
        <ele>92</ele>
        <time>2022-06-28T09:33:39Z</time>
      </trkpt>
      <trkpt lat="47.028" lon="-1.67302">
        <ele>91</ele>
        <time>2022-06-28T09:33:41Z</time>
      </trkpt>
      <trkpt lat="47.02808" lon="-1.67281">
        <ele>91</ele>
        <time>2022-06-28T09:33:43Z</time>
      </trkpt>
      <trkpt lat="47.02815" lon="-1.67259">
        <ele>91</ele>
        <time>2022-06-28T09:33:45Z</time>
      </trkpt>
      <trkpt lat="47.02824" lon="-1.67238">
        <ele>90</ele>
        <time>2022-06-28T09:33:47Z</time>
      </trkpt>
      <trkpt lat="47.02832" lon="-1.67216">
        <ele>90</ele>
        <time>2022-06-28T09:33:49Z</time>
      </trkpt>
      <trkpt lat="47.0284" lon="-1.67194">
        <ele>90</ele>
        <time>2022-06-28T09:33:51Z</time>
      </trkpt>
      <trkpt lat="47.02848" lon="-1.67173">
        <ele>90</ele>
        <time>2022-06-28T09:33:53Z</time>
      </trkpt>
      <trkpt lat="47.02856" lon="-1.67152">
        <ele>89</ele>
        <time>2022-06-28T09:33:55Z</time>
      </trkpt>
      <trkpt lat="47.02863" lon="-1.67131">
        <ele>90</ele>
        <time>2022-06-28T09:33:57Z</time>
      </trkpt>
      <trkpt lat="47.02871" lon="-1.6711">
        <ele>90</ele>
        <time>2022-06-28T09:33:59Z</time>
      </trkpt>
      <trkpt lat="47.02879" lon="-1.6709">
        <ele>90</ele>
        <time>2022-06-28T09:34:01Z</time>
      </trkpt>
      <trkpt lat="47.02886" lon="-1.6707">
        <ele>90</ele>
        <time>2022-06-28T09:34:03Z</time>
      </trkpt>
      <trkpt lat="47.02893" lon="-1.67051">
        <ele>90</ele>
        <time>2022-06-28T09:34:05Z</time>
      </trkpt>
      <trkpt lat="47.02901" lon="-1.67031">
        <ele>90</ele>
        <time>2022-06-28T09:34:07Z</time>
      </trkpt>
      <trkpt lat="47.02908" lon="-1.67012">
        <ele>90</ele>
        <time>2022-06-28T09:34:09Z</time>
      </trkpt>
      <trkpt lat="47.02914" lon="-1.66993">
        <ele>90</ele>
        <time>2022-06-28T09:34:11Z</time>
      </trkpt>
      <trkpt lat="47.02921" lon="-1.66975">
        <ele>90</ele>
        <time>2022-06-28T09:34:13Z</time>
      </trkpt>
      <trkpt lat="47.02928" lon="-1.66956">
        <ele>90</ele>
        <time>2022-06-28T09:34:15Z</time>
      </trkpt>
      <trkpt lat="47.02935" lon="-1.66937">
        <ele>90</ele>
        <time>2022-06-28T09:34:17Z</time>
      </trkpt>
      <trkpt lat="47.02943" lon="-1.66918">
        <ele>90</ele>
        <time>2022-06-28T09:34:19Z</time>
      </trkpt>
      <trkpt lat="47.0295" lon="-1.66898">
        <ele>90</ele>
        <time>2022-06-28T09:34:21Z</time>
      </trkpt>
      <trkpt lat="47.02956" lon="-1.66879">
        <ele>89</ele>
        <time>2022-06-28T09:34:23Z</time>
      </trkpt>
      <trkpt lat="47.02963" lon="-1.6686">
        <ele>89</ele>
        <time>2022-06-28T09:34:25Z</time>
      </trkpt>
      <trkpt lat="47.0297" lon="-1.66842">
        <ele>90</ele>
        <time>2022-06-28T09:34:27Z</time>
      </trkpt>
      <trkpt lat="47.02977" lon="-1.66823">
        <ele>89</ele>
        <time>2022-06-28T09:34:29Z</time>
      </trkpt>
      <trkpt lat="47.02983" lon="-1.66805">
        <ele>89</ele>
        <time>2022-06-28T09:34:31Z</time>
      </trkpt>
      <trkpt lat="47.0299" lon="-1.66787">
        <ele>89</ele>
        <time>2022-06-28T09:34:33Z</time>
      </trkpt>
      <trkpt lat="47.02997" lon="-1.66768">
        <ele>90</ele>
        <time>2022-06-28T09:34:35Z</time>
      </trkpt>
      <trkpt lat="47.03003" lon="-1.6675">
        <ele>89</ele>
        <time>2022-06-28T09:34:37Z</time>
      </trkpt>
      <trkpt lat="47.0301" lon="-1.66732">
        <ele>89</ele>
        <time>2022-06-28T09:34:39Z</time>
      </trkpt>
      <trkpt lat="47.03017" lon="-1.66714">
        <ele>89</ele>
        <time>2022-06-28T09:34:41Z</time>
      </trkpt>
      <trkpt lat="47.03024" lon="-1.66695">
        <ele>88</ele>
        <time>2022-06-28T09:34:43Z</time>
      </trkpt>
      <trkpt lat="47.03031" lon="-1.66675">
        <ele>87</ele>
        <time>2022-06-28T09:34:45Z</time>
      </trkpt>
      <trkpt lat="47.03038" lon="-1.66655">
        <ele>87</ele>
        <time>2022-06-28T09:34:47Z</time>
      </trkpt>
      <trkpt lat="47.03046" lon="-1.66634">
        <ele>86</ele>
        <time>2022-06-28T09:34:49Z</time>
      </trkpt>
      <trkpt lat="47.03053" lon="-1.66613">
        <ele>85</ele>
        <time>2022-06-28T09:34:51Z</time>
      </trkpt>
      <trkpt lat="47.03062" lon="-1.66592">
        <ele>85</ele>
        <time>2022-06-28T09:34:53Z</time>
      </trkpt>
      <trkpt lat="47.0307" lon="-1.6657">
        <ele>84</ele>
        <time>2022-06-28T09:34:55Z</time>
      </trkpt>
      <trkpt lat="47.03078" lon="-1.66547">
        <ele>84</ele>
        <time>2022-06-28T09:34:57Z</time>
      </trkpt>
      <trkpt lat="47.03086" lon="-1.66524">
        <ele>83</ele>
        <time>2022-06-28T09:34:59Z</time>
      </trkpt>
      <trkpt lat="47.03095" lon="-1.66501">
        <ele>82</ele>
        <time>2022-06-28T09:35:01Z</time>
      </trkpt>
      <trkpt lat="47.031" lon="-1.66489">
        <ele>82</ele>
        <time>2022-06-28T09:35:02Z</time>
      </trkpt>
      <trkpt lat="47.03106" lon="-1.66479">
        <ele>81</ele>
        <time>2022-06-28T09:35:03Z</time>
      </trkpt>
      <trkpt lat="47.03112" lon="-1.66468">
        <ele>81</ele>
        <time>2022-06-28T09:35:04Z</time>
      </trkpt>
      <trkpt lat="47.03119" lon="-1.66459">
        <ele>81</ele>
        <time>2022-06-28T09:35:05Z</time>
      </trkpt>
      <trkpt lat="47.03125" lon="-1.66449">
        <ele>80</ele>
        <time>2022-06-28T09:35:06Z</time>
      </trkpt>
      <trkpt lat="47.03132" lon="-1.6644">
        <ele>80</ele>
        <time>2022-06-28T09:35:07Z</time>
      </trkpt>
      <trkpt lat="47.03139" lon="-1.6643">
        <ele>80</ele>
        <time>2022-06-28T09:35:08Z</time>
      </trkpt>
      <trkpt lat="47.03146" lon="-1.6642">
        <ele>79</ele>
        <time>2022-06-28T09:35:09Z</time>
      </trkpt>
      <trkpt lat="47.03152" lon="-1.6641">
        <ele>79</ele>
        <time>2022-06-28T09:35:10Z</time>
      </trkpt>
      <trkpt lat="47.03158" lon="-1.664">
        <ele>79</ele>
        <time>2022-06-28T09:35:11Z</time>
      </trkpt>
      <trkpt lat="47.03164" lon="-1.66389">
        <ele>79</ele>
        <time>2022-06-28T09:35:12Z</time>
      </trkpt>
      <trkpt lat="47.03171" lon="-1.66379">
        <ele>78</ele>
        <time>2022-06-28T09:35:13Z</time>
      </trkpt>
      <trkpt lat="47.03177" lon="-1.66369">
        <ele>78</ele>
        <time>2022-06-28T09:35:14Z</time>
      </trkpt>
      <trkpt lat="47.03182" lon="-1.66358">
        <ele>78</ele>
        <time>2022-06-28T09:35:15Z</time>
      </trkpt>
      <trkpt lat="47.03188" lon="-1.66347">
        <ele>78</ele>
        <time>2022-06-28T09:35:16Z</time>
      </trkpt>
      <trkpt lat="47.03193" lon="-1.66337">
        <ele>78</ele>
        <time>2022-06-28T09:35:17Z</time>
      </trkpt>
      <trkpt lat="47.03198" lon="-1.66326">
        <ele>77</ele>
        <time>2022-06-28T09:35:18Z</time>
      </trkpt>
      <trkpt lat="47.03203" lon="-1.66314">
        <ele>77</ele>
        <time>2022-06-28T09:35:19Z</time>
      </trkpt>
      <trkpt lat="47.03208" lon="-1.66303">
        <ele>76</ele>
        <time>2022-06-28T09:35:20Z</time>
      </trkpt>
      <trkpt lat="47.03213" lon="-1.66292">
        <ele>75</ele>
        <time>2022-06-28T09:35:21Z</time>
      </trkpt>
      <trkpt lat="47.03218" lon="-1.6628">
        <ele>75</ele>
        <time>2022-06-28T09:35:22Z</time>
      </trkpt>
      <trkpt lat="47.03226" lon="-1.66258">
        <ele>75</ele>
        <time>2022-06-28T09:35:24Z</time>
      </trkpt>
      <trkpt lat="47.03235" lon="-1.66236">
        <ele>74</ele>
        <time>2022-06-28T09:35:26Z</time>
      </trkpt>
      <trkpt lat="47.03244" lon="-1.66214">
        <ele>74</ele>
        <time>2022-06-28T09:35:28Z</time>
      </trkpt>
      <trkpt lat="47.03253" lon="-1.66193">
        <ele>73</ele>
        <time>2022-06-28T09:35:30Z</time>
      </trkpt>
      <trkpt lat="47.03261" lon="-1.66172">
        <ele>73</ele>
        <time>2022-06-28T09:35:32Z</time>
      </trkpt>
      <trkpt lat="47.03271" lon="-1.6615">
        <ele>73</ele>
        <time>2022-06-28T09:35:34Z</time>
      </trkpt>
      <trkpt lat="47.03281" lon="-1.6613">
        <ele>72</ele>
        <time>2022-06-28T09:35:36Z</time>
      </trkpt>
      <trkpt lat="47.03293" lon="-1.66115">
        <ele>72</ele>
        <time>2022-06-28T09:35:38Z</time>
      </trkpt>
      <trkpt lat="47.03308" lon="-1.66105">
        <ele>71</ele>
        <time>2022-06-28T09:35:40Z</time>
      </trkpt>
      <trkpt lat="47.03323" lon="-1.66102">
        <ele>71</ele>
        <time>2022-06-28T09:35:42Z</time>
      </trkpt>
      <trkpt lat="47.03339" lon="-1.66106">
        <ele>72</ele>
        <time>2022-06-28T09:35:44Z</time>
      </trkpt>
      <trkpt lat="47.03353" lon="-1.66115">
        <ele>72</ele>
        <time>2022-06-28T09:35:46Z</time>
      </trkpt>
      <trkpt lat="47.03367" lon="-1.66123">
        <ele>72</ele>
        <time>2022-06-28T09:35:48Z</time>
      </trkpt>
      <trkpt lat="47.03381" lon="-1.66117">
        <ele>72</ele>
        <time>2022-06-28T09:35:50Z</time>
      </trkpt>
      <trkpt lat="47.03387" lon="-1.66097">
        <ele>72</ele>
        <time>2022-06-28T09:35:52Z</time>
      </trkpt>
      <trkpt lat="47.03385" lon="-1.66077">
        <ele>72</ele>
        <time>2022-06-28T09:35:54Z</time>
      </trkpt>
      <trkpt lat="47.03384" lon="-1.66059">
        <ele>72</ele>
        <time>2022-06-28T09:35:56Z</time>
      </trkpt>
      <trkpt lat="47.03389" lon="-1.66041">
        <ele>72</ele>
        <time>2022-06-28T09:35:58Z</time>
      </trkpt>
      <trkpt lat="47.03396" lon="-1.66025">
        <ele>72</ele>
        <time>2022-06-28T09:36:00Z</time>
      </trkpt>
      <trkpt lat="47.03401" lon="-1.66006">
        <ele>71</ele>
        <time>2022-06-28T09:36:02Z</time>
      </trkpt>
      <trkpt lat="47.034" lon="-1.65987">
        <ele>72</ele>
        <time>2022-06-28T09:36:04Z</time>
      </trkpt>
      <trkpt lat="47.03399" lon="-1.65969">
        <ele>72</ele>
        <time>2022-06-28T09:36:06Z</time>
      </trkpt>
      <trkpt lat="47.03399" lon="-1.65953">
        <ele>72</ele>
        <time>2022-06-28T09:36:08Z</time>
      </trkpt>
      <trkpt lat="47.03398" lon="-1.65935">
        <ele>73</ele>
        <time>2022-06-28T09:36:10Z</time>
      </trkpt>
      <trkpt lat="47.03396" lon="-1.65919">
        <ele>73</ele>
        <time>2022-06-28T09:36:12Z</time>
      </trkpt>
      <trkpt lat="47.03393" lon="-1.65904">
        <ele>73</ele>
        <time>2022-06-28T09:36:14Z</time>
      </trkpt>
      <trkpt lat="47.03388" lon="-1.65889">
        <ele>73</ele>
        <time>2022-06-28T09:36:16Z</time>
      </trkpt>
      <trkpt lat="47.03384" lon="-1.65875">
        <ele>73</ele>
        <time>2022-06-28T09:36:18Z</time>
      </trkpt>
      <trkpt lat="47.03379" lon="-1.65862">
        <ele>74</ele>
        <time>2022-06-28T09:36:20Z</time>
      </trkpt>
      <trkpt lat="47.03373" lon="-1.65848">
        <ele>74</ele>
        <time>2022-06-28T09:36:22Z</time>
      </trkpt>
      <trkpt lat="47.03367" lon="-1.65836">
        <ele>74</ele>
        <time>2022-06-28T09:36:24Z</time>
      </trkpt>
      <trkpt lat="47.03361" lon="-1.65823">
        <ele>74</ele>
        <time>2022-06-28T09:36:26Z</time>
      </trkpt>
      <trkpt lat="47.03354" lon="-1.6581">
        <ele>75</ele>
        <time>2022-06-28T09:36:28Z</time>
      </trkpt>
      <trkpt lat="47.03348" lon="-1.65797">
        <ele>74</ele>
        <time>2022-06-28T09:36:30Z</time>
      </trkpt>
      <trkpt lat="47.03341" lon="-1.65784">
        <ele>75</ele>
        <time>2022-06-28T09:36:32Z</time>
      </trkpt>
      <trkpt lat="47.03335" lon="-1.6577">
        <ele>74</ele>
        <time>2022-06-28T09:36:34Z</time>
      </trkpt>
      <trkpt lat="47.03328" lon="-1.65755">
        <ele>74</ele>
        <time>2022-06-28T09:36:36Z</time>
      </trkpt>
      <trkpt lat="47.03323" lon="-1.6574">
        <ele>74</ele>
        <time>2022-06-28T09:36:38Z</time>
      </trkpt>
      <trkpt lat="47.03318" lon="-1.65724">
        <ele>73</ele>
        <time>2022-06-28T09:36:40Z</time>
      </trkpt>
      <trkpt lat="47.03315" lon="-1.65707">
        <ele>73</ele>
        <time>2022-06-28T09:36:42Z</time>
      </trkpt>
      <trkpt lat="47.03313" lon="-1.6569">
        <ele>73</ele>
        <time>2022-06-28T09:36:44Z</time>
      </trkpt>
      <trkpt lat="47.03311" lon="-1.65672">
        <ele>73</ele>
        <time>2022-06-28T09:36:46Z</time>
      </trkpt>
      <trkpt lat="47.03312" lon="-1.65653">
        <ele>72</ele>
        <time>2022-06-28T09:36:48Z</time>
      </trkpt>
      <trkpt lat="47.03312" lon="-1.65634">
        <ele>72</ele>
        <time>2022-06-28T09:36:50Z</time>
      </trkpt>
      <trkpt lat="47.03312" lon="-1.65614">
        <ele>71</ele>
        <time>2022-06-28T09:36:52Z</time>
      </trkpt>
      <trkpt lat="47.03307" lon="-1.65596">
        <ele>71</ele>
        <time>2022-06-28T09:36:54Z</time>
      </trkpt>
      <trkpt lat="47.03303" lon="-1.65576">
        <ele>71</ele>
        <time>2022-06-28T09:36:56Z</time>
      </trkpt>
      <trkpt lat="47.03306" lon="-1.65555">
        <ele>70</ele>
        <time>2022-06-28T09:36:58Z</time>
      </trkpt>
      <trkpt lat="47.03309" lon="-1.65534">
        <ele>70</ele>
        <time>2022-06-28T09:37:00Z</time>
      </trkpt>
      <trkpt lat="47.03306" lon="-1.65513">
        <ele>70</ele>
        <time>2022-06-28T09:37:02Z</time>
      </trkpt>
      <trkpt lat="47.03301" lon="-1.65492">
        <ele>69</ele>
        <time>2022-06-28T09:37:04Z</time>
      </trkpt>
      <trkpt lat="47.03296" lon="-1.65472">
        <ele>69</ele>
        <time>2022-06-28T09:37:06Z</time>
      </trkpt>
      <trkpt lat="47.03291" lon="-1.65452">
        <ele>69</ele>
        <time>2022-06-28T09:37:08Z</time>
      </trkpt>
      <trkpt lat="47.03286" lon="-1.65431">
        <ele>69</ele>
        <time>2022-06-28T09:37:10Z</time>
      </trkpt>
      <trkpt lat="47.03281" lon="-1.6541">
        <ele>68</ele>
        <time>2022-06-28T09:37:12Z</time>
      </trkpt>
      <trkpt lat="47.03276" lon="-1.65389">
        <ele>68</ele>
        <time>2022-06-28T09:37:14Z</time>
      </trkpt>
      <trkpt lat="47.03271" lon="-1.65366">
        <ele>67</ele>
        <time>2022-06-28T09:37:16Z</time>
      </trkpt>
      <trkpt lat="47.03266" lon="-1.65344">
        <ele>67</ele>
        <time>2022-06-28T09:37:18Z</time>
      </trkpt>
      <trkpt lat="47.0326" lon="-1.65321">
        <ele>66</ele>
        <time>2022-06-28T09:37:20Z</time>
      </trkpt>
      <trkpt lat="47.03255" lon="-1.65298">
        <ele>66</ele>
        <time>2022-06-28T09:37:22Z</time>
      </trkpt>
      <trkpt lat="47.03249" lon="-1.65275">
        <ele>65</ele>
        <time>2022-06-28T09:37:24Z</time>
      </trkpt>
      <trkpt lat="47.03243" lon="-1.65254">
        <ele>65</ele>
        <time>2022-06-28T09:37:26Z</time>
      </trkpt>
      <trkpt lat="47.03238" lon="-1.65233">
        <ele>65</ele>
        <time>2022-06-28T09:37:28Z</time>
      </trkpt>
      <trkpt lat="47.03232" lon="-1.65213">
        <ele>65</ele>
        <time>2022-06-28T09:37:30Z</time>
      </trkpt>
      <trkpt lat="47.03225" lon="-1.65194">
        <ele>65</ele>
        <time>2022-06-28T09:37:32Z</time>
      </trkpt>
      <trkpt lat="47.03219" lon="-1.65175">
        <ele>65</ele>
        <time>2022-06-28T09:37:34Z</time>
      </trkpt>
      <trkpt lat="47.03212" lon="-1.65158">
        <ele>66</ele>
        <time>2022-06-28T09:37:36Z</time>
      </trkpt>
      <trkpt lat="47.03205" lon="-1.6514">
        <ele>66</ele>
        <time>2022-06-28T09:37:38Z</time>
      </trkpt>
      <trkpt lat="47.03198" lon="-1.65123">
        <ele>66</ele>
        <time>2022-06-28T09:37:40Z</time>
      </trkpt>
      <trkpt lat="47.03191" lon="-1.65107">
        <ele>65</ele>
        <time>2022-06-28T09:37:42Z</time>
      </trkpt>
      <trkpt lat="47.03184" lon="-1.65092">
        <ele>66</ele>
        <time>2022-06-28T09:37:44Z</time>
      </trkpt>
      <trkpt lat="47.03177" lon="-1.65077">
        <ele>66</ele>
        <time>2022-06-28T09:37:46Z</time>
      </trkpt>
      <trkpt lat="47.03169" lon="-1.65062">
        <ele>66</ele>
        <time>2022-06-28T09:37:48Z</time>
      </trkpt>
      <trkpt lat="47.03161" lon="-1.65048">
        <ele>66</ele>
        <time>2022-06-28T09:37:50Z</time>
      </trkpt>
      <trkpt lat="47.03154" lon="-1.65034">
        <ele>66</ele>
        <time>2022-06-28T09:37:52Z</time>
      </trkpt>
      <trkpt lat="47.03146" lon="-1.6502">
        <ele>66</ele>
        <time>2022-06-28T09:37:54Z</time>
      </trkpt>
      <trkpt lat="47.03138" lon="-1.65006">
        <ele>66</ele>
        <time>2022-06-28T09:37:56Z</time>
      </trkpt>
      <trkpt lat="47.0313" lon="-1.64994">
        <ele>66</ele>
        <time>2022-06-28T09:37:58Z</time>
      </trkpt>
      <trkpt lat="47.03122" lon="-1.6498">
        <ele>66</ele>
        <time>2022-06-28T09:38:00Z</time>
      </trkpt>
      <trkpt lat="47.03114" lon="-1.64967">
        <ele>67</ele>
        <time>2022-06-28T09:38:02Z</time>
      </trkpt>
      <trkpt lat="47.03106" lon="-1.64954">
        <ele>67</ele>
        <time>2022-06-28T09:38:04Z</time>
      </trkpt>
      <trkpt lat="47.03098" lon="-1.6494">
        <ele>67</ele>
        <time>2022-06-28T09:38:06Z</time>
      </trkpt>
      <trkpt lat="47.0309" lon="-1.64927">
        <ele>67</ele>
        <time>2022-06-28T09:38:08Z</time>
      </trkpt>
      <trkpt lat="47.03082" lon="-1.64914">
        <ele>68</ele>
        <time>2022-06-28T09:38:10Z</time>
      </trkpt>
      <trkpt lat="47.03073" lon="-1.649">
        <ele>68</ele>
        <time>2022-06-28T09:38:12Z</time>
      </trkpt>
      <trkpt lat="47.03066" lon="-1.64887">
        <ele>68</ele>
        <time>2022-06-28T09:38:14Z</time>
      </trkpt>
      <trkpt lat="47.03058" lon="-1.64874">
        <ele>68</ele>
        <time>2022-06-28T09:38:16Z</time>
      </trkpt>
      <trkpt lat="47.03049" lon="-1.6486">
        <ele>68</ele>
        <time>2022-06-28T09:38:18Z</time>
      </trkpt>
      <trkpt lat="47.03041" lon="-1.64846">
        <ele>68</ele>
        <time>2022-06-28T09:38:20Z</time>
      </trkpt>
      <trkpt lat="47.03034" lon="-1.64833">
        <ele>68</ele>
        <time>2022-06-28T09:38:22Z</time>
      </trkpt>
      <trkpt lat="47.03026" lon="-1.64821">
        <ele>69</ele>
        <time>2022-06-28T09:38:24Z</time>
      </trkpt>
      <trkpt lat="47.03016" lon="-1.6481">
        <ele>69</ele>
        <time>2022-06-28T09:38:26Z</time>
      </trkpt>
      <trkpt lat="47.03005" lon="-1.64802">
        <ele>69</ele>
        <time>2022-06-28T09:38:28Z</time>
      </trkpt>
      <trkpt lat="47.02994" lon="-1.64796">
        <ele>70</ele>
        <time>2022-06-28T09:38:30Z</time>
      </trkpt>
      <trkpt lat="47.02985" lon="-1.64782">
        <ele>69</ele>
        <time>2022-06-28T09:38:32Z</time>
      </trkpt>
      <trkpt lat="47.02982" lon="-1.64763">
        <ele>69</ele>
        <time>2022-06-28T09:38:34Z</time>
      </trkpt>
      <trkpt lat="47.02977" lon="-1.64746">
        <ele>69</ele>
        <time>2022-06-28T09:38:36Z</time>
      </trkpt>
      <trkpt lat="47.02969" lon="-1.64731">
        <ele>69</ele>
        <time>2022-06-28T09:38:38Z</time>
      </trkpt>
      <trkpt lat="47.0296" lon="-1.64718">
        <ele>69</ele>
        <time>2022-06-28T09:38:40Z</time>
      </trkpt>
      <trkpt lat="47.02952" lon="-1.64705">
        <ele>69</ele>
        <time>2022-06-28T09:38:42Z</time>
      </trkpt>
      <trkpt lat="47.02943" lon="-1.64692">
        <ele>70</ele>
        <time>2022-06-28T09:38:44Z</time>
      </trkpt>
      <trkpt lat="47.02935" lon="-1.6468">
        <ele>70</ele>
        <time>2022-06-28T09:38:46Z</time>
      </trkpt>
      <trkpt lat="47.02927" lon="-1.64667">
        <ele>70</ele>
        <time>2022-06-28T09:38:48Z</time>
      </trkpt>
      <trkpt lat="47.02919" lon="-1.64654">
        <ele>70</ele>
        <time>2022-06-28T09:38:50Z</time>
      </trkpt>
      <trkpt lat="47.02911" lon="-1.64641">
        <ele>71</ele>
        <time>2022-06-28T09:38:52Z</time>
      </trkpt>
      <trkpt lat="47.02903" lon="-1.6463">
        <ele>72</ele>
        <time>2022-06-28T09:38:54Z</time>
      </trkpt>
      <trkpt lat="47.02894" lon="-1.64617">
        <ele>72</ele>
        <time>2022-06-28T09:38:56Z</time>
      </trkpt>
      <trkpt lat="47.02887" lon="-1.64605">
        <ele>72</ele>
        <time>2022-06-28T09:38:58Z</time>
      </trkpt>
      <trkpt lat="47.02879" lon="-1.64593">
        <ele>72</ele>
        <time>2022-06-28T09:39:00Z</time>
      </trkpt>
      <trkpt lat="47.02871" lon="-1.64582">
        <ele>72</ele>
        <time>2022-06-28T09:39:02Z</time>
      </trkpt>
      <trkpt lat="47.02863" lon="-1.6457">
        <ele>72</ele>
        <time>2022-06-28T09:39:04Z</time>
      </trkpt>
      <trkpt lat="47.02855" lon="-1.64558">
        <ele>72</ele>
        <time>2022-06-28T09:39:06Z</time>
      </trkpt>
      <trkpt lat="47.02847" lon="-1.64545">
        <ele>73</ele>
        <time>2022-06-28T09:39:08Z</time>
      </trkpt>
      <trkpt lat="47.0284" lon="-1.64533">
        <ele>73</ele>
        <time>2022-06-28T09:39:10Z</time>
      </trkpt>
      <trkpt lat="47.02833" lon="-1.6452">
        <ele>73</ele>
        <time>2022-06-28T09:39:12Z</time>
      </trkpt>
      <trkpt lat="47.02825" lon="-1.64507">
        <ele>73</ele>
        <time>2022-06-28T09:39:14Z</time>
      </trkpt>
      <trkpt lat="47.02818" lon="-1.64494">
        <ele>73</ele>
        <time>2022-06-28T09:39:16Z</time>
      </trkpt>
      <trkpt lat="47.02811" lon="-1.64481">
        <ele>73</ele>
        <time>2022-06-28T09:39:18Z</time>
      </trkpt>
      <trkpt lat="47.02804" lon="-1.64468">
        <ele>73</ele>
        <time>2022-06-28T09:39:20Z</time>
      </trkpt>
      <trkpt lat="47.02798" lon="-1.64454">
        <ele>73</ele>
        <time>2022-06-28T09:39:22Z</time>
      </trkpt>
      <trkpt lat="47.02791" lon="-1.64441">
        <ele>73</ele>
        <time>2022-06-28T09:39:24Z</time>
      </trkpt>
      <trkpt lat="47.02784" lon="-1.64428">
        <ele>73</ele>
        <time>2022-06-28T09:39:26Z</time>
      </trkpt>
      <trkpt lat="47.02776" lon="-1.64414">
        <ele>73</ele>
        <time>2022-06-28T09:39:28Z</time>
      </trkpt>
      <trkpt lat="47.02767" lon="-1.64402">
        <ele>73</ele>
        <time>2022-06-28T09:39:30Z</time>
      </trkpt>
      <trkpt lat="47.02757" lon="-1.64391">
        <ele>73</ele>
        <time>2022-06-28T09:39:32Z</time>
      </trkpt>
      <trkpt lat="47.02754" lon="-1.64374">
        <ele>72</ele>
        <time>2022-06-28T09:39:34Z</time>
      </trkpt>
      <trkpt lat="47.02762" lon="-1.64359">
        <ele>72</ele>
        <time>2022-06-28T09:39:36Z</time>
      </trkpt>
      <trkpt lat="47.02774" lon="-1.64355">
        <ele>72</ele>
        <time>2022-06-28T09:39:38Z</time>
      </trkpt>
      <trkpt lat="47.02786" lon="-1.64357">
        <ele>72</ele>
        <time>2022-06-28T09:39:40Z</time>
      </trkpt>
      <trkpt lat="47.02798" lon="-1.64351">
        <ele>71</ele>
        <time>2022-06-28T09:39:42Z</time>
      </trkpt>
      <trkpt lat="47.02809" lon="-1.64344">
        <ele>72</ele>
        <time>2022-06-28T09:39:44Z</time>
      </trkpt>
      <trkpt lat="47.02821" lon="-1.64338">
        <ele>73</ele>
        <time>2022-06-28T09:39:46Z</time>
      </trkpt>
      <trkpt lat="47.02833" lon="-1.64334">
        <ele>73</ele>
        <time>2022-06-28T09:39:48Z</time>
      </trkpt>
      <trkpt lat="47.02845" lon="-1.64332">
        <ele>73</ele>
        <time>2022-06-28T09:39:50Z</time>
      </trkpt>
      <trkpt lat="47.02857" lon="-1.6433">
        <ele>74</ele>
        <time>2022-06-28T09:39:52Z</time>
      </trkpt>
      <trkpt lat="47.0287" lon="-1.6433">
        <ele>74</ele>
        <time>2022-06-28T09:39:54Z</time>
      </trkpt>
      <trkpt lat="47.02882" lon="-1.6433">
        <ele>74</ele>
        <time>2022-06-28T09:39:56Z</time>
      </trkpt>
      <trkpt lat="47.02892" lon="-1.64326">
        <ele>74</ele>
        <time>2022-06-28T09:39:58Z</time>
      </trkpt>
      <trkpt lat="47.02903" lon="-1.64319">
        <ele>73</ele>
        <time>2022-06-28T09:40:00Z</time>
      </trkpt>
      <trkpt lat="47.02915" lon="-1.64311">
        <ele>73</ele>
        <time>2022-06-28T09:40:02Z</time>
      </trkpt>
      <trkpt lat="47.02926" lon="-1.64304">
        <ele>72</ele>
        <time>2022-06-28T09:40:04Z</time>
      </trkpt>
      <trkpt lat="47.02938" lon="-1.64296">
        <ele>72</ele>
        <time>2022-06-28T09:40:06Z</time>
      </trkpt>
      <trkpt lat="47.0295" lon="-1.64286">
        <ele>71</ele>
        <time>2022-06-28T09:40:08Z</time>
      </trkpt>
      <trkpt lat="47.02964" lon="-1.64278">
        <ele>70</ele>
        <time>2022-06-28T09:40:10Z</time>
      </trkpt>
      <trkpt lat="47.02977" lon="-1.64269">
        <ele>70</ele>
        <time>2022-06-28T09:40:12Z</time>
      </trkpt>
      <trkpt lat="47.02991" lon="-1.64259">
        <ele>69</ele>
        <time>2022-06-28T09:40:14Z</time>
      </trkpt>
      <trkpt lat="47.03006" lon="-1.64248">
        <ele>68</ele>
        <time>2022-06-28T09:40:16Z</time>
      </trkpt>
      <trkpt lat="47.0302" lon="-1.64238">
        <ele>68</ele>
        <time>2022-06-28T09:40:18Z</time>
      </trkpt>
      <trkpt lat="47.03035" lon="-1.64229">
        <ele>68</ele>
        <time>2022-06-28T09:40:20Z</time>
      </trkpt>
      <trkpt lat="47.0305" lon="-1.6422">
        <ele>68</ele>
        <time>2022-06-28T09:40:22Z</time>
      </trkpt>
      <trkpt lat="47.03065" lon="-1.64213">
        <ele>68</ele>
        <time>2022-06-28T09:40:24Z</time>
      </trkpt>
      <trkpt lat="47.03081" lon="-1.6421">
        <ele>68</ele>
        <time>2022-06-28T09:40:26Z</time>
      </trkpt>
      <trkpt lat="47.03097" lon="-1.64211">
        <ele>69</ele>
        <time>2022-06-28T09:40:28Z</time>
      </trkpt>
      <trkpt lat="47.03113" lon="-1.64216">
        <ele>68</ele>
        <time>2022-06-28T09:40:30Z</time>
      </trkpt>
      <trkpt lat="47.03129" lon="-1.64221">
        <ele>68</ele>
        <time>2022-06-28T09:40:32Z</time>
      </trkpt>
      <trkpt lat="47.03144" lon="-1.64226">
        <ele>67</ele>
        <time>2022-06-28T09:40:34Z</time>
      </trkpt>
      <trkpt lat="47.0316" lon="-1.6423">
        <ele>66</ele>
        <time>2022-06-28T09:40:36Z</time>
      </trkpt>
      <trkpt lat="47.03176" lon="-1.64233">
        <ele>66</ele>
        <time>2022-06-28T09:40:38Z</time>
      </trkpt>
      <trkpt lat="47.03192" lon="-1.64235">
        <ele>66</ele>
        <time>2022-06-28T09:40:40Z</time>
      </trkpt>
      <trkpt lat="47.03207" lon="-1.64237">
        <ele>65</ele>
        <time>2022-06-28T09:40:42Z</time>
      </trkpt>
      <trkpt lat="47.03223" lon="-1.64238">
        <ele>64</ele>
        <time>2022-06-28T09:40:44Z</time>
      </trkpt>
      <trkpt lat="47.03238" lon="-1.64237">
        <ele>64</ele>
        <time>2022-06-28T09:40:46Z</time>
      </trkpt>
      <trkpt lat="47.03254" lon="-1.64237">
        <ele>64</ele>
        <time>2022-06-28T09:40:48Z</time>
      </trkpt>
      <trkpt lat="47.0327" lon="-1.64237">
        <ele>64</ele>
        <time>2022-06-28T09:40:50Z</time>
      </trkpt>
      <trkpt lat="47.03285" lon="-1.64237">
        <ele>64</ele>
        <time>2022-06-28T09:40:52Z</time>
      </trkpt>
      <trkpt lat="47.033" lon="-1.64236">
        <ele>64</ele>
        <time>2022-06-28T09:40:54Z</time>
      </trkpt>
      <trkpt lat="47.03316" lon="-1.64235">
        <ele>64</ele>
        <time>2022-06-28T09:40:56Z</time>
      </trkpt>
      <trkpt lat="47.03331" lon="-1.64235">
        <ele>63</ele>
        <time>2022-06-28T09:40:58Z</time>
      </trkpt>
      <trkpt lat="47.03346" lon="-1.64236">
        <ele>63</ele>
        <time>2022-06-28T09:41:00Z</time>
      </trkpt>
      <trkpt lat="47.03361" lon="-1.64238">
        <ele>64</ele>
        <time>2022-06-28T09:41:02Z</time>
      </trkpt>
      <trkpt lat="47.03375" lon="-1.64241">
        <ele>64</ele>
        <time>2022-06-28T09:41:04Z</time>
      </trkpt>
      <trkpt lat="47.0339" lon="-1.64245">
        <ele>63</ele>
        <time>2022-06-28T09:41:06Z</time>
      </trkpt>
      <trkpt lat="47.03404" lon="-1.64251">
        <ele>63</ele>
        <time>2022-06-28T09:41:08Z</time>
      </trkpt>
      <trkpt lat="47.03419" lon="-1.64257">
        <ele>62</ele>
        <time>2022-06-28T09:41:10Z</time>
      </trkpt>
      <trkpt lat="47.03434" lon="-1.64263">
        <ele>62</ele>
        <time>2022-06-28T09:41:12Z</time>
      </trkpt>
      <trkpt lat="47.03448" lon="-1.64268">
        <ele>62</ele>
        <time>2022-06-28T09:41:14Z</time>
      </trkpt>
      <trkpt lat="47.03462" lon="-1.64273">
        <ele>62</ele>
        <time>2022-06-28T09:41:16Z</time>
      </trkpt>
      <trkpt lat="47.03477" lon="-1.64279">
        <ele>62</ele>
        <time>2022-06-28T09:41:18Z</time>
      </trkpt>
      <trkpt lat="47.03491" lon="-1.64285">
        <ele>62</ele>
        <time>2022-06-28T09:41:20Z</time>
      </trkpt>
      <trkpt lat="47.03505" lon="-1.64292">
        <ele>63</ele>
        <time>2022-06-28T09:41:22Z</time>
      </trkpt>
      <trkpt lat="47.03519" lon="-1.64297">
        <ele>62</ele>
        <time>2022-06-28T09:41:24Z</time>
      </trkpt>
      <trkpt lat="47.03533" lon="-1.64303">
        <ele>62</ele>
        <time>2022-06-28T09:41:26Z</time>
      </trkpt>
      <trkpt lat="47.03546" lon="-1.64305">
        <ele>63</ele>
        <time>2022-06-28T09:41:28Z</time>
      </trkpt>
      <trkpt lat="47.03559" lon="-1.64305">
        <ele>62</ele>
        <time>2022-06-28T09:41:30Z</time>
      </trkpt>
      <trkpt lat="47.0357" lon="-1.64302">
        <ele>61</ele>
        <time>2022-06-28T09:41:32Z</time>
      </trkpt>
      <trkpt lat="47.03569" lon="-1.64283">
        <ele>61</ele>
        <time>2022-06-28T09:41:34Z</time>
      </trkpt>
      <trkpt lat="47.03565" lon="-1.64263">
        <ele>60</ele>
        <time>2022-06-28T09:41:36Z</time>
      </trkpt>
      <trkpt lat="47.0356" lon="-1.64244">
        <ele>60</ele>
        <time>2022-06-28T09:41:38Z</time>
      </trkpt>
      <trkpt lat="47.03556" lon="-1.64227">
        <ele>60</ele>
        <time>2022-06-28T09:41:40Z</time>
      </trkpt>
      <trkpt lat="47.03554" lon="-1.64211">
        <ele>60</ele>
        <time>2022-06-28T09:41:42Z</time>
      </trkpt>
      <trkpt lat="47.03557" lon="-1.64197">
        <ele>59</ele>
        <time>2022-06-28T09:41:44Z</time>
      </trkpt>
      <trkpt lat="47.03567" lon="-1.64188">
        <ele>59</ele>
        <time>2022-06-28T09:41:46Z</time>
      </trkpt>
      <trkpt lat="47.03578" lon="-1.64181">
        <ele>59</ele>
        <time>2022-06-28T09:41:48Z</time>
      </trkpt>
      <trkpt lat="47.03589" lon="-1.64174">
        <ele>59</ele>
        <time>2022-06-28T09:41:50Z</time>
      </trkpt>
      <trkpt lat="47.03599" lon="-1.64168">
        <ele>59</ele>
        <time>2022-06-28T09:41:52Z</time>
      </trkpt>
      <trkpt lat="47.03609" lon="-1.6416">
        <ele>60</ele>
        <time>2022-06-28T09:41:54Z</time>
      </trkpt>
      <trkpt lat="47.03616" lon="-1.64146">
        <ele>60</ele>
        <time>2022-06-28T09:41:57Z</time>
      </trkpt>
      <trkpt lat="47.03624" lon="-1.64138">
        <ele>61</ele>
        <time>2022-06-28T09:42:00Z</time>
      </trkpt>
      <trkpt lat="47.03636" lon="-1.64128">
        <ele>61</ele>
        <time>2022-06-28T09:42:03Z</time>
      </trkpt>
      <trkpt lat="47.03645" lon="-1.64126">
        <ele>61</ele>
        <time>2022-06-28T09:42:20Z</time>
      </trkpt>
      <trkpt lat="47.03655" lon="-1.64125">
        <ele>61</ele>
        <time>2022-06-28T09:42:22Z</time>
      </trkpt>
      <trkpt lat="47.03666" lon="-1.64124">
        <ele>61</ele>
        <time>2022-06-28T09:42:24Z</time>
      </trkpt>
      <trkpt lat="47.03687" lon="-1.6412">
        <ele>61</ele>
        <time>2022-06-28T09:42:27Z</time>
      </trkpt>
      <trkpt lat="47.037" lon="-1.64117">
        <ele>61</ele>
        <time>2022-06-28T09:42:29Z</time>
      </trkpt>
      <trkpt lat="47.0372" lon="-1.64112">
        <ele>62</ele>
        <time>2022-06-28T09:42:32Z</time>
      </trkpt>
      <trkpt lat="47.03734" lon="-1.64108">
        <ele>61</ele>
        <time>2022-06-28T09:42:34Z</time>
      </trkpt>
      <trkpt lat="47.03755" lon="-1.64103">
        <ele>60</ele>
        <time>2022-06-28T09:42:37Z</time>
      </trkpt>
      <trkpt lat="47.03769" lon="-1.641">
        <ele>60</ele>
        <time>2022-06-28T09:42:39Z</time>
      </trkpt>
      <trkpt lat="47.03783" lon="-1.64098">
        <ele>60</ele>
        <time>2022-06-28T09:42:41Z</time>
      </trkpt>
      <trkpt lat="47.03796" lon="-1.64095">
        <ele>59</ele>
        <time>2022-06-28T09:42:43Z</time>
      </trkpt>
      <trkpt lat="47.03809" lon="-1.64092">
        <ele>59</ele>
        <time>2022-06-28T09:42:45Z</time>
      </trkpt>
      <trkpt lat="47.03822" lon="-1.64088">
        <ele>60</ele>
        <time>2022-06-28T09:42:47Z</time>
      </trkpt>
      <trkpt lat="47.03834" lon="-1.64085">
        <ele>60</ele>
        <time>2022-06-28T09:42:49Z</time>
      </trkpt>
      <trkpt lat="47.03847" lon="-1.64084">
        <ele>60</ele>
        <time>2022-06-28T09:42:51Z</time>
      </trkpt>
      <trkpt lat="47.03866" lon="-1.64093">
        <ele>60</ele>
        <time>2022-06-28T09:42:54Z</time>
      </trkpt>
      <trkpt lat="47.0388" lon="-1.64096">
        <ele>59</ele>
        <time>2022-06-28T09:42:56Z</time>
      </trkpt>
      <trkpt lat="47.03893" lon="-1.64102">
        <ele>59</ele>
        <time>2022-06-28T09:42:58Z</time>
      </trkpt>
      <trkpt lat="47.03906" lon="-1.6411">
        <ele>60</ele>
        <time>2022-06-28T09:43:00Z</time>
      </trkpt>
      <trkpt lat="47.03919" lon="-1.64118">
        <ele>60</ele>
        <time>2022-06-28T09:43:02Z</time>
      </trkpt>
      <trkpt lat="47.03932" lon="-1.64126">
        <ele>59</ele>
        <time>2022-06-28T09:43:04Z</time>
      </trkpt>
      <trkpt lat="47.03945" lon="-1.64134">
        <ele>59</ele>
        <time>2022-06-28T09:43:06Z</time>
      </trkpt>
      <trkpt lat="47.03957" lon="-1.6414">
        <ele>59</ele>
        <time>2022-06-28T09:43:08Z</time>
      </trkpt>
      <trkpt lat="47.03971" lon="-1.64141">
        <ele>59</ele>
        <time>2022-06-28T09:43:10Z</time>
      </trkpt>
      <trkpt lat="47.03984" lon="-1.64139">
        <ele>59</ele>
        <time>2022-06-28T09:43:12Z</time>
      </trkpt>
      <trkpt lat="47.03997" lon="-1.64131">
        <ele>59</ele>
        <time>2022-06-28T09:43:14Z</time>
      </trkpt>
      <trkpt lat="47.04009" lon="-1.64125">
        <ele>60</ele>
        <time>2022-06-28T09:43:16Z</time>
      </trkpt>
      <trkpt lat="47.04023" lon="-1.64118">
        <ele>59</ele>
        <time>2022-06-28T09:43:18Z</time>
      </trkpt>
      <trkpt lat="47.04037" lon="-1.64111">
        <ele>58</ele>
        <time>2022-06-28T09:43:20Z</time>
      </trkpt>
      <trkpt lat="47.04051" lon="-1.64105">
        <ele>58</ele>
        <time>2022-06-28T09:43:22Z</time>
      </trkpt>
      <trkpt lat="47.04067" lon="-1.64098">
        <ele>58</ele>
        <time>2022-06-28T09:43:24Z</time>
      </trkpt>
      <trkpt lat="47.04082" lon="-1.64091">
        <ele>58</ele>
        <time>2022-06-28T09:43:26Z</time>
      </trkpt>
      <trkpt lat="47.04097" lon="-1.64084">
        <ele>58</ele>
        <time>2022-06-28T09:43:28Z</time>
      </trkpt>
      <trkpt lat="47.04113" lon="-1.64078">
        <ele>58</ele>
        <time>2022-06-28T09:43:30Z</time>
      </trkpt>
      <trkpt lat="47.04128" lon="-1.6407">
        <ele>57</ele>
        <time>2022-06-28T09:43:32Z</time>
      </trkpt>
      <trkpt lat="47.04143" lon="-1.64063">
        <ele>57</ele>
        <time>2022-06-28T09:43:34Z</time>
      </trkpt>
      <trkpt lat="47.04157" lon="-1.64057">
        <ele>56</ele>
        <time>2022-06-28T09:43:36Z</time>
      </trkpt>
      <trkpt lat="47.0417" lon="-1.64051">
        <ele>56</ele>
        <time>2022-06-28T09:43:38Z</time>
      </trkpt>
      <trkpt lat="47.04184" lon="-1.64046">
        <ele>56</ele>
        <time>2022-06-28T09:43:40Z</time>
      </trkpt>
      <trkpt lat="47.04197" lon="-1.6404">
        <ele>55</ele>
        <time>2022-06-28T09:43:42Z</time>
      </trkpt>
      <trkpt lat="47.0421" lon="-1.64034">
        <ele>55</ele>
        <time>2022-06-28T09:43:44Z</time>
      </trkpt>
      <trkpt lat="47.04224" lon="-1.64027">
        <ele>55</ele>
        <time>2022-06-28T09:43:46Z</time>
      </trkpt>
      <trkpt lat="47.04238" lon="-1.64021">
        <ele>55</ele>
        <time>2022-06-28T09:43:48Z</time>
      </trkpt>
      <trkpt lat="47.04251" lon="-1.64015">
        <ele>55</ele>
        <time>2022-06-28T09:43:50Z</time>
      </trkpt>
      <trkpt lat="47.04264" lon="-1.6401">
        <ele>55</ele>
        <time>2022-06-28T09:43:52Z</time>
      </trkpt>
      <trkpt lat="47.04277" lon="-1.64003">
        <ele>56</ele>
        <time>2022-06-28T09:43:54Z</time>
      </trkpt>
      <trkpt lat="47.0429" lon="-1.63998">
        <ele>56</ele>
        <time>2022-06-28T09:43:56Z</time>
      </trkpt>
      <trkpt lat="47.04303" lon="-1.63992">
        <ele>57</ele>
        <time>2022-06-28T09:43:58Z</time>
      </trkpt>
      <trkpt lat="47.04316" lon="-1.63987">
        <ele>57</ele>
        <time>2022-06-28T09:44:00Z</time>
      </trkpt>
      <trkpt lat="47.04329" lon="-1.63981">
        <ele>57</ele>
        <time>2022-06-28T09:44:02Z</time>
      </trkpt>
      <trkpt lat="47.04342" lon="-1.63975">
        <ele>56</ele>
        <time>2022-06-28T09:44:04Z</time>
      </trkpt>
      <trkpt lat="47.04355" lon="-1.6397">
        <ele>56</ele>
        <time>2022-06-28T09:44:06Z</time>
      </trkpt>
      <trkpt lat="47.04368" lon="-1.63963">
        <ele>55</ele>
        <time>2022-06-28T09:44:08Z</time>
      </trkpt>
      <trkpt lat="47.04382" lon="-1.63958">
        <ele>55</ele>
        <time>2022-06-28T09:44:10Z</time>
      </trkpt>
      <trkpt lat="47.04394" lon="-1.63951">
        <ele>55</ele>
        <time>2022-06-28T09:44:12Z</time>
      </trkpt>
      <trkpt lat="47.04408" lon="-1.63945">
        <ele>55</ele>
        <time>2022-06-28T09:44:14Z</time>
      </trkpt>
      <trkpt lat="47.04422" lon="-1.63939">
        <ele>55</ele>
        <time>2022-06-28T09:44:16Z</time>
      </trkpt>
      <trkpt lat="47.04435" lon="-1.63933">
        <ele>55</ele>
        <time>2022-06-28T09:44:18Z</time>
      </trkpt>
      <trkpt lat="47.04448" lon="-1.63926">
        <ele>56</ele>
        <time>2022-06-28T09:44:20Z</time>
      </trkpt>
      <trkpt lat="47.0446" lon="-1.63918">
        <ele>56</ele>
        <time>2022-06-28T09:44:22Z</time>
      </trkpt>
      <trkpt lat="47.04473" lon="-1.63909">
        <ele>56</ele>
        <time>2022-06-28T09:44:24Z</time>
      </trkpt>
      <trkpt lat="47.04486" lon="-1.63906">
        <ele>56</ele>
        <time>2022-06-28T09:44:26Z</time>
      </trkpt>
      <trkpt lat="47.04498" lon="-1.639">
        <ele>56</ele>
        <time>2022-06-28T09:44:28Z</time>
      </trkpt>
      <trkpt lat="47.04511" lon="-1.63891">
        <ele>55</ele>
        <time>2022-06-28T09:44:30Z</time>
      </trkpt>
      <trkpt lat="47.04523" lon="-1.63884">
        <ele>55</ele>
        <time>2022-06-28T09:44:32Z</time>
      </trkpt>
      <trkpt lat="47.04536" lon="-1.63876">
        <ele>55</ele>
        <time>2022-06-28T09:44:34Z</time>
      </trkpt>
      <trkpt lat="47.04548" lon="-1.63869">
        <ele>54</ele>
        <time>2022-06-28T09:44:36Z</time>
      </trkpt>
      <trkpt lat="47.0456" lon="-1.63862">
        <ele>54</ele>
        <time>2022-06-28T09:44:38Z</time>
      </trkpt>
      <trkpt lat="47.04573" lon="-1.63854">
        <ele>54</ele>
        <time>2022-06-28T09:44:40Z</time>
      </trkpt>
      <trkpt lat="47.04585" lon="-1.63847">
        <ele>55</ele>
        <time>2022-06-28T09:44:42Z</time>
      </trkpt>
      <trkpt lat="47.04597" lon="-1.63843">
        <ele>55</ele>
        <time>2022-06-28T09:44:44Z</time>
      </trkpt>
      <trkpt lat="47.04609" lon="-1.6384">
        <ele>55</ele>
        <time>2022-06-28T09:44:46Z</time>
      </trkpt>
      <trkpt lat="47.04621" lon="-1.63839">
        <ele>56</ele>
        <time>2022-06-28T09:44:48Z</time>
      </trkpt>
      <trkpt lat="47.04632" lon="-1.63837">
        <ele>56</ele>
        <time>2022-06-28T09:44:50Z</time>
      </trkpt>
      <trkpt lat="47.04643" lon="-1.63835">
        <ele>56</ele>
        <time>2022-06-28T09:44:52Z</time>
      </trkpt>
      <trkpt lat="47.04653" lon="-1.6383">
        <ele>56</ele>
        <time>2022-06-28T09:44:54Z</time>
      </trkpt>
      <trkpt lat="47.04664" lon="-1.63824">
        <ele>56</ele>
        <time>2022-06-28T09:44:56Z</time>
      </trkpt>
      <trkpt lat="47.04674" lon="-1.63818">
        <ele>57</ele>
        <time>2022-06-28T09:44:58Z</time>
      </trkpt>
      <trkpt lat="47.04684" lon="-1.63812">
        <ele>57</ele>
        <time>2022-06-28T09:45:00Z</time>
      </trkpt>
      <trkpt lat="47.04693" lon="-1.63808">
        <ele>57</ele>
        <time>2022-06-28T09:45:02Z</time>
      </trkpt>
      <trkpt lat="47.04703" lon="-1.63804">
        <ele>57</ele>
        <time>2022-06-28T09:45:05Z</time>
      </trkpt>
      <trkpt lat="47.04713" lon="-1.63797">
        <ele>58</ele>
        <time>2022-06-28T09:45:09Z</time>
      </trkpt>
      <trkpt lat="47.04722" lon="-1.63793">
        <ele>58</ele>
        <time>2022-06-28T09:45:11Z</time>
      </trkpt>
      <trkpt lat="47.04734" lon="-1.63795">
        <ele>58</ele>
        <time>2022-06-28T09:45:13Z</time>
      </trkpt>
      <trkpt lat="47.04744" lon="-1.63796">
        <ele>59</ele>
        <time>2022-06-28T09:45:15Z</time>
      </trkpt>
      <trkpt lat="47.04755" lon="-1.63792">
        <ele>59</ele>
        <time>2022-06-28T09:45:17Z</time>
      </trkpt>
      <trkpt lat="47.04766" lon="-1.63787">
        <ele>60</ele>
        <time>2022-06-28T09:45:19Z</time>
      </trkpt>
      <trkpt lat="47.04777" lon="-1.63784">
        <ele>61</ele>
        <time>2022-06-28T09:45:21Z</time>
      </trkpt>
      <trkpt lat="47.04787" lon="-1.63781">
        <ele>62</ele>
        <time>2022-06-28T09:45:23Z</time>
      </trkpt>
      <trkpt lat="47.04798" lon="-1.63778">
        <ele>62</ele>
        <time>2022-06-28T09:45:25Z</time>
      </trkpt>
      <trkpt lat="47.04809" lon="-1.63776">
        <ele>62</ele>
        <time>2022-06-28T09:45:27Z</time>
      </trkpt>
      <trkpt lat="47.0482" lon="-1.63774">
        <ele>62</ele>
        <time>2022-06-28T09:45:29Z</time>
      </trkpt>
      <trkpt lat="47.04831" lon="-1.63772">
        <ele>62</ele>
        <time>2022-06-28T09:45:31Z</time>
      </trkpt>
      <trkpt lat="47.04842" lon="-1.6377">
        <ele>62</ele>
        <time>2022-06-28T09:45:33Z</time>
      </trkpt>
      <trkpt lat="47.04852" lon="-1.63768">
        <ele>62</ele>
        <time>2022-06-28T09:45:35Z</time>
      </trkpt>
      <trkpt lat="47.04864" lon="-1.63766">
        <ele>62</ele>
        <time>2022-06-28T09:45:37Z</time>
      </trkpt>
      <trkpt lat="47.04876" lon="-1.63764">
        <ele>61</ele>
        <time>2022-06-28T09:45:39Z</time>
      </trkpt>
      <trkpt lat="47.04888" lon="-1.63761">
        <ele>61</ele>
        <time>2022-06-28T09:45:41Z</time>
      </trkpt>
      <trkpt lat="47.04901" lon="-1.63758">
        <ele>60</ele>
        <time>2022-06-28T09:45:43Z</time>
      </trkpt>
      <trkpt lat="47.04914" lon="-1.63755">
        <ele>60</ele>
        <time>2022-06-28T09:45:45Z</time>
      </trkpt>
      <trkpt lat="47.04927" lon="-1.63749">
        <ele>60</ele>
        <time>2022-06-28T09:45:47Z</time>
      </trkpt>
      <trkpt lat="47.04938" lon="-1.63738">
        <ele>60</ele>
        <time>2022-06-28T09:45:49Z</time>
      </trkpt>
      <trkpt lat="47.04944" lon="-1.63722">
        <ele>60</ele>
        <time>2022-06-28T09:45:51Z</time>
      </trkpt>
      <trkpt lat="47.04946" lon="-1.63703">
        <ele>60</ele>
        <time>2022-06-28T09:45:53Z</time>
      </trkpt>
      <trkpt lat="47.04946" lon="-1.63685">
        <ele>60</ele>
        <time>2022-06-28T09:45:55Z</time>
      </trkpt>
      <trkpt lat="47.04945" lon="-1.63667">
        <ele>59</ele>
        <time>2022-06-28T09:45:57Z</time>
      </trkpt>
      <trkpt lat="47.04946" lon="-1.63648">
        <ele>59</ele>
        <time>2022-06-28T09:45:59Z</time>
      </trkpt>
      <trkpt lat="47.04949" lon="-1.63629">
        <ele>59</ele>
        <time>2022-06-28T09:46:01Z</time>
      </trkpt>
      <trkpt lat="47.04954" lon="-1.63609">
        <ele>59</ele>
        <time>2022-06-28T09:46:03Z</time>
      </trkpt>
      <trkpt lat="47.04961" lon="-1.63591">
        <ele>58</ele>
        <time>2022-06-28T09:46:05Z</time>
      </trkpt>
      <trkpt lat="47.04971" lon="-1.63575">
        <ele>58</ele>
        <time>2022-06-28T09:46:07Z</time>
      </trkpt>
      <trkpt lat="47.04984" lon="-1.63563">
        <ele>57</ele>
        <time>2022-06-28T09:46:09Z</time>
      </trkpt>
      <trkpt lat="47.04998" lon="-1.63553">
        <ele>57</ele>
        <time>2022-06-28T09:46:11Z</time>
      </trkpt>
      <trkpt lat="47.05013" lon="-1.63545">
        <ele>57</ele>
        <time>2022-06-28T09:46:13Z</time>
      </trkpt>
      <trkpt lat="47.05027" lon="-1.63539">
        <ele>57</ele>
        <time>2022-06-28T09:46:15Z</time>
      </trkpt>
      <trkpt lat="47.05041" lon="-1.63534">
        <ele>57</ele>
        <time>2022-06-28T09:46:17Z</time>
      </trkpt>
      <trkpt lat="47.05054" lon="-1.63529">
        <ele>57</ele>
        <time>2022-06-28T09:46:19Z</time>
      </trkpt>
      <trkpt lat="47.05068" lon="-1.63523">
        <ele>57</ele>
        <time>2022-06-28T09:46:21Z</time>
      </trkpt>
      <trkpt lat="47.05082" lon="-1.63519">
        <ele>57</ele>
        <time>2022-06-28T09:46:23Z</time>
      </trkpt>
      <trkpt lat="47.05095" lon="-1.63513">
        <ele>57</ele>
        <time>2022-06-28T09:46:25Z</time>
      </trkpt>
      <trkpt lat="47.05108" lon="-1.63508">
        <ele>56</ele>
        <time>2022-06-28T09:46:27Z</time>
      </trkpt>
      <trkpt lat="47.05122" lon="-1.63503">
        <ele>56</ele>
        <time>2022-06-28T09:46:29Z</time>
      </trkpt>
      <trkpt lat="47.05135" lon="-1.63498">
        <ele>56</ele>
        <time>2022-06-28T09:46:31Z</time>
      </trkpt>
      <trkpt lat="47.05148" lon="-1.63493">
        <ele>56</ele>
        <time>2022-06-28T09:46:33Z</time>
      </trkpt>
      <trkpt lat="47.05161" lon="-1.63487">
        <ele>55</ele>
        <time>2022-06-28T09:46:35Z</time>
      </trkpt>
      <trkpt lat="47.05174" lon="-1.63482">
        <ele>55</ele>
        <time>2022-06-28T09:46:37Z</time>
      </trkpt>
      <trkpt lat="47.05187" lon="-1.63477">
        <ele>55</ele>
        <time>2022-06-28T09:46:39Z</time>
      </trkpt>
      <trkpt lat="47.052" lon="-1.63473">
        <ele>55</ele>
        <time>2022-06-28T09:46:41Z</time>
      </trkpt>
      <trkpt lat="47.05213" lon="-1.63468">
        <ele>55</ele>
        <time>2022-06-28T09:46:43Z</time>
      </trkpt>
      <trkpt lat="47.05226" lon="-1.63464">
        <ele>55</ele>
        <time>2022-06-28T09:46:45Z</time>
      </trkpt>
      <trkpt lat="47.05239" lon="-1.6346">
        <ele>55</ele>
        <time>2022-06-28T09:46:47Z</time>
      </trkpt>
      <trkpt lat="47.05253" lon="-1.63456">
        <ele>55</ele>
        <time>2022-06-28T09:46:49Z</time>
      </trkpt>
      <trkpt lat="47.05266" lon="-1.63453">
        <ele>55</ele>
        <time>2022-06-28T09:46:51Z</time>
      </trkpt>
      <trkpt lat="47.05279" lon="-1.6345">
        <ele>56</ele>
        <time>2022-06-28T09:46:53Z</time>
      </trkpt>
      <trkpt lat="47.05292" lon="-1.63447">
        <ele>55</ele>
        <time>2022-06-28T09:46:55Z</time>
      </trkpt>
      <trkpt lat="47.05305" lon="-1.63445">
        <ele>55</ele>
        <time>2022-06-28T09:46:57Z</time>
      </trkpt>
      <trkpt lat="47.05318" lon="-1.63444">
        <ele>55</ele>
        <time>2022-06-28T09:46:59Z</time>
      </trkpt>
      <trkpt lat="47.05332" lon="-1.63443">
        <ele>55</ele>
        <time>2022-06-28T09:47:01Z</time>
      </trkpt>
      <trkpt lat="47.05345" lon="-1.63442">
        <ele>55</ele>
        <time>2022-06-28T09:47:03Z</time>
      </trkpt>
      <trkpt lat="47.05358" lon="-1.63437">
        <ele>55</ele>
        <time>2022-06-28T09:47:05Z</time>
      </trkpt>
      <trkpt lat="47.05371" lon="-1.63429">
        <ele>55</ele>
        <time>2022-06-28T09:47:07Z</time>
      </trkpt>
      <trkpt lat="47.05384" lon="-1.63428">
        <ele>55</ele>
        <time>2022-06-28T09:47:09Z</time>
      </trkpt>
      <trkpt lat="47.05398" lon="-1.63432">
        <ele>55</ele>
        <time>2022-06-28T09:47:11Z</time>
      </trkpt>
      <trkpt lat="47.05411" lon="-1.6343">
        <ele>55</ele>
        <time>2022-06-28T09:47:13Z</time>
      </trkpt>
      <trkpt lat="47.05425" lon="-1.63428">
        <ele>55</ele>
        <time>2022-06-28T09:47:15Z</time>
      </trkpt>
      <trkpt lat="47.05438" lon="-1.63424">
        <ele>55</ele>
        <time>2022-06-28T09:47:17Z</time>
      </trkpt>
      <trkpt lat="47.05452" lon="-1.63422">
        <ele>55</ele>
        <time>2022-06-28T09:47:19Z</time>
      </trkpt>
      <trkpt lat="47.05465" lon="-1.6342">
        <ele>55</ele>
        <time>2022-06-28T09:47:21Z</time>
      </trkpt>
      <trkpt lat="47.05478" lon="-1.63418">
        <ele>55</ele>
        <time>2022-06-28T09:47:23Z</time>
      </trkpt>
      <trkpt lat="47.05492" lon="-1.63416">
        <ele>55</ele>
        <time>2022-06-28T09:47:25Z</time>
      </trkpt>
      <trkpt lat="47.05506" lon="-1.63414">
        <ele>55</ele>
        <time>2022-06-28T09:47:27Z</time>
      </trkpt>
      <trkpt lat="47.05519" lon="-1.63411">
        <ele>55</ele>
        <time>2022-06-28T09:47:29Z</time>
      </trkpt>
      <trkpt lat="47.05533" lon="-1.63407">
        <ele>55</ele>
        <time>2022-06-28T09:47:31Z</time>
      </trkpt>
      <trkpt lat="47.05546" lon="-1.63403">
        <ele>55</ele>
        <time>2022-06-28T09:47:33Z</time>
      </trkpt>
      <trkpt lat="47.05559" lon="-1.63398">
        <ele>55</ele>
        <time>2022-06-28T09:47:35Z</time>
      </trkpt>
      <trkpt lat="47.05572" lon="-1.63392">
        <ele>55</ele>
        <time>2022-06-28T09:47:37Z</time>
      </trkpt>
      <trkpt lat="47.05585" lon="-1.63387">
        <ele>55</ele>
        <time>2022-06-28T09:47:39Z</time>
      </trkpt>
      <trkpt lat="47.05598" lon="-1.63381">
        <ele>55</ele>
        <time>2022-06-28T09:47:41Z</time>
      </trkpt>
      <trkpt lat="47.05611" lon="-1.63375">
        <ele>55</ele>
        <time>2022-06-28T09:47:43Z</time>
      </trkpt>
      <trkpt lat="47.05623" lon="-1.63368">
        <ele>55</ele>
        <time>2022-06-28T09:47:45Z</time>
      </trkpt>
      <trkpt lat="47.05636" lon="-1.63363">
        <ele>55</ele>
        <time>2022-06-28T09:47:47Z</time>
      </trkpt>
      <trkpt lat="47.05648" lon="-1.63357">
        <ele>56</ele>
        <time>2022-06-28T09:47:49Z</time>
      </trkpt>
      <trkpt lat="47.05661" lon="-1.63351">
        <ele>55</ele>
        <time>2022-06-28T09:47:51Z</time>
      </trkpt>
      <trkpt lat="47.05674" lon="-1.63346">
        <ele>55</ele>
        <time>2022-06-28T09:47:53Z</time>
      </trkpt>
      <trkpt lat="47.05686" lon="-1.63339">
        <ele>55</ele>
        <time>2022-06-28T09:47:55Z</time>
      </trkpt>
      <trkpt lat="47.05699" lon="-1.63333">
        <ele>55</ele>
        <time>2022-06-28T09:47:57Z</time>
      </trkpt>
      <trkpt lat="47.05712" lon="-1.63327">
        <ele>55</ele>
        <time>2022-06-28T09:47:59Z</time>
      </trkpt>
      <trkpt lat="47.05725" lon="-1.63321">
        <ele>55</ele>
        <time>2022-06-28T09:48:01Z</time>
      </trkpt>
      <trkpt lat="47.05738" lon="-1.63316">
        <ele>56</ele>
        <time>2022-06-28T09:48:03Z</time>
      </trkpt>
      <trkpt lat="47.0575" lon="-1.6331">
        <ele>56</ele>
        <time>2022-06-28T09:48:05Z</time>
      </trkpt>
      <trkpt lat="47.05763" lon="-1.63304">
        <ele>57</ele>
        <time>2022-06-28T09:48:07Z</time>
      </trkpt>
      <trkpt lat="47.05776" lon="-1.63298">
        <ele>57</ele>
        <time>2022-06-28T09:48:09Z</time>
      </trkpt>
      <trkpt lat="47.05789" lon="-1.63291">
        <ele>57</ele>
        <time>2022-06-28T09:48:11Z</time>
      </trkpt>
      <trkpt lat="47.05802" lon="-1.63286">
        <ele>57</ele>
        <time>2022-06-28T09:48:13Z</time>
      </trkpt>
      <trkpt lat="47.05814" lon="-1.6328">
        <ele>57</ele>
        <time>2022-06-28T09:48:15Z</time>
      </trkpt>
      <trkpt lat="47.05827" lon="-1.63275">
        <ele>57</ele>
        <time>2022-06-28T09:48:17Z</time>
      </trkpt>
      <trkpt lat="47.0584" lon="-1.63268">
        <ele>56</ele>
        <time>2022-06-28T09:48:19Z</time>
      </trkpt>
      <trkpt lat="47.05852" lon="-1.63262">
        <ele>56</ele>
        <time>2022-06-28T09:48:21Z</time>
      </trkpt>
      <trkpt lat="47.05865" lon="-1.63256">
        <ele>57</ele>
        <time>2022-06-28T09:48:23Z</time>
      </trkpt>
      <trkpt lat="47.05877" lon="-1.63251">
        <ele>57</ele>
        <time>2022-06-28T09:48:25Z</time>
      </trkpt>
      <trkpt lat="47.0589" lon="-1.63245">
        <ele>57</ele>
        <time>2022-06-28T09:48:27Z</time>
      </trkpt>
      <trkpt lat="47.05903" lon="-1.63238">
        <ele>56</ele>
        <time>2022-06-28T09:48:29Z</time>
      </trkpt>
      <trkpt lat="47.05916" lon="-1.63232">
        <ele>56</ele>
        <time>2022-06-28T09:48:31Z</time>
      </trkpt>
      <trkpt lat="47.05929" lon="-1.63226">
        <ele>56</ele>
        <time>2022-06-28T09:48:33Z</time>
      </trkpt>
      <trkpt lat="47.05942" lon="-1.6322">
        <ele>56</ele>
        <time>2022-06-28T09:48:35Z</time>
      </trkpt>
      <trkpt lat="47.05955" lon="-1.63214">
        <ele>57</ele>
        <time>2022-06-28T09:48:37Z</time>
      </trkpt>
      <trkpt lat="47.05968" lon="-1.63208">
        <ele>56</ele>
        <time>2022-06-28T09:48:39Z</time>
      </trkpt>
      <trkpt lat="47.05981" lon="-1.63202">
        <ele>56</ele>
        <time>2022-06-28T09:48:41Z</time>
      </trkpt>
      <trkpt lat="47.05994" lon="-1.63197">
        <ele>57</ele>
        <time>2022-06-28T09:48:43Z</time>
      </trkpt>
      <trkpt lat="47.06006" lon="-1.63191">
        <ele>57</ele>
        <time>2022-06-28T09:48:45Z</time>
      </trkpt>
      <trkpt lat="47.06019" lon="-1.63184">
        <ele>56</ele>
        <time>2022-06-28T09:48:47Z</time>
      </trkpt>
      <trkpt lat="47.06032" lon="-1.63178">
        <ele>56</ele>
        <time>2022-06-28T09:48:49Z</time>
      </trkpt>
      <trkpt lat="47.06044" lon="-1.63172">
        <ele>56</ele>
        <time>2022-06-28T09:48:51Z</time>
      </trkpt>
      <trkpt lat="47.06056" lon="-1.63166">
        <ele>56</ele>
        <time>2022-06-28T09:48:53Z</time>
      </trkpt>
      <trkpt lat="47.06069" lon="-1.6316">
        <ele>56</ele>
        <time>2022-06-28T09:48:55Z</time>
      </trkpt>
      <trkpt lat="47.06081" lon="-1.63154">
        <ele>56</ele>
        <time>2022-06-28T09:48:57Z</time>
      </trkpt>
      <trkpt lat="47.06095" lon="-1.63148">
        <ele>56</ele>
        <time>2022-06-28T09:48:59Z</time>
      </trkpt>
      <trkpt lat="47.06107" lon="-1.63143">
        <ele>56</ele>
        <time>2022-06-28T09:49:01Z</time>
      </trkpt>
      <trkpt lat="47.0612" lon="-1.63137">
        <ele>56</ele>
        <time>2022-06-28T09:49:03Z</time>
      </trkpt>
      <trkpt lat="47.06132" lon="-1.63131">
        <ele>55</ele>
        <time>2022-06-28T09:49:05Z</time>
      </trkpt>
      <trkpt lat="47.06145" lon="-1.63125">
        <ele>56</ele>
        <time>2022-06-28T09:49:07Z</time>
      </trkpt>
      <trkpt lat="47.06157" lon="-1.63119">
        <ele>55</ele>
        <time>2022-06-28T09:49:09Z</time>
      </trkpt>
      <trkpt lat="47.06169" lon="-1.63113">
        <ele>55</ele>
        <time>2022-06-28T09:49:11Z</time>
      </trkpt>
      <trkpt lat="47.06181" lon="-1.63108">
        <ele>55</ele>
        <time>2022-06-28T09:49:13Z</time>
      </trkpt>
      <trkpt lat="47.06193" lon="-1.63102">
        <ele>55</ele>
        <time>2022-06-28T09:49:15Z</time>
      </trkpt>
      <trkpt lat="47.06205" lon="-1.63096">
        <ele>55</ele>
        <time>2022-06-28T09:49:17Z</time>
      </trkpt>
      <trkpt lat="47.06218" lon="-1.63089">
        <ele>55</ele>
        <time>2022-06-28T09:49:19Z</time>
      </trkpt>
      <trkpt lat="47.06231" lon="-1.63084">
        <ele>55</ele>
        <time>2022-06-28T09:49:21Z</time>
      </trkpt>
      <trkpt lat="47.06244" lon="-1.63078">
        <ele>55</ele>
        <time>2022-06-28T09:49:23Z</time>
      </trkpt>
      <trkpt lat="47.06257" lon="-1.63072">
        <ele>54</ele>
        <time>2022-06-28T09:49:25Z</time>
      </trkpt>
      <trkpt lat="47.0627" lon="-1.63065">
        <ele>54</ele>
        <time>2022-06-28T09:49:27Z</time>
      </trkpt>
      <trkpt lat="47.06283" lon="-1.63059">
        <ele>54</ele>
        <time>2022-06-28T09:49:29Z</time>
      </trkpt>
      <trkpt lat="47.06297" lon="-1.63053">
        <ele>55</ele>
        <time>2022-06-28T09:49:31Z</time>
      </trkpt>
      <trkpt lat="47.0631" lon="-1.63047">
        <ele>55</ele>
        <time>2022-06-28T09:49:33Z</time>
      </trkpt>
      <trkpt lat="47.06322" lon="-1.63041">
        <ele>54</ele>
        <time>2022-06-28T09:49:35Z</time>
      </trkpt>
      <trkpt lat="47.06334" lon="-1.63036">
        <ele>54</ele>
        <time>2022-06-28T09:49:37Z</time>
      </trkpt>
      <trkpt lat="47.06346" lon="-1.6303">
        <ele>54</ele>
        <time>2022-06-28T09:49:39Z</time>
      </trkpt>
      <trkpt lat="47.06359" lon="-1.63025">
        <ele>54</ele>
        <time>2022-06-28T09:49:41Z</time>
      </trkpt>
      <trkpt lat="47.0637" lon="-1.63019">
        <ele>53</ele>
        <time>2022-06-28T09:49:43Z</time>
      </trkpt>
      <trkpt lat="47.06382" lon="-1.63014">
        <ele>53</ele>
        <time>2022-06-28T09:49:45Z</time>
      </trkpt>
      <trkpt lat="47.06394" lon="-1.63008">
        <ele>53</ele>
        <time>2022-06-28T09:49:47Z</time>
      </trkpt>
      <trkpt lat="47.06406" lon="-1.63002">
        <ele>53</ele>
        <time>2022-06-28T09:49:49Z</time>
      </trkpt>
      <trkpt lat="47.06418" lon="-1.62997">
        <ele>53</ele>
        <time>2022-06-28T09:49:51Z</time>
      </trkpt>
      <trkpt lat="47.06429" lon="-1.62991">
        <ele>54</ele>
        <time>2022-06-28T09:49:53Z</time>
      </trkpt>
      <trkpt lat="47.06442" lon="-1.62985">
        <ele>55</ele>
        <time>2022-06-28T09:49:55Z</time>
      </trkpt>
      <trkpt lat="47.06454" lon="-1.6298">
        <ele>54</ele>
        <time>2022-06-28T09:49:57Z</time>
      </trkpt>
      <trkpt lat="47.06466" lon="-1.62974">
        <ele>54</ele>
        <time>2022-06-28T09:49:59Z</time>
      </trkpt>
      <trkpt lat="47.06477" lon="-1.62967">
        <ele>54</ele>
        <time>2022-06-28T09:50:01Z</time>
      </trkpt>
      <trkpt lat="47.06489" lon="-1.6296">
        <ele>54</ele>
        <time>2022-06-28T09:50:03Z</time>
      </trkpt>
      <trkpt lat="47.065" lon="-1.62952">
        <ele>54</ele>
        <time>2022-06-28T09:50:05Z</time>
      </trkpt>
      <trkpt lat="47.06511" lon="-1.62942">
        <ele>54</ele>
        <time>2022-06-28T09:50:07Z</time>
      </trkpt>
      <trkpt lat="47.06521" lon="-1.62931">
        <ele>54</ele>
        <time>2022-06-28T09:50:09Z</time>
      </trkpt>
      <trkpt lat="47.0653" lon="-1.62919">
        <ele>54</ele>
        <time>2022-06-28T09:50:11Z</time>
      </trkpt>
      <trkpt lat="47.06539" lon="-1.62907">
        <ele>54</ele>
        <time>2022-06-28T09:50:13Z</time>
      </trkpt>
      <trkpt lat="47.06548" lon="-1.62894">
        <ele>54</ele>
        <time>2022-06-28T09:50:15Z</time>
      </trkpt>
      <trkpt lat="47.06556" lon="-1.6288">
        <ele>54</ele>
        <time>2022-06-28T09:50:17Z</time>
      </trkpt>
      <trkpt lat="47.06565" lon="-1.62866">
        <ele>55</ele>
        <time>2022-06-28T09:50:19Z</time>
      </trkpt>
      <trkpt lat="47.06574" lon="-1.62852">
        <ele>55</ele>
        <time>2022-06-28T09:50:21Z</time>
      </trkpt>
      <trkpt lat="47.06583" lon="-1.62839">
        <ele>56</ele>
        <time>2022-06-28T09:50:23Z</time>
      </trkpt>
      <trkpt lat="47.06592" lon="-1.62825">
        <ele>56</ele>
        <time>2022-06-28T09:50:25Z</time>
      </trkpt>
      <trkpt lat="47.06601" lon="-1.62811">
        <ele>56</ele>
        <time>2022-06-28T09:50:27Z</time>
      </trkpt>
      <trkpt lat="47.0661" lon="-1.62797">
        <ele>56</ele>
        <time>2022-06-28T09:50:29Z</time>
      </trkpt>
      <trkpt lat="47.06619" lon="-1.62783">
        <ele>57</ele>
        <time>2022-06-28T09:50:31Z</time>
      </trkpt>
      <trkpt lat="47.06628" lon="-1.6277">
        <ele>57</ele>
        <time>2022-06-28T09:50:33Z</time>
      </trkpt>
      <trkpt lat="47.06637" lon="-1.62757">
        <ele>57</ele>
        <time>2022-06-28T09:50:35Z</time>
      </trkpt>
      <trkpt lat="47.06646" lon="-1.62743">
        <ele>57</ele>
        <time>2022-06-28T09:50:37Z</time>
      </trkpt>
      <trkpt lat="47.06655" lon="-1.6273">
        <ele>57</ele>
        <time>2022-06-28T09:50:39Z</time>
      </trkpt>
      <trkpt lat="47.06663" lon="-1.62716">
        <ele>56</ele>
        <time>2022-06-28T09:50:41Z</time>
      </trkpt>
      <trkpt lat="47.06672" lon="-1.62703">
        <ele>57</ele>
        <time>2022-06-28T09:50:43Z</time>
      </trkpt>
      <trkpt lat="47.06681" lon="-1.62689">
        <ele>57</ele>
        <time>2022-06-28T09:50:45Z</time>
      </trkpt>
      <trkpt lat="47.0669" lon="-1.62676">
        <ele>56</ele>
        <time>2022-06-28T09:50:47Z</time>
      </trkpt>
      <trkpt lat="47.06699" lon="-1.62663">
        <ele>57</ele>
        <time>2022-06-28T09:50:49Z</time>
      </trkpt>
      <trkpt lat="47.06708" lon="-1.6265">
        <ele>57</ele>
        <time>2022-06-28T09:50:51Z</time>
      </trkpt>
      <trkpt lat="47.06717" lon="-1.62638">
        <ele>57</ele>
        <time>2022-06-28T09:50:53Z</time>
      </trkpt>
      <trkpt lat="47.06728" lon="-1.62627">
        <ele>57</ele>
        <time>2022-06-28T09:50:55Z</time>
      </trkpt>
      <trkpt lat="47.06739" lon="-1.62615">
        <ele>57</ele>
        <time>2022-06-28T09:50:57Z</time>
      </trkpt>
      <trkpt lat="47.0675" lon="-1.62604">
        <ele>57</ele>
        <time>2022-06-28T09:50:59Z</time>
      </trkpt>
      <trkpt lat="47.06761" lon="-1.62594">
        <ele>57</ele>
        <time>2022-06-28T09:51:01Z</time>
      </trkpt>
      <trkpt lat="47.06771" lon="-1.62584">
        <ele>57</ele>
        <time>2022-06-28T09:51:03Z</time>
      </trkpt>
      <trkpt lat="47.06782" lon="-1.62574">
        <ele>57</ele>
        <time>2022-06-28T09:51:05Z</time>
      </trkpt>
      <trkpt lat="47.06794" lon="-1.62564">
        <ele>58</ele>
        <time>2022-06-28T09:51:07Z</time>
      </trkpt>
      <trkpt lat="47.06805" lon="-1.62553">
        <ele>58</ele>
        <time>2022-06-28T09:51:09Z</time>
      </trkpt>
      <trkpt lat="47.06817" lon="-1.62543">
        <ele>58</ele>
        <time>2022-06-28T09:51:11Z</time>
      </trkpt>
      <trkpt lat="47.06828" lon="-1.62533">
        <ele>59</ele>
        <time>2022-06-28T09:51:13Z</time>
      </trkpt>
      <trkpt lat="47.0684" lon="-1.62523">
        <ele>59</ele>
        <time>2022-06-28T09:51:15Z</time>
      </trkpt>
      <trkpt lat="47.06851" lon="-1.62514">
        <ele>60</ele>
        <time>2022-06-28T09:51:17Z</time>
      </trkpt>
      <trkpt lat="47.06864" lon="-1.62506">
        <ele>60</ele>
        <time>2022-06-28T09:51:19Z</time>
      </trkpt>
      <trkpt lat="47.06876" lon="-1.62499">
        <ele>60</ele>
        <time>2022-06-28T09:51:21Z</time>
      </trkpt>
      <trkpt lat="47.06889" lon="-1.62492">
        <ele>60</ele>
        <time>2022-06-28T09:51:23Z</time>
      </trkpt>
      <trkpt lat="47.06902" lon="-1.62486">
        <ele>61</ele>
        <time>2022-06-28T09:51:25Z</time>
      </trkpt>
      <trkpt lat="47.06915" lon="-1.6248">
        <ele>60</ele>
        <time>2022-06-28T09:51:27Z</time>
      </trkpt>
      <trkpt lat="47.06928" lon="-1.62474">
        <ele>60</ele>
        <time>2022-06-28T09:51:29Z</time>
      </trkpt>
      <trkpt lat="47.06943" lon="-1.62468">
        <ele>60</ele>
        <time>2022-06-28T09:51:31Z</time>
      </trkpt>
      <trkpt lat="47.06956" lon="-1.62462">
        <ele>60</ele>
        <time>2022-06-28T09:51:33Z</time>
      </trkpt>
      <trkpt lat="47.0697" lon="-1.62456">
        <ele>60</ele>
        <time>2022-06-28T09:51:35Z</time>
      </trkpt>
      <trkpt lat="47.06983" lon="-1.62451">
        <ele>59</ele>
        <time>2022-06-28T09:51:37Z</time>
      </trkpt>
      <trkpt lat="47.06996" lon="-1.62445">
        <ele>60</ele>
        <time>2022-06-28T09:51:39Z</time>
      </trkpt>
      <trkpt lat="47.07009" lon="-1.6244">
        <ele>61</ele>
        <time>2022-06-28T09:51:41Z</time>
      </trkpt>
      <trkpt lat="47.07021" lon="-1.62435">
        <ele>61</ele>
        <time>2022-06-28T09:51:43Z</time>
      </trkpt>
      <trkpt lat="47.07033" lon="-1.62429">
        <ele>61</ele>
        <time>2022-06-28T09:51:45Z</time>
      </trkpt>
      <trkpt lat="47.07044" lon="-1.62421">
        <ele>62</ele>
        <time>2022-06-28T09:51:47Z</time>
      </trkpt>
      <trkpt lat="47.07056" lon="-1.62414">
        <ele>62</ele>
        <time>2022-06-28T09:51:49Z</time>
      </trkpt>
      <trkpt lat="47.07068" lon="-1.62407">
        <ele>63</ele>
        <time>2022-06-28T09:51:51Z</time>
      </trkpt>
      <trkpt lat="47.0708" lon="-1.62399">
        <ele>63</ele>
        <time>2022-06-28T09:51:53Z</time>
      </trkpt>
      <trkpt lat="47.07091" lon="-1.6239">
        <ele>63</ele>
        <time>2022-06-28T09:51:55Z</time>
      </trkpt>
      <trkpt lat="47.07104" lon="-1.62382">
        <ele>63</ele>
        <time>2022-06-28T09:51:57Z</time>
      </trkpt>
      <trkpt lat="47.07115" lon="-1.62374">
        <ele>64</ele>
        <time>2022-06-28T09:51:59Z</time>
      </trkpt>
      <trkpt lat="47.07127" lon="-1.62366">
        <ele>64</ele>
        <time>2022-06-28T09:52:01Z</time>
      </trkpt>
      <trkpt lat="47.0714" lon="-1.62358">
        <ele>63</ele>
        <time>2022-06-28T09:52:03Z</time>
      </trkpt>
      <trkpt lat="47.07154" lon="-1.62348">
        <ele>61</ele>
        <time>2022-06-28T09:52:05Z</time>
      </trkpt>
      <trkpt lat="47.07166" lon="-1.62339">
        <ele>60</ele>
        <time>2022-06-28T09:52:07Z</time>
      </trkpt>
      <trkpt lat="47.07177" lon="-1.62332">
        <ele>59</ele>
        <time>2022-06-28T09:52:09Z</time>
      </trkpt>
      <trkpt lat="47.07189" lon="-1.62324">
        <ele>59</ele>
        <time>2022-06-28T09:52:11Z</time>
      </trkpt>
      <trkpt lat="47.072" lon="-1.62317">
        <ele>58</ele>
        <time>2022-06-28T09:52:13Z</time>
      </trkpt>
      <trkpt lat="47.07211" lon="-1.62309">
        <ele>58</ele>
        <time>2022-06-28T09:52:15Z</time>
      </trkpt>
      <trkpt lat="47.07223" lon="-1.62302">
        <ele>58</ele>
        <time>2022-06-28T09:52:17Z</time>
      </trkpt>
      <trkpt lat="47.07234" lon="-1.62294">
        <ele>57</ele>
        <time>2022-06-28T09:52:19Z</time>
      </trkpt>
      <trkpt lat="47.07246" lon="-1.62286">
        <ele>57</ele>
        <time>2022-06-28T09:52:21Z</time>
      </trkpt>
      <trkpt lat="47.07257" lon="-1.62277">
        <ele>56</ele>
        <time>2022-06-28T09:52:23Z</time>
      </trkpt>
      <trkpt lat="47.07268" lon="-1.62268">
        <ele>56</ele>
        <time>2022-06-28T09:52:25Z</time>
      </trkpt>
      <trkpt lat="47.07279" lon="-1.62258">
        <ele>56</ele>
        <time>2022-06-28T09:52:27Z</time>
      </trkpt>
      <trkpt lat="47.07288" lon="-1.62247">
        <ele>56</ele>
        <time>2022-06-28T09:52:29Z</time>
      </trkpt>
      <trkpt lat="47.07298" lon="-1.62235">
        <ele>56</ele>
        <time>2022-06-28T09:52:31Z</time>
      </trkpt>
      <trkpt lat="47.07307" lon="-1.62222">
        <ele>57</ele>
        <time>2022-06-28T09:52:33Z</time>
      </trkpt>
      <trkpt lat="47.07317" lon="-1.6221">
        <ele>57</ele>
        <time>2022-06-28T09:52:35Z</time>
      </trkpt>
      <trkpt lat="47.07326" lon="-1.62197">
        <ele>56</ele>
        <time>2022-06-28T09:52:37Z</time>
      </trkpt>
      <trkpt lat="47.07335" lon="-1.62184">
        <ele>56</ele>
        <time>2022-06-28T09:52:39Z</time>
      </trkpt>
      <trkpt lat="47.07343" lon="-1.62171">
        <ele>56</ele>
        <time>2022-06-28T09:52:41Z</time>
      </trkpt>
      <trkpt lat="47.07352" lon="-1.62157">
        <ele>56</ele>
        <time>2022-06-28T09:52:43Z</time>
      </trkpt>
      <trkpt lat="47.0736" lon="-1.62143">
        <ele>56</ele>
        <time>2022-06-28T09:52:45Z</time>
      </trkpt>
      <trkpt lat="47.07369" lon="-1.62128">
        <ele>56</ele>
        <time>2022-06-28T09:52:47Z</time>
      </trkpt>
      <trkpt lat="47.07377" lon="-1.62115">
        <ele>57</ele>
        <time>2022-06-28T09:52:49Z</time>
      </trkpt>
      <trkpt lat="47.07385" lon="-1.62101">
        <ele>57</ele>
        <time>2022-06-28T09:52:51Z</time>
      </trkpt>
      <trkpt lat="47.07393" lon="-1.62087">
        <ele>57</ele>
        <time>2022-06-28T09:52:53Z</time>
      </trkpt>
      <trkpt lat="47.07401" lon="-1.62074">
        <ele>57</ele>
        <time>2022-06-28T09:52:55Z</time>
      </trkpt>
      <trkpt lat="47.07409" lon="-1.6206">
        <ele>57</ele>
        <time>2022-06-28T09:52:57Z</time>
      </trkpt>
      <trkpt lat="47.07418" lon="-1.62046">
        <ele>57</ele>
        <time>2022-06-28T09:52:59Z</time>
      </trkpt>
      <trkpt lat="47.07426" lon="-1.62033">
        <ele>57</ele>
        <time>2022-06-28T09:53:01Z</time>
      </trkpt>
      <trkpt lat="47.07434" lon="-1.6202">
        <ele>58</ele>
        <time>2022-06-28T09:53:03Z</time>
      </trkpt>
      <trkpt lat="47.07443" lon="-1.62007">
        <ele>58</ele>
        <time>2022-06-28T09:53:05Z</time>
      </trkpt>
      <trkpt lat="47.07452" lon="-1.61995">
        <ele>58</ele>
        <time>2022-06-28T09:53:07Z</time>
      </trkpt>
      <trkpt lat="47.07461" lon="-1.61984">
        <ele>58</ele>
        <time>2022-06-28T09:53:09Z</time>
      </trkpt>
      <trkpt lat="47.07471" lon="-1.61972">
        <ele>58</ele>
        <time>2022-06-28T09:53:11Z</time>
      </trkpt>
      <trkpt lat="47.07481" lon="-1.61961">
        <ele>58</ele>
        <time>2022-06-28T09:53:13Z</time>
      </trkpt>
      <trkpt lat="47.07491" lon="-1.6195">
        <ele>58</ele>
        <time>2022-06-28T09:53:15Z</time>
      </trkpt>
      <trkpt lat="47.075" lon="-1.61938">
        <ele>58</ele>
        <time>2022-06-28T09:53:17Z</time>
      </trkpt>
      <trkpt lat="47.07511" lon="-1.61927">
        <ele>58</ele>
        <time>2022-06-28T09:53:19Z</time>
      </trkpt>
      <trkpt lat="47.07521" lon="-1.61916">
        <ele>58</ele>
        <time>2022-06-28T09:53:21Z</time>
      </trkpt>
      <trkpt lat="47.07531" lon="-1.61904">
        <ele>59</ele>
        <time>2022-06-28T09:53:23Z</time>
      </trkpt>
      <trkpt lat="47.07541" lon="-1.61892">
        <ele>59</ele>
        <time>2022-06-28T09:53:25Z</time>
      </trkpt>
      <trkpt lat="47.0755" lon="-1.6188">
        <ele>60</ele>
        <time>2022-06-28T09:53:27Z</time>
      </trkpt>
      <trkpt lat="47.07561" lon="-1.61868">
        <ele>59</ele>
        <time>2022-06-28T09:53:29Z</time>
      </trkpt>
      <trkpt lat="47.07571" lon="-1.61856">
        <ele>59</ele>
        <time>2022-06-28T09:53:31Z</time>
      </trkpt>
      <trkpt lat="47.07581" lon="-1.61844">
        <ele>59</ele>
        <time>2022-06-28T09:53:33Z</time>
      </trkpt>
      <trkpt lat="47.07591" lon="-1.61832">
        <ele>59</ele>
        <time>2022-06-28T09:53:35Z</time>
      </trkpt>
      <trkpt lat="47.07601" lon="-1.6182">
        <ele>59</ele>
        <time>2022-06-28T09:53:37Z</time>
      </trkpt>
      <trkpt lat="47.07612" lon="-1.61808">
        <ele>59</ele>
        <time>2022-06-28T09:53:39Z</time>
      </trkpt>
      <trkpt lat="47.07623" lon="-1.61796">
        <ele>59</ele>
        <time>2022-06-28T09:53:41Z</time>
      </trkpt>
      <trkpt lat="47.07633" lon="-1.61784">
        <ele>60</ele>
        <time>2022-06-28T09:53:43Z</time>
      </trkpt>
      <trkpt lat="47.07644" lon="-1.61772">
        <ele>60</ele>
        <time>2022-06-28T09:53:45Z</time>
      </trkpt>
      <trkpt lat="47.07654" lon="-1.6176">
        <ele>60</ele>
        <time>2022-06-28T09:53:47Z</time>
      </trkpt>
      <trkpt lat="47.07665" lon="-1.61748">
        <ele>60</ele>
        <time>2022-06-28T09:53:49Z</time>
      </trkpt>
      <trkpt lat="47.07676" lon="-1.61735">
        <ele>60</ele>
        <time>2022-06-28T09:53:51Z</time>
      </trkpt>
      <trkpt lat="47.07687" lon="-1.61722">
        <ele>59</ele>
        <time>2022-06-28T09:53:53Z</time>
      </trkpt>
      <trkpt lat="47.07698" lon="-1.61709">
        <ele>58</ele>
        <time>2022-06-28T09:53:55Z</time>
      </trkpt>
      <trkpt lat="47.07709" lon="-1.61697">
        <ele>58</ele>
        <time>2022-06-28T09:53:57Z</time>
      </trkpt>
      <trkpt lat="47.0772" lon="-1.61685">
        <ele>58</ele>
        <time>2022-06-28T09:53:59Z</time>
      </trkpt>
      <trkpt lat="47.0773" lon="-1.61672">
        <ele>58</ele>
        <time>2022-06-28T09:54:01Z</time>
      </trkpt>
      <trkpt lat="47.07741" lon="-1.6166">
        <ele>59</ele>
        <time>2022-06-28T09:54:03Z</time>
      </trkpt>
      <trkpt lat="47.07752" lon="-1.61648">
        <ele>59</ele>
        <time>2022-06-28T09:54:05Z</time>
      </trkpt>
      <trkpt lat="47.07763" lon="-1.61636">
        <ele>58</ele>
        <time>2022-06-28T09:54:07Z</time>
      </trkpt>
      <trkpt lat="47.07774" lon="-1.61623">
        <ele>59</ele>
        <time>2022-06-28T09:54:09Z</time>
      </trkpt>
      <trkpt lat="47.07785" lon="-1.61612">
        <ele>58</ele>
        <time>2022-06-28T09:54:11Z</time>
      </trkpt>
      <trkpt lat="47.07796" lon="-1.616">
        <ele>58</ele>
        <time>2022-06-28T09:54:13Z</time>
      </trkpt>
      <trkpt lat="47.07807" lon="-1.61591">
        <ele>58</ele>
        <time>2022-06-28T09:54:15Z</time>
      </trkpt>
      <trkpt lat="47.07819" lon="-1.61582">
        <ele>58</ele>
        <time>2022-06-28T09:54:17Z</time>
      </trkpt>
      <trkpt lat="47.07831" lon="-1.61574">
        <ele>58</ele>
        <time>2022-06-28T09:54:19Z</time>
      </trkpt>
      <trkpt lat="47.07843" lon="-1.61567">
        <ele>59</ele>
        <time>2022-06-28T09:54:21Z</time>
      </trkpt>
      <trkpt lat="47.07855" lon="-1.6156">
        <ele>59</ele>
        <time>2022-06-28T09:54:23Z</time>
      </trkpt>
      <trkpt lat="47.07868" lon="-1.61555">
        <ele>58</ele>
        <time>2022-06-28T09:54:25Z</time>
      </trkpt>
      <trkpt lat="47.07881" lon="-1.61549">
        <ele>58</ele>
        <time>2022-06-28T09:54:27Z</time>
      </trkpt>
      <trkpt lat="47.07894" lon="-1.61544">
        <ele>59</ele>
        <time>2022-06-28T09:54:29Z</time>
      </trkpt>
      <trkpt lat="47.07907" lon="-1.61539">
        <ele>59</ele>
        <time>2022-06-28T09:54:31Z</time>
      </trkpt>
      <trkpt lat="47.0792" lon="-1.61533">
        <ele>59</ele>
        <time>2022-06-28T09:54:33Z</time>
      </trkpt>
      <trkpt lat="47.07932" lon="-1.61528">
        <ele>59</ele>
        <time>2022-06-28T09:54:35Z</time>
      </trkpt>
      <trkpt lat="47.07945" lon="-1.61522">
        <ele>59</ele>
        <time>2022-06-28T09:54:37Z</time>
      </trkpt>
      <trkpt lat="47.07958" lon="-1.61517">
        <ele>59</ele>
        <time>2022-06-28T09:54:39Z</time>
      </trkpt>
      <trkpt lat="47.07971" lon="-1.61512">
        <ele>59</ele>
        <time>2022-06-28T09:54:41Z</time>
      </trkpt>
      <trkpt lat="47.07984" lon="-1.61506">
        <ele>58</ele>
        <time>2022-06-28T09:54:43Z</time>
      </trkpt>
      <trkpt lat="47.07997" lon="-1.615">
        <ele>57</ele>
        <time>2022-06-28T09:54:45Z</time>
      </trkpt>
      <trkpt lat="47.0801" lon="-1.61495">
        <ele>57</ele>
        <time>2022-06-28T09:54:47Z</time>
      </trkpt>
      <trkpt lat="47.08023" lon="-1.61489">
        <ele>57</ele>
        <time>2022-06-28T09:54:49Z</time>
      </trkpt>
      <trkpt lat="47.08035" lon="-1.61484">
        <ele>57</ele>
        <time>2022-06-28T09:54:51Z</time>
      </trkpt>
      <trkpt lat="47.08048" lon="-1.61478">
        <ele>57</ele>
        <time>2022-06-28T09:54:53Z</time>
      </trkpt>
      <trkpt lat="47.08062" lon="-1.61472">
        <ele>57</ele>
        <time>2022-06-28T09:54:55Z</time>
      </trkpt>
      <trkpt lat="47.08075" lon="-1.61466">
        <ele>57</ele>
        <time>2022-06-28T09:54:57Z</time>
      </trkpt>
      <trkpt lat="47.08088" lon="-1.61461">
        <ele>57</ele>
        <time>2022-06-28T09:54:59Z</time>
      </trkpt>
      <trkpt lat="47.08102" lon="-1.61455">
        <ele>57</ele>
        <time>2022-06-28T09:55:01Z</time>
      </trkpt>
      <trkpt lat="47.08115" lon="-1.6145">
        <ele>57</ele>
        <time>2022-06-28T09:55:03Z</time>
      </trkpt>
      <trkpt lat="47.08129" lon="-1.61444">
        <ele>57</ele>
        <time>2022-06-28T09:55:05Z</time>
      </trkpt>
      <trkpt lat="47.08142" lon="-1.61439">
        <ele>56</ele>
        <time>2022-06-28T09:55:07Z</time>
      </trkpt>
      <trkpt lat="47.08155" lon="-1.61432">
        <ele>56</ele>
        <time>2022-06-28T09:55:09Z</time>
      </trkpt>
      <trkpt lat="47.08168" lon="-1.61427">
        <ele>56</ele>
        <time>2022-06-28T09:55:11Z</time>
      </trkpt>
      <trkpt lat="47.08182" lon="-1.61421">
        <ele>55</ele>
        <time>2022-06-28T09:55:13Z</time>
      </trkpt>
      <trkpt lat="47.08195" lon="-1.61415">
        <ele>55</ele>
        <time>2022-06-28T09:55:15Z</time>
      </trkpt>
      <trkpt lat="47.08209" lon="-1.61409">
        <ele>55</ele>
        <time>2022-06-28T09:55:17Z</time>
      </trkpt>
      <trkpt lat="47.08223" lon="-1.61403">
        <ele>55</ele>
        <time>2022-06-28T09:55:19Z</time>
      </trkpt>
      <trkpt lat="47.08236" lon="-1.61398">
        <ele>56</ele>
        <time>2022-06-28T09:55:21Z</time>
      </trkpt>
      <trkpt lat="47.0825" lon="-1.61392">
        <ele>56</ele>
        <time>2022-06-28T09:55:23Z</time>
      </trkpt>
      <trkpt lat="47.08263" lon="-1.61386">
        <ele>56</ele>
        <time>2022-06-28T09:55:25Z</time>
      </trkpt>
      <trkpt lat="47.08276" lon="-1.61381">
        <ele>56</ele>
        <time>2022-06-28T09:55:27Z</time>
      </trkpt>
      <trkpt lat="47.08289" lon="-1.61374">
        <ele>56</ele>
        <time>2022-06-28T09:55:29Z</time>
      </trkpt>
      <trkpt lat="47.08302" lon="-1.61369">
        <ele>56</ele>
        <time>2022-06-28T09:55:31Z</time>
      </trkpt>
      <trkpt lat="47.08316" lon="-1.61364">
        <ele>56</ele>
        <time>2022-06-28T09:55:33Z</time>
      </trkpt>
      <trkpt lat="47.08329" lon="-1.61359">
        <ele>56</ele>
        <time>2022-06-28T09:55:35Z</time>
      </trkpt>
      <trkpt lat="47.08342" lon="-1.61353">
        <ele>56</ele>
        <time>2022-06-28T09:55:37Z</time>
      </trkpt>
      <trkpt lat="47.08356" lon="-1.61347">
        <ele>55</ele>
        <time>2022-06-28T09:55:39Z</time>
      </trkpt>
      <trkpt lat="47.08369" lon="-1.61341">
        <ele>55</ele>
        <time>2022-06-28T09:55:41Z</time>
      </trkpt>
      <trkpt lat="47.08382" lon="-1.61335">
        <ele>55</ele>
        <time>2022-06-28T09:55:43Z</time>
      </trkpt>
      <trkpt lat="47.08395" lon="-1.61329">
        <ele>55</ele>
        <time>2022-06-28T09:55:45Z</time>
      </trkpt>
      <trkpt lat="47.08408" lon="-1.61324">
        <ele>55</ele>
        <time>2022-06-28T09:55:47Z</time>
      </trkpt>
      <trkpt lat="47.08421" lon="-1.61318">
        <ele>54</ele>
        <time>2022-06-28T09:55:49Z</time>
      </trkpt>
      <trkpt lat="47.08434" lon="-1.61312">
        <ele>54</ele>
        <time>2022-06-28T09:55:51Z</time>
      </trkpt>
      <trkpt lat="47.08447" lon="-1.61307">
        <ele>55</ele>
        <time>2022-06-28T09:55:53Z</time>
      </trkpt>
      <trkpt lat="47.0846" lon="-1.61301">
        <ele>55</ele>
        <time>2022-06-28T09:55:55Z</time>
      </trkpt>
      <trkpt lat="47.08473" lon="-1.61296">
        <ele>55</ele>
        <time>2022-06-28T09:55:57Z</time>
      </trkpt>
      <trkpt lat="47.08485" lon="-1.61291">
        <ele>55</ele>
        <time>2022-06-28T09:55:59Z</time>
      </trkpt>
      <trkpt lat="47.08497" lon="-1.61284">
        <ele>55</ele>
        <time>2022-06-28T09:56:01Z</time>
      </trkpt>
      <trkpt lat="47.08509" lon="-1.6128">
        <ele>55</ele>
        <time>2022-06-28T09:56:03Z</time>
      </trkpt>
      <trkpt lat="47.08522" lon="-1.61275">
        <ele>55</ele>
        <time>2022-06-28T09:56:05Z</time>
      </trkpt>
      <trkpt lat="47.08534" lon="-1.6127">
        <ele>55</ele>
        <time>2022-06-28T09:56:07Z</time>
      </trkpt>
      <trkpt lat="47.08546" lon="-1.61265">
        <ele>55</ele>
        <time>2022-06-28T09:56:09Z</time>
      </trkpt>
      <trkpt lat="47.08559" lon="-1.6126">
        <ele>55</ele>
        <time>2022-06-28T09:56:11Z</time>
      </trkpt>
      <trkpt lat="47.08571" lon="-1.61255">
        <ele>55</ele>
        <time>2022-06-28T09:56:13Z</time>
      </trkpt>
      <trkpt lat="47.08583" lon="-1.61249">
        <ele>55</ele>
        <time>2022-06-28T09:56:15Z</time>
      </trkpt>
      <trkpt lat="47.08595" lon="-1.61244">
        <ele>55</ele>
        <time>2022-06-28T09:56:17Z</time>
      </trkpt>
      <trkpt lat="47.08607" lon="-1.61239">
        <ele>55</ele>
        <time>2022-06-28T09:56:19Z</time>
      </trkpt>
      <trkpt lat="47.08619" lon="-1.61234">
        <ele>55</ele>
        <time>2022-06-28T09:56:21Z</time>
      </trkpt>
      <trkpt lat="47.0863" lon="-1.61229">
        <ele>55</ele>
        <time>2022-06-28T09:56:23Z</time>
      </trkpt>
      <trkpt lat="47.08642" lon="-1.61224">
        <ele>55</ele>
        <time>2022-06-28T09:56:25Z</time>
      </trkpt>
      <trkpt lat="47.08653" lon="-1.61219">
        <ele>55</ele>
        <time>2022-06-28T09:56:27Z</time>
      </trkpt>
      <trkpt lat="47.08664" lon="-1.61214">
        <ele>55</ele>
        <time>2022-06-28T09:56:29Z</time>
      </trkpt>
      <trkpt lat="47.08675" lon="-1.6121">
        <ele>55</ele>
        <time>2022-06-28T09:56:31Z</time>
      </trkpt>
      <trkpt lat="47.08686" lon="-1.61205">
        <ele>56</ele>
        <time>2022-06-28T09:56:33Z</time>
      </trkpt>
      <trkpt lat="47.08697" lon="-1.612">
        <ele>56</ele>
        <time>2022-06-28T09:56:35Z</time>
      </trkpt>
      <trkpt lat="47.08709" lon="-1.61196">
        <ele>56</ele>
        <time>2022-06-28T09:56:37Z</time>
      </trkpt>
      <trkpt lat="47.0872" lon="-1.6119">
        <ele>56</ele>
        <time>2022-06-28T09:56:39Z</time>
      </trkpt>
      <trkpt lat="47.08731" lon="-1.61186">
        <ele>56</ele>
        <time>2022-06-28T09:56:41Z</time>
      </trkpt>
      <trkpt lat="47.08742" lon="-1.6118">
        <ele>56</ele>
        <time>2022-06-28T09:56:43Z</time>
      </trkpt>
      <trkpt lat="47.08753" lon="-1.61176">
        <ele>57</ele>
        <time>2022-06-28T09:56:45Z</time>
      </trkpt>
      <trkpt lat="47.08764" lon="-1.61172">
        <ele>57</ele>
        <time>2022-06-28T09:56:47Z</time>
      </trkpt>
      <trkpt lat="47.08775" lon="-1.61167">
        <ele>57</ele>
        <time>2022-06-28T09:56:49Z</time>
      </trkpt>
      <trkpt lat="47.08786" lon="-1.61162">
        <ele>57</ele>
        <time>2022-06-28T09:56:51Z</time>
      </trkpt>
      <trkpt lat="47.08797" lon="-1.61158">
        <ele>57</ele>
        <time>2022-06-28T09:56:53Z</time>
      </trkpt>
      <trkpt lat="47.08808" lon="-1.61152">
        <ele>57</ele>
        <time>2022-06-28T09:56:55Z</time>
      </trkpt>
      <trkpt lat="47.08819" lon="-1.61148">
        <ele>57</ele>
        <time>2022-06-28T09:56:57Z</time>
      </trkpt>
      <trkpt lat="47.08831" lon="-1.61143">
        <ele>57</ele>
        <time>2022-06-28T09:56:59Z</time>
      </trkpt>
      <trkpt lat="47.08842" lon="-1.61138">
        <ele>57</ele>
        <time>2022-06-28T09:57:01Z</time>
      </trkpt>
      <trkpt lat="47.08854" lon="-1.61133">
        <ele>57</ele>
        <time>2022-06-28T09:57:03Z</time>
      </trkpt>
      <trkpt lat="47.08865" lon="-1.61128">
        <ele>58</ele>
        <time>2022-06-28T09:57:05Z</time>
      </trkpt>
      <trkpt lat="47.08876" lon="-1.61123">
        <ele>58</ele>
        <time>2022-06-28T09:57:07Z</time>
      </trkpt>
      <trkpt lat="47.08888" lon="-1.61118">
        <ele>58</ele>
        <time>2022-06-28T09:57:09Z</time>
      </trkpt>
      <trkpt lat="47.08899" lon="-1.61113">
        <ele>58</ele>
        <time>2022-06-28T09:57:11Z</time>
      </trkpt>
      <trkpt lat="47.0891" lon="-1.61108">
        <ele>58</ele>
        <time>2022-06-28T09:57:13Z</time>
      </trkpt>
      <trkpt lat="47.08921" lon="-1.61104">
        <ele>58</ele>
        <time>2022-06-28T09:57:15Z</time>
      </trkpt>
      <trkpt lat="47.08932" lon="-1.61099">
        <ele>59</ele>
        <time>2022-06-28T09:57:17Z</time>
      </trkpt>
      <trkpt lat="47.08944" lon="-1.61094">
        <ele>59</ele>
        <time>2022-06-28T09:57:19Z</time>
      </trkpt>
      <trkpt lat="47.08956" lon="-1.61088">
        <ele>59</ele>
        <time>2022-06-28T09:57:21Z</time>
      </trkpt>
      <trkpt lat="47.08967" lon="-1.61085">
        <ele>59</ele>
        <time>2022-06-28T09:57:23Z</time>
      </trkpt>
      <trkpt lat="47.08979" lon="-1.61083">
        <ele>59</ele>
        <time>2022-06-28T09:57:25Z</time>
      </trkpt>
      <trkpt lat="47.0899" lon="-1.61083">
        <ele>59</ele>
        <time>2022-06-28T09:57:27Z</time>
      </trkpt>
      <trkpt lat="47.09001" lon="-1.61085">
        <ele>59</ele>
        <time>2022-06-28T09:57:29Z</time>
      </trkpt>
      <trkpt lat="47.09012" lon="-1.61087">
        <ele>60</ele>
        <time>2022-06-28T09:57:31Z</time>
      </trkpt>
      <trkpt lat="47.09023" lon="-1.6109">
        <ele>60</ele>
        <time>2022-06-28T09:57:33Z</time>
      </trkpt>
      <trkpt lat="47.09035" lon="-1.61094">
        <ele>60</ele>
        <time>2022-06-28T09:57:35Z</time>
      </trkpt>
      <trkpt lat="47.09046" lon="-1.61097">
        <ele>60</ele>
        <time>2022-06-28T09:57:37Z</time>
      </trkpt>
      <trkpt lat="47.09057" lon="-1.61101">
        <ele>60</ele>
        <time>2022-06-28T09:57:39Z</time>
      </trkpt>
      <trkpt lat="47.09068" lon="-1.61104">
        <ele>60</ele>
        <time>2022-06-28T09:57:41Z</time>
      </trkpt>
      <trkpt lat="47.09079" lon="-1.61108">
        <ele>60</ele>
        <time>2022-06-28T09:57:43Z</time>
      </trkpt>
      <trkpt lat="47.09091" lon="-1.61111">
        <ele>60</ele>
        <time>2022-06-28T09:57:45Z</time>
      </trkpt>
      <trkpt lat="47.09102" lon="-1.61115">
        <ele>60</ele>
        <time>2022-06-28T09:57:47Z</time>
      </trkpt>
      <trkpt lat="47.09113" lon="-1.61119">
        <ele>60</ele>
        <time>2022-06-28T09:57:49Z</time>
      </trkpt>
      <trkpt lat="47.09125" lon="-1.61122">
        <ele>60</ele>
        <time>2022-06-28T09:57:51Z</time>
      </trkpt>
      <trkpt lat="47.09137" lon="-1.61126">
        <ele>61</ele>
        <time>2022-06-28T09:57:53Z</time>
      </trkpt>
      <trkpt lat="47.09147" lon="-1.61129">
        <ele>60</ele>
        <time>2022-06-28T09:57:55Z</time>
      </trkpt>
      <trkpt lat="47.09158" lon="-1.61133">
        <ele>61</ele>
        <time>2022-06-28T09:57:57Z</time>
      </trkpt>
      <trkpt lat="47.09167" lon="-1.61136">
        <ele>61</ele>
        <time>2022-06-28T09:57:59Z</time>
      </trkpt>
      <trkpt lat="47.09176" lon="-1.61139">
        <ele>60</ele>
        <time>2022-06-28T09:58:01Z</time>
      </trkpt>
      <trkpt lat="47.09187" lon="-1.61141">
        <ele>60</ele>
        <time>2022-06-28T09:58:04Z</time>
      </trkpt>
      <trkpt lat="47.09197" lon="-1.61145">
        <ele>60</ele>
        <time>2022-06-28T09:58:10Z</time>
      </trkpt>
      <trkpt lat="47.0921" lon="-1.61148">
        <ele>60</ele>
        <time>2022-06-28T09:58:14Z</time>
      </trkpt>
      <trkpt lat="47.09219" lon="-1.61153">
        <ele>60</ele>
        <time>2022-06-28T09:58:16Z</time>
      </trkpt>
      <trkpt lat="47.09228" lon="-1.61163">
        <ele>60</ele>
        <time>2022-06-28T09:58:18Z</time>
      </trkpt>
      <trkpt lat="47.09238" lon="-1.61172">
        <ele>60</ele>
        <time>2022-06-28T09:58:20Z</time>
      </trkpt>
      <trkpt lat="47.09249" lon="-1.61177">
        <ele>61</ele>
        <time>2022-06-28T09:58:22Z</time>
      </trkpt>
      <trkpt lat="47.0926" lon="-1.61181">
        <ele>60</ele>
        <time>2022-06-28T09:58:24Z</time>
      </trkpt>
      <trkpt lat="47.09272" lon="-1.61184">
        <ele>60</ele>
        <time>2022-06-28T09:58:26Z</time>
      </trkpt>
      <trkpt lat="47.09284" lon="-1.61187">
        <ele>60</ele>
        <time>2022-06-28T09:58:28Z</time>
      </trkpt>
      <trkpt lat="47.09296" lon="-1.61191">
        <ele>60</ele>
        <time>2022-06-28T09:58:30Z</time>
      </trkpt>
      <trkpt lat="47.09308" lon="-1.61194">
        <ele>60</ele>
        <time>2022-06-28T09:58:32Z</time>
      </trkpt>
      <trkpt lat="47.0932" lon="-1.61198">
        <ele>60</ele>
        <time>2022-06-28T09:58:34Z</time>
      </trkpt>
      <trkpt lat="47.09332" lon="-1.61202">
        <ele>60</ele>
        <time>2022-06-28T09:58:36Z</time>
      </trkpt>
      <trkpt lat="47.09344" lon="-1.61206">
        <ele>60</ele>
        <time>2022-06-28T09:58:38Z</time>
      </trkpt>
      <trkpt lat="47.09356" lon="-1.61209">
        <ele>60</ele>
        <time>2022-06-28T09:58:40Z</time>
      </trkpt>
      <trkpt lat="47.09369" lon="-1.61212">
        <ele>59</ele>
        <time>2022-06-28T09:58:42Z</time>
      </trkpt>
      <trkpt lat="47.09381" lon="-1.61218">
        <ele>59</ele>
        <time>2022-06-28T09:58:44Z</time>
      </trkpt>
      <trkpt lat="47.09394" lon="-1.61224">
        <ele>58</ele>
        <time>2022-06-28T09:58:46Z</time>
      </trkpt>
      <trkpt lat="47.09412" lon="-1.61232">
        <ele>57</ele>
        <time>2022-06-28T09:58:49Z</time>
      </trkpt>
      <trkpt lat="47.09424" lon="-1.61228">
        <ele>57</ele>
        <time>2022-06-28T09:58:51Z</time>
      </trkpt>
      <trkpt lat="47.09435" lon="-1.61216">
        <ele>57</ele>
        <time>2022-06-28T09:58:53Z</time>
      </trkpt>
      <trkpt lat="47.09451" lon="-1.61198">
        <ele>57</ele>
        <time>2022-06-28T09:58:56Z</time>
      </trkpt>
      <trkpt lat="47.09462" lon="-1.61186">
        <ele>57</ele>
        <time>2022-06-28T09:58:58Z</time>
      </trkpt>
      <trkpt lat="47.09477" lon="-1.61168">
        <ele>57</ele>
        <time>2022-06-28T09:59:01Z</time>
      </trkpt>
      <trkpt lat="47.09488" lon="-1.61158">
        <ele>57</ele>
        <time>2022-06-28T09:59:03Z</time>
      </trkpt>
      <trkpt lat="47.095" lon="-1.61148">
        <ele>57</ele>
        <time>2022-06-28T09:59:05Z</time>
      </trkpt>
      <trkpt lat="47.09512" lon="-1.61141">
        <ele>57</ele>
        <time>2022-06-28T09:59:07Z</time>
      </trkpt>
      <trkpt lat="47.09524" lon="-1.61138">
        <ele>57</ele>
        <time>2022-06-28T09:59:09Z</time>
      </trkpt>
      <trkpt lat="47.09544" lon="-1.61134">
        <ele>57</ele>
        <time>2022-06-28T09:59:12Z</time>
      </trkpt>
      <trkpt lat="47.09557" lon="-1.61133">
        <ele>57</ele>
        <time>2022-06-28T09:59:14Z</time>
      </trkpt>
      <trkpt lat="47.0957" lon="-1.61132">
        <ele>56</ele>
        <time>2022-06-28T09:59:16Z</time>
      </trkpt>
      <trkpt lat="47.09584" lon="-1.6113">
        <ele>56</ele>
        <time>2022-06-28T09:59:18Z</time>
      </trkpt>
      <trkpt lat="47.09597" lon="-1.61128">
        <ele>55</ele>
        <time>2022-06-28T09:59:20Z</time>
      </trkpt>
      <trkpt lat="47.09611" lon="-1.61126">
        <ele>55</ele>
        <time>2022-06-28T09:59:22Z</time>
      </trkpt>
      <trkpt lat="47.09624" lon="-1.61124">
        <ele>54</ele>
        <time>2022-06-28T09:59:24Z</time>
      </trkpt>
      <trkpt lat="47.09637" lon="-1.61123">
        <ele>54</ele>
        <time>2022-06-28T09:59:26Z</time>
      </trkpt>
      <trkpt lat="47.0965" lon="-1.61122">
        <ele>53</ele>
        <time>2022-06-28T09:59:28Z</time>
      </trkpt>
      <trkpt lat="47.09663" lon="-1.61121">
        <ele>53</ele>
        <time>2022-06-28T09:59:30Z</time>
      </trkpt>
      <trkpt lat="47.09677" lon="-1.61119">
        <ele>54</ele>
        <time>2022-06-28T09:59:32Z</time>
      </trkpt>
      <trkpt lat="47.0969" lon="-1.61117">
        <ele>54</ele>
        <time>2022-06-28T09:59:34Z</time>
      </trkpt>
      <trkpt lat="47.09704" lon="-1.61116">
        <ele>54</ele>
        <time>2022-06-28T09:59:36Z</time>
      </trkpt>
      <trkpt lat="47.09717" lon="-1.61113">
        <ele>54</ele>
        <time>2022-06-28T09:59:38Z</time>
      </trkpt>
      <trkpt lat="47.0973" lon="-1.61111">
        <ele>54</ele>
        <time>2022-06-28T09:59:40Z</time>
      </trkpt>
      <trkpt lat="47.09743" lon="-1.6111">
        <ele>54</ele>
        <time>2022-06-28T09:59:42Z</time>
      </trkpt>
      <trkpt lat="47.09756" lon="-1.61108">
        <ele>54</ele>
        <time>2022-06-28T09:59:44Z</time>
      </trkpt>
      <trkpt lat="47.09769" lon="-1.61107">
        <ele>54</ele>
        <time>2022-06-28T09:59:46Z</time>
      </trkpt>
      <trkpt lat="47.09781" lon="-1.61104">
        <ele>54</ele>
        <time>2022-06-28T09:59:48Z</time>
      </trkpt>
      <trkpt lat="47.09793" lon="-1.61101">
        <ele>55</ele>
        <time>2022-06-28T09:59:50Z</time>
      </trkpt>
      <trkpt lat="47.09805" lon="-1.61095">
        <ele>55</ele>
        <time>2022-06-28T09:59:52Z</time>
      </trkpt>
      <trkpt lat="47.09817" lon="-1.61089">
        <ele>55</ele>
        <time>2022-06-28T09:59:54Z</time>
      </trkpt>
      <trkpt lat="47.09828" lon="-1.61081">
        <ele>54</ele>
        <time>2022-06-28T09:59:56Z</time>
      </trkpt>
      <trkpt lat="47.09838" lon="-1.61071">
        <ele>54</ele>
        <time>2022-06-28T09:59:58Z</time>
      </trkpt>
      <trkpt lat="47.09847" lon="-1.6106">
        <ele>54</ele>
        <time>2022-06-28T10:00:00Z</time>
      </trkpt>
      <trkpt lat="47.09855" lon="-1.61048">
        <ele>55</ele>
        <time>2022-06-28T10:00:02Z</time>
      </trkpt>
      <trkpt lat="47.09863" lon="-1.61035">
        <ele>55</ele>
        <time>2022-06-28T10:00:04Z</time>
      </trkpt>
      <trkpt lat="47.0987" lon="-1.61021">
        <ele>55</ele>
        <time>2022-06-28T10:00:06Z</time>
      </trkpt>
      <trkpt lat="47.09876" lon="-1.61007">
        <ele>56</ele>
        <time>2022-06-28T10:00:08Z</time>
      </trkpt>
      <trkpt lat="47.09883" lon="-1.60992">
        <ele>56</ele>
        <time>2022-06-28T10:00:10Z</time>
      </trkpt>
      <trkpt lat="47.09888" lon="-1.60977">
        <ele>57</ele>
        <time>2022-06-28T10:00:12Z</time>
      </trkpt>
      <trkpt lat="47.09894" lon="-1.60962">
        <ele>58</ele>
        <time>2022-06-28T10:00:14Z</time>
      </trkpt>
      <trkpt lat="47.099" lon="-1.60946">
        <ele>58</ele>
        <time>2022-06-28T10:00:16Z</time>
      </trkpt>
      <trkpt lat="47.09907" lon="-1.60931">
        <ele>58</ele>
        <time>2022-06-28T10:00:18Z</time>
      </trkpt>
      <trkpt lat="47.09913" lon="-1.60916">
        <ele>58</ele>
        <time>2022-06-28T10:00:20Z</time>
      </trkpt>
      <trkpt lat="47.09918" lon="-1.60901">
        <ele>58</ele>
        <time>2022-06-28T10:00:22Z</time>
      </trkpt>
      <trkpt lat="47.09925" lon="-1.60885">
        <ele>59</ele>
        <time>2022-06-28T10:00:24Z</time>
      </trkpt>
      <trkpt lat="47.0993" lon="-1.6087">
        <ele>59</ele>
        <time>2022-06-28T10:00:26Z</time>
      </trkpt>
      <trkpt lat="47.09937" lon="-1.60855">
        <ele>59</ele>
        <time>2022-06-28T10:00:28Z</time>
      </trkpt>
      <trkpt lat="47.09943" lon="-1.60839">
        <ele>59</ele>
        <time>2022-06-28T10:00:30Z</time>
      </trkpt>
      <trkpt lat="47.09948" lon="-1.60824">
        <ele>59</ele>
        <time>2022-06-28T10:00:32Z</time>
      </trkpt>
      <trkpt lat="47.09953" lon="-1.60807">
        <ele>59</ele>
        <time>2022-06-28T10:00:34Z</time>
      </trkpt>
      <trkpt lat="47.09958" lon="-1.6079">
        <ele>59</ele>
        <time>2022-06-28T10:00:36Z</time>
      </trkpt>
      <trkpt lat="47.09963" lon="-1.60774">
        <ele>59</ele>
        <time>2022-06-28T10:00:38Z</time>
      </trkpt>
      <trkpt lat="47.09968" lon="-1.60757">
        <ele>59</ele>
        <time>2022-06-28T10:00:40Z</time>
      </trkpt>
      <trkpt lat="47.09973" lon="-1.6074">
        <ele>59</ele>
        <time>2022-06-28T10:00:42Z</time>
      </trkpt>
      <trkpt lat="47.09979" lon="-1.60724">
        <ele>59</ele>
        <time>2022-06-28T10:00:44Z</time>
      </trkpt>
      <trkpt lat="47.09983" lon="-1.60707">
        <ele>60</ele>
        <time>2022-06-28T10:00:46Z</time>
      </trkpt>
      <trkpt lat="47.09988" lon="-1.60691">
        <ele>60</ele>
        <time>2022-06-28T10:00:48Z</time>
      </trkpt>
      <trkpt lat="47.09993" lon="-1.60674">
        <ele>60</ele>
        <time>2022-06-28T10:00:50Z</time>
      </trkpt>
      <trkpt lat="47.09998" lon="-1.60658">
        <ele>60</ele>
        <time>2022-06-28T10:00:52Z</time>
      </trkpt>
      <trkpt lat="47.10003" lon="-1.60641">
        <ele>60</ele>
        <time>2022-06-28T10:00:54Z</time>
      </trkpt>
      <trkpt lat="47.10008" lon="-1.60624">
        <ele>60</ele>
        <time>2022-06-28T10:00:56Z</time>
      </trkpt>
      <trkpt lat="47.10013" lon="-1.60607">
        <ele>60</ele>
        <time>2022-06-28T10:00:58Z</time>
      </trkpt>
      <trkpt lat="47.10017" lon="-1.6059">
        <ele>60</ele>
        <time>2022-06-28T10:01:00Z</time>
      </trkpt>
      <trkpt lat="47.10022" lon="-1.60573">
        <ele>60</ele>
        <time>2022-06-28T10:01:02Z</time>
      </trkpt>
      <trkpt lat="47.10027" lon="-1.60556">
        <ele>60</ele>
        <time>2022-06-28T10:01:04Z</time>
      </trkpt>
      <trkpt lat="47.10032" lon="-1.60539">
        <ele>60</ele>
        <time>2022-06-28T10:01:06Z</time>
      </trkpt>
      <trkpt lat="47.10037" lon="-1.60521">
        <ele>60</ele>
        <time>2022-06-28T10:01:08Z</time>
      </trkpt>
      <trkpt lat="47.10042" lon="-1.60504">
        <ele>60</ele>
        <time>2022-06-28T10:01:10Z</time>
      </trkpt>
      <trkpt lat="47.10046" lon="-1.60486">
        <ele>60</ele>
        <time>2022-06-28T10:01:12Z</time>
      </trkpt>
      <trkpt lat="47.1005" lon="-1.60468">
        <ele>60</ele>
        <time>2022-06-28T10:01:14Z</time>
      </trkpt>
      <trkpt lat="47.10054" lon="-1.60449">
        <ele>60</ele>
        <time>2022-06-28T10:01:16Z</time>
      </trkpt>
      <trkpt lat="47.10057" lon="-1.6043">
        <ele>60</ele>
        <time>2022-06-28T10:01:18Z</time>
      </trkpt>
      <trkpt lat="47.1006" lon="-1.60411">
        <ele>60</ele>
        <time>2022-06-28T10:01:20Z</time>
      </trkpt>
      <trkpt lat="47.10062" lon="-1.60391">
        <ele>60</ele>
        <time>2022-06-28T10:01:22Z</time>
      </trkpt>
      <trkpt lat="47.10064" lon="-1.60372">
        <ele>59</ele>
        <time>2022-06-28T10:01:24Z</time>
      </trkpt>
      <trkpt lat="47.10066" lon="-1.60353">
        <ele>59</ele>
        <time>2022-06-28T10:01:26Z</time>
      </trkpt>
      <trkpt lat="47.10068" lon="-1.60334">
        <ele>59</ele>
        <time>2022-06-28T10:01:28Z</time>
      </trkpt>
      <trkpt lat="47.1007" lon="-1.60315">
        <ele>59</ele>
        <time>2022-06-28T10:01:30Z</time>
      </trkpt>
      <trkpt lat="47.10071" lon="-1.60297">
        <ele>60</ele>
        <time>2022-06-28T10:01:32Z</time>
      </trkpt>
      <trkpt lat="47.10073" lon="-1.60278">
        <ele>60</ele>
        <time>2022-06-28T10:01:34Z</time>
      </trkpt>
      <trkpt lat="47.10075" lon="-1.60259">
        <ele>60</ele>
        <time>2022-06-28T10:01:36Z</time>
      </trkpt>
      <trkpt lat="47.10076" lon="-1.6024">
        <ele>59</ele>
        <time>2022-06-28T10:01:38Z</time>
      </trkpt>
      <trkpt lat="47.10077" lon="-1.6022">
        <ele>59</ele>
        <time>2022-06-28T10:01:40Z</time>
      </trkpt>
      <trkpt lat="47.10079" lon="-1.602">
        <ele>59</ele>
        <time>2022-06-28T10:01:42Z</time>
      </trkpt>
      <trkpt lat="47.10079" lon="-1.60181">
        <ele>59</ele>
        <time>2022-06-28T10:01:44Z</time>
      </trkpt>
      <trkpt lat="47.10076" lon="-1.60162">
        <ele>59</ele>
        <time>2022-06-28T10:01:46Z</time>
      </trkpt>
      <trkpt lat="47.10069" lon="-1.60145">
        <ele>59</ele>
        <time>2022-06-28T10:01:48Z</time>
      </trkpt>
      <trkpt lat="47.10066" lon="-1.60125">
        <ele>59</ele>
        <time>2022-06-28T10:01:50Z</time>
      </trkpt>
      <trkpt lat="47.10075" lon="-1.60107">
        <ele>59</ele>
        <time>2022-06-28T10:01:52Z</time>
      </trkpt>
      <trkpt lat="47.10088" lon="-1.60099">
        <ele>59</ele>
        <time>2022-06-28T10:01:54Z</time>
      </trkpt>
      <trkpt lat="47.10101" lon="-1.60095">
        <ele>58</ele>
        <time>2022-06-28T10:01:56Z</time>
      </trkpt>
      <trkpt lat="47.10109" lon="-1.6008">
        <ele>59</ele>
        <time>2022-06-28T10:01:58Z</time>
      </trkpt>
      <trkpt lat="47.10116" lon="-1.60064">
        <ele>59</ele>
        <time>2022-06-28T10:02:00Z</time>
      </trkpt>
      <trkpt lat="47.10125" lon="-1.60049">
        <ele>59</ele>
        <time>2022-06-28T10:02:02Z</time>
      </trkpt>
      <trkpt lat="47.10135" lon="-1.60033">
        <ele>59</ele>
        <time>2022-06-28T10:02:04Z</time>
      </trkpt>
      <trkpt lat="47.10144" lon="-1.60019">
        <ele>59</ele>
        <time>2022-06-28T10:02:06Z</time>
      </trkpt>
      <trkpt lat="47.10153" lon="-1.60003">
        <ele>59</ele>
        <time>2022-06-28T10:02:08Z</time>
      </trkpt>
      <trkpt lat="47.10162" lon="-1.59988">
        <ele>58</ele>
        <time>2022-06-28T10:02:10Z</time>
      </trkpt>
      <trkpt lat="47.10171" lon="-1.59974">
        <ele>58</ele>
        <time>2022-06-28T10:02:12Z</time>
      </trkpt>
      <trkpt lat="47.10179" lon="-1.5996">
        <ele>59</ele>
        <time>2022-06-28T10:02:14Z</time>
      </trkpt>
      <trkpt lat="47.10188" lon="-1.59946">
        <ele>59</ele>
        <time>2022-06-28T10:02:16Z</time>
      </trkpt>
      <trkpt lat="47.10197" lon="-1.59932">
        <ele>59</ele>
        <time>2022-06-28T10:02:18Z</time>
      </trkpt>
      <trkpt lat="47.10205" lon="-1.59918">
        <ele>59</ele>
        <time>2022-06-28T10:02:20Z</time>
      </trkpt>
      <trkpt lat="47.10213" lon="-1.59904">
        <ele>60</ele>
        <time>2022-06-28T10:02:22Z</time>
      </trkpt>
      <trkpt lat="47.10221" lon="-1.5989">
        <ele>60</ele>
        <time>2022-06-28T10:02:24Z</time>
      </trkpt>
      <trkpt lat="47.1023" lon="-1.59875">
        <ele>60</ele>
        <time>2022-06-28T10:02:26Z</time>
      </trkpt>
      <trkpt lat="47.10239" lon="-1.59861">
        <ele>59</ele>
        <time>2022-06-28T10:02:28Z</time>
      </trkpt>
      <trkpt lat="47.10247" lon="-1.59848">
        <ele>59</ele>
        <time>2022-06-28T10:02:30Z</time>
      </trkpt>
      <trkpt lat="47.10256" lon="-1.59834">
        <ele>59</ele>
        <time>2022-06-28T10:02:32Z</time>
      </trkpt>
      <trkpt lat="47.10264" lon="-1.5982">
        <ele>59</ele>
        <time>2022-06-28T10:02:34Z</time>
      </trkpt>
      <trkpt lat="47.10272" lon="-1.59807">
        <ele>59</ele>
        <time>2022-06-28T10:02:36Z</time>
      </trkpt>
      <trkpt lat="47.1028" lon="-1.59793">
        <ele>59</ele>
        <time>2022-06-28T10:02:38Z</time>
      </trkpt>
      <trkpt lat="47.10288" lon="-1.59779">
        <ele>59</ele>
        <time>2022-06-28T10:02:40Z</time>
      </trkpt>
      <trkpt lat="47.10296" lon="-1.59766">
        <ele>59</ele>
        <time>2022-06-28T10:02:42Z</time>
      </trkpt>
      <trkpt lat="47.10304" lon="-1.59752">
        <ele>60</ele>
        <time>2022-06-28T10:02:44Z</time>
      </trkpt>
      <trkpt lat="47.10311" lon="-1.59738">
        <ele>61</ele>
        <time>2022-06-28T10:02:46Z</time>
      </trkpt>
      <trkpt lat="47.10318" lon="-1.59725">
        <ele>62</ele>
        <time>2022-06-28T10:02:48Z</time>
      </trkpt>
      <trkpt lat="47.10325" lon="-1.59711">
        <ele>63</ele>
        <time>2022-06-28T10:02:50Z</time>
      </trkpt>
      <trkpt lat="47.10332" lon="-1.59697">
        <ele>64</ele>
        <time>2022-06-28T10:02:52Z</time>
      </trkpt>
      <trkpt lat="47.1034" lon="-1.59683">
        <ele>65</ele>
        <time>2022-06-28T10:02:54Z</time>
      </trkpt>
      <trkpt lat="47.10349" lon="-1.59669">
        <ele>64</ele>
        <time>2022-06-28T10:02:56Z</time>
      </trkpt>
      <trkpt lat="47.10358" lon="-1.59657">
        <ele>64</ele>
        <time>2022-06-28T10:02:58Z</time>
      </trkpt>
      <trkpt lat="47.10367" lon="-1.59643">
        <ele>64</ele>
        <time>2022-06-28T10:03:00Z</time>
      </trkpt>
      <trkpt lat="47.10375" lon="-1.59629">
        <ele>64</ele>
        <time>2022-06-28T10:03:02Z</time>
      </trkpt>
      <trkpt lat="47.10382" lon="-1.59615">
        <ele>65</ele>
        <time>2022-06-28T10:03:04Z</time>
      </trkpt>
      <trkpt lat="47.1039" lon="-1.59601">
        <ele>65</ele>
        <time>2022-06-28T10:03:06Z</time>
      </trkpt>
      <trkpt lat="47.10399" lon="-1.59588">
        <ele>65</ele>
        <time>2022-06-28T10:03:08Z</time>
      </trkpt>
      <trkpt lat="47.10407" lon="-1.59575">
        <ele>64</ele>
        <time>2022-06-28T10:03:10Z</time>
      </trkpt>
      <trkpt lat="47.10416" lon="-1.59562">
        <ele>64</ele>
        <time>2022-06-28T10:03:12Z</time>
      </trkpt>
      <trkpt lat="47.10424" lon="-1.59549">
        <ele>63</ele>
        <time>2022-06-28T10:03:14Z</time>
      </trkpt>
      <trkpt lat="47.10433" lon="-1.59536">
        <ele>63</ele>
        <time>2022-06-28T10:03:16Z</time>
      </trkpt>
      <trkpt lat="47.10441" lon="-1.59523">
        <ele>63</ele>
        <time>2022-06-28T10:03:18Z</time>
      </trkpt>
      <trkpt lat="47.10449" lon="-1.59509">
        <ele>62</ele>
        <time>2022-06-28T10:03:20Z</time>
      </trkpt>
      <trkpt lat="47.10458" lon="-1.59496">
        <ele>62</ele>
        <time>2022-06-28T10:03:22Z</time>
      </trkpt>
      <trkpt lat="47.10466" lon="-1.59482">
        <ele>62</ele>
        <time>2022-06-28T10:03:24Z</time>
      </trkpt>
      <trkpt lat="47.10474" lon="-1.59468">
        <ele>61</ele>
        <time>2022-06-28T10:03:26Z</time>
      </trkpt>
      <trkpt lat="47.10482" lon="-1.59455">
        <ele>61</ele>
        <time>2022-06-28T10:03:28Z</time>
      </trkpt>
      <trkpt lat="47.1049" lon="-1.59442">
        <ele>61</ele>
        <time>2022-06-28T10:03:30Z</time>
      </trkpt>
      <trkpt lat="47.10498" lon="-1.5943">
        <ele>61</ele>
        <time>2022-06-28T10:03:32Z</time>
      </trkpt>
      <trkpt lat="47.10505" lon="-1.59416">
        <ele>61</ele>
        <time>2022-06-28T10:03:34Z</time>
      </trkpt>
      <trkpt lat="47.10513" lon="-1.59403">
        <ele>61</ele>
        <time>2022-06-28T10:03:36Z</time>
      </trkpt>
      <trkpt lat="47.10521" lon="-1.5939">
        <ele>61</ele>
        <time>2022-06-28T10:03:38Z</time>
      </trkpt>
      <trkpt lat="47.10528" lon="-1.59377">
        <ele>61</ele>
        <time>2022-06-28T10:03:40Z</time>
      </trkpt>
      <trkpt lat="47.10536" lon="-1.59364">
        <ele>61</ele>
        <time>2022-06-28T10:03:42Z</time>
      </trkpt>
      <trkpt lat="47.10543" lon="-1.59351">
        <ele>61</ele>
        <time>2022-06-28T10:03:44Z</time>
      </trkpt>
      <trkpt lat="47.10551" lon="-1.59337">
        <ele>61</ele>
        <time>2022-06-28T10:03:46Z</time>
      </trkpt>
      <trkpt lat="47.10558" lon="-1.59323">
        <ele>62</ele>
        <time>2022-06-28T10:03:48Z</time>
      </trkpt>
      <trkpt lat="47.10565" lon="-1.5931">
        <ele>62</ele>
        <time>2022-06-28T10:03:50Z</time>
      </trkpt>
      <trkpt lat="47.10573" lon="-1.59298">
        <ele>63</ele>
        <time>2022-06-28T10:03:52Z</time>
      </trkpt>
      <trkpt lat="47.1058" lon="-1.59285">
        <ele>63</ele>
        <time>2022-06-28T10:03:54Z</time>
      </trkpt>
      <trkpt lat="47.10587" lon="-1.59273">
        <ele>63</ele>
        <time>2022-06-28T10:03:56Z</time>
      </trkpt>
      <trkpt lat="47.10595" lon="-1.5926">
        <ele>63</ele>
        <time>2022-06-28T10:03:58Z</time>
      </trkpt>
      <trkpt lat="47.10602" lon="-1.59248">
        <ele>64</ele>
        <time>2022-06-28T10:04:00Z</time>
      </trkpt>
      <trkpt lat="47.10609" lon="-1.59236">
        <ele>64</ele>
        <time>2022-06-28T10:04:02Z</time>
      </trkpt>
      <trkpt lat="47.10617" lon="-1.59225">
        <ele>64</ele>
        <time>2022-06-28T10:04:04Z</time>
      </trkpt>
      <trkpt lat="47.10624" lon="-1.59213">
        <ele>64</ele>
        <time>2022-06-28T10:04:06Z</time>
      </trkpt>
      <trkpt lat="47.10631" lon="-1.59199">
        <ele>64</ele>
        <time>2022-06-28T10:04:08Z</time>
      </trkpt>
      <trkpt lat="47.10637" lon="-1.59188">
        <ele>65</ele>
        <time>2022-06-28T10:04:10Z</time>
      </trkpt>
      <trkpt lat="47.10644" lon="-1.59176">
        <ele>65</ele>
        <time>2022-06-28T10:04:12Z</time>
      </trkpt>
      <trkpt lat="47.1065" lon="-1.59163">
        <ele>65</ele>
        <time>2022-06-28T10:04:14Z</time>
      </trkpt>
      <trkpt lat="47.10656" lon="-1.59149">
        <ele>65</ele>
        <time>2022-06-28T10:04:16Z</time>
      </trkpt>
      <trkpt lat="47.10661" lon="-1.59136">
        <ele>66</ele>
        <time>2022-06-28T10:04:18Z</time>
      </trkpt>
      <trkpt lat="47.10666" lon="-1.59122">
        <ele>66</ele>
        <time>2022-06-28T10:04:20Z</time>
      </trkpt>
      <trkpt lat="47.1067" lon="-1.59109">
        <ele>66</ele>
        <time>2022-06-28T10:04:22Z</time>
      </trkpt>
      <trkpt lat="47.10674" lon="-1.59096">
        <ele>67</ele>
        <time>2022-06-28T10:04:24Z</time>
      </trkpt>
      <trkpt lat="47.10678" lon="-1.59082">
        <ele>67</ele>
        <time>2022-06-28T10:04:26Z</time>
      </trkpt>
      <trkpt lat="47.10683" lon="-1.59068">
        <ele>67</ele>
        <time>2022-06-28T10:04:28Z</time>
      </trkpt>
      <trkpt lat="47.10687" lon="-1.59053">
        <ele>67</ele>
        <time>2022-06-28T10:04:30Z</time>
      </trkpt>
      <trkpt lat="47.10689" lon="-1.59039">
        <ele>67</ele>
        <time>2022-06-28T10:04:32Z</time>
      </trkpt>
      <trkpt lat="47.10695" lon="-1.59027">
        <ele>67</ele>
        <time>2022-06-28T10:04:34Z</time>
      </trkpt>
      <trkpt lat="47.10701" lon="-1.59017">
        <ele>67</ele>
        <time>2022-06-28T10:04:36Z</time>
      </trkpt>
      <trkpt lat="47.10707" lon="-1.59005">
        <ele>67</ele>
        <time>2022-06-28T10:04:38Z</time>
      </trkpt>
      <trkpt lat="47.10714" lon="-1.58992">
        <ele>67</ele>
        <time>2022-06-28T10:04:40Z</time>
      </trkpt>
      <trkpt lat="47.1072" lon="-1.58978">
        <ele>67</ele>
        <time>2022-06-28T10:04:42Z</time>
      </trkpt>
      <trkpt lat="47.10725" lon="-1.58964">
        <ele>67</ele>
        <time>2022-06-28T10:04:44Z</time>
      </trkpt>
      <trkpt lat="47.1073" lon="-1.5895">
        <ele>67</ele>
        <time>2022-06-28T10:04:46Z</time>
      </trkpt>
      <trkpt lat="47.10735" lon="-1.58935">
        <ele>68</ele>
        <time>2022-06-28T10:04:48Z</time>
      </trkpt>
      <trkpt lat="47.1074" lon="-1.58921">
        <ele>68</ele>
        <time>2022-06-28T10:04:50Z</time>
      </trkpt>
      <trkpt lat="47.10746" lon="-1.58907">
        <ele>67</ele>
        <time>2022-06-28T10:04:52Z</time>
      </trkpt>
      <trkpt lat="47.10753" lon="-1.58892">
        <ele>67</ele>
        <time>2022-06-28T10:04:54Z</time>
      </trkpt>
      <trkpt lat="47.1076" lon="-1.58878">
        <ele>67</ele>
        <time>2022-06-28T10:04:56Z</time>
      </trkpt>
      <trkpt lat="47.10769" lon="-1.58864">
        <ele>67</ele>
        <time>2022-06-28T10:04:58Z</time>
      </trkpt>
      <trkpt lat="47.10779" lon="-1.58851">
        <ele>66</ele>
        <time>2022-06-28T10:05:00Z</time>
      </trkpt>
      <trkpt lat="47.10788" lon="-1.58836">
        <ele>66</ele>
        <time>2022-06-28T10:05:02Z</time>
      </trkpt>
      <trkpt lat="47.10797" lon="-1.58822">
        <ele>66</ele>
        <time>2022-06-28T10:05:04Z</time>
      </trkpt>
      <trkpt lat="47.10806" lon="-1.58808">
        <ele>66</ele>
        <time>2022-06-28T10:05:06Z</time>
      </trkpt>
      <trkpt lat="47.10816" lon="-1.58794">
        <ele>66</ele>
        <time>2022-06-28T10:05:08Z</time>
      </trkpt>
      <trkpt lat="47.10825" lon="-1.58779">
        <ele>66</ele>
        <time>2022-06-28T10:05:10Z</time>
      </trkpt>
      <trkpt lat="47.10836" lon="-1.58765">
        <ele>66</ele>
        <time>2022-06-28T10:05:12Z</time>
      </trkpt>
      <trkpt lat="47.10846" lon="-1.5875">
        <ele>66</ele>
        <time>2022-06-28T10:05:14Z</time>
      </trkpt>
      <trkpt lat="47.10854" lon="-1.58735">
        <ele>65</ele>
        <time>2022-06-28T10:05:16Z</time>
      </trkpt>
      <trkpt lat="47.10862" lon="-1.5872">
        <ele>65</ele>
        <time>2022-06-28T10:05:18Z</time>
      </trkpt>
      <trkpt lat="47.10872" lon="-1.5871">
        <ele>64</ele>
        <time>2022-06-28T10:05:20Z</time>
      </trkpt>
      <trkpt lat="47.10882" lon="-1.58694">
        <ele>64</ele>
        <time>2022-06-28T10:05:22Z</time>
      </trkpt>
      <trkpt lat="47.10892" lon="-1.58679">
        <ele>63</ele>
        <time>2022-06-28T10:05:24Z</time>
      </trkpt>
      <trkpt lat="47.10903" lon="-1.58663">
        <ele>63</ele>
        <time>2022-06-28T10:05:26Z</time>
      </trkpt>
      <trkpt lat="47.10913" lon="-1.58647">
        <ele>62</ele>
        <time>2022-06-28T10:05:28Z</time>
      </trkpt>
      <trkpt lat="47.10923" lon="-1.58631">
        <ele>61</ele>
        <time>2022-06-28T10:05:30Z</time>
      </trkpt>
      <trkpt lat="47.10934" lon="-1.58616">
        <ele>61</ele>
        <time>2022-06-28T10:05:32Z</time>
      </trkpt>
      <trkpt lat="47.10946" lon="-1.58603">
        <ele>61</ele>
        <time>2022-06-28T10:05:34Z</time>
      </trkpt>
      <trkpt lat="47.10956" lon="-1.58588">
        <ele>60</ele>
        <time>2022-06-28T10:05:36Z</time>
      </trkpt>
      <trkpt lat="47.10967" lon="-1.58573">
        <ele>60</ele>
        <time>2022-06-28T10:05:38Z</time>
      </trkpt>
      <trkpt lat="47.10977" lon="-1.58557">
        <ele>60</ele>
        <time>2022-06-28T10:05:40Z</time>
      </trkpt>
      <trkpt lat="47.10986" lon="-1.58541">
        <ele>60</ele>
        <time>2022-06-28T10:05:42Z</time>
      </trkpt>
      <trkpt lat="47.10997" lon="-1.58525">
        <ele>60</ele>
        <time>2022-06-28T10:05:44Z</time>
      </trkpt>
      <trkpt lat="47.11006" lon="-1.58509">
        <ele>60</ele>
        <time>2022-06-28T10:05:46Z</time>
      </trkpt>
      <trkpt lat="47.11016" lon="-1.58494">
        <ele>59</ele>
        <time>2022-06-28T10:05:48Z</time>
      </trkpt>
      <trkpt lat="47.11026" lon="-1.58479">
        <ele>59</ele>
        <time>2022-06-28T10:05:50Z</time>
      </trkpt>
      <trkpt lat="47.11035" lon="-1.58464">
        <ele>59</ele>
        <time>2022-06-28T10:05:52Z</time>
      </trkpt>
      <trkpt lat="47.11044" lon="-1.58448">
        <ele>59</ele>
        <time>2022-06-28T10:05:54Z</time>
      </trkpt>
      <trkpt lat="47.11052" lon="-1.58432">
        <ele>58</ele>
        <time>2022-06-28T10:05:56Z</time>
      </trkpt>
      <trkpt lat="47.11061" lon="-1.58415">
        <ele>59</ele>
        <time>2022-06-28T10:05:58Z</time>
      </trkpt>
      <trkpt lat="47.11069" lon="-1.58399">
        <ele>58</ele>
        <time>2022-06-28T10:06:00Z</time>
      </trkpt>
      <trkpt lat="47.11076" lon="-1.58381">
        <ele>58</ele>
        <time>2022-06-28T10:06:02Z</time>
      </trkpt>
      <trkpt lat="47.11084" lon="-1.58364">
        <ele>59</ele>
        <time>2022-06-28T10:06:04Z</time>
      </trkpt>
      <trkpt lat="47.11092" lon="-1.58347">
        <ele>59</ele>
        <time>2022-06-28T10:06:06Z</time>
      </trkpt>
      <trkpt lat="47.11101" lon="-1.58331">
        <ele>59</ele>
        <time>2022-06-28T10:06:08Z</time>
      </trkpt>
      <trkpt lat="47.11111" lon="-1.58316">
        <ele>58</ele>
        <time>2022-06-28T10:06:10Z</time>
      </trkpt>
      <trkpt lat="47.11122" lon="-1.58303">
        <ele>58</ele>
        <time>2022-06-28T10:06:12Z</time>
      </trkpt>
      <trkpt lat="47.11133" lon="-1.5829">
        <ele>58</ele>
        <time>2022-06-28T10:06:14Z</time>
      </trkpt>
      <trkpt lat="47.11145" lon="-1.58278">
        <ele>58</ele>
        <time>2022-06-28T10:06:16Z</time>
      </trkpt>
      <trkpt lat="47.11156" lon="-1.58266">
        <ele>57</ele>
        <time>2022-06-28T10:06:18Z</time>
      </trkpt>
      <trkpt lat="47.11167" lon="-1.58253">
        <ele>57</ele>
        <time>2022-06-28T10:06:20Z</time>
      </trkpt>
      <trkpt lat="47.11179" lon="-1.58241">
        <ele>57</ele>
        <time>2022-06-28T10:06:22Z</time>
      </trkpt>
      <trkpt lat="47.1119" lon="-1.58227">
        <ele>57</ele>
        <time>2022-06-28T10:06:24Z</time>
      </trkpt>
      <trkpt lat="47.112" lon="-1.58214">
        <ele>57</ele>
        <time>2022-06-28T10:06:26Z</time>
      </trkpt>
      <trkpt lat="47.1121" lon="-1.58201">
        <ele>57</ele>
        <time>2022-06-28T10:06:28Z</time>
      </trkpt>
      <trkpt lat="47.1122" lon="-1.58188">
        <ele>57</ele>
        <time>2022-06-28T10:06:30Z</time>
      </trkpt>
      <trkpt lat="47.1123" lon="-1.58175">
        <ele>57</ele>
        <time>2022-06-28T10:06:32Z</time>
      </trkpt>
      <trkpt lat="47.11241" lon="-1.58164">
        <ele>57</ele>
        <time>2022-06-28T10:06:34Z</time>
      </trkpt>
      <trkpt lat="47.11252" lon="-1.58153">
        <ele>56</ele>
        <time>2022-06-28T10:06:36Z</time>
      </trkpt>
      <trkpt lat="47.11264" lon="-1.58142">
        <ele>56</ele>
        <time>2022-06-28T10:06:38Z</time>
      </trkpt>
      <trkpt lat="47.11276" lon="-1.5813">
        <ele>56</ele>
        <time>2022-06-28T10:06:40Z</time>
      </trkpt>
      <trkpt lat="47.11288" lon="-1.58119">
        <ele>56</ele>
        <time>2022-06-28T10:06:42Z</time>
      </trkpt>
      <trkpt lat="47.113" lon="-1.5811">
        <ele>56</ele>
        <time>2022-06-28T10:06:44Z</time>
      </trkpt>
      <trkpt lat="47.11313" lon="-1.58102">
        <ele>56</ele>
        <time>2022-06-28T10:06:46Z</time>
      </trkpt>
      <trkpt lat="47.11326" lon="-1.58095">
        <ele>56</ele>
        <time>2022-06-28T10:06:48Z</time>
      </trkpt>
      <trkpt lat="47.11338" lon="-1.58088">
        <ele>56</ele>
        <time>2022-06-28T10:06:50Z</time>
      </trkpt>
      <trkpt lat="47.1135" lon="-1.5808">
        <ele>56</ele>
        <time>2022-06-28T10:06:52Z</time>
      </trkpt>
      <trkpt lat="47.11364" lon="-1.58072">
        <ele>56</ele>
        <time>2022-06-28T10:06:54Z</time>
      </trkpt>
      <trkpt lat="47.11376" lon="-1.58064">
        <ele>56</ele>
        <time>2022-06-28T10:06:56Z</time>
      </trkpt>
      <trkpt lat="47.11389" lon="-1.58056">
        <ele>56</ele>
        <time>2022-06-28T10:06:58Z</time>
      </trkpt>
      <trkpt lat="47.11401" lon="-1.58048">
        <ele>57</ele>
        <time>2022-06-28T10:07:00Z</time>
      </trkpt>
      <trkpt lat="47.11413" lon="-1.5804">
        <ele>57</ele>
        <time>2022-06-28T10:07:02Z</time>
      </trkpt>
      <trkpt lat="47.11425" lon="-1.58033">
        <ele>57</ele>
        <time>2022-06-28T10:07:04Z</time>
      </trkpt>
      <trkpt lat="47.11438" lon="-1.58027">
        <ele>57</ele>
        <time>2022-06-28T10:07:06Z</time>
      </trkpt>
      <trkpt lat="47.1145" lon="-1.58022">
        <ele>56</ele>
        <time>2022-06-28T10:07:08Z</time>
      </trkpt>
      <trkpt lat="47.11463" lon="-1.58018">
        <ele>56</ele>
        <time>2022-06-28T10:07:10Z</time>
      </trkpt>
      <trkpt lat="47.11477" lon="-1.58015">
        <ele>57</ele>
        <time>2022-06-28T10:07:12Z</time>
      </trkpt>
      <trkpt lat="47.11489" lon="-1.58012">
        <ele>58</ele>
        <time>2022-06-28T10:07:14Z</time>
      </trkpt>
      <trkpt lat="47.11503" lon="-1.58009">
        <ele>58</ele>
        <time>2022-06-28T10:07:16Z</time>
      </trkpt>
      <trkpt lat="47.11516" lon="-1.58008">
        <ele>58</ele>
        <time>2022-06-28T10:07:18Z</time>
      </trkpt>
      <trkpt lat="47.11529" lon="-1.58007">
        <ele>59</ele>
        <time>2022-06-28T10:07:20Z</time>
      </trkpt>
      <trkpt lat="47.11542" lon="-1.58007">
        <ele>59</ele>
        <time>2022-06-28T10:07:22Z</time>
      </trkpt>
      <trkpt lat="47.11554" lon="-1.58006">
        <ele>59</ele>
        <time>2022-06-28T10:07:24Z</time>
      </trkpt>
      <trkpt lat="47.11566" lon="-1.58008">
        <ele>59</ele>
        <time>2022-06-28T10:07:26Z</time>
      </trkpt>
      <trkpt lat="47.11578" lon="-1.5801">
        <ele>59</ele>
        <time>2022-06-28T10:07:28Z</time>
      </trkpt>
      <trkpt lat="47.11591" lon="-1.58012">
        <ele>58</ele>
        <time>2022-06-28T10:07:30Z</time>
      </trkpt>
      <trkpt lat="47.11603" lon="-1.58012">
        <ele>58</ele>
        <time>2022-06-28T10:07:32Z</time>
      </trkpt>
      <trkpt lat="47.11615" lon="-1.58009">
        <ele>58</ele>
        <time>2022-06-28T10:07:34Z</time>
      </trkpt>
      <trkpt lat="47.11626" lon="-1.58005">
        <ele>57</ele>
        <time>2022-06-28T10:07:36Z</time>
      </trkpt>
      <trkpt lat="47.11635" lon="-1.58004">
        <ele>58</ele>
        <time>2022-06-28T10:07:38Z</time>
      </trkpt>
      <trkpt lat="47.11645" lon="-1.58011">
        <ele>58</ele>
        <time>2022-06-28T10:07:40Z</time>
      </trkpt>
      <trkpt lat="47.11654" lon="-1.58023">
        <ele>58</ele>
        <time>2022-06-28T10:07:42Z</time>
      </trkpt>
      <trkpt lat="47.11667" lon="-1.58027">
        <ele>57</ele>
        <time>2022-06-28T10:07:44Z</time>
      </trkpt>
      <trkpt lat="47.11681" lon="-1.58028">
        <ele>57</ele>
        <time>2022-06-28T10:07:46Z</time>
      </trkpt>
      <trkpt lat="47.11694" lon="-1.58029">
        <ele>56</ele>
        <time>2022-06-28T10:07:48Z</time>
      </trkpt>
      <trkpt lat="47.11707" lon="-1.5803">
        <ele>56</ele>
        <time>2022-06-28T10:07:50Z</time>
      </trkpt>
      <trkpt lat="47.1172" lon="-1.58032">
        <ele>56</ele>
        <time>2022-06-28T10:07:52Z</time>
      </trkpt>
      <trkpt lat="47.11733" lon="-1.58033">
        <ele>56</ele>
        <time>2022-06-28T10:07:54Z</time>
      </trkpt>
      <trkpt lat="47.11746" lon="-1.58035">
        <ele>55</ele>
        <time>2022-06-28T10:07:56Z</time>
      </trkpt>
      <trkpt lat="47.11758" lon="-1.58038">
        <ele>55</ele>
        <time>2022-06-28T10:07:58Z</time>
      </trkpt>
      <trkpt lat="47.11769" lon="-1.5804">
        <ele>55</ele>
        <time>2022-06-28T10:08:00Z</time>
      </trkpt>
      <trkpt lat="47.1178" lon="-1.58043">
        <ele>55</ele>
        <time>2022-06-28T10:08:02Z</time>
      </trkpt>
      <trkpt lat="47.11791" lon="-1.58046">
        <ele>55</ele>
        <time>2022-06-28T10:08:04Z</time>
      </trkpt>
      <trkpt lat="47.11802" lon="-1.58048">
        <ele>55</ele>
        <time>2022-06-28T10:08:06Z</time>
      </trkpt>
      <trkpt lat="47.11813" lon="-1.58051">
        <ele>55</ele>
        <time>2022-06-28T10:08:08Z</time>
      </trkpt>
      <trkpt lat="47.11823" lon="-1.58053">
        <ele>55</ele>
        <time>2022-06-28T10:08:10Z</time>
      </trkpt>
      <trkpt lat="47.11834" lon="-1.58055">
        <ele>56</ele>
        <time>2022-06-28T10:08:12Z</time>
      </trkpt>
      <trkpt lat="47.11845" lon="-1.58058">
        <ele>56</ele>
        <time>2022-06-28T10:08:14Z</time>
      </trkpt>
      <trkpt lat="47.11855" lon="-1.58061">
        <ele>56</ele>
        <time>2022-06-28T10:08:16Z</time>
      </trkpt>
      <trkpt lat="47.11866" lon="-1.58063">
        <ele>56</ele>
        <time>2022-06-28T10:08:18Z</time>
      </trkpt>
      <trkpt lat="47.11877" lon="-1.58066">
        <ele>56</ele>
        <time>2022-06-28T10:08:20Z</time>
      </trkpt>
      <trkpt lat="47.11887" lon="-1.58068">
        <ele>57</ele>
        <time>2022-06-28T10:08:22Z</time>
      </trkpt>
      <trkpt lat="47.11898" lon="-1.58071">
        <ele>56</ele>
        <time>2022-06-28T10:08:24Z</time>
      </trkpt>
      <trkpt lat="47.11908" lon="-1.58074">
        <ele>56</ele>
        <time>2022-06-28T10:08:26Z</time>
      </trkpt>
      <trkpt lat="47.11919" lon="-1.58077">
        <ele>57</ele>
        <time>2022-06-28T10:08:28Z</time>
      </trkpt>
      <trkpt lat="47.11929" lon="-1.58079">
        <ele>57</ele>
        <time>2022-06-28T10:08:30Z</time>
      </trkpt>
      <trkpt lat="47.1194" lon="-1.58082">
        <ele>58</ele>
        <time>2022-06-28T10:08:32Z</time>
      </trkpt>
      <trkpt lat="47.1195" lon="-1.58084">
        <ele>58</ele>
        <time>2022-06-28T10:08:34Z</time>
      </trkpt>
      <trkpt lat="47.11961" lon="-1.58087">
        <ele>58</ele>
        <time>2022-06-28T10:08:36Z</time>
      </trkpt>
      <trkpt lat="47.11971" lon="-1.5809">
        <ele>58</ele>
        <time>2022-06-28T10:08:38Z</time>
      </trkpt>
      <trkpt lat="47.11981" lon="-1.58092">
        <ele>59</ele>
        <time>2022-06-28T10:08:40Z</time>
      </trkpt>
      <trkpt lat="47.11991" lon="-1.58095">
        <ele>59</ele>
        <time>2022-06-28T10:08:42Z</time>
      </trkpt>
      <trkpt lat="47.12001" lon="-1.58097">
        <ele>60</ele>
        <time>2022-06-28T10:08:44Z</time>
      </trkpt>
      <trkpt lat="47.12011" lon="-1.58096">
        <ele>59</ele>
        <time>2022-06-28T10:08:46Z</time>
      </trkpt>
      <trkpt lat="47.12021" lon="-1.58096">
        <ele>60</ele>
        <time>2022-06-28T10:08:48Z</time>
      </trkpt>
      <trkpt lat="47.1203" lon="-1.58106">
        <ele>60</ele>
        <time>2022-06-28T10:08:50Z</time>
      </trkpt>
      <trkpt lat="47.12039" lon="-1.58116">
        <ele>59</ele>
        <time>2022-06-28T10:08:52Z</time>
      </trkpt>
      <trkpt lat="47.1205" lon="-1.58123">
        <ele>60</ele>
        <time>2022-06-28T10:08:54Z</time>
      </trkpt>
      <trkpt lat="47.12062" lon="-1.58129">
        <ele>59</ele>
        <time>2022-06-28T10:08:56Z</time>
      </trkpt>
      <trkpt lat="47.12073" lon="-1.58136">
        <ele>59</ele>
        <time>2022-06-28T10:08:58Z</time>
      </trkpt>
      <trkpt lat="47.12085" lon="-1.58143">
        <ele>59</ele>
        <time>2022-06-28T10:09:00Z</time>
      </trkpt>
      <trkpt lat="47.12096" lon="-1.58152">
        <ele>58</ele>
        <time>2022-06-28T10:09:02Z</time>
      </trkpt>
      <trkpt lat="47.12109" lon="-1.5816">
        <ele>58</ele>
        <time>2022-06-28T10:09:04Z</time>
      </trkpt>
      <trkpt lat="47.12121" lon="-1.58169">
        <ele>57</ele>
        <time>2022-06-28T10:09:06Z</time>
      </trkpt>
      <trkpt lat="47.12132" lon="-1.5818">
        <ele>57</ele>
        <time>2022-06-28T10:09:08Z</time>
      </trkpt>
      <trkpt lat="47.12144" lon="-1.58192">
        <ele>57</ele>
        <time>2022-06-28T10:09:10Z</time>
      </trkpt>
      <trkpt lat="47.12157" lon="-1.58204">
        <ele>56</ele>
        <time>2022-06-28T10:09:12Z</time>
      </trkpt>
      <trkpt lat="47.12169" lon="-1.58217">
        <ele>56</ele>
        <time>2022-06-28T10:09:14Z</time>
      </trkpt>
      <trkpt lat="47.12182" lon="-1.58229">
        <ele>56</ele>
        <time>2022-06-28T10:09:16Z</time>
      </trkpt>
      <trkpt lat="47.12194" lon="-1.58239">
        <ele>56</ele>
        <time>2022-06-28T10:09:18Z</time>
      </trkpt>
      <trkpt lat="47.12205" lon="-1.5825">
        <ele>56</ele>
        <time>2022-06-28T10:09:20Z</time>
      </trkpt>
      <trkpt lat="47.12216" lon="-1.58261">
        <ele>56</ele>
        <time>2022-06-28T10:09:22Z</time>
      </trkpt>
      <trkpt lat="47.12227" lon="-1.58271">
        <ele>56</ele>
        <time>2022-06-28T10:09:24Z</time>
      </trkpt>
      <trkpt lat="47.12237" lon="-1.58281">
        <ele>55</ele>
        <time>2022-06-28T10:09:26Z</time>
      </trkpt>
      <trkpt lat="47.12248" lon="-1.58292">
        <ele>55</ele>
        <time>2022-06-28T10:09:28Z</time>
      </trkpt>
      <trkpt lat="47.12258" lon="-1.58303">
        <ele>54</ele>
        <time>2022-06-28T10:09:30Z</time>
      </trkpt>
      <trkpt lat="47.12269" lon="-1.58314">
        <ele>54</ele>
        <time>2022-06-28T10:09:32Z</time>
      </trkpt>
      <trkpt lat="47.12279" lon="-1.58325">
        <ele>54</ele>
        <time>2022-06-28T10:09:34Z</time>
      </trkpt>
      <trkpt lat="47.1229" lon="-1.58336">
        <ele>54</ele>
        <time>2022-06-28T10:09:36Z</time>
      </trkpt>
      <trkpt lat="47.12299" lon="-1.58346">
        <ele>55</ele>
        <time>2022-06-28T10:09:38Z</time>
      </trkpt>
      <trkpt lat="47.12304" lon="-1.58361">
        <ele>56</ele>
        <time>2022-06-28T10:09:40Z</time>
      </trkpt>
      <trkpt lat="47.12304" lon="-1.58379">
        <ele>57</ele>
        <time>2022-06-28T10:09:42Z</time>
      </trkpt>
      <trkpt lat="47.12306" lon="-1.58394">
        <ele>57</ele>
        <time>2022-06-28T10:09:44Z</time>
      </trkpt>
      <trkpt lat="47.12312" lon="-1.58408">
        <ele>58</ele>
        <time>2022-06-28T10:09:46Z</time>
      </trkpt>
      <trkpt lat="47.12319" lon="-1.58422">
        <ele>58</ele>
        <time>2022-06-28T10:09:48Z</time>
      </trkpt>
      <trkpt lat="47.12327" lon="-1.58432">
        <ele>59</ele>
        <time>2022-06-28T10:09:50Z</time>
      </trkpt>
      <trkpt lat="47.12333" lon="-1.58445">
        <ele>59</ele>
        <time>2022-06-28T10:09:52Z</time>
      </trkpt>
      <trkpt lat="47.12336" lon="-1.58463">
        <ele>58</ele>
        <time>2022-06-28T10:09:54Z</time>
      </trkpt>
      <trkpt lat="47.1234" lon="-1.5848">
        <ele>57</ele>
        <time>2022-06-28T10:09:56Z</time>
      </trkpt>
      <trkpt lat="47.12344" lon="-1.58498">
        <ele>57</ele>
        <time>2022-06-28T10:09:58Z</time>
      </trkpt>
      <trkpt lat="47.12349" lon="-1.58515">
        <ele>58</ele>
        <time>2022-06-28T10:10:00Z</time>
      </trkpt>
      <trkpt lat="47.12353" lon="-1.58531">
        <ele>58</ele>
        <time>2022-06-28T10:10:02Z</time>
      </trkpt>
      <trkpt lat="47.12356" lon="-1.58547">
        <ele>59</ele>
        <time>2022-06-28T10:10:04Z</time>
      </trkpt>
      <trkpt lat="47.12359" lon="-1.58561">
        <ele>59</ele>
        <time>2022-06-28T10:10:06Z</time>
      </trkpt>
      <trkpt lat="47.12363" lon="-1.58576">
        <ele>59</ele>
        <time>2022-06-28T10:10:08Z</time>
      </trkpt>
      <trkpt lat="47.12367" lon="-1.58594">
        <ele>59</ele>
        <time>2022-06-28T10:10:10Z</time>
      </trkpt>
      <trkpt lat="47.12371" lon="-1.58611">
        <ele>59</ele>
        <time>2022-06-28T10:10:12Z</time>
      </trkpt>
      <trkpt lat="47.12374" lon="-1.58627">
        <ele>59</ele>
        <time>2022-06-28T10:10:14Z</time>
      </trkpt>
      <trkpt lat="47.12378" lon="-1.58644">
        <ele>59</ele>
        <time>2022-06-28T10:10:16Z</time>
      </trkpt>
      <trkpt lat="47.12381" lon="-1.5866">
        <ele>59</ele>
        <time>2022-06-28T10:10:18Z</time>
      </trkpt>
      <trkpt lat="47.12385" lon="-1.58676">
        <ele>59</ele>
        <time>2022-06-28T10:10:20Z</time>
      </trkpt>
      <trkpt lat="47.12388" lon="-1.58691">
        <ele>60</ele>
        <time>2022-06-28T10:10:22Z</time>
      </trkpt>
      <trkpt lat="47.12391" lon="-1.58706">
        <ele>61</ele>
        <time>2022-06-28T10:10:24Z</time>
      </trkpt>
      <trkpt lat="47.12394" lon="-1.58721">
        <ele>61</ele>
        <time>2022-06-28T10:10:26Z</time>
      </trkpt>
      <trkpt lat="47.12398" lon="-1.58736">
        <ele>61</ele>
        <time>2022-06-28T10:10:28Z</time>
      </trkpt>
      <trkpt lat="47.12401" lon="-1.58751">
        <ele>62</ele>
        <time>2022-06-28T10:10:30Z</time>
      </trkpt>
      <trkpt lat="47.12404" lon="-1.58766">
        <ele>62</ele>
        <time>2022-06-28T10:10:32Z</time>
      </trkpt>
      <trkpt lat="47.12406" lon="-1.58781">
        <ele>62</ele>
        <time>2022-06-28T10:10:34Z</time>
      </trkpt>
      <trkpt lat="47.12409" lon="-1.58797">
        <ele>61</ele>
        <time>2022-06-28T10:10:36Z</time>
      </trkpt>
      <trkpt lat="47.12411" lon="-1.58812">
        <ele>61</ele>
        <time>2022-06-28T10:10:38Z</time>
      </trkpt>
      <trkpt lat="47.12413" lon="-1.58827">
        <ele>61</ele>
        <time>2022-06-28T10:10:40Z</time>
      </trkpt>
      <trkpt lat="47.12415" lon="-1.58842">
        <ele>61</ele>
        <time>2022-06-28T10:10:42Z</time>
      </trkpt>
      <trkpt lat="47.12417" lon="-1.58857">
        <ele>61</ele>
        <time>2022-06-28T10:10:44Z</time>
      </trkpt>
      <trkpt lat="47.12418" lon="-1.58872">
        <ele>61</ele>
        <time>2022-06-28T10:10:46Z</time>
      </trkpt>
      <trkpt lat="47.1242" lon="-1.58888">
        <ele>60</ele>
        <time>2022-06-28T10:10:48Z</time>
      </trkpt>
      <trkpt lat="47.12421" lon="-1.58904">
        <ele>60</ele>
        <time>2022-06-28T10:10:50Z</time>
      </trkpt>
      <trkpt lat="47.12423" lon="-1.5892">
        <ele>60</ele>
        <time>2022-06-28T10:10:52Z</time>
      </trkpt>
      <trkpt lat="47.12424" lon="-1.58936">
        <ele>59</ele>
        <time>2022-06-28T10:10:54Z</time>
      </trkpt>
      <trkpt lat="47.12425" lon="-1.58954">
        <ele>59</ele>
        <time>2022-06-28T10:10:56Z</time>
      </trkpt>
      <trkpt lat="47.12426" lon="-1.58971">
        <ele>58</ele>
        <time>2022-06-28T10:10:58Z</time>
      </trkpt>
      <trkpt lat="47.12427" lon="-1.5899">
        <ele>58</ele>
        <time>2022-06-28T10:11:00Z</time>
      </trkpt>
      <trkpt lat="47.12428" lon="-1.59008">
        <ele>58</ele>
        <time>2022-06-28T10:11:02Z</time>
      </trkpt>
      <trkpt lat="47.12429" lon="-1.59027">
        <ele>58</ele>
        <time>2022-06-28T10:11:04Z</time>
      </trkpt>
      <trkpt lat="47.1243" lon="-1.59047">
        <ele>57</ele>
        <time>2022-06-28T10:11:06Z</time>
      </trkpt>
      <trkpt lat="47.12431" lon="-1.59067">
        <ele>57</ele>
        <time>2022-06-28T10:11:08Z</time>
      </trkpt>
      <trkpt lat="47.12432" lon="-1.59086">
        <ele>57</ele>
        <time>2022-06-28T10:11:10Z</time>
      </trkpt>
      <trkpt lat="47.12434" lon="-1.59104">
        <ele>57</ele>
        <time>2022-06-28T10:11:12Z</time>
      </trkpt>
      <trkpt lat="47.12434" lon="-1.59122">
        <ele>57</ele>
        <time>2022-06-28T10:11:14Z</time>
      </trkpt>
      <trkpt lat="47.12434" lon="-1.59141">
        <ele>57</ele>
        <time>2022-06-28T10:11:16Z</time>
      </trkpt>
      <trkpt lat="47.12436" lon="-1.59158">
        <ele>57</ele>
        <time>2022-06-28T10:11:18Z</time>
      </trkpt>
      <trkpt lat="47.12439" lon="-1.59174">
        <ele>57</ele>
        <time>2022-06-28T10:11:20Z</time>
      </trkpt>
      <trkpt lat="47.12442" lon="-1.5919">
        <ele>57</ele>
        <time>2022-06-28T10:11:22Z</time>
      </trkpt>
      <trkpt lat="47.12442" lon="-1.59207">
        <ele>57</ele>
        <time>2022-06-28T10:11:24Z</time>
      </trkpt>
      <trkpt lat="47.1244" lon="-1.59224">
        <ele>56</ele>
        <time>2022-06-28T10:11:26Z</time>
      </trkpt>
      <trkpt lat="47.1244" lon="-1.59241">
        <ele>56</ele>
        <time>2022-06-28T10:11:28Z</time>
      </trkpt>
      <trkpt lat="47.12441" lon="-1.59258">
        <ele>56</ele>
        <time>2022-06-28T10:11:30Z</time>
      </trkpt>
      <trkpt lat="47.12441" lon="-1.59275">
        <ele>56</ele>
        <time>2022-06-28T10:11:32Z</time>
      </trkpt>
      <trkpt lat="47.12441" lon="-1.59291">
        <ele>57</ele>
        <time>2022-06-28T10:11:34Z</time>
      </trkpt>
      <trkpt lat="47.12442" lon="-1.59308">
        <ele>56</ele>
        <time>2022-06-28T10:11:36Z</time>
      </trkpt>
      <trkpt lat="47.12443" lon="-1.59324">
        <ele>56</ele>
        <time>2022-06-28T10:11:38Z</time>
      </trkpt>
      <trkpt lat="47.12444" lon="-1.5934">
        <ele>57</ele>
        <time>2022-06-28T10:11:40Z</time>
      </trkpt>
      <trkpt lat="47.12445" lon="-1.59355">
        <ele>57</ele>
        <time>2022-06-28T10:11:42Z</time>
      </trkpt>
      <trkpt lat="47.12446" lon="-1.59371">
        <ele>57</ele>
        <time>2022-06-28T10:11:44Z</time>
      </trkpt>
      <trkpt lat="47.12447" lon="-1.59387">
        <ele>57</ele>
        <time>2022-06-28T10:11:46Z</time>
      </trkpt>
      <trkpt lat="47.12448" lon="-1.59403">
        <ele>58</ele>
        <time>2022-06-28T10:11:48Z</time>
      </trkpt>
      <trkpt lat="47.12448" lon="-1.59419">
        <ele>58</ele>
        <time>2022-06-28T10:11:50Z</time>
      </trkpt>
      <trkpt lat="47.12449" lon="-1.59435">
        <ele>59</ele>
        <time>2022-06-28T10:11:52Z</time>
      </trkpt>
      <trkpt lat="47.1245" lon="-1.59451">
        <ele>59</ele>
        <time>2022-06-28T10:11:54Z</time>
      </trkpt>
      <trkpt lat="47.12451" lon="-1.59467">
        <ele>59</ele>
        <time>2022-06-28T10:11:56Z</time>
      </trkpt>
      <trkpt lat="47.12451" lon="-1.59483">
        <ele>59</ele>
        <time>2022-06-28T10:11:58Z</time>
      </trkpt>
      <trkpt lat="47.12452" lon="-1.59499">
        <ele>59</ele>
        <time>2022-06-28T10:12:00Z</time>
      </trkpt>
      <trkpt lat="47.12453" lon="-1.59516">
        <ele>59</ele>
        <time>2022-06-28T10:12:02Z</time>
      </trkpt>
      <trkpt lat="47.12454" lon="-1.59531">
        <ele>60</ele>
        <time>2022-06-28T10:12:04Z</time>
      </trkpt>
      <trkpt lat="47.12455" lon="-1.59547">
        <ele>59</ele>
        <time>2022-06-28T10:12:06Z</time>
      </trkpt>
      <trkpt lat="47.12456" lon="-1.59562">
        <ele>59</ele>
        <time>2022-06-28T10:12:08Z</time>
      </trkpt>
      <trkpt lat="47.12457" lon="-1.59578">
        <ele>60</ele>
        <time>2022-06-28T10:12:10Z</time>
      </trkpt>
      <trkpt lat="47.12457" lon="-1.59594">
        <ele>60</ele>
        <time>2022-06-28T10:12:12Z</time>
      </trkpt>
      <trkpt lat="47.12458" lon="-1.5961">
        <ele>60</ele>
        <time>2022-06-28T10:12:14Z</time>
      </trkpt>
      <trkpt lat="47.12459" lon="-1.59626">
        <ele>60</ele>
        <time>2022-06-28T10:12:16Z</time>
      </trkpt>
      <trkpt lat="47.1246" lon="-1.59642">
        <ele>60</ele>
        <time>2022-06-28T10:12:18Z</time>
      </trkpt>
      <trkpt lat="47.1246" lon="-1.59657">
        <ele>61</ele>
        <time>2022-06-28T10:12:20Z</time>
      </trkpt>
      <trkpt lat="47.12461" lon="-1.59673">
        <ele>61</ele>
        <time>2022-06-28T10:12:22Z</time>
      </trkpt>
      <trkpt lat="47.12462" lon="-1.59688">
        <ele>61</ele>
        <time>2022-06-28T10:12:24Z</time>
      </trkpt>
      <trkpt lat="47.12463" lon="-1.59705">
        <ele>60</ele>
        <time>2022-06-28T10:12:26Z</time>
      </trkpt>
      <trkpt lat="47.12464" lon="-1.59721">
        <ele>60</ele>
        <time>2022-06-28T10:12:28Z</time>
      </trkpt>
      <trkpt lat="47.12464" lon="-1.59736">
        <ele>60</ele>
        <time>2022-06-28T10:12:30Z</time>
      </trkpt>
      <trkpt lat="47.12465" lon="-1.59752">
        <ele>60</ele>
        <time>2022-06-28T10:12:32Z</time>
      </trkpt>
      <trkpt lat="47.12466" lon="-1.59768">
        <ele>60</ele>
        <time>2022-06-28T10:12:34Z</time>
      </trkpt>
      <trkpt lat="47.12467" lon="-1.59784">
        <ele>60</ele>
        <time>2022-06-28T10:12:36Z</time>
      </trkpt>
      <trkpt lat="47.12468" lon="-1.598">
        <ele>61</ele>
        <time>2022-06-28T10:12:38Z</time>
      </trkpt>
      <trkpt lat="47.12469" lon="-1.59816">
        <ele>61</ele>
        <time>2022-06-28T10:12:40Z</time>
      </trkpt>
      <trkpt lat="47.1247" lon="-1.59832">
        <ele>61</ele>
        <time>2022-06-28T10:12:42Z</time>
      </trkpt>
      <trkpt lat="47.12472" lon="-1.59848">
        <ele>61</ele>
        <time>2022-06-28T10:12:44Z</time>
      </trkpt>
      <trkpt lat="47.12472" lon="-1.59865">
        <ele>62</ele>
        <time>2022-06-28T10:12:46Z</time>
      </trkpt>
      <trkpt lat="47.12473" lon="-1.59881">
        <ele>62</ele>
        <time>2022-06-28T10:12:48Z</time>
      </trkpt>
      <trkpt lat="47.12473" lon="-1.59896">
        <ele>62</ele>
        <time>2022-06-28T10:12:50Z</time>
      </trkpt>
      <trkpt lat="47.12474" lon="-1.59912">
        <ele>62</ele>
        <time>2022-06-28T10:12:52Z</time>
      </trkpt>
      <trkpt lat="47.12475" lon="-1.59929">
        <ele>62</ele>
        <time>2022-06-28T10:12:54Z</time>
      </trkpt>
      <trkpt lat="47.12476" lon="-1.59947">
        <ele>62</ele>
        <time>2022-06-28T10:12:56Z</time>
      </trkpt>
      <trkpt lat="47.12477" lon="-1.59965">
        <ele>62</ele>
        <time>2022-06-28T10:12:58Z</time>
      </trkpt>
      <trkpt lat="47.12477" lon="-1.59983">
        <ele>61</ele>
        <time>2022-06-28T10:13:00Z</time>
      </trkpt>
      <trkpt lat="47.12477" lon="-1.6">
        <ele>61</ele>
        <time>2022-06-28T10:13:02Z</time>
      </trkpt>
      <trkpt lat="47.12478" lon="-1.60018">
        <ele>60</ele>
        <time>2022-06-28T10:13:04Z</time>
      </trkpt>
      <trkpt lat="47.12479" lon="-1.60036">
        <ele>60</ele>
        <time>2022-06-28T10:13:06Z</time>
      </trkpt>
      <trkpt lat="47.1248" lon="-1.60053">
        <ele>61</ele>
        <time>2022-06-28T10:13:08Z</time>
      </trkpt>
      <trkpt lat="47.12482" lon="-1.6007">
        <ele>60</ele>
        <time>2022-06-28T10:13:10Z</time>
      </trkpt>
      <trkpt lat="47.12482" lon="-1.60088">
        <ele>60</ele>
        <time>2022-06-28T10:13:12Z</time>
      </trkpt>
      <trkpt lat="47.12483" lon="-1.60105">
        <ele>61</ele>
        <time>2022-06-28T10:13:14Z</time>
      </trkpt>
      <trkpt lat="47.12484" lon="-1.60124">
        <ele>60</ele>
        <time>2022-06-28T10:13:16Z</time>
      </trkpt>
      <trkpt lat="47.12485" lon="-1.60141">
        <ele>61</ele>
        <time>2022-06-28T10:13:18Z</time>
      </trkpt>
      <trkpt lat="47.12486" lon="-1.60159">
        <ele>60</ele>
        <time>2022-06-28T10:13:20Z</time>
      </trkpt>
      <trkpt lat="47.12486" lon="-1.60176">
        <ele>60</ele>
        <time>2022-06-28T10:13:22Z</time>
      </trkpt>
      <trkpt lat="47.12488" lon="-1.60194">
        <ele>60</ele>
        <time>2022-06-28T10:13:24Z</time>
      </trkpt>
      <trkpt lat="47.1249" lon="-1.60212">
        <ele>60</ele>
        <time>2022-06-28T10:13:26Z</time>
      </trkpt>
      <trkpt lat="47.12493" lon="-1.60229">
        <ele>60</ele>
        <time>2022-06-28T10:13:28Z</time>
      </trkpt>
      <trkpt lat="47.12496" lon="-1.60247">
        <ele>59</ele>
        <time>2022-06-28T10:13:30Z</time>
      </trkpt>
      <trkpt lat="47.125" lon="-1.60264">
        <ele>59</ele>
        <time>2022-06-28T10:13:32Z</time>
      </trkpt>
      <trkpt lat="47.12502" lon="-1.60281">
        <ele>58</ele>
        <time>2022-06-28T10:13:34Z</time>
      </trkpt>
      <trkpt lat="47.12505" lon="-1.60297">
        <ele>58</ele>
        <time>2022-06-28T10:13:36Z</time>
      </trkpt>
      <trkpt lat="47.12508" lon="-1.60313">
        <ele>58</ele>
        <time>2022-06-28T10:13:38Z</time>
      </trkpt>
      <trkpt lat="47.12511" lon="-1.60329">
        <ele>59</ele>
        <time>2022-06-28T10:13:40Z</time>
      </trkpt>
      <trkpt lat="47.12515" lon="-1.60345">
        <ele>59</ele>
        <time>2022-06-28T10:13:42Z</time>
      </trkpt>
      <trkpt lat="47.12518" lon="-1.60361">
        <ele>59</ele>
        <time>2022-06-28T10:13:44Z</time>
      </trkpt>
      <trkpt lat="47.12521" lon="-1.60376">
        <ele>59</ele>
        <time>2022-06-28T10:13:46Z</time>
      </trkpt>
      <trkpt lat="47.12524" lon="-1.60392">
        <ele>59</ele>
        <time>2022-06-28T10:13:48Z</time>
      </trkpt>
      <trkpt lat="47.12527" lon="-1.60408">
        <ele>60</ele>
        <time>2022-06-28T10:13:50Z</time>
      </trkpt>
      <trkpt lat="47.12531" lon="-1.60424">
        <ele>59</ele>
        <time>2022-06-28T10:13:52Z</time>
      </trkpt>
      <trkpt lat="47.12534" lon="-1.6044">
        <ele>59</ele>
        <time>2022-06-28T10:13:54Z</time>
      </trkpt>
      <trkpt lat="47.12537" lon="-1.60455">
        <ele>60</ele>
        <time>2022-06-28T10:13:56Z</time>
      </trkpt>
      <trkpt lat="47.12539" lon="-1.60471">
        <ele>60</ele>
        <time>2022-06-28T10:13:58Z</time>
      </trkpt>
      <trkpt lat="47.12541" lon="-1.60487">
        <ele>60</ele>
        <time>2022-06-28T10:14:00Z</time>
      </trkpt>
      <trkpt lat="47.12543" lon="-1.60503">
        <ele>61</ele>
        <time>2022-06-28T10:14:02Z</time>
      </trkpt>
      <trkpt lat="47.12544" lon="-1.6052">
        <ele>61</ele>
        <time>2022-06-28T10:14:04Z</time>
      </trkpt>
      <trkpt lat="47.12545" lon="-1.60536">
        <ele>61</ele>
        <time>2022-06-28T10:14:06Z</time>
      </trkpt>
      <trkpt lat="47.12546" lon="-1.60553">
        <ele>60</ele>
        <time>2022-06-28T10:14:08Z</time>
      </trkpt>
      <trkpt lat="47.12547" lon="-1.6057">
        <ele>60</ele>
        <time>2022-06-28T10:14:10Z</time>
      </trkpt>
      <trkpt lat="47.12547" lon="-1.60586">
        <ele>60</ele>
        <time>2022-06-28T10:14:12Z</time>
      </trkpt>
      <trkpt lat="47.12547" lon="-1.60602">
        <ele>60</ele>
        <time>2022-06-28T10:14:14Z</time>
      </trkpt>
      <trkpt lat="47.12548" lon="-1.60618">
        <ele>60</ele>
        <time>2022-06-28T10:14:16Z</time>
      </trkpt>
      <trkpt lat="47.12548" lon="-1.60635">
        <ele>60</ele>
        <time>2022-06-28T10:14:18Z</time>
      </trkpt>
      <trkpt lat="47.12548" lon="-1.60652">
        <ele>60</ele>
        <time>2022-06-28T10:14:20Z</time>
      </trkpt>
      <trkpt lat="47.12549" lon="-1.60668">
        <ele>60</ele>
        <time>2022-06-28T10:14:22Z</time>
      </trkpt>
      <trkpt lat="47.12549" lon="-1.60685">
        <ele>60</ele>
        <time>2022-06-28T10:14:24Z</time>
      </trkpt>
      <trkpt lat="47.12549" lon="-1.60702">
        <ele>60</ele>
        <time>2022-06-28T10:14:26Z</time>
      </trkpt>
      <trkpt lat="47.12549" lon="-1.60719">
        <ele>59</ele>
        <time>2022-06-28T10:14:28Z</time>
      </trkpt>
      <trkpt lat="47.12548" lon="-1.60735">
        <ele>59</ele>
        <time>2022-06-28T10:14:30Z</time>
      </trkpt>
      <trkpt lat="47.12547" lon="-1.60752">
        <ele>59</ele>
        <time>2022-06-28T10:14:32Z</time>
      </trkpt>
      <trkpt lat="47.12546" lon="-1.60769">
        <ele>59</ele>
        <time>2022-06-28T10:14:34Z</time>
      </trkpt>
      <trkpt lat="47.12545" lon="-1.60785">
        <ele>59</ele>
        <time>2022-06-28T10:14:36Z</time>
      </trkpt>
      <trkpt lat="47.12543" lon="-1.60801">
        <ele>59</ele>
        <time>2022-06-28T10:14:38Z</time>
      </trkpt>
      <trkpt lat="47.12542" lon="-1.60818">
        <ele>59</ele>
        <time>2022-06-28T10:14:40Z</time>
      </trkpt>
      <trkpt lat="47.12541" lon="-1.60834">
        <ele>60</ele>
        <time>2022-06-28T10:14:42Z</time>
      </trkpt>
      <trkpt lat="47.12545" lon="-1.60846">
        <ele>60</ele>
        <time>2022-06-28T10:14:44Z</time>
      </trkpt>
      <trkpt lat="47.12554" lon="-1.60847">
        <ele>59</ele>
        <time>2022-06-28T10:14:46Z</time>
      </trkpt>
      <trkpt lat="47.12564" lon="-1.60843">
        <ele>59</ele>
        <time>2022-06-28T10:14:48Z</time>
      </trkpt>
      <trkpt lat="47.12574" lon="-1.60839">
        <ele>59</ele>
        <time>2022-06-28T10:14:50Z</time>
      </trkpt>
      <trkpt lat="47.12583" lon="-1.60836">
        <ele>58</ele>
        <time>2022-06-28T10:14:52Z</time>
      </trkpt>
      <trkpt lat="47.12594" lon="-1.60832">
        <ele>59</ele>
        <time>2022-06-28T10:14:54Z</time>
      </trkpt>
      <trkpt lat="47.12604" lon="-1.60828">
        <ele>59</ele>
        <time>2022-06-28T10:14:56Z</time>
      </trkpt>
      <trkpt lat="47.12615" lon="-1.60824">
        <ele>60</ele>
        <time>2022-06-28T10:14:58Z</time>
      </trkpt>
      <trkpt lat="47.12627" lon="-1.6082">
        <ele>59</ele>
        <time>2022-06-28T10:15:00Z</time>
      </trkpt>
      <trkpt lat="47.12638" lon="-1.60817">
        <ele>59</ele>
        <time>2022-06-28T10:15:02Z</time>
      </trkpt>
      <trkpt lat="47.1265" lon="-1.60813">
        <ele>60</ele>
        <time>2022-06-28T10:15:04Z</time>
      </trkpt>
      <trkpt lat="47.12661" lon="-1.6081">
        <ele>60</ele>
        <time>2022-06-28T10:15:06Z</time>
      </trkpt>
      <trkpt lat="47.12672" lon="-1.60806">
        <ele>61</ele>
        <time>2022-06-28T10:15:08Z</time>
      </trkpt>
      <trkpt lat="47.12683" lon="-1.60801">
        <ele>61</ele>
        <time>2022-06-28T10:15:10Z</time>
      </trkpt>
      <trkpt lat="47.12694" lon="-1.60796">
        <ele>61</ele>
        <time>2022-06-28T10:15:12Z</time>
      </trkpt>
      <trkpt lat="47.12704" lon="-1.60793">
        <ele>61</ele>
        <time>2022-06-28T10:15:14Z</time>
      </trkpt>
      <trkpt lat="47.12714" lon="-1.60789">
        <ele>61</ele>
        <time>2022-06-28T10:15:16Z</time>
      </trkpt>
      <trkpt lat="47.12723" lon="-1.60789">
        <ele>61</ele>
        <time>2022-06-28T10:15:18Z</time>
      </trkpt>
      <trkpt lat="47.12727" lon="-1.60802">
        <ele>62</ele>
        <time>2022-06-28T10:15:20Z</time>
      </trkpt>
      <trkpt lat="47.12725" lon="-1.60817">
        <ele>62</ele>
        <time>2022-06-28T10:15:22Z</time>
      </trkpt>
      <trkpt lat="47.1272" lon="-1.60832">
        <ele>63</ele>
        <time>2022-06-28T10:15:24Z</time>
      </trkpt>
      <trkpt lat="47.12716" lon="-1.60847">
        <ele>63</ele>
        <time>2022-06-28T10:15:26Z</time>
      </trkpt>
      <trkpt lat="47.12711" lon="-1.60862">
        <ele>63</ele>
        <time>2022-06-28T10:15:28Z</time>
      </trkpt>
      <trkpt lat="47.12707" lon="-1.60877">
        <ele>63</ele>
        <time>2022-06-28T10:15:30Z</time>
      </trkpt>
      <trkpt lat="47.12703" lon="-1.60893">
        <ele>63</ele>
        <time>2022-06-28T10:15:32Z</time>
      </trkpt>
      <trkpt lat="47.127" lon="-1.60909">
        <ele>63</ele>
        <time>2022-06-28T10:15:34Z</time>
      </trkpt>
      <trkpt lat="47.12698" lon="-1.60925">
        <ele>64</ele>
        <time>2022-06-28T10:15:36Z</time>
      </trkpt>
      <trkpt lat="47.12696" lon="-1.60941">
        <ele>64</ele>
        <time>2022-06-28T10:15:38Z</time>
      </trkpt>
      <trkpt lat="47.12696" lon="-1.60958">
        <ele>65</ele>
        <time>2022-06-28T10:15:40Z</time>
      </trkpt>
      <trkpt lat="47.12696" lon="-1.60975">
        <ele>65</ele>
        <time>2022-06-28T10:15:42Z</time>
      </trkpt>
      <trkpt lat="47.12695" lon="-1.60992">
        <ele>65</ele>
        <time>2022-06-28T10:15:44Z</time>
      </trkpt>
      <trkpt lat="47.12694" lon="-1.61008">
        <ele>65</ele>
        <time>2022-06-28T10:15:46Z</time>
      </trkpt>
      <trkpt lat="47.12693" lon="-1.61024">
        <ele>65</ele>
        <time>2022-06-28T10:15:48Z</time>
      </trkpt>
      <trkpt lat="47.12693" lon="-1.61041">
        <ele>65</ele>
        <time>2022-06-28T10:15:50Z</time>
      </trkpt>
      <trkpt lat="47.12691" lon="-1.61058">
        <ele>65</ele>
        <time>2022-06-28T10:15:52Z</time>
      </trkpt>
      <trkpt lat="47.1269" lon="-1.61074">
        <ele>65</ele>
        <time>2022-06-28T10:15:54Z</time>
      </trkpt>
      <trkpt lat="47.1269" lon="-1.6109">
        <ele>65</ele>
        <time>2022-06-28T10:15:56Z</time>
      </trkpt>
      <trkpt lat="47.12689" lon="-1.61106">
        <ele>64</ele>
        <time>2022-06-28T10:15:58Z</time>
      </trkpt>
      <trkpt lat="47.12687" lon="-1.61129">
        <ele>64</ele>
        <time>2022-06-28T10:16:01Z</time>
      </trkpt>
      <trkpt lat="47.12684" lon="-1.61154">
        <ele>64</ele>
        <time>2022-06-28T10:16:04Z</time>
      </trkpt>
      <trkpt lat="47.12682" lon="-1.6117">
        <ele>64</ele>
        <time>2022-06-28T10:16:06Z</time>
      </trkpt>
      <trkpt lat="47.12679" lon="-1.61186">
        <ele>64</ele>
        <time>2022-06-28T10:16:08Z</time>
      </trkpt>
      <trkpt lat="47.12675" lon="-1.6121">
        <ele>64</ele>
        <time>2022-06-28T10:16:11Z</time>
      </trkpt>
      <trkpt lat="47.12673" lon="-1.61226">
        <ele>65</ele>
        <time>2022-06-28T10:16:13Z</time>
      </trkpt>
      <trkpt lat="47.12672" lon="-1.6125">
        <ele>65</ele>
        <time>2022-06-28T10:16:16Z</time>
      </trkpt>
      <trkpt lat="47.12676" lon="-1.61273">
        <ele>64</ele>
        <time>2022-06-28T10:16:19Z</time>
      </trkpt>
      <trkpt lat="47.12681" lon="-1.61289">
        <ele>65</ele>
        <time>2022-06-28T10:16:21Z</time>
      </trkpt>
      <trkpt lat="47.12685" lon="-1.61305">
        <ele>65</ele>
        <time>2022-06-28T10:16:23Z</time>
      </trkpt>
      <trkpt lat="47.12692" lon="-1.61328">
        <ele>65</ele>
        <time>2022-06-28T10:16:26Z</time>
      </trkpt>
      <trkpt lat="47.12697" lon="-1.61343">
        <ele>65</ele>
        <time>2022-06-28T10:16:28Z</time>
      </trkpt>
      <trkpt lat="47.12702" lon="-1.61358">
        <ele>65</ele>
        <time>2022-06-28T10:16:30Z</time>
      </trkpt>
      <trkpt lat="47.12707" lon="-1.61373">
        <ele>66</ele>
        <time>2022-06-28T10:16:32Z</time>
      </trkpt>
      <trkpt lat="47.12716" lon="-1.61394">
        <ele>67</ele>
        <time>2022-06-28T10:16:35Z</time>
      </trkpt>
      <trkpt lat="47.12722" lon="-1.61408">
        <ele>68</ele>
        <time>2022-06-28T10:16:37Z</time>
      </trkpt>
      <trkpt lat="47.12729" lon="-1.61423">
        <ele>68</ele>
        <time>2022-06-28T10:16:39Z</time>
      </trkpt>
      <trkpt lat="47.12735" lon="-1.61436">
        <ele>68</ele>
        <time>2022-06-28T10:16:41Z</time>
      </trkpt>
      <trkpt lat="47.12742" lon="-1.61449">
        <ele>68</ele>
        <time>2022-06-28T10:16:43Z</time>
      </trkpt>
      <trkpt lat="47.12748" lon="-1.61464">
        <ele>68</ele>
        <time>2022-06-28T10:16:45Z</time>
      </trkpt>
      <trkpt lat="47.12754" lon="-1.61478">
        <ele>68</ele>
        <time>2022-06-28T10:16:47Z</time>
      </trkpt>
      <trkpt lat="47.1276" lon="-1.61492">
        <ele>68</ele>
        <time>2022-06-28T10:16:49Z</time>
      </trkpt>
      <trkpt lat="47.12766" lon="-1.61507">
        <ele>68</ele>
        <time>2022-06-28T10:16:51Z</time>
      </trkpt>
      <trkpt lat="47.12772" lon="-1.61521">
        <ele>67</ele>
        <time>2022-06-28T10:16:53Z</time>
      </trkpt>
      <trkpt lat="47.12778" lon="-1.61537">
        <ele>66</ele>
        <time>2022-06-28T10:16:55Z</time>
      </trkpt>
      <trkpt lat="47.12784" lon="-1.61552">
        <ele>65</ele>
        <time>2022-06-28T10:16:57Z</time>
      </trkpt>
      <trkpt lat="47.12789" lon="-1.61567">
        <ele>65</ele>
        <time>2022-06-28T10:16:59Z</time>
      </trkpt>
      <trkpt lat="47.12794" lon="-1.61582">
        <ele>64</ele>
        <time>2022-06-28T10:17:01Z</time>
      </trkpt>
      <trkpt lat="47.128" lon="-1.61596">
        <ele>64</ele>
        <time>2022-06-28T10:17:03Z</time>
      </trkpt>
      <trkpt lat="47.12805" lon="-1.6161">
        <ele>64</ele>
        <time>2022-06-28T10:17:05Z</time>
      </trkpt>
      <trkpt lat="47.1281" lon="-1.61624">
        <ele>63</ele>
        <time>2022-06-28T10:17:07Z</time>
      </trkpt>
      <trkpt lat="47.12815" lon="-1.61637">
        <ele>62</ele>
        <time>2022-06-28T10:17:09Z</time>
      </trkpt>
      <trkpt lat="47.1282" lon="-1.6165">
        <ele>62</ele>
        <time>2022-06-28T10:17:12Z</time>
      </trkpt>
      <trkpt lat="47.12827" lon="-1.61666">
        <ele>61</ele>
        <time>2022-06-28T10:17:15Z</time>
      </trkpt>
      <trkpt lat="47.12834" lon="-1.6168">
        <ele>61</ele>
        <time>2022-06-28T10:17:17Z</time>
      </trkpt>
      <trkpt lat="47.1284" lon="-1.61694">
        <ele>62</ele>
        <time>2022-06-28T10:17:19Z</time>
      </trkpt>
      <trkpt lat="47.12846" lon="-1.61709">
        <ele>62</ele>
        <time>2022-06-28T10:17:21Z</time>
      </trkpt>
      <trkpt lat="47.12853" lon="-1.61724">
        <ele>62</ele>
        <time>2022-06-28T10:17:23Z</time>
      </trkpt>
      <trkpt lat="47.1286" lon="-1.61739">
        <ele>62</ele>
        <time>2022-06-28T10:17:25Z</time>
      </trkpt>
      <trkpt lat="47.12866" lon="-1.61753">
        <ele>63</ele>
        <time>2022-06-28T10:17:27Z</time>
      </trkpt>
      <trkpt lat="47.12873" lon="-1.61768">
        <ele>63</ele>
        <time>2022-06-28T10:17:29Z</time>
      </trkpt>
      <trkpt lat="47.12879" lon="-1.61784">
        <ele>63</ele>
        <time>2022-06-28T10:17:31Z</time>
      </trkpt>
      <trkpt lat="47.12885" lon="-1.61801">
        <ele>62</ele>
        <time>2022-06-28T10:17:33Z</time>
      </trkpt>
      <trkpt lat="47.12892" lon="-1.61817">
        <ele>61</ele>
        <time>2022-06-28T10:17:35Z</time>
      </trkpt>
      <trkpt lat="47.12898" lon="-1.61835">
        <ele>61</ele>
        <time>2022-06-28T10:17:37Z</time>
      </trkpt>
      <trkpt lat="47.12903" lon="-1.61852">
        <ele>60</ele>
        <time>2022-06-28T10:17:39Z</time>
      </trkpt>
      <trkpt lat="47.12908" lon="-1.6187">
        <ele>59</ele>
        <time>2022-06-28T10:17:41Z</time>
      </trkpt>
      <trkpt lat="47.12911" lon="-1.61888">
        <ele>60</ele>
        <time>2022-06-28T10:17:43Z</time>
      </trkpt>
      <trkpt lat="47.12914" lon="-1.61906">
        <ele>60</ele>
        <time>2022-06-28T10:17:45Z</time>
      </trkpt>
      <trkpt lat="47.12916" lon="-1.61925">
        <ele>60</ele>
        <time>2022-06-28T10:17:47Z</time>
      </trkpt>
      <trkpt lat="47.12918" lon="-1.61942">
        <ele>59</ele>
        <time>2022-06-28T10:17:49Z</time>
      </trkpt>
      <trkpt lat="47.12922" lon="-1.61958">
        <ele>59</ele>
        <time>2022-06-28T10:17:51Z</time>
      </trkpt>
      <trkpt lat="47.12926" lon="-1.61974">
        <ele>59</ele>
        <time>2022-06-28T10:17:53Z</time>
      </trkpt>
      <trkpt lat="47.1293" lon="-1.6199">
        <ele>59</ele>
        <time>2022-06-28T10:17:55Z</time>
      </trkpt>
      <trkpt lat="47.12934" lon="-1.62006">
        <ele>59</ele>
        <time>2022-06-28T10:17:57Z</time>
      </trkpt>
      <trkpt lat="47.12938" lon="-1.62022">
        <ele>60</ele>
        <time>2022-06-28T10:17:59Z</time>
      </trkpt>
      <trkpt lat="47.12943" lon="-1.62038">
        <ele>61</ele>
        <time>2022-06-28T10:18:01Z</time>
      </trkpt>
      <trkpt lat="47.12948" lon="-1.62054">
        <ele>61</ele>
        <time>2022-06-28T10:18:03Z</time>
      </trkpt>
      <trkpt lat="47.12955" lon="-1.62067">
        <ele>62</ele>
        <time>2022-06-28T10:18:05Z</time>
      </trkpt>
      <trkpt lat="47.12961" lon="-1.6208">
        <ele>62</ele>
        <time>2022-06-28T10:18:07Z</time>
      </trkpt>
      <trkpt lat="47.12968" lon="-1.62093">
        <ele>62</ele>
        <time>2022-06-28T10:18:09Z</time>
      </trkpt>
      <trkpt lat="47.12975" lon="-1.62106">
        <ele>62</ele>
        <time>2022-06-28T10:18:11Z</time>
      </trkpt>
      <trkpt lat="47.12982" lon="-1.62118">
        <ele>62</ele>
        <time>2022-06-28T10:18:13Z</time>
      </trkpt>
      <trkpt lat="47.1299" lon="-1.6213">
        <ele>63</ele>
        <time>2022-06-28T10:18:15Z</time>
      </trkpt>
      <trkpt lat="47.12997" lon="-1.62142">
        <ele>63</ele>
        <time>2022-06-28T10:18:17Z</time>
      </trkpt>
      <trkpt lat="47.13004" lon="-1.62154">
        <ele>63</ele>
        <time>2022-06-28T10:18:19Z</time>
      </trkpt>
      <trkpt lat="47.13012" lon="-1.62165">
        <ele>63</ele>
        <time>2022-06-28T10:18:21Z</time>
      </trkpt>
      <trkpt lat="47.13019" lon="-1.62176">
        <ele>63</ele>
        <time>2022-06-28T10:18:23Z</time>
      </trkpt>
      <trkpt lat="47.13027" lon="-1.62188">
        <ele>62</ele>
        <time>2022-06-28T10:18:25Z</time>
      </trkpt>
      <trkpt lat="47.13034" lon="-1.622">
        <ele>62</ele>
        <time>2022-06-28T10:18:27Z</time>
      </trkpt>
      <trkpt lat="47.13041" lon="-1.62211">
        <ele>62</ele>
        <time>2022-06-28T10:18:29Z</time>
      </trkpt>
      <trkpt lat="47.13049" lon="-1.62222">
        <ele>62</ele>
        <time>2022-06-28T10:18:31Z</time>
      </trkpt>
      <trkpt lat="47.13056" lon="-1.62233">
        <ele>62</ele>
        <time>2022-06-28T10:18:33Z</time>
      </trkpt>
      <trkpt lat="47.13064" lon="-1.62244">
        <ele>61</ele>
        <time>2022-06-28T10:18:35Z</time>
      </trkpt>
      <trkpt lat="47.13071" lon="-1.62255">
        <ele>61</ele>
        <time>2022-06-28T10:18:37Z</time>
      </trkpt>
      <trkpt lat="47.13078" lon="-1.62266">
        <ele>61</ele>
        <time>2022-06-28T10:18:39Z</time>
      </trkpt>
      <trkpt lat="47.13085" lon="-1.62276">
        <ele>61</ele>
        <time>2022-06-28T10:18:41Z</time>
      </trkpt>
      <trkpt lat="47.13092" lon="-1.62287">
        <ele>61</ele>
        <time>2022-06-28T10:18:43Z</time>
      </trkpt>
      <trkpt lat="47.13098" lon="-1.62297">
        <ele>61</ele>
        <time>2022-06-28T10:18:45Z</time>
      </trkpt>
      <trkpt lat="47.13109" lon="-1.62305">
        <ele>61</ele>
        <time>2022-06-28T10:18:48Z</time>
      </trkpt>
      <trkpt lat="47.13116" lon="-1.62295">
        <ele>61</ele>
        <time>2022-06-28T10:18:50Z</time>
      </trkpt>
      <trkpt lat="47.13121" lon="-1.62281">
        <ele>62</ele>
        <time>2022-06-28T10:18:52Z</time>
      </trkpt>
      <trkpt lat="47.13127" lon="-1.62268">
        <ele>62</ele>
        <time>2022-06-28T10:18:54Z</time>
      </trkpt>
      <trkpt lat="47.13132" lon="-1.62255">
        <ele>62</ele>
        <time>2022-06-28T10:18:56Z</time>
      </trkpt>
      <trkpt lat="47.13138" lon="-1.62242">
        <ele>62</ele>
        <time>2022-06-28T10:18:58Z</time>
      </trkpt>
      <trkpt lat="47.13144" lon="-1.62229">
        <ele>62</ele>
        <time>2022-06-28T10:19:00Z</time>
      </trkpt>
      <trkpt lat="47.1315" lon="-1.62216">
        <ele>62</ele>
        <time>2022-06-28T10:19:02Z</time>
      </trkpt>
      <trkpt lat="47.13156" lon="-1.62203">
        <ele>62</ele>
        <time>2022-06-28T10:19:04Z</time>
      </trkpt>
      <trkpt lat="47.13162" lon="-1.6219">
        <ele>62</ele>
        <time>2022-06-28T10:19:06Z</time>
      </trkpt>
      <trkpt lat="47.13168" lon="-1.62178">
        <ele>63</ele>
        <time>2022-06-28T10:19:08Z</time>
      </trkpt>
      <trkpt lat="47.13174" lon="-1.62166">
        <ele>63</ele>
        <time>2022-06-28T10:19:10Z</time>
      </trkpt>
      <trkpt lat="47.13181" lon="-1.62153">
        <ele>63</ele>
        <time>2022-06-28T10:19:12Z</time>
      </trkpt>
      <trkpt lat="47.13188" lon="-1.62141">
        <ele>63</ele>
        <time>2022-06-28T10:19:14Z</time>
      </trkpt>
      <trkpt lat="47.13195" lon="-1.62129">
        <ele>63</ele>
        <time>2022-06-28T10:19:16Z</time>
      </trkpt>
      <trkpt lat="47.13201" lon="-1.62118">
        <ele>63</ele>
        <time>2022-06-28T10:19:18Z</time>
      </trkpt>
      <trkpt lat="47.13207" lon="-1.62106">
        <ele>64</ele>
        <time>2022-06-28T10:19:20Z</time>
      </trkpt>
      <trkpt lat="47.13213" lon="-1.62094">
        <ele>63</ele>
        <time>2022-06-28T10:19:22Z</time>
      </trkpt>
      <trkpt lat="47.1322" lon="-1.62083">
        <ele>63</ele>
        <time>2022-06-28T10:19:24Z</time>
      </trkpt>
      <trkpt lat="47.13227" lon="-1.62072">
        <ele>63</ele>
        <time>2022-06-28T10:19:26Z</time>
      </trkpt>
      <trkpt lat="47.13235" lon="-1.62061">
        <ele>63</ele>
        <time>2022-06-28T10:19:28Z</time>
      </trkpt>
      <trkpt lat="47.13243" lon="-1.6205">
        <ele>63</ele>
        <time>2022-06-28T10:19:30Z</time>
      </trkpt>
      <trkpt lat="47.1325" lon="-1.6204">
        <ele>63</ele>
        <time>2022-06-28T10:19:32Z</time>
      </trkpt>
      <trkpt lat="47.13258" lon="-1.6203">
        <ele>63</ele>
        <time>2022-06-28T10:19:34Z</time>
      </trkpt>
      <trkpt lat="47.13265" lon="-1.62021">
        <ele>63</ele>
        <time>2022-06-28T10:19:36Z</time>
      </trkpt>
      <trkpt lat="47.13274" lon="-1.62013">
        <ele>63</ele>
        <time>2022-06-28T10:19:38Z</time>
      </trkpt>
      <trkpt lat="47.13284" lon="-1.62005">
        <ele>63</ele>
        <time>2022-06-28T10:19:40Z</time>
      </trkpt>
      <trkpt lat="47.13293" lon="-1.61998">
        <ele>63</ele>
        <time>2022-06-28T10:19:42Z</time>
      </trkpt>
      <trkpt lat="47.13302" lon="-1.61991">
        <ele>63</ele>
        <time>2022-06-28T10:19:44Z</time>
      </trkpt>
      <trkpt lat="47.13311" lon="-1.61985">
        <ele>63</ele>
        <time>2022-06-28T10:19:46Z</time>
      </trkpt>
      <trkpt lat="47.1332" lon="-1.61978">
        <ele>63</ele>
        <time>2022-06-28T10:19:48Z</time>
      </trkpt>
      <trkpt lat="47.1333" lon="-1.6197">
        <ele>62</ele>
        <time>2022-06-28T10:19:50Z</time>
      </trkpt>
      <trkpt lat="47.13339" lon="-1.61964">
        <ele>63</ele>
        <time>2022-06-28T10:19:52Z</time>
      </trkpt>
      <trkpt lat="47.13348" lon="-1.61956">
        <ele>63</ele>
        <time>2022-06-28T10:19:54Z</time>
      </trkpt>
      <trkpt lat="47.13357" lon="-1.61948">
        <ele>63</ele>
        <time>2022-06-28T10:19:56Z</time>
      </trkpt>
      <trkpt lat="47.13366" lon="-1.6194">
        <ele>62</ele>
        <time>2022-06-28T10:19:58Z</time>
      </trkpt>
      <trkpt lat="47.13375" lon="-1.61934">
        <ele>62</ele>
        <time>2022-06-28T10:20:00Z</time>
      </trkpt>
      <trkpt lat="47.13385" lon="-1.61927">
        <ele>62</ele>
        <time>2022-06-28T10:20:02Z</time>
      </trkpt>
      <trkpt lat="47.13395" lon="-1.6192">
        <ele>61</ele>
        <time>2022-06-28T10:20:04Z</time>
      </trkpt>
      <trkpt lat="47.13405" lon="-1.61913">
        <ele>61</ele>
        <time>2022-06-28T10:20:06Z</time>
      </trkpt>
      <trkpt lat="47.13415" lon="-1.61906">
        <ele>61</ele>
        <time>2022-06-28T10:20:08Z</time>
      </trkpt>
      <trkpt lat="47.13425" lon="-1.61899">
        <ele>62</ele>
        <time>2022-06-28T10:20:10Z</time>
      </trkpt>
      <trkpt lat="47.13436" lon="-1.61891">
        <ele>61</ele>
        <time>2022-06-28T10:20:12Z</time>
      </trkpt>
      <trkpt lat="47.13446" lon="-1.61882">
        <ele>61</ele>
        <time>2022-06-28T10:20:14Z</time>
      </trkpt>
      <trkpt lat="47.13456" lon="-1.61874">
        <ele>62</ele>
        <time>2022-06-28T10:20:16Z</time>
      </trkpt>
      <trkpt lat="47.13466" lon="-1.61866">
        <ele>62</ele>
        <time>2022-06-28T10:20:18Z</time>
      </trkpt>
      <trkpt lat="47.13476" lon="-1.61859">
        <ele>62</ele>
        <time>2022-06-28T10:20:20Z</time>
      </trkpt>
      <trkpt lat="47.13487" lon="-1.61852">
        <ele>63</ele>
        <time>2022-06-28T10:20:22Z</time>
      </trkpt>
      <trkpt lat="47.13498" lon="-1.61845">
        <ele>63</ele>
        <time>2022-06-28T10:20:24Z</time>
      </trkpt>
      <trkpt lat="47.13509" lon="-1.6184">
        <ele>63</ele>
        <time>2022-06-28T10:20:26Z</time>
      </trkpt>
      <trkpt lat="47.13521" lon="-1.61834">
        <ele>63</ele>
        <time>2022-06-28T10:20:28Z</time>
      </trkpt>
      <trkpt lat="47.13532" lon="-1.61829">
        <ele>63</ele>
        <time>2022-06-28T10:20:30Z</time>
      </trkpt>
      <trkpt lat="47.13544" lon="-1.61825">
        <ele>62</ele>
        <time>2022-06-28T10:20:32Z</time>
      </trkpt>
      <trkpt lat="47.13555" lon="-1.6182">
        <ele>62</ele>
        <time>2022-06-28T10:20:34Z</time>
      </trkpt>
      <trkpt lat="47.13566" lon="-1.61814">
        <ele>62</ele>
        <time>2022-06-28T10:20:36Z</time>
      </trkpt>
      <trkpt lat="47.13575" lon="-1.61806">
        <ele>62</ele>
        <time>2022-06-28T10:20:38Z</time>
      </trkpt>
      <trkpt lat="47.13586" lon="-1.61804">
        <ele>62</ele>
        <time>2022-06-28T10:20:40Z</time>
      </trkpt>
      <trkpt lat="47.13597" lon="-1.61802">
        <ele>62</ele>
        <time>2022-06-28T10:20:42Z</time>
      </trkpt>
      <trkpt lat="47.13608" lon="-1.61798">
        <ele>61</ele>
        <time>2022-06-28T10:20:44Z</time>
      </trkpt>
      <trkpt lat="47.13619" lon="-1.61793">
        <ele>62</ele>
        <time>2022-06-28T10:20:46Z</time>
      </trkpt>
      <trkpt lat="47.1363" lon="-1.61789">
        <ele>62</ele>
        <time>2022-06-28T10:20:48Z</time>
      </trkpt>
      <trkpt lat="47.13641" lon="-1.61783">
        <ele>63</ele>
        <time>2022-06-28T10:20:50Z</time>
      </trkpt>
      <trkpt lat="47.13652" lon="-1.61778">
        <ele>62</ele>
        <time>2022-06-28T10:20:52Z</time>
      </trkpt>
      <trkpt lat="47.13663" lon="-1.61772">
        <ele>63</ele>
        <time>2022-06-28T10:20:54Z</time>
      </trkpt>
      <trkpt lat="47.13673" lon="-1.61767">
        <ele>63</ele>
        <time>2022-06-28T10:20:56Z</time>
      </trkpt>
      <trkpt lat="47.13683" lon="-1.61761">
        <ele>64</ele>
        <time>2022-06-28T10:20:58Z</time>
      </trkpt>
      <trkpt lat="47.13693" lon="-1.61754">
        <ele>64</ele>
        <time>2022-06-28T10:21:00Z</time>
      </trkpt>
      <trkpt lat="47.13703" lon="-1.61747">
        <ele>64</ele>
        <time>2022-06-28T10:21:02Z</time>
      </trkpt>
      <trkpt lat="47.13712" lon="-1.61739">
        <ele>64</ele>
        <time>2022-06-28T10:21:04Z</time>
      </trkpt>
      <trkpt lat="47.13721" lon="-1.61732">
        <ele>64</ele>
        <time>2022-06-28T10:21:06Z</time>
      </trkpt>
      <trkpt lat="47.1373" lon="-1.61725">
        <ele>64</ele>
        <time>2022-06-28T10:21:08Z</time>
      </trkpt>
      <trkpt lat="47.13741" lon="-1.6172">
        <ele>66</ele>
        <time>2022-06-28T10:21:11Z</time>
      </trkpt>
      <trkpt lat="47.13745" lon="-1.61735">
        <ele>66</ele>
        <time>2022-06-28T10:21:13Z</time>
      </trkpt>
      <trkpt lat="47.13743" lon="-1.61751">
        <ele>67</ele>
        <time>2022-06-28T10:21:15Z</time>
      </trkpt>
      <trkpt lat="47.1374" lon="-1.61766">
        <ele>67</ele>
        <time>2022-06-28T10:21:17Z</time>
      </trkpt>
      <trkpt lat="47.13737" lon="-1.61782">
        <ele>67</ele>
        <time>2022-06-28T10:21:19Z</time>
      </trkpt>
      <trkpt lat="47.13734" lon="-1.61797">
        <ele>66</ele>
        <time>2022-06-28T10:21:21Z</time>
      </trkpt>
      <trkpt lat="47.13731" lon="-1.61812">
        <ele>66</ele>
        <time>2022-06-28T10:21:23Z</time>
      </trkpt>
      <trkpt lat="47.13729" lon="-1.61827">
        <ele>66</ele>
        <time>2022-06-28T10:21:25Z</time>
      </trkpt>
      <trkpt lat="47.13728" lon="-1.61843">
        <ele>66</ele>
        <time>2022-06-28T10:21:27Z</time>
      </trkpt>
      <trkpt lat="47.13727" lon="-1.61857">
        <ele>66</ele>
        <time>2022-06-28T10:21:29Z</time>
      </trkpt>
      <trkpt lat="47.13726" lon="-1.61872">
        <ele>66</ele>
        <time>2022-06-28T10:21:31Z</time>
      </trkpt>
      <trkpt lat="47.13725" lon="-1.61887">
        <ele>66</ele>
        <time>2022-06-28T10:21:33Z</time>
      </trkpt>
      <trkpt lat="47.13724" lon="-1.61902">
        <ele>66</ele>
        <time>2022-06-28T10:21:35Z</time>
      </trkpt>
      <trkpt lat="47.13723" lon="-1.61918">
        <ele>66</ele>
        <time>2022-06-28T10:21:37Z</time>
      </trkpt>
      <trkpt lat="47.13723" lon="-1.61934">
        <ele>66</ele>
        <time>2022-06-28T10:21:39Z</time>
      </trkpt>
      <trkpt lat="47.13725" lon="-1.61949">
        <ele>67</ele>
        <time>2022-06-28T10:21:41Z</time>
      </trkpt>
      <trkpt lat="47.13727" lon="-1.61965">
        <ele>67</ele>
        <time>2022-06-28T10:21:43Z</time>
      </trkpt>
      <trkpt lat="47.13729" lon="-1.6198">
        <ele>68</ele>
        <time>2022-06-28T10:21:45Z</time>
      </trkpt>
      <trkpt lat="47.13731" lon="-1.61996">
        <ele>68</ele>
        <time>2022-06-28T10:21:47Z</time>
      </trkpt>
      <trkpt lat="47.13734" lon="-1.62011">
        <ele>68</ele>
        <time>2022-06-28T10:21:49Z</time>
      </trkpt>
      <trkpt lat="47.13736" lon="-1.62027">
        <ele>68</ele>
        <time>2022-06-28T10:21:51Z</time>
      </trkpt>
      <trkpt lat="47.13738" lon="-1.62042">
        <ele>68</ele>
        <time>2022-06-28T10:21:53Z</time>
      </trkpt>
      <trkpt lat="47.1374" lon="-1.62057">
        <ele>68</ele>
        <time>2022-06-28T10:21:55Z</time>
      </trkpt>
      <trkpt lat="47.13742" lon="-1.62072">
        <ele>68</ele>
        <time>2022-06-28T10:21:57Z</time>
      </trkpt>
      <trkpt lat="47.13744" lon="-1.62088">
        <ele>68</ele>
        <time>2022-06-28T10:21:59Z</time>
      </trkpt>
      <trkpt lat="47.13746" lon="-1.62104">
        <ele>69</ele>
        <time>2022-06-28T10:22:01Z</time>
      </trkpt>
      <trkpt lat="47.13748" lon="-1.6212">
        <ele>69</ele>
        <time>2022-06-28T10:22:03Z</time>
      </trkpt>
      <trkpt lat="47.13751" lon="-1.62136">
        <ele>69</ele>
        <time>2022-06-28T10:22:05Z</time>
      </trkpt>
      <trkpt lat="47.13752" lon="-1.62152">
        <ele>69</ele>
        <time>2022-06-28T10:22:07Z</time>
      </trkpt>
      <trkpt lat="47.13754" lon="-1.62169">
        <ele>69</ele>
        <time>2022-06-28T10:22:09Z</time>
      </trkpt>
      <trkpt lat="47.13757" lon="-1.62186">
        <ele>69</ele>
        <time>2022-06-28T10:22:11Z</time>
      </trkpt>
      <trkpt lat="47.13759" lon="-1.62202">
        <ele>68</ele>
        <time>2022-06-28T10:22:13Z</time>
      </trkpt>
      <trkpt lat="47.13761" lon="-1.62218">
        <ele>68</ele>
        <time>2022-06-28T10:22:15Z</time>
      </trkpt>
      <trkpt lat="47.13763" lon="-1.62235">
        <ele>68</ele>
        <time>2022-06-28T10:22:17Z</time>
      </trkpt>
      <trkpt lat="47.13764" lon="-1.62251">
        <ele>68</ele>
        <time>2022-06-28T10:22:19Z</time>
      </trkpt>
      <trkpt lat="47.13766" lon="-1.62268">
        <ele>68</ele>
        <time>2022-06-28T10:22:21Z</time>
      </trkpt>
      <trkpt lat="47.13768" lon="-1.62285">
        <ele>68</ele>
        <time>2022-06-28T10:22:23Z</time>
      </trkpt>
      <trkpt lat="47.13769" lon="-1.62301">
        <ele>69</ele>
        <time>2022-06-28T10:22:25Z</time>
      </trkpt>
      <trkpt lat="47.13769" lon="-1.62317">
        <ele>69</ele>
        <time>2022-06-28T10:22:27Z</time>
      </trkpt>
      <trkpt lat="47.13768" lon="-1.62335">
        <ele>68</ele>
        <time>2022-06-28T10:22:29Z</time>
      </trkpt>
      <trkpt lat="47.13767" lon="-1.62352">
        <ele>69</ele>
        <time>2022-06-28T10:22:31Z</time>
      </trkpt>
      <trkpt lat="47.13766" lon="-1.6237">
        <ele>69</ele>
        <time>2022-06-28T10:22:33Z</time>
      </trkpt>
      <trkpt lat="47.13766" lon="-1.62388">
        <ele>69</ele>
        <time>2022-06-28T10:22:35Z</time>
      </trkpt>
      <trkpt lat="47.13766" lon="-1.62406">
        <ele>69</ele>
        <time>2022-06-28T10:22:37Z</time>
      </trkpt>
      <trkpt lat="47.13766" lon="-1.62425">
        <ele>69</ele>
        <time>2022-06-28T10:22:39Z</time>
      </trkpt>
      <trkpt lat="47.13766" lon="-1.62445">
        <ele>70</ele>
        <time>2022-06-28T10:22:41Z</time>
      </trkpt>
      <trkpt lat="47.13767" lon="-1.62465">
        <ele>69</ele>
        <time>2022-06-28T10:22:43Z</time>
      </trkpt>
      <trkpt lat="47.13769" lon="-1.62484">
        <ele>70</ele>
        <time>2022-06-28T10:22:45Z</time>
      </trkpt>
      <trkpt lat="47.13772" lon="-1.62503">
        <ele>70</ele>
        <time>2022-06-28T10:22:47Z</time>
      </trkpt>
      <trkpt lat="47.13774" lon="-1.62521">
        <ele>70</ele>
        <time>2022-06-28T10:22:49Z</time>
      </trkpt>
      <trkpt lat="47.13776" lon="-1.62539">
        <ele>70</ele>
        <time>2022-06-28T10:22:51Z</time>
      </trkpt>
      <trkpt lat="47.13778" lon="-1.62557">
        <ele>69</ele>
        <time>2022-06-28T10:22:53Z</time>
      </trkpt>
      <trkpt lat="47.13779" lon="-1.62574">
        <ele>68</ele>
        <time>2022-06-28T10:22:55Z</time>
      </trkpt>
      <trkpt lat="47.13781" lon="-1.62591">
        <ele>68</ele>
        <time>2022-06-28T10:22:57Z</time>
      </trkpt>
      <trkpt lat="47.13783" lon="-1.62608">
        <ele>68</ele>
        <time>2022-06-28T10:22:59Z</time>
      </trkpt>
      <trkpt lat="47.13784" lon="-1.62624">
        <ele>68</ele>
        <time>2022-06-28T10:23:01Z</time>
      </trkpt>
      <trkpt lat="47.13786" lon="-1.6264">
        <ele>68</ele>
        <time>2022-06-28T10:23:03Z</time>
      </trkpt>
      <trkpt lat="47.13788" lon="-1.62656">
        <ele>69</ele>
        <time>2022-06-28T10:23:05Z</time>
      </trkpt>
      <trkpt lat="47.13788" lon="-1.62672">
        <ele>69</ele>
        <time>2022-06-28T10:23:07Z</time>
      </trkpt>
      <trkpt lat="47.13788" lon="-1.62688">
        <ele>69</ele>
        <time>2022-06-28T10:23:09Z</time>
      </trkpt>
      <trkpt lat="47.13787" lon="-1.62705">
        <ele>69</ele>
        <time>2022-06-28T10:23:11Z</time>
      </trkpt>
      <trkpt lat="47.13787" lon="-1.62721">
        <ele>69</ele>
        <time>2022-06-28T10:23:13Z</time>
      </trkpt>
      <trkpt lat="47.13787" lon="-1.62736">
        <ele>69</ele>
        <time>2022-06-28T10:23:15Z</time>
      </trkpt>
      <trkpt lat="47.13788" lon="-1.62751">
        <ele>69</ele>
        <time>2022-06-28T10:23:17Z</time>
      </trkpt>
      <trkpt lat="47.1379" lon="-1.62766">
        <ele>69</ele>
        <time>2022-06-28T10:23:19Z</time>
      </trkpt>
      <trkpt lat="47.13792" lon="-1.62779">
        <ele>70</ele>
        <time>2022-06-28T10:23:21Z</time>
      </trkpt>
      <trkpt lat="47.13796" lon="-1.62793">
        <ele>70</ele>
        <time>2022-06-28T10:23:23Z</time>
      </trkpt>
      <trkpt lat="47.138" lon="-1.62808">
        <ele>71</ele>
        <time>2022-06-28T10:23:25Z</time>
      </trkpt>
      <trkpt lat="47.13805" lon="-1.62822">
        <ele>70</ele>
        <time>2022-06-28T10:23:27Z</time>
      </trkpt>
      <trkpt lat="47.1381" lon="-1.62835">
        <ele>70</ele>
        <time>2022-06-28T10:23:29Z</time>
      </trkpt>
      <trkpt lat="47.13814" lon="-1.62847">
        <ele>70</ele>
        <time>2022-06-28T10:23:31Z</time>
      </trkpt>
      <trkpt lat="47.13818" lon="-1.6286">
        <ele>70</ele>
        <time>2022-06-28T10:23:33Z</time>
      </trkpt>
      <trkpt lat="47.13823" lon="-1.62872">
        <ele>70</ele>
        <time>2022-06-28T10:23:35Z</time>
      </trkpt>
      <trkpt lat="47.13826" lon="-1.62886">
        <ele>69</ele>
        <time>2022-06-28T10:23:37Z</time>
      </trkpt>
      <trkpt lat="47.13828" lon="-1.629">
        <ele>69</ele>
        <time>2022-06-28T10:23:39Z</time>
      </trkpt>
      <trkpt lat="47.13828" lon="-1.62914">
        <ele>69</ele>
        <time>2022-06-28T10:23:41Z</time>
      </trkpt>
      <trkpt lat="47.13827" lon="-1.62929">
        <ele>69</ele>
        <time>2022-06-28T10:23:43Z</time>
      </trkpt>
      <trkpt lat="47.13825" lon="-1.62944">
        <ele>69</ele>
        <time>2022-06-28T10:23:45Z</time>
      </trkpt>
      <trkpt lat="47.13824" lon="-1.62959">
        <ele>69</ele>
        <time>2022-06-28T10:23:47Z</time>
      </trkpt>
      <trkpt lat="47.13822" lon="-1.62975">
        <ele>68</ele>
        <time>2022-06-28T10:23:49Z</time>
      </trkpt>
      <trkpt lat="47.1382" lon="-1.62992">
        <ele>68</ele>
        <time>2022-06-28T10:23:51Z</time>
      </trkpt>
      <trkpt lat="47.1382" lon="-1.6301">
        <ele>68</ele>
        <time>2022-06-28T10:23:53Z</time>
      </trkpt>
      <trkpt lat="47.13821" lon="-1.63027">
        <ele>67</ele>
        <time>2022-06-28T10:23:55Z</time>
      </trkpt>
      <trkpt lat="47.13823" lon="-1.63046">
        <ele>67</ele>
        <time>2022-06-28T10:23:57Z</time>
      </trkpt>
      <trkpt lat="47.13831" lon="-1.63058">
        <ele>66</ele>
        <time>2022-06-28T10:23:59Z</time>
      </trkpt>
      <trkpt lat="47.13841" lon="-1.6306">
        <ele>65</ele>
        <time>2022-06-28T10:24:01Z</time>
      </trkpt>
      <trkpt lat="47.13853" lon="-1.63057">
        <ele>65</ele>
        <time>2022-06-28T10:24:03Z</time>
      </trkpt>
      <trkpt lat="47.13865" lon="-1.63055">
        <ele>65</ele>
        <time>2022-06-28T10:24:05Z</time>
      </trkpt>
      <trkpt lat="47.13876" lon="-1.63053">
        <ele>64</ele>
        <time>2022-06-28T10:24:07Z</time>
      </trkpt>
      <trkpt lat="47.13888" lon="-1.63051">
        <ele>64</ele>
        <time>2022-06-28T10:24:09Z</time>
      </trkpt>
      <trkpt lat="47.139" lon="-1.63048">
        <ele>63</ele>
        <time>2022-06-28T10:24:11Z</time>
      </trkpt>
      <trkpt lat="47.13912" lon="-1.63044">
        <ele>63</ele>
        <time>2022-06-28T10:24:13Z</time>
      </trkpt>
      <trkpt lat="47.13924" lon="-1.63039">
        <ele>62</ele>
        <time>2022-06-28T10:24:15Z</time>
      </trkpt>
      <trkpt lat="47.13936" lon="-1.63034">
        <ele>62</ele>
        <time>2022-06-28T10:24:17Z</time>
      </trkpt>
      <trkpt lat="47.13947" lon="-1.63028">
        <ele>62</ele>
        <time>2022-06-28T10:24:19Z</time>
      </trkpt>
      <trkpt lat="47.13959" lon="-1.63022">
        <ele>62</ele>
        <time>2022-06-28T10:24:21Z</time>
      </trkpt>
      <trkpt lat="47.1397" lon="-1.63016">
        <ele>62</ele>
        <time>2022-06-28T10:24:23Z</time>
      </trkpt>
      <trkpt lat="47.13981" lon="-1.6301">
        <ele>62</ele>
        <time>2022-06-28T10:24:25Z</time>
      </trkpt>
      <trkpt lat="47.13992" lon="-1.63003">
        <ele>62</ele>
        <time>2022-06-28T10:24:27Z</time>
      </trkpt>
      <trkpt lat="47.14003" lon="-1.62997">
        <ele>63</ele>
        <time>2022-06-28T10:24:29Z</time>
      </trkpt>
      <trkpt lat="47.14014" lon="-1.62992">
        <ele>63</ele>
        <time>2022-06-28T10:24:31Z</time>
      </trkpt>
      <trkpt lat="47.14025" lon="-1.62988">
        <ele>63</ele>
        <time>2022-06-28T10:24:33Z</time>
      </trkpt>
      <trkpt lat="47.14036" lon="-1.62984">
        <ele>63</ele>
        <time>2022-06-28T10:24:35Z</time>
      </trkpt>
      <trkpt lat="47.14045" lon="-1.62981">
        <ele>63</ele>
        <time>2022-06-28T10:24:37Z</time>
      </trkpt>
      <trkpt lat="47.14054" lon="-1.62979">
        <ele>64</ele>
        <time>2022-06-28T10:24:39Z</time>
      </trkpt>
      <trkpt lat="47.14064" lon="-1.62978">
        <ele>64</ele>
        <time>2022-06-28T10:24:41Z</time>
      </trkpt>
      <trkpt lat="47.14074" lon="-1.62976">
        <ele>65</ele>
        <time>2022-06-28T10:24:43Z</time>
      </trkpt>
      <trkpt lat="47.14084" lon="-1.62976">
        <ele>65</ele>
        <time>2022-06-28T10:24:45Z</time>
      </trkpt>
      <trkpt lat="47.14094" lon="-1.62977">
        <ele>65</ele>
        <time>2022-06-28T10:24:47Z</time>
      </trkpt>
      <trkpt lat="47.14103" lon="-1.62979">
        <ele>66</ele>
        <time>2022-06-28T10:24:49Z</time>
      </trkpt>
      <trkpt lat="47.14113" lon="-1.62982">
        <ele>66</ele>
        <time>2022-06-28T10:24:51Z</time>
      </trkpt>
      <trkpt lat="47.14123" lon="-1.62985">
        <ele>67</ele>
        <time>2022-06-28T10:24:53Z</time>
      </trkpt>
      <trkpt lat="47.14132" lon="-1.62988">
        <ele>67</ele>
        <time>2022-06-28T10:24:55Z</time>
      </trkpt>
      <trkpt lat="47.14142" lon="-1.62992">
        <ele>68</ele>
        <time>2022-06-28T10:24:57Z</time>
      </trkpt>
      <trkpt lat="47.14152" lon="-1.62996">
        <ele>68</ele>
        <time>2022-06-28T10:24:59Z</time>
      </trkpt>
      <trkpt lat="47.14161" lon="-1.63001">
        <ele>68</ele>
        <time>2022-06-28T10:25:01Z</time>
      </trkpt>
      <trkpt lat="47.1417" lon="-1.63005">
        <ele>67</ele>
        <time>2022-06-28T10:25:03Z</time>
      </trkpt>
      <trkpt lat="47.1418" lon="-1.63011">
        <ele>67</ele>
        <time>2022-06-28T10:25:05Z</time>
      </trkpt>
      <trkpt lat="47.1419" lon="-1.63016">
        <ele>67</ele>
        <time>2022-06-28T10:25:07Z</time>
      </trkpt>
      <trkpt lat="47.142" lon="-1.63021">
        <ele>67</ele>
        <time>2022-06-28T10:25:09Z</time>
      </trkpt>
      <trkpt lat="47.1421" lon="-1.63027">
        <ele>68</ele>
        <time>2022-06-28T10:25:11Z</time>
      </trkpt>
      <trkpt lat="47.1422" lon="-1.63032">
        <ele>68</ele>
        <time>2022-06-28T10:25:13Z</time>
      </trkpt>
      <trkpt lat="47.1423" lon="-1.63037">
        <ele>68</ele>
        <time>2022-06-28T10:25:15Z</time>
      </trkpt>
      <trkpt lat="47.14241" lon="-1.63042">
        <ele>68</ele>
        <time>2022-06-28T10:25:17Z</time>
      </trkpt>
      <trkpt lat="47.14252" lon="-1.63047">
        <ele>68</ele>
        <time>2022-06-28T10:25:19Z</time>
      </trkpt>
      <trkpt lat="47.14262" lon="-1.63052">
        <ele>68</ele>
        <time>2022-06-28T10:25:21Z</time>
      </trkpt>
      <trkpt lat="47.14272" lon="-1.63057">
        <ele>68</ele>
        <time>2022-06-28T10:25:23Z</time>
      </trkpt>
      <trkpt lat="47.14283" lon="-1.63063">
        <ele>68</ele>
        <time>2022-06-28T10:25:25Z</time>
      </trkpt>
      <trkpt lat="47.14293" lon="-1.63067">
        <ele>68</ele>
        <time>2022-06-28T10:25:27Z</time>
      </trkpt>
      <trkpt lat="47.14303" lon="-1.63072">
        <ele>69</ele>
        <time>2022-06-28T10:25:29Z</time>
      </trkpt>
      <trkpt lat="47.14313" lon="-1.63078">
        <ele>69</ele>
        <time>2022-06-28T10:25:31Z</time>
      </trkpt>
      <trkpt lat="47.14324" lon="-1.63084">
        <ele>69</ele>
        <time>2022-06-28T10:25:33Z</time>
      </trkpt>
      <trkpt lat="47.14335" lon="-1.63088">
        <ele>69</ele>
        <time>2022-06-28T10:25:35Z</time>
      </trkpt>
      <trkpt lat="47.14345" lon="-1.63094">
        <ele>69</ele>
        <time>2022-06-28T10:25:37Z</time>
      </trkpt>
      <trkpt lat="47.14356" lon="-1.63099">
        <ele>70</ele>
        <time>2022-06-28T10:25:39Z</time>
      </trkpt>
      <trkpt lat="47.14367" lon="-1.63104">
        <ele>70</ele>
        <time>2022-06-28T10:25:41Z</time>
      </trkpt>
      <trkpt lat="47.14378" lon="-1.63109">
        <ele>70</ele>
        <time>2022-06-28T10:25:43Z</time>
      </trkpt>
      <trkpt lat="47.14388" lon="-1.63114">
        <ele>70</ele>
        <time>2022-06-28T10:25:45Z</time>
      </trkpt>
      <trkpt lat="47.14398" lon="-1.63121">
        <ele>70</ele>
        <time>2022-06-28T10:25:47Z</time>
      </trkpt>
      <trkpt lat="47.14409" lon="-1.63126">
        <ele>69</ele>
        <time>2022-06-28T10:25:49Z</time>
      </trkpt>
      <trkpt lat="47.14419" lon="-1.63131">
        <ele>69</ele>
        <time>2022-06-28T10:25:51Z</time>
      </trkpt>
      <trkpt lat="47.14429" lon="-1.63136">
        <ele>69</ele>
        <time>2022-06-28T10:25:53Z</time>
      </trkpt>
      <trkpt lat="47.14439" lon="-1.63142">
        <ele>69</ele>
        <time>2022-06-28T10:25:55Z</time>
      </trkpt>
      <trkpt lat="47.14449" lon="-1.63146">
        <ele>69</ele>
        <time>2022-06-28T10:25:57Z</time>
      </trkpt>
      <trkpt lat="47.14459" lon="-1.63146">
        <ele>69</ele>
        <time>2022-06-28T10:25:59Z</time>
      </trkpt>
      <trkpt lat="47.1447" lon="-1.63147">
        <ele>69</ele>
        <time>2022-06-28T10:26:01Z</time>
      </trkpt>
      <trkpt lat="47.14481" lon="-1.63146">
        <ele>68</ele>
        <time>2022-06-28T10:26:03Z</time>
      </trkpt>
      <trkpt lat="47.14492" lon="-1.63145">
        <ele>69</ele>
        <time>2022-06-28T10:26:05Z</time>
      </trkpt>
      <trkpt lat="47.14502" lon="-1.63146">
        <ele>68</ele>
        <time>2022-06-28T10:26:07Z</time>
      </trkpt>
      <trkpt lat="47.14513" lon="-1.63146">
        <ele>69</ele>
        <time>2022-06-28T10:26:09Z</time>
      </trkpt>
      <trkpt lat="47.14524" lon="-1.63147">
        <ele>69</ele>
        <time>2022-06-28T10:26:11Z</time>
      </trkpt>
      <trkpt lat="47.14534" lon="-1.63146">
        <ele>70</ele>
        <time>2022-06-28T10:26:13Z</time>
      </trkpt>
      <trkpt lat="47.14545" lon="-1.63145">
        <ele>70</ele>
        <time>2022-06-28T10:26:15Z</time>
      </trkpt>
      <trkpt lat="47.14555" lon="-1.63143">
        <ele>70</ele>
        <time>2022-06-28T10:26:17Z</time>
      </trkpt>
      <trkpt lat="47.14565" lon="-1.6314">
        <ele>71</ele>
        <time>2022-06-28T10:26:19Z</time>
      </trkpt>
      <trkpt lat="47.14575" lon="-1.63134">
        <ele>71</ele>
        <time>2022-06-28T10:26:21Z</time>
      </trkpt>
      <trkpt lat="47.14585" lon="-1.63129">
        <ele>71</ele>
        <time>2022-06-28T10:26:23Z</time>
      </trkpt>
      <trkpt lat="47.14594" lon="-1.63123">
        <ele>71</ele>
        <time>2022-06-28T10:26:25Z</time>
      </trkpt>
      <trkpt lat="47.14603" lon="-1.63117">
        <ele>71</ele>
        <time>2022-06-28T10:26:27Z</time>
      </trkpt>
      <trkpt lat="47.14612" lon="-1.63111">
        <ele>71</ele>
        <time>2022-06-28T10:26:29Z</time>
      </trkpt>
      <trkpt lat="47.14622" lon="-1.63105">
        <ele>71</ele>
        <time>2022-06-28T10:26:31Z</time>
      </trkpt>
      <trkpt lat="47.14632" lon="-1.63098">
        <ele>72</ele>
        <time>2022-06-28T10:26:33Z</time>
      </trkpt>
      <trkpt lat="47.14641" lon="-1.63093">
        <ele>72</ele>
        <time>2022-06-28T10:26:35Z</time>
      </trkpt>
      <trkpt lat="47.14652" lon="-1.63087">
        <ele>72</ele>
        <time>2022-06-28T10:26:37Z</time>
      </trkpt>
      <trkpt lat="47.14662" lon="-1.63082">
        <ele>72</ele>
        <time>2022-06-28T10:26:39Z</time>
      </trkpt>
      <trkpt lat="47.14672" lon="-1.63078">
        <ele>71</ele>
        <time>2022-06-28T10:26:41Z</time>
      </trkpt>
      <trkpt lat="47.14682" lon="-1.63075">
        <ele>71</ele>
        <time>2022-06-28T10:26:43Z</time>
      </trkpt>
      <trkpt lat="47.14692" lon="-1.63072">
        <ele>71</ele>
        <time>2022-06-28T10:26:45Z</time>
      </trkpt>
      <trkpt lat="47.14703" lon="-1.63071">
        <ele>72</ele>
        <time>2022-06-28T10:26:47Z</time>
      </trkpt>
      <trkpt lat="47.14714" lon="-1.6307">
        <ele>72</ele>
        <time>2022-06-28T10:26:49Z</time>
      </trkpt>
      <trkpt lat="47.14724" lon="-1.6307">
        <ele>73</ele>
        <time>2022-06-28T10:26:51Z</time>
      </trkpt>
      <trkpt lat="47.14733" lon="-1.6307">
        <ele>73</ele>
        <time>2022-06-28T10:26:53Z</time>
      </trkpt>
      <trkpt lat="47.14743" lon="-1.63069">
        <ele>73</ele>
        <time>2022-06-28T10:26:55Z</time>
      </trkpt>
      <trkpt lat="47.14754" lon="-1.63068">
        <ele>72</ele>
        <time>2022-06-28T10:26:57Z</time>
      </trkpt>
      <trkpt lat="47.14765" lon="-1.63068">
        <ele>73</ele>
        <time>2022-06-28T10:26:59Z</time>
      </trkpt>
      <trkpt lat="47.14776" lon="-1.63067">
        <ele>72</ele>
        <time>2022-06-28T10:27:01Z</time>
      </trkpt>
      <trkpt lat="47.14788" lon="-1.63066">
        <ele>73</ele>
        <time>2022-06-28T10:27:03Z</time>
      </trkpt>
      <trkpt lat="47.14799" lon="-1.63065">
        <ele>72</ele>
        <time>2022-06-28T10:27:05Z</time>
      </trkpt>
      <trkpt lat="47.14811" lon="-1.63064">
        <ele>73</ele>
        <time>2022-06-28T10:27:07Z</time>
      </trkpt>
      <trkpt lat="47.14821" lon="-1.63063">
        <ele>73</ele>
        <time>2022-06-28T10:27:09Z</time>
      </trkpt>
      <trkpt lat="47.14832" lon="-1.63061">
        <ele>73</ele>
        <time>2022-06-28T10:27:11Z</time>
      </trkpt>
      <trkpt lat="47.14842" lon="-1.63061">
        <ele>73</ele>
        <time>2022-06-28T10:27:13Z</time>
      </trkpt>
      <trkpt lat="47.14854" lon="-1.63061">
        <ele>73</ele>
        <time>2022-06-28T10:27:15Z</time>
      </trkpt>
      <trkpt lat="47.14864" lon="-1.63061">
        <ele>73</ele>
        <time>2022-06-28T10:27:17Z</time>
      </trkpt>
      <trkpt lat="47.14874" lon="-1.6306">
        <ele>73</ele>
        <time>2022-06-28T10:27:19Z</time>
      </trkpt>
      <trkpt lat="47.14884" lon="-1.63066">
        <ele>74</ele>
        <time>2022-06-28T10:27:22Z</time>
      </trkpt>
      <trkpt lat="47.14887" lon="-1.6308">
        <ele>75</ele>
        <time>2022-06-28T10:27:24Z</time>
      </trkpt>
      <trkpt lat="47.14886" lon="-1.63096">
        <ele>75</ele>
        <time>2022-06-28T10:27:26Z</time>
      </trkpt>
      <trkpt lat="47.14884" lon="-1.63112">
        <ele>75</ele>
        <time>2022-06-28T10:27:28Z</time>
      </trkpt>
      <trkpt lat="47.14882" lon="-1.63128">
        <ele>76</ele>
        <time>2022-06-28T10:27:30Z</time>
      </trkpt>
      <trkpt lat="47.1488" lon="-1.63145">
        <ele>76</ele>
        <time>2022-06-28T10:27:32Z</time>
      </trkpt>
      <trkpt lat="47.14878" lon="-1.63161">
        <ele>76</ele>
        <time>2022-06-28T10:27:34Z</time>
      </trkpt>
      <trkpt lat="47.14877" lon="-1.63177">
        <ele>77</ele>
        <time>2022-06-28T10:27:36Z</time>
      </trkpt>
      <trkpt lat="47.14877" lon="-1.63194">
        <ele>76</ele>
        <time>2022-06-28T10:27:38Z</time>
      </trkpt>
      <trkpt lat="47.14876" lon="-1.6321">
        <ele>76</ele>
        <time>2022-06-28T10:27:40Z</time>
      </trkpt>
      <trkpt lat="47.14876" lon="-1.63226">
        <ele>76</ele>
        <time>2022-06-28T10:27:42Z</time>
      </trkpt>
      <trkpt lat="47.14875" lon="-1.63243">
        <ele>77</ele>
        <time>2022-06-28T10:27:44Z</time>
      </trkpt>
      <trkpt lat="47.14876" lon="-1.63259">
        <ele>77</ele>
        <time>2022-06-28T10:27:46Z</time>
      </trkpt>
      <trkpt lat="47.14876" lon="-1.63275">
        <ele>77</ele>
        <time>2022-06-28T10:27:48Z</time>
      </trkpt>
      <trkpt lat="47.14876" lon="-1.63291">
        <ele>78</ele>
        <time>2022-06-28T10:27:50Z</time>
      </trkpt>
      <trkpt lat="47.14877" lon="-1.63307">
        <ele>78</ele>
        <time>2022-06-28T10:27:52Z</time>
      </trkpt>
      <trkpt lat="47.14877" lon="-1.63322">
        <ele>78</ele>
        <time>2022-06-28T10:27:54Z</time>
      </trkpt>
      <trkpt lat="47.14877" lon="-1.63338">
        <ele>78</ele>
        <time>2022-06-28T10:27:56Z</time>
      </trkpt>
      <trkpt lat="47.14876" lon="-1.63354">
        <ele>79</ele>
        <time>2022-06-28T10:27:58Z</time>
      </trkpt>
      <trkpt lat="47.14876" lon="-1.63369">
        <ele>79</ele>
        <time>2022-06-28T10:28:00Z</time>
      </trkpt>
      <trkpt lat="47.14876" lon="-1.63385">
        <ele>79</ele>
        <time>2022-06-28T10:28:02Z</time>
      </trkpt>
      <trkpt lat="47.14876" lon="-1.63401">
        <ele>79</ele>
        <time>2022-06-28T10:28:04Z</time>
      </trkpt>
      <trkpt lat="47.14877" lon="-1.63417">
        <ele>79</ele>
        <time>2022-06-28T10:28:06Z</time>
      </trkpt>
      <trkpt lat="47.14877" lon="-1.63433">
        <ele>79</ele>
        <time>2022-06-28T10:28:08Z</time>
      </trkpt>
      <trkpt lat="47.14876" lon="-1.63449">
        <ele>78</ele>
        <time>2022-06-28T10:28:10Z</time>
      </trkpt>
      <trkpt lat="47.14876" lon="-1.63465">
        <ele>78</ele>
        <time>2022-06-28T10:28:12Z</time>
      </trkpt>
      <trkpt lat="47.14876" lon="-1.63481">
        <ele>78</ele>
        <time>2022-06-28T10:28:14Z</time>
      </trkpt>
      <trkpt lat="47.14876" lon="-1.63497">
        <ele>78</ele>
        <time>2022-06-28T10:28:16Z</time>
      </trkpt>
      <trkpt lat="47.14876" lon="-1.63513">
        <ele>78</ele>
        <time>2022-06-28T10:28:18Z</time>
      </trkpt>
      <trkpt lat="47.14876" lon="-1.63529">
        <ele>77</ele>
        <time>2022-06-28T10:28:20Z</time>
      </trkpt>
      <trkpt lat="47.14876" lon="-1.63545">
        <ele>77</ele>
        <time>2022-06-28T10:28:22Z</time>
      </trkpt>
      <trkpt lat="47.14876" lon="-1.63561">
        <ele>77</ele>
        <time>2022-06-28T10:28:24Z</time>
      </trkpt>
      <trkpt lat="47.14876" lon="-1.63577">
        <ele>77</ele>
        <time>2022-06-28T10:28:26Z</time>
      </trkpt>
      <trkpt lat="47.14875" lon="-1.63593">
        <ele>77</ele>
        <time>2022-06-28T10:28:28Z</time>
      </trkpt>
      <trkpt lat="47.14875" lon="-1.63609">
        <ele>77</ele>
        <time>2022-06-28T10:28:30Z</time>
      </trkpt>
      <trkpt lat="47.14875" lon="-1.63625">
        <ele>77</ele>
        <time>2022-06-28T10:28:32Z</time>
      </trkpt>
      <trkpt lat="47.14875" lon="-1.63641">
        <ele>77</ele>
        <time>2022-06-28T10:28:34Z</time>
      </trkpt>
      <trkpt lat="47.14875" lon="-1.63656">
        <ele>77</ele>
        <time>2022-06-28T10:28:36Z</time>
      </trkpt>
      <trkpt lat="47.14875" lon="-1.63672">
        <ele>77</ele>
        <time>2022-06-28T10:28:38Z</time>
      </trkpt>
      <trkpt lat="47.14875" lon="-1.63687">
        <ele>77</ele>
        <time>2022-06-28T10:28:40Z</time>
      </trkpt>
      <trkpt lat="47.14875" lon="-1.63704">
        <ele>77</ele>
        <time>2022-06-28T10:28:42Z</time>
      </trkpt>
      <trkpt lat="47.14875" lon="-1.63719">
        <ele>77</ele>
        <time>2022-06-28T10:28:44Z</time>
      </trkpt>
      <trkpt lat="47.14875" lon="-1.63735">
        <ele>77</ele>
        <time>2022-06-28T10:28:46Z</time>
      </trkpt>
      <trkpt lat="47.14875" lon="-1.63751">
        <ele>77</ele>
        <time>2022-06-28T10:28:48Z</time>
      </trkpt>
      <trkpt lat="47.14875" lon="-1.63766">
        <ele>77</ele>
        <time>2022-06-28T10:28:50Z</time>
      </trkpt>
      <trkpt lat="47.14875" lon="-1.63782">
        <ele>77</ele>
        <time>2022-06-28T10:28:52Z</time>
      </trkpt>
      <trkpt lat="47.14875" lon="-1.63798">
        <ele>77</ele>
        <time>2022-06-28T10:28:54Z</time>
      </trkpt>
      <trkpt lat="47.14875" lon="-1.63813">
        <ele>77</ele>
        <time>2022-06-28T10:28:56Z</time>
      </trkpt>
      <trkpt lat="47.14875" lon="-1.63829">
        <ele>77</ele>
        <time>2022-06-28T10:28:58Z</time>
      </trkpt>
      <trkpt lat="47.14873" lon="-1.63845">
        <ele>77</ele>
        <time>2022-06-28T10:29:00Z</time>
      </trkpt>
      <trkpt lat="47.14872" lon="-1.6386">
        <ele>77</ele>
        <time>2022-06-28T10:29:02Z</time>
      </trkpt>
      <trkpt lat="47.14871" lon="-1.63876">
        <ele>76</ele>
        <time>2022-06-28T10:29:04Z</time>
      </trkpt>
      <trkpt lat="47.14868" lon="-1.63893">
        <ele>76</ele>
        <time>2022-06-28T10:29:06Z</time>
      </trkpt>
      <trkpt lat="47.14866" lon="-1.63908">
        <ele>76</ele>
        <time>2022-06-28T10:29:08Z</time>
      </trkpt>
      <trkpt lat="47.14864" lon="-1.63922">
        <ele>76</ele>
        <time>2022-06-28T10:29:10Z</time>
      </trkpt>
      <trkpt lat="47.14862" lon="-1.63937">
        <ele>76</ele>
        <time>2022-06-28T10:29:12Z</time>
      </trkpt>
      <trkpt lat="47.14861" lon="-1.63951">
        <ele>76</ele>
        <time>2022-06-28T10:29:14Z</time>
      </trkpt>
      <trkpt lat="47.14861" lon="-1.63965">
        <ele>77</ele>
        <time>2022-06-28T10:29:16Z</time>
      </trkpt>
      <trkpt lat="47.14865" lon="-1.63978">
        <ele>77</ele>
        <time>2022-06-28T10:29:18Z</time>
      </trkpt>
      <trkpt lat="47.1487" lon="-1.6399">
        <ele>77</ele>
        <time>2022-06-28T10:29:20Z</time>
      </trkpt>
      <trkpt lat="47.14877" lon="-1.64001">
        <ele>77</ele>
        <time>2022-06-28T10:29:22Z</time>
      </trkpt>
      <trkpt lat="47.14884" lon="-1.64011">
        <ele>77</ele>
        <time>2022-06-28T10:29:24Z</time>
      </trkpt>
      <trkpt lat="47.14893" lon="-1.64018">
        <ele>78</ele>
        <time>2022-06-28T10:29:26Z</time>
      </trkpt>
      <trkpt lat="47.14902" lon="-1.6402">
        <ele>78</ele>
        <time>2022-06-28T10:29:28Z</time>
      </trkpt>
      <trkpt lat="47.14911" lon="-1.64013">
        <ele>77</ele>
        <time>2022-06-28T10:29:30Z</time>
      </trkpt>
      <trkpt lat="47.14917" lon="-1.64001">
        <ele>77</ele>
        <time>2022-06-28T10:29:32Z</time>
      </trkpt>
      <trkpt lat="47.14922" lon="-1.63986">
        <ele>76</ele>
        <time>2022-06-28T10:29:34Z</time>
      </trkpt>
      <trkpt lat="47.14929" lon="-1.63972">
        <ele>76</ele>
        <time>2022-06-28T10:29:36Z</time>
      </trkpt>
      <trkpt lat="47.14936" lon="-1.63959">
        <ele>77</ele>
        <time>2022-06-28T10:29:38Z</time>
      </trkpt>
      <trkpt lat="47.14944" lon="-1.63947">
        <ele>77</ele>
        <time>2022-06-28T10:29:40Z</time>
      </trkpt>
      <trkpt lat="47.14952" lon="-1.63935">
        <ele>76</ele>
        <time>2022-06-28T10:29:42Z</time>
      </trkpt>
      <trkpt lat="47.14961" lon="-1.63922">
        <ele>76</ele>
        <time>2022-06-28T10:29:44Z</time>
      </trkpt>
      <trkpt lat="47.1497" lon="-1.63909">
        <ele>75</ele>
        <time>2022-06-28T10:29:46Z</time>
      </trkpt>
      <trkpt lat="47.14979" lon="-1.63896">
        <ele>75</ele>
        <time>2022-06-28T10:29:48Z</time>
      </trkpt>
      <trkpt lat="47.14988" lon="-1.63883">
        <ele>75</ele>
        <time>2022-06-28T10:29:50Z</time>
      </trkpt>
      <trkpt lat="47.14998" lon="-1.6387">
        <ele>75</ele>
        <time>2022-06-28T10:29:52Z</time>
      </trkpt>
      <trkpt lat="47.15007" lon="-1.63857">
        <ele>75</ele>
        <time>2022-06-28T10:29:54Z</time>
      </trkpt>
      <trkpt lat="47.15016" lon="-1.63844">
        <ele>75</ele>
        <time>2022-06-28T10:29:56Z</time>
      </trkpt>
      <trkpt lat="47.15026" lon="-1.63831">
        <ele>75</ele>
        <time>2022-06-28T10:29:58Z</time>
      </trkpt>
      <trkpt lat="47.15036" lon="-1.63818">
        <ele>75</ele>
        <time>2022-06-28T10:30:00Z</time>
      </trkpt>
      <trkpt lat="47.15046" lon="-1.63804">
        <ele>75</ele>
        <time>2022-06-28T10:30:02Z</time>
      </trkpt>
      <trkpt lat="47.15056" lon="-1.63791">
        <ele>75</ele>
        <time>2022-06-28T10:30:04Z</time>
      </trkpt>
      <trkpt lat="47.15067" lon="-1.63778">
        <ele>75</ele>
        <time>2022-06-28T10:30:06Z</time>
      </trkpt>
      <trkpt lat="47.15077" lon="-1.63766">
        <ele>75</ele>
        <time>2022-06-28T10:30:08Z</time>
      </trkpt>
      <trkpt lat="47.15088" lon="-1.63753">
        <ele>74</ele>
        <time>2022-06-28T10:30:10Z</time>
      </trkpt>
      <trkpt lat="47.15098" lon="-1.63741">
        <ele>74</ele>
        <time>2022-06-28T10:30:12Z</time>
      </trkpt>
      <trkpt lat="47.15109" lon="-1.63729">
        <ele>74</ele>
        <time>2022-06-28T10:30:14Z</time>
      </trkpt>
      <trkpt lat="47.1512" lon="-1.63717">
        <ele>75</ele>
        <time>2022-06-28T10:30:16Z</time>
      </trkpt>
      <trkpt lat="47.15131" lon="-1.63706">
        <ele>75</ele>
        <time>2022-06-28T10:30:18Z</time>
      </trkpt>
      <trkpt lat="47.15142" lon="-1.63696">
        <ele>75</ele>
        <time>2022-06-28T10:30:20Z</time>
      </trkpt>
      <trkpt lat="47.15154" lon="-1.63684">
        <ele>75</ele>
        <time>2022-06-28T10:30:22Z</time>
      </trkpt>
      <trkpt lat="47.15165" lon="-1.63674">
        <ele>75</ele>
        <time>2022-06-28T10:30:24Z</time>
      </trkpt>
      <trkpt lat="47.15176" lon="-1.63664">
        <ele>75</ele>
        <time>2022-06-28T10:30:26Z</time>
      </trkpt>
      <trkpt lat="47.15187" lon="-1.63654">
        <ele>75</ele>
        <time>2022-06-28T10:30:28Z</time>
      </trkpt>
      <trkpt lat="47.15199" lon="-1.63644">
        <ele>75</ele>
        <time>2022-06-28T10:30:30Z</time>
      </trkpt>
      <trkpt lat="47.15209" lon="-1.63634">
        <ele>75</ele>
        <time>2022-06-28T10:30:32Z</time>
      </trkpt>
      <trkpt lat="47.1522" lon="-1.63624">
        <ele>75</ele>
        <time>2022-06-28T10:30:34Z</time>
      </trkpt>
      <trkpt lat="47.15232" lon="-1.63613">
        <ele>75</ele>
        <time>2022-06-28T10:30:36Z</time>
      </trkpt>
      <trkpt lat="47.15243" lon="-1.63602">
        <ele>75</ele>
        <time>2022-06-28T10:30:38Z</time>
      </trkpt>
      <trkpt lat="47.15255" lon="-1.63591">
        <ele>75</ele>
        <time>2022-06-28T10:30:40Z</time>
      </trkpt>
      <trkpt lat="47.15266" lon="-1.63581">
        <ele>75</ele>
        <time>2022-06-28T10:30:42Z</time>
      </trkpt>
      <trkpt lat="47.15277" lon="-1.63571">
        <ele>76</ele>
        <time>2022-06-28T10:30:44Z</time>
      </trkpt>
      <trkpt lat="47.15288" lon="-1.63561">
        <ele>76</ele>
        <time>2022-06-28T10:30:46Z</time>
      </trkpt>
      <trkpt lat="47.153" lon="-1.63551">
        <ele>76</ele>
        <time>2022-06-28T10:30:48Z</time>
      </trkpt>
      <trkpt lat="47.15311" lon="-1.63541">
        <ele>75</ele>
        <time>2022-06-28T10:30:50Z</time>
      </trkpt>
      <trkpt lat="47.15322" lon="-1.6353">
        <ele>75</ele>
        <time>2022-06-28T10:30:52Z</time>
      </trkpt>
      <trkpt lat="47.15333" lon="-1.6352">
        <ele>75</ele>
        <time>2022-06-28T10:30:54Z</time>
      </trkpt>
      <trkpt lat="47.15344" lon="-1.63511">
        <ele>75</ele>
        <time>2022-06-28T10:30:56Z</time>
      </trkpt>
      <trkpt lat="47.15355" lon="-1.63501">
        <ele>74</ele>
        <time>2022-06-28T10:30:58Z</time>
      </trkpt>
      <trkpt lat="47.15367" lon="-1.63491">
        <ele>74</ele>
        <time>2022-06-28T10:31:00Z</time>
      </trkpt>
      <trkpt lat="47.15378" lon="-1.63481">
        <ele>74</ele>
        <time>2022-06-28T10:31:02Z</time>
      </trkpt>
      <trkpt lat="47.15389" lon="-1.63471">
        <ele>74</ele>
        <time>2022-06-28T10:31:04Z</time>
      </trkpt>
      <trkpt lat="47.15401" lon="-1.6346">
        <ele>74</ele>
        <time>2022-06-28T10:31:06Z</time>
      </trkpt>
      <trkpt lat="47.15412" lon="-1.63451">
        <ele>74</ele>
        <time>2022-06-28T10:31:08Z</time>
      </trkpt>
      <trkpt lat="47.15423" lon="-1.63441">
        <ele>73</ele>
        <time>2022-06-28T10:31:10Z</time>
      </trkpt>
      <trkpt lat="47.15434" lon="-1.6343">
        <ele>73</ele>
        <time>2022-06-28T10:31:12Z</time>
      </trkpt>
      <trkpt lat="47.15446" lon="-1.63418">
        <ele>73</ele>
        <time>2022-06-28T10:31:14Z</time>
      </trkpt>
      <trkpt lat="47.15458" lon="-1.63407">
        <ele>73</ele>
        <time>2022-06-28T10:31:16Z</time>
      </trkpt>
      <trkpt lat="47.1547" lon="-1.63396">
        <ele>72</ele>
        <time>2022-06-28T10:31:18Z</time>
      </trkpt>
      <trkpt lat="47.15483" lon="-1.63388">
        <ele>72</ele>
        <time>2022-06-28T10:31:20Z</time>
      </trkpt>
      <trkpt lat="47.15495" lon="-1.6338">
        <ele>72</ele>
        <time>2022-06-28T10:31:22Z</time>
      </trkpt>
      <trkpt lat="47.15508" lon="-1.63369">
        <ele>72</ele>
        <time>2022-06-28T10:31:24Z</time>
      </trkpt>
      <trkpt lat="47.1552" lon="-1.63359">
        <ele>71</ele>
        <time>2022-06-28T10:31:26Z</time>
      </trkpt>
      <trkpt lat="47.15533" lon="-1.63348">
        <ele>71</ele>
        <time>2022-06-28T10:31:28Z</time>
      </trkpt>
      <trkpt lat="47.15546" lon="-1.63335">
        <ele>70</ele>
        <time>2022-06-28T10:31:30Z</time>
      </trkpt>
      <trkpt lat="47.15559" lon="-1.63324">
        <ele>70</ele>
        <time>2022-06-28T10:31:32Z</time>
      </trkpt>
      <trkpt lat="47.15573" lon="-1.63312">
        <ele>69</ele>
        <time>2022-06-28T10:31:34Z</time>
      </trkpt>
      <trkpt lat="47.15586" lon="-1.633">
        <ele>69</ele>
        <time>2022-06-28T10:31:36Z</time>
      </trkpt>
      <trkpt lat="47.156" lon="-1.63288">
        <ele>68</ele>
        <time>2022-06-28T10:31:38Z</time>
      </trkpt>
      <trkpt lat="47.15613" lon="-1.63276">
        <ele>68</ele>
        <time>2022-06-28T10:31:40Z</time>
      </trkpt>
      <trkpt lat="47.15627" lon="-1.63264">
        <ele>68</ele>
        <time>2022-06-28T10:31:42Z</time>
      </trkpt>
      <trkpt lat="47.15639" lon="-1.63253">
        <ele>68</ele>
        <time>2022-06-28T10:31:44Z</time>
      </trkpt>
      <trkpt lat="47.15651" lon="-1.63242">
        <ele>68</ele>
        <time>2022-06-28T10:31:46Z</time>
      </trkpt>
      <trkpt lat="47.15663" lon="-1.63231">
        <ele>68</ele>
        <time>2022-06-28T10:31:48Z</time>
      </trkpt>
      <trkpt lat="47.15675" lon="-1.6322">
        <ele>68</ele>
        <time>2022-06-28T10:31:50Z</time>
      </trkpt>
      <trkpt lat="47.15687" lon="-1.6321">
        <ele>69</ele>
        <time>2022-06-28T10:31:52Z</time>
      </trkpt>
      <trkpt lat="47.15698" lon="-1.632">
        <ele>69</ele>
        <time>2022-06-28T10:31:54Z</time>
      </trkpt>
      <trkpt lat="47.15709" lon="-1.6319">
        <ele>69</ele>
        <time>2022-06-28T10:31:56Z</time>
      </trkpt>
      <trkpt lat="47.1572" lon="-1.63181">
        <ele>69</ele>
        <time>2022-06-28T10:31:58Z</time>
      </trkpt>
      <trkpt lat="47.15732" lon="-1.63171">
        <ele>69</ele>
        <time>2022-06-28T10:32:00Z</time>
      </trkpt>
      <trkpt lat="47.15742" lon="-1.6316">
        <ele>69</ele>
        <time>2022-06-28T10:32:02Z</time>
      </trkpt>
      <trkpt lat="47.15751" lon="-1.63148">
        <ele>68</ele>
        <time>2022-06-28T10:32:04Z</time>
      </trkpt>
      <trkpt lat="47.15763" lon="-1.63143">
        <ele>68</ele>
        <time>2022-06-28T10:32:06Z</time>
      </trkpt>
      <trkpt lat="47.15775" lon="-1.63134">
        <ele>67</ele>
        <time>2022-06-28T10:32:08Z</time>
      </trkpt>
      <trkpt lat="47.15786" lon="-1.63124">
        <ele>67</ele>
        <time>2022-06-28T10:32:10Z</time>
      </trkpt>
      <trkpt lat="47.15798" lon="-1.63114">
        <ele>66</ele>
        <time>2022-06-28T10:32:12Z</time>
      </trkpt>
      <trkpt lat="47.1581" lon="-1.63103">
        <ele>65</ele>
        <time>2022-06-28T10:32:14Z</time>
      </trkpt>
      <trkpt lat="47.15822" lon="-1.63092">
        <ele>64</ele>
        <time>2022-06-28T10:32:16Z</time>
      </trkpt>
      <trkpt lat="47.15836" lon="-1.6308">
        <ele>64</ele>
        <time>2022-06-28T10:32:18Z</time>
      </trkpt>
      <trkpt lat="47.1585" lon="-1.63068">
        <ele>64</ele>
        <time>2022-06-28T10:32:20Z</time>
      </trkpt>
      <trkpt lat="47.15864" lon="-1.63055">
        <ele>64</ele>
        <time>2022-06-28T10:32:22Z</time>
      </trkpt>
      <trkpt lat="47.15877" lon="-1.63043">
        <ele>64</ele>
        <time>2022-06-28T10:32:24Z</time>
      </trkpt>
      <trkpt lat="47.15891" lon="-1.6303">
        <ele>64</ele>
        <time>2022-06-28T10:32:26Z</time>
      </trkpt>
      <trkpt lat="47.15904" lon="-1.63019">
        <ele>64</ele>
        <time>2022-06-28T10:32:28Z</time>
      </trkpt>
      <trkpt lat="47.15916" lon="-1.63008">
        <ele>64</ele>
        <time>2022-06-28T10:32:30Z</time>
      </trkpt>
      <trkpt lat="47.15928" lon="-1.62997">
        <ele>65</ele>
        <time>2022-06-28T10:32:32Z</time>
      </trkpt>
      <trkpt lat="47.15939" lon="-1.62987">
        <ele>65</ele>
        <time>2022-06-28T10:32:34Z</time>
      </trkpt>
      <trkpt lat="47.15951" lon="-1.62977">
        <ele>65</ele>
        <time>2022-06-28T10:32:36Z</time>
      </trkpt>
      <trkpt lat="47.15962" lon="-1.62967">
        <ele>66</ele>
        <time>2022-06-28T10:32:38Z</time>
      </trkpt>
      <trkpt lat="47.15972" lon="-1.62957">
        <ele>66</ele>
        <time>2022-06-28T10:32:40Z</time>
      </trkpt>
      <trkpt lat="47.15982" lon="-1.62948">
        <ele>67</ele>
        <time>2022-06-28T10:32:42Z</time>
      </trkpt>
      <trkpt lat="47.15992" lon="-1.6294">
        <ele>67</ele>
        <time>2022-06-28T10:32:44Z</time>
      </trkpt>
      <trkpt lat="47.16001" lon="-1.62931">
        <ele>67</ele>
        <time>2022-06-28T10:32:46Z</time>
      </trkpt>
      <trkpt lat="47.1601" lon="-1.62923">
        <ele>67</ele>
        <time>2022-06-28T10:32:48Z</time>
      </trkpt>
      <trkpt lat="47.16019" lon="-1.62915">
        <ele>68</ele>
        <time>2022-06-28T10:32:50Z</time>
      </trkpt>
      <trkpt lat="47.16029" lon="-1.62906">
        <ele>68</ele>
        <time>2022-06-28T10:32:52Z</time>
      </trkpt>
      <trkpt lat="47.16038" lon="-1.62898">
        <ele>68</ele>
        <time>2022-06-28T10:32:54Z</time>
      </trkpt>
      <trkpt lat="47.16047" lon="-1.62891">
        <ele>69</ele>
        <time>2022-06-28T10:32:56Z</time>
      </trkpt>
      <trkpt lat="47.16056" lon="-1.62883">
        <ele>69</ele>
        <time>2022-06-28T10:32:58Z</time>
      </trkpt>
      <trkpt lat="47.16065" lon="-1.62875">
        <ele>70</ele>
        <time>2022-06-28T10:33:00Z</time>
      </trkpt>
      <trkpt lat="47.16075" lon="-1.62866">
        <ele>70</ele>
        <time>2022-06-28T10:33:02Z</time>
      </trkpt>
      <trkpt lat="47.16084" lon="-1.62858">
        <ele>71</ele>
        <time>2022-06-28T10:33:04Z</time>
      </trkpt>
      <trkpt lat="47.16098" lon="-1.62845">
        <ele>71</ele>
        <time>2022-06-28T10:33:07Z</time>
      </trkpt>
      <trkpt lat="47.16107" lon="-1.62837">
        <ele>71</ele>
        <time>2022-06-28T10:33:09Z</time>
      </trkpt>
      <trkpt lat="47.16117" lon="-1.62829">
        <ele>71</ele>
        <time>2022-06-28T10:33:11Z</time>
      </trkpt>
      <trkpt lat="47.16127" lon="-1.62821">
        <ele>71</ele>
        <time>2022-06-28T10:33:13Z</time>
      </trkpt>
      <trkpt lat="47.16136" lon="-1.62812">
        <ele>71</ele>
        <time>2022-06-28T10:33:15Z</time>
      </trkpt>
      <trkpt lat="47.16145" lon="-1.62804">
        <ele>72</ele>
        <time>2022-06-28T10:33:17Z</time>
      </trkpt>
      <trkpt lat="47.1616" lon="-1.62791">
        <ele>72</ele>
        <time>2022-06-28T10:33:20Z</time>
      </trkpt>
      <trkpt lat="47.1617" lon="-1.62783">
        <ele>73</ele>
        <time>2022-06-28T10:33:22Z</time>
      </trkpt>
      <trkpt lat="47.16179" lon="-1.62774">
        <ele>73</ele>
        <time>2022-06-28T10:33:24Z</time>
      </trkpt>
      <trkpt lat="47.16188" lon="-1.62765">
        <ele>74</ele>
        <time>2022-06-28T10:33:26Z</time>
      </trkpt>
      <trkpt lat="47.16198" lon="-1.62756">
        <ele>74</ele>
        <time>2022-06-28T10:33:28Z</time>
      </trkpt>
      <trkpt lat="47.16207" lon="-1.62748">
        <ele>75</ele>
        <time>2022-06-28T10:33:30Z</time>
      </trkpt>
      <trkpt lat="47.16216" lon="-1.62739">
        <ele>75</ele>
        <time>2022-06-28T10:33:32Z</time>
      </trkpt>
      <trkpt lat="47.16226" lon="-1.62732">
        <ele>76</ele>
        <time>2022-06-28T10:33:34Z</time>
      </trkpt>
      <trkpt lat="47.16235" lon="-1.62725">
        <ele>76</ele>
        <time>2022-06-28T10:33:36Z</time>
      </trkpt>
      <trkpt lat="47.16248" lon="-1.62714">
        <ele>77</ele>
        <time>2022-06-28T10:33:39Z</time>
      </trkpt>
      <trkpt lat="47.16256" lon="-1.62707">
        <ele>77</ele>
        <time>2022-06-28T10:33:41Z</time>
      </trkpt>
      <trkpt lat="47.1627" lon="-1.62697">
        <ele>77</ele>
        <time>2022-06-28T10:33:44Z</time>
      </trkpt>
      <trkpt lat="47.16279" lon="-1.62686">
        <ele>77</ele>
        <time>2022-06-28T10:33:47Z</time>
      </trkpt>
      <trkpt lat="47.16278" lon="-1.62671">
        <ele>77</ele>
        <time>2022-06-28T10:33:49Z</time>
      </trkpt>
      <trkpt lat="47.16279" lon="-1.62656">
        <ele>77</ele>
        <time>2022-06-28T10:33:51Z</time>
      </trkpt>
      <trkpt lat="47.16281" lon="-1.6264">
        <ele>77</ele>
        <time>2022-06-28T10:33:53Z</time>
      </trkpt>
      <trkpt lat="47.16283" lon="-1.62626">
        <ele>76</ele>
        <time>2022-06-28T10:33:55Z</time>
      </trkpt>
      <trkpt lat="47.16286" lon="-1.62612">
        <ele>76</ele>
        <time>2022-06-28T10:33:57Z</time>
      </trkpt>
      <trkpt lat="47.1629" lon="-1.62598">
        <ele>76</ele>
        <time>2022-06-28T10:33:59Z</time>
      </trkpt>
      <trkpt lat="47.16295" lon="-1.62586">
        <ele>76</ele>
        <time>2022-06-28T10:34:01Z</time>
      </trkpt>
      <trkpt lat="47.16306" lon="-1.62575">
        <ele>76</ele>
        <time>2022-06-28T10:34:04Z</time>
      </trkpt>
      <trkpt lat="47.16314" lon="-1.62569">
        <ele>76</ele>
        <time>2022-06-28T10:34:06Z</time>
      </trkpt>
      <trkpt lat="47.16324" lon="-1.62568">
        <ele>76</ele>
        <time>2022-06-28T10:34:08Z</time>
      </trkpt>
      <trkpt lat="47.16335" lon="-1.62571">
        <ele>76</ele>
        <time>2022-06-28T10:34:10Z</time>
      </trkpt>
      <trkpt lat="47.16345" lon="-1.62576">
        <ele>77</ele>
        <time>2022-06-28T10:34:12Z</time>
      </trkpt>
      <trkpt lat="47.16356" lon="-1.6258">
        <ele>77</ele>
        <time>2022-06-28T10:34:14Z</time>
      </trkpt>
      <trkpt lat="47.16366" lon="-1.62582">
        <ele>78</ele>
        <time>2022-06-28T10:34:16Z</time>
      </trkpt>
      <trkpt lat="47.16377" lon="-1.62582">
        <ele>77</ele>
        <time>2022-06-28T10:34:18Z</time>
      </trkpt>
      <trkpt lat="47.16388" lon="-1.6258">
        <ele>77</ele>
        <time>2022-06-28T10:34:20Z</time>
      </trkpt>
      <trkpt lat="47.16398" lon="-1.62575">
        <ele>78</ele>
        <time>2022-06-28T10:34:22Z</time>
      </trkpt>
      <trkpt lat="47.16407" lon="-1.62566">
        <ele>78</ele>
        <time>2022-06-28T10:34:24Z</time>
      </trkpt>
      <trkpt lat="47.16416" lon="-1.62558">
        <ele>78</ele>
        <time>2022-06-28T10:34:26Z</time>
      </trkpt>
      <trkpt lat="47.16425" lon="-1.62549">
        <ele>78</ele>
        <time>2022-06-28T10:34:28Z</time>
      </trkpt>
      <trkpt lat="47.16433" lon="-1.62541">
        <ele>78</ele>
        <time>2022-06-28T10:34:30Z</time>
      </trkpt>
      <trkpt lat="47.16444" lon="-1.62538">
        <ele>78</ele>
        <time>2022-06-28T10:34:32Z</time>
      </trkpt>
      <trkpt lat="47.16453" lon="-1.62541">
        <ele>79</ele>
        <time>2022-06-28T10:34:34Z</time>
      </trkpt>
      <trkpt lat="47.16463" lon="-1.62544">
        <ele>79</ele>
        <time>2022-06-28T10:34:36Z</time>
      </trkpt>
      <trkpt lat="47.16474" lon="-1.62548">
        <ele>79</ele>
        <time>2022-06-28T10:34:38Z</time>
      </trkpt>
      <trkpt lat="47.16484" lon="-1.62551">
        <ele>79</ele>
        <time>2022-06-28T10:34:40Z</time>
      </trkpt>
      <trkpt lat="47.16495" lon="-1.62555">
        <ele>78</ele>
        <time>2022-06-28T10:34:42Z</time>
      </trkpt>
      <trkpt lat="47.16506" lon="-1.62558">
        <ele>77</ele>
        <time>2022-06-28T10:34:44Z</time>
      </trkpt>
      <trkpt lat="47.16517" lon="-1.62561">
        <ele>77</ele>
        <time>2022-06-28T10:34:46Z</time>
      </trkpt>
      <trkpt lat="47.16528" lon="-1.62564">
        <ele>77</ele>
        <time>2022-06-28T10:34:48Z</time>
      </trkpt>
      <trkpt lat="47.16539" lon="-1.62562">
        <ele>77</ele>
        <time>2022-06-28T10:34:50Z</time>
      </trkpt>
      <trkpt lat="47.16549" lon="-1.62553">
        <ele>77</ele>
        <time>2022-06-28T10:34:52Z</time>
      </trkpt>
      <trkpt lat="47.16558" lon="-1.62541">
        <ele>77</ele>
        <time>2022-06-28T10:34:54Z</time>
      </trkpt>
      <trkpt lat="47.16566" lon="-1.62528">
        <ele>77</ele>
        <time>2022-06-28T10:34:56Z</time>
      </trkpt>
      <trkpt lat="47.16573" lon="-1.62513">
        <ele>77</ele>
        <time>2022-06-28T10:34:58Z</time>
      </trkpt>
      <trkpt lat="47.16578" lon="-1.62497">
        <ele>77</ele>
        <time>2022-06-28T10:35:00Z</time>
      </trkpt>
      <trkpt lat="47.16585" lon="-1.6248">
        <ele>76</ele>
        <time>2022-06-28T10:35:02Z</time>
      </trkpt>
      <trkpt lat="47.16591" lon="-1.62464">
        <ele>76</ele>
        <time>2022-06-28T10:35:04Z</time>
      </trkpt>
      <trkpt lat="47.16598" lon="-1.62448">
        <ele>75</ele>
        <time>2022-06-28T10:35:06Z</time>
      </trkpt>
      <trkpt lat="47.16605" lon="-1.62432">
        <ele>75</ele>
        <time>2022-06-28T10:35:08Z</time>
      </trkpt>
      <trkpt lat="47.16613" lon="-1.62417">
        <ele>75</ele>
        <time>2022-06-28T10:35:10Z</time>
      </trkpt>
      <trkpt lat="47.16621" lon="-1.62402">
        <ele>74</ele>
        <time>2022-06-28T10:35:12Z</time>
      </trkpt>
      <trkpt lat="47.1663" lon="-1.62389">
        <ele>74</ele>
        <time>2022-06-28T10:35:14Z</time>
      </trkpt>
      <trkpt lat="47.1664" lon="-1.62376">
        <ele>74</ele>
        <time>2022-06-28T10:35:16Z</time>
      </trkpt>
      <trkpt lat="47.1665" lon="-1.62364">
        <ele>75</ele>
        <time>2022-06-28T10:35:18Z</time>
      </trkpt>
      <trkpt lat="47.16662" lon="-1.62356">
        <ele>75</ele>
        <time>2022-06-28T10:35:20Z</time>
      </trkpt>
      <trkpt lat="47.16676" lon="-1.62353">
        <ele>76</ele>
        <time>2022-06-28T10:35:22Z</time>
      </trkpt>
      <trkpt lat="47.1669" lon="-1.62351">
        <ele>76</ele>
        <time>2022-06-28T10:35:24Z</time>
      </trkpt>
      <trkpt lat="47.16702" lon="-1.62357">
        <ele>80</ele>
        <time>2022-06-28T10:35:26Z</time>
      </trkpt>
      <trkpt lat="47.16711" lon="-1.62373">
        <ele>81</ele>
        <time>2022-06-28T10:35:28Z</time>
      </trkpt>
      <trkpt lat="47.1672" lon="-1.62391">
        <ele>80</ele>
        <time>2022-06-28T10:35:30Z</time>
      </trkpt>
      <trkpt lat="47.16728" lon="-1.62402">
        <ele>79</ele>
        <time>2022-06-28T10:35:32Z</time>
      </trkpt>
      <trkpt lat="47.16733" lon="-1.62415">
        <ele>78</ele>
        <time>2022-06-28T10:35:34Z</time>
      </trkpt>
      <trkpt lat="47.16732" lon="-1.62431">
        <ele>78</ele>
        <time>2022-06-28T10:35:36Z</time>
      </trkpt>
      <trkpt lat="47.16728" lon="-1.62447">
        <ele>76</ele>
        <time>2022-06-28T10:35:38Z</time>
      </trkpt>
      <trkpt lat="47.16724" lon="-1.62462">
        <ele>75</ele>
        <time>2022-06-28T10:35:40Z</time>
      </trkpt>
      <trkpt lat="47.16721" lon="-1.62477">
        <ele>75</ele>
        <time>2022-06-28T10:35:42Z</time>
      </trkpt>
      <trkpt lat="47.16722" lon="-1.62491">
        <ele>74</ele>
        <time>2022-06-28T10:35:44Z</time>
      </trkpt>
      <trkpt lat="47.16734" lon="-1.62499">
        <ele>74</ele>
        <time>2022-06-28T10:35:47Z</time>
      </trkpt>
      <trkpt lat="47.16743" lon="-1.62503">
        <ele>74</ele>
        <time>2022-06-28T10:35:49Z</time>
      </trkpt>
      <trkpt lat="47.16752" lon="-1.62507">
        <ele>74</ele>
        <time>2022-06-28T10:35:51Z</time>
      </trkpt>
      <trkpt lat="47.16762" lon="-1.62513">
        <ele>75</ele>
        <time>2022-06-28T10:35:53Z</time>
      </trkpt>
      <trkpt lat="47.16771" lon="-1.62519">
        <ele>75</ele>
        <time>2022-06-28T10:35:55Z</time>
      </trkpt>
      <trkpt lat="47.1678" lon="-1.62525">
        <ele>76</ele>
        <time>2022-06-28T10:35:57Z</time>
      </trkpt>
      <trkpt lat="47.16789" lon="-1.62531">
        <ele>76</ele>
        <time>2022-06-28T10:35:59Z</time>
      </trkpt>
      <trkpt lat="47.16798" lon="-1.62537">
        <ele>76</ele>
        <time>2022-06-28T10:36:01Z</time>
      </trkpt>
      <trkpt lat="47.16807" lon="-1.62543">
        <ele>76</ele>
        <time>2022-06-28T10:36:03Z</time>
      </trkpt>
      <trkpt lat="47.16816" lon="-1.62551">
        <ele>75</ele>
        <time>2022-06-28T10:36:05Z</time>
      </trkpt>
      <trkpt lat="47.16824" lon="-1.62559">
        <ele>76</ele>
        <time>2022-06-28T10:36:07Z</time>
      </trkpt>
      <trkpt lat="47.1683" lon="-1.62569">
        <ele>76</ele>
        <time>2022-06-28T10:36:09Z</time>
      </trkpt>
      <trkpt lat="47.16832" lon="-1.62589">
        <ele>76</ele>
        <time>2022-06-28T10:36:12Z</time>
      </trkpt>
      <trkpt lat="47.16827" lon="-1.62602">
        <ele>77</ele>
        <time>2022-06-28T10:36:15Z</time>
      </trkpt>
      <trkpt lat="47.16818" lon="-1.62615">
        <ele>77</ele>
        <time>2022-06-28T10:36:18Z</time>
      </trkpt>
      <trkpt lat="47.16812" lon="-1.62625">
        <ele>77</ele>
        <time>2022-06-28T10:36:20Z</time>
      </trkpt>
      <trkpt lat="47.16805" lon="-1.62634">
        <ele>77</ele>
        <time>2022-06-28T10:36:22Z</time>
      </trkpt>
      <trkpt lat="47.16797" lon="-1.62647">
        <ele>76</ele>
        <time>2022-06-28T10:36:25Z</time>
      </trkpt>
      <trkpt lat="47.1679" lon="-1.62657">
        <ele>76</ele>
        <time>2022-06-28T10:36:28Z</time>
      </trkpt>
      <trkpt lat="47.16781" lon="-1.62653">
        <ele>75</ele>
        <time>2022-06-28T10:37:03Z</time>
      </trkpt>
    </trkseg>
  </trk>
</gpx>